<?xml version='1.0' encoding='UTF-8'?><gpx version="1.1" creator="JPX - https://github.com/jenetics/jpx" xmlns="http://www.topografix.com/GPX/1/1"><trk><trkseg><trkpt lat="45.2356171" lon="9.0371231"><ele>66.83333333333333</ele><time>2026-04-12T07:02:15.647Z</time></trkpt><trkpt lat="45.2356861" lon="9.0370894"><ele>66.66666666666666</ele><time>2026-04-12T07:02:41.68Z</time></trkpt><trkpt lat="45.2357187" lon="9.0370006"><ele>66.5</ele><time>2026-04-12T07:02:43.676Z</time></trkpt><trkpt lat="45.2357587" lon="9.0369258"><ele>66.33333333333333</ele><time>2026-04-12T07:02:45.661Z</time></trkpt><trkpt lat="45.2358286" lon="9.0368512"><ele>66.16666666666667</ele><time>2026-04-12T07:02:48.653Z</time></trkpt><trkpt lat="45.2358979" lon="9.0367839"><ele>66.0</ele><time>2026-04-12T07:02:51.661Z</time></trkpt><trkpt lat="45.2359601" lon="9.0366944"><ele>66.16666666666667</ele><time>2026-04-12T07:02:54.658Z</time></trkpt><trkpt lat="45.2360191" lon="9.0365986"><ele>66.33333333333333</ele><time>2026-04-12T07:02:57.668Z</time></trkpt><trkpt lat="45.2360808" lon="9.0364984"><ele>66.5</ele><time>2026-04-12T07:03:00.662Z</time></trkpt><trkpt lat="45.2361271" lon="9.0364252"><ele>66.66666666666666</ele><time>2026-04-12T07:03:02.644Z</time></trkpt><trkpt lat="45.2361736" lon="9.0363593"><ele>66.83333333333333</ele><time>2026-04-12T07:03:04.658Z</time></trkpt><trkpt lat="45.2362078" lon="9.0362774"><ele>67.0</ele><time>2026-04-12T07:03:06.661Z</time></trkpt><trkpt lat="45.2362504" lon="9.0361929"><ele>67.0</ele><time>2026-04-12T07:03:08.648Z</time></trkpt><trkpt lat="45.2362933" lon="9.0361222"><ele>67.0</ele><time>2026-04-12T07:03:10.655Z</time></trkpt><trkpt lat="45.2363336" lon="9.0360516"><ele>67.0</ele><time>2026-04-12T07:03:12.647Z</time></trkpt><trkpt lat="45.2363702" lon="9.0359639"><ele>67.0</ele><time>2026-04-12T07:03:14.66Z</time></trkpt><trkpt lat="45.2364159" lon="9.035885"><ele>67.0</ele><time>2026-04-12T07:03:16.649Z</time></trkpt><trkpt lat="45.236455" lon="9.0357979"><ele>67.0</ele><time>2026-04-12T07:03:18.646Z</time></trkpt><trkpt lat="45.2364832" lon="9.0357037"><ele>67.0</ele><time>2026-04-12T07:03:20.659Z</time></trkpt><trkpt lat="45.2365078" lon="9.0356118"><ele>67.33333333333333</ele><time>2026-04-12T07:03:22.733Z</time></trkpt><trkpt lat="45.2365242" lon="9.0355055"><ele>67.66666666666666</ele><time>2026-04-12T07:03:24.65Z</time></trkpt><trkpt lat="45.2365336" lon="9.0354042"><ele>68.0</ele><time>2026-04-12T07:03:26.66Z</time></trkpt><trkpt lat="45.2365411" lon="9.0353066"><ele>68.33333333333333</ele><time>2026-04-12T07:03:28.655Z</time></trkpt><trkpt lat="45.2365525" lon="9.035175"><ele>68.66666666666667</ele><time>2026-04-12T07:03:31.645Z</time></trkpt><trkpt lat="45.2365481" lon="9.035057"><ele>69.0</ele><time>2026-04-12T07:03:34.663Z</time></trkpt><trkpt lat="45.2364775" lon="9.0349916"><ele>69.0</ele><time>2026-04-12T07:03:37.668Z</time></trkpt><trkpt lat="45.2364356" lon="9.0349201"><ele>69.0</ele><time>2026-04-12T07:03:40.647Z</time></trkpt><trkpt lat="45.2364594" lon="9.0348348"><ele>69.0</ele><time>2026-04-12T07:03:46.649Z</time></trkpt><trkpt lat="45.2365374" lon="9.0348021"><ele>69.0</ele><time>2026-04-12T07:03:50.663Z</time></trkpt><trkpt lat="45.2365923" lon="9.0347316"><ele>69.0</ele><time>2026-04-12T07:03:53.65Z</time></trkpt><trkpt lat="45.2366446" lon="9.0346421"><ele>69.0</ele><time>2026-04-12T07:03:56.646Z</time></trkpt><trkpt lat="45.2366542" lon="9.0345406"><ele>69.0</ele><time>2026-04-12T07:03:59.641Z</time></trkpt><trkpt lat="45.2366665" lon="9.0343179"><ele>69.0</ele><time>2026-04-12T07:04:01.641Z</time></trkpt><trkpt lat="45.2366873" lon="9.034205"><ele>69.0</ele><time>2026-04-12T07:04:02.657Z</time></trkpt><trkpt lat="45.235862" lon="9.0331678"><ele>67.66666666666667</ele><time>2026-04-12T07:04:08.649Z</time></trkpt><trkpt lat="45.2357521" lon="9.03333"><ele>66.33333333333334</ele><time>2026-04-12T07:04:09.64Z</time></trkpt><trkpt lat="45.2356906" lon="9.0334137"><ele>65.0</ele><time>2026-04-12T07:04:10.669Z</time></trkpt><trkpt lat="45.2364375" lon="9.0339059"><ele>66.0</ele><time>2026-04-12T07:04:11.661Z</time></trkpt><trkpt lat="45.2365342" lon="9.0339452"><ele>67.0</ele><time>2026-04-12T07:04:12.659Z</time></trkpt><trkpt lat="45.2367558" lon="9.0340468"><ele>68.0</ele><time>2026-04-12T07:04:13.671Z</time></trkpt><trkpt lat="45.2368567" lon="9.0341082"><ele>69.0</ele><time>2026-04-12T07:04:14.741Z</time></trkpt><trkpt lat="45.2369377" lon="9.0341576"><ele>69.0</ele><time>2026-04-12T07:04:15.67Z</time></trkpt><trkpt lat="45.236993" lon="9.0342018"><ele>69.0</ele><time>2026-04-12T07:04:16.657Z</time></trkpt><trkpt lat="45.2370857" lon="9.0342584"><ele>69.0</ele><time>2026-04-12T07:04:18.654Z</time></trkpt><trkpt lat="45.2371727" lon="9.0343214"><ele>69.0</ele><time>2026-04-12T07:04:20.669Z</time></trkpt><trkpt lat="45.2372466" lon="9.0343618"><ele>69.0</ele><time>2026-04-12T07:04:22.667Z</time></trkpt><trkpt lat="45.2373198" lon="9.0344037"><ele>69.0</ele><time>2026-04-12T07:04:25.669Z</time></trkpt><trkpt lat="45.237387" lon="9.0343665"><ele>69.0</ele><time>2026-04-12T07:04:43.672Z</time></trkpt><trkpt lat="45.2374583" lon="9.0343846"><ele>69.0</ele><time>2026-04-12T07:04:47.677Z</time></trkpt><trkpt lat="45.2375291" lon="9.0344188"><ele>69.0</ele><time>2026-04-12T07:04:50.654Z</time></trkpt><trkpt lat="45.2375933" lon="9.034452"><ele>69.0</ele><time>2026-04-12T07:04:52.673Z</time></trkpt><trkpt lat="45.2376583" lon="9.0344831"><ele>69.0</ele><time>2026-04-12T07:04:54.669Z</time></trkpt><trkpt lat="45.2377512" lon="9.0345113"><ele>69.0</ele><time>2026-04-12T07:04:57.655Z</time></trkpt><trkpt lat="45.2378183" lon="9.0345315"><ele>69.0</ele><time>2026-04-12T07:04:59.672Z</time></trkpt><trkpt lat="45.2378863" lon="9.0345574"><ele>69.0</ele><time>2026-04-12T07:05:01.674Z</time></trkpt><trkpt lat="45.2379484" lon="9.0345794"><ele>69.0</ele><time>2026-04-12T07:05:03.672Z</time></trkpt><trkpt lat="45.238012" lon="9.0346033"><ele>69.0</ele><time>2026-04-12T07:05:05.662Z</time></trkpt><trkpt lat="45.2380742" lon="9.0346322"><ele>69.0</ele><time>2026-04-12T07:05:07.67Z</time></trkpt><trkpt lat="45.2381354" lon="9.0346552"><ele>69.0</ele><time>2026-04-12T07:05:09.685Z</time></trkpt><trkpt lat="45.2382269" lon="9.0346747"><ele>69.0</ele><time>2026-04-12T07:05:12.674Z</time></trkpt><trkpt lat="45.2383163" lon="9.0346958"><ele>69.0</ele><time>2026-04-12T07:05:15.664Z</time></trkpt><trkpt lat="45.2383979" lon="9.0347373"><ele>69.66666666666667</ele><time>2026-04-12T07:05:18.67Z</time></trkpt><trkpt lat="45.2384643" lon="9.0347182"><ele>70.33333333333333</ele><time>2026-04-12T07:05:21.679Z</time></trkpt><trkpt lat="45.2385373" lon="9.0347544"><ele>71.0</ele><time>2026-04-12T07:05:24.685Z</time></trkpt><trkpt lat="45.2386078" lon="9.0348222"><ele>71.66666666666666</ele><time>2026-04-12T07:05:27.662Z</time></trkpt><trkpt lat="45.2386939" lon="9.0348607"><ele>72.33333333333333</ele><time>2026-04-12T07:05:30.661Z</time></trkpt><trkpt lat="45.2387751" lon="9.0348994"><ele>73.0</ele><time>2026-04-12T07:05:33.722Z</time></trkpt><trkpt lat="45.2388679" lon="9.0349161"><ele>73.0</ele><time>2026-04-12T07:05:36.652Z</time></trkpt><trkpt lat="45.2389309" lon="9.0349447"><ele>73.0</ele><time>2026-04-12T07:05:38.652Z</time></trkpt><trkpt lat="45.2390222" lon="9.0349762"><ele>73.0</ele><time>2026-04-12T07:05:41.646Z</time></trkpt><trkpt lat="45.2390874" lon="9.0349973"><ele>73.0</ele><time>2026-04-12T07:05:43.65Z</time></trkpt><trkpt lat="45.2391505" lon="9.0350191"><ele>73.0</ele><time>2026-04-12T07:05:45.655Z</time></trkpt><trkpt lat="45.2392185" lon="9.0350439"><ele>73.0</ele><time>2026-04-12T07:05:47.656Z</time></trkpt><trkpt lat="45.2392839" lon="9.0350563"><ele>73.0</ele><time>2026-04-12T07:05:49.655Z</time></trkpt><trkpt lat="45.2393564" lon="9.0350771"><ele>74.14285714285714</ele><time>2026-04-12T07:05:51.689Z</time></trkpt><trkpt lat="45.2394254" lon="9.0350908"><ele>75.28571428571429</ele><time>2026-04-12T07:05:53.655Z</time></trkpt><trkpt lat="45.2394982" lon="9.0351097"><ele>76.42857142857143</ele><time>2026-04-12T07:05:55.654Z</time></trkpt><trkpt lat="45.2395667" lon="9.0351282"><ele>77.57142857142857</ele><time>2026-04-12T07:05:57.653Z</time></trkpt><trkpt lat="45.2396339" lon="9.0351512"><ele>78.71428571428571</ele><time>2026-04-12T07:05:59.728Z</time></trkpt><trkpt lat="45.2397014" lon="9.0351789"><ele>79.85714285714286</ele><time>2026-04-12T07:06:01.681Z</time></trkpt><trkpt lat="45.2397818" lon="9.0352194"><ele>81.0</ele><time>2026-04-12T07:06:04.654Z</time></trkpt><trkpt lat="45.2398192" lon="9.0351437"><ele>81.0</ele><time>2026-04-12T07:06:07.649Z</time></trkpt><trkpt lat="45.239742" lon="9.0351033"><ele>81.0</ele><time>2026-04-12T07:06:10.658Z</time></trkpt><trkpt lat="45.2396534" lon="9.0350585"><ele>81.0</ele><time>2026-04-12T07:06:13.657Z</time></trkpt><trkpt lat="45.2395805" lon="9.0350078"><ele>81.0</ele><time>2026-04-12T07:06:16.657Z</time></trkpt><trkpt lat="45.2395209" lon="9.0349751"><ele>81.0</ele><time>2026-04-12T07:06:18.671Z</time></trkpt><trkpt lat="45.2394324" lon="9.0349235"><ele>81.0</ele><time>2026-04-12T07:06:21.654Z</time></trkpt><trkpt lat="45.2393544" lon="9.0348632"><ele>81.28571428571429</ele><time>2026-04-12T07:06:24.647Z</time></trkpt><trkpt lat="45.2392972" lon="9.0348026"><ele>81.57142857142857</ele><time>2026-04-12T07:06:26.656Z</time></trkpt><trkpt lat="45.2392509" lon="9.03474"><ele>81.85714285714286</ele><time>2026-04-12T07:06:28.656Z</time></trkpt><trkpt lat="45.2392022" lon="9.034671"><ele>82.14285714285714</ele><time>2026-04-12T07:06:30.661Z</time></trkpt><trkpt lat="45.2391546" lon="9.0346001"><ele>82.42857142857143</ele><time>2026-04-12T07:06:32.659Z</time></trkpt><trkpt lat="45.2390869" lon="9.034502"><ele>82.71428571428571</ele><time>2026-04-12T07:06:35.652Z</time></trkpt><trkpt lat="45.2390384" lon="9.0344352"><ele>83.0</ele><time>2026-04-12T07:06:37.656Z</time></trkpt><trkpt lat="45.2389821" lon="9.0343622"><ele>81.57142857142857</ele><time>2026-04-12T07:06:39.645Z</time></trkpt><trkpt lat="45.2389355" lon="9.0342966"><ele>80.14285714285715</ele><time>2026-04-12T07:06:41.645Z</time></trkpt><trkpt lat="45.2388957" lon="9.0342221"><ele>78.71428571428572</ele><time>2026-04-12T07:06:43.683Z</time></trkpt><trkpt lat="45.2388712" lon="9.0341375"><ele>77.28571428571428</ele><time>2026-04-12T07:06:45.656Z</time></trkpt><trkpt lat="45.2388644" lon="9.0340231"><ele>75.85714285714286</ele><time>2026-04-12T07:06:47.658Z</time></trkpt><trkpt lat="45.238866" lon="9.0339278"><ele>74.42857142857143</ele><time>2026-04-12T07:06:49.649Z</time></trkpt><trkpt lat="45.2388735" lon="9.0337998"><ele>73.0</ele><time>2026-04-12T07:06:52.725Z</time></trkpt><trkpt lat="45.2388852" lon="9.0337068"><ele>72.85714285714286</ele><time>2026-04-12T07:06:54.664Z</time></trkpt><trkpt lat="45.2389075" lon="9.0336081"><ele>72.71428571428572</ele><time>2026-04-12T07:06:56.658Z</time></trkpt><trkpt lat="45.2389515" lon="9.0335262"><ele>72.57142857142858</ele><time>2026-04-12T07:06:58.656Z</time></trkpt><trkpt lat="45.2390005" lon="9.0334657"><ele>72.42857142857143</ele><time>2026-04-12T07:07:00.656Z</time></trkpt><trkpt lat="45.2390511" lon="9.0334055"><ele>72.28571428571429</ele><time>2026-04-12T07:07:02.651Z</time></trkpt><trkpt lat="45.2391077" lon="9.0333056"><ele>72.14285714285715</ele><time>2026-04-12T07:07:05.726Z</time></trkpt><trkpt lat="45.2391225" lon="9.0332078"><ele>72.0</ele><time>2026-04-12T07:07:07.68Z</time></trkpt><trkpt lat="45.2391223" lon="9.0331161"><ele>72.14285714285715</ele><time>2026-04-12T07:07:09.72Z</time></trkpt><trkpt lat="45.2391037" lon="9.0329865"><ele>72.28571428571429</ele><time>2026-04-12T07:07:12.643Z</time></trkpt><trkpt lat="45.2390536" lon="9.0329192"><ele>72.42857142857143</ele><time>2026-04-12T07:07:14.661Z</time></trkpt><trkpt lat="45.2389872" lon="9.0328932"><ele>72.57142857142858</ele><time>2026-04-12T07:07:16.657Z</time></trkpt><trkpt lat="45.2389182" lon="9.0328988"><ele>72.71428571428572</ele><time>2026-04-12T07:07:18.725Z</time></trkpt><trkpt lat="45.2388533" lon="9.0329056"><ele>72.85714285714286</ele><time>2026-04-12T07:07:20.666Z</time></trkpt><trkpt lat="45.2387845" lon="9.032906"><ele>73.0</ele><time>2026-04-12T07:07:22.653Z</time></trkpt><trkpt lat="45.2387182" lon="9.0328827"><ele>73.0</ele><time>2026-04-12T07:07:24.652Z</time></trkpt><trkpt lat="45.2386694" lon="9.0328149"><ele>73.0</ele><time>2026-04-12T07:07:26.658Z</time></trkpt><trkpt lat="45.2386305" lon="9.0327226"><ele>73.0</ele><time>2026-04-12T07:07:28.652Z</time></trkpt><trkpt lat="45.2386155" lon="9.0326271"><ele>73.0</ele><time>2026-04-12T07:07:30.666Z</time></trkpt><trkpt lat="45.2385999" lon="9.0325285"><ele>73.0</ele><time>2026-04-12T07:07:32.731Z</time></trkpt><trkpt lat="45.2385924" lon="9.0324294"><ele>73.0</ele><time>2026-04-12T07:07:34.656Z</time></trkpt><trkpt lat="45.2386004" lon="9.0323238"><ele>73.0</ele><time>2026-04-12T07:07:36.655Z</time></trkpt><trkpt lat="45.2386063" lon="9.0322161"><ele>73.28571428571428</ele><time>2026-04-12T07:07:38.654Z</time></trkpt><trkpt lat="45.2386028" lon="9.0321101"><ele>73.57142857142857</ele><time>2026-04-12T07:07:40.663Z</time></trkpt><trkpt lat="45.2385989" lon="9.032018"><ele>73.85714285714286</ele><time>2026-04-12T07:07:42.651Z</time></trkpt><trkpt lat="45.238614" lon="9.0319261"><ele>74.14285714285714</ele><time>2026-04-12T07:07:44.653Z</time></trkpt><trkpt lat="45.2386425" lon="9.0318354"><ele>74.42857142857143</ele><time>2026-04-12T07:07:46.65Z</time></trkpt><trkpt lat="45.2386866" lon="9.0317464"><ele>74.71428571428571</ele><time>2026-04-12T07:07:48.654Z</time></trkpt><trkpt lat="45.2387315" lon="9.0316655"><ele>75.0</ele><time>2026-04-12T07:07:50.655Z</time></trkpt><trkpt lat="45.2387863" lon="9.0315895"><ele>75.0</ele><time>2026-04-12T07:07:52.653Z</time></trkpt><trkpt lat="45.2388377" lon="9.0315131"><ele>75.0</ele><time>2026-04-12T07:07:54.652Z</time></trkpt><trkpt lat="45.2388883" lon="9.0314273"><ele>75.0</ele><time>2026-04-12T07:07:56.652Z</time></trkpt><trkpt lat="45.2389409" lon="9.0313508"><ele>75.0</ele><time>2026-04-12T07:07:58.647Z</time></trkpt><trkpt lat="45.2389995" lon="9.0312638"><ele>75.0</ele><time>2026-04-12T07:08:00.655Z</time></trkpt><trkpt lat="45.2390565" lon="9.0311894"><ele>75.0</ele><time>2026-04-12T07:08:02.661Z</time></trkpt><trkpt lat="45.2391072" lon="9.0311143"><ele>76.14285714285714</ele><time>2026-04-12T07:08:04.654Z</time></trkpt><trkpt lat="45.239151" lon="9.0310362"><ele>77.28571428571428</ele><time>2026-04-12T07:08:06.652Z</time></trkpt><trkpt lat="45.2392054" lon="9.0309722"><ele>78.42857142857142</ele><time>2026-04-12T07:08:08.662Z</time></trkpt><trkpt lat="45.239272" lon="9.0309439"><ele>79.57142857142857</ele><time>2026-04-12T07:08:10.648Z</time></trkpt><trkpt lat="45.2393391" lon="9.0309703"><ele>80.71428571428572</ele><time>2026-04-12T07:08:12.656Z</time></trkpt><trkpt lat="45.2394018" lon="9.0310399"><ele>81.85714285714285</ele><time>2026-04-12T07:08:14.655Z</time></trkpt><trkpt lat="45.2394574" lon="9.0311073"><ele>83.0</ele><time>2026-04-12T07:08:16.659Z</time></trkpt><trkpt lat="45.2395158" lon="9.0311758"><ele>83.0</ele><time>2026-04-12T07:08:18.66Z</time></trkpt><trkpt lat="45.2395721" lon="9.031248"><ele>83.0</ele><time>2026-04-12T07:08:20.656Z</time></trkpt><trkpt lat="45.2396288" lon="9.0313187"><ele>83.0</ele><time>2026-04-12T07:08:22.659Z</time></trkpt><trkpt lat="45.2396846" lon="9.031382"><ele>83.0</ele><time>2026-04-12T07:08:24.667Z</time></trkpt><trkpt lat="45.2397457" lon="9.0314481"><ele>83.0</ele><time>2026-04-12T07:08:26.648Z</time></trkpt><trkpt lat="45.2398054" lon="9.0315101"><ele>83.0</ele><time>2026-04-12T07:08:28.652Z</time></trkpt><trkpt lat="45.2398756" lon="9.0315676"><ele>82.83333333333334</ele><time>2026-04-12T07:08:30.654Z</time></trkpt><trkpt lat="45.2399593" lon="9.031613"><ele>82.66666666666667</ele><time>2026-04-12T07:08:32.651Z</time></trkpt><trkpt lat="45.2400472" lon="9.0316434"><ele>82.5</ele><time>2026-04-12T07:08:34.664Z</time></trkpt><trkpt lat="45.2401251" lon="9.0316738"><ele>82.33333333333333</ele><time>2026-04-12T07:08:36.647Z</time></trkpt><trkpt lat="45.2402039" lon="9.0317209"><ele>82.16666666666666</ele><time>2026-04-12T07:08:39.649Z</time></trkpt><trkpt lat="45.2402245" lon="9.0316275"><ele>82.0</ele><time>2026-04-12T07:08:43.65Z</time></trkpt><trkpt lat="45.2401515" lon="9.0315497"><ele>82.0</ele><time>2026-04-12T07:08:46.657Z</time></trkpt><trkpt lat="45.2400995" lon="9.0314783"><ele>82.0</ele><time>2026-04-12T07:08:48.654Z</time></trkpt><trkpt lat="45.2400441" lon="9.0313873"><ele>82.0</ele><time>2026-04-12T07:08:50.653Z</time></trkpt><trkpt lat="45.2399898" lon="9.0312985"><ele>82.0</ele><time>2026-04-12T07:08:52.724Z</time></trkpt><trkpt lat="45.239927" lon="9.0312337"><ele>82.0</ele><time>2026-04-12T07:08:54.659Z</time></trkpt><trkpt lat="45.2398516" lon="9.0311633"><ele>82.0</ele><time>2026-04-12T07:08:56.649Z</time></trkpt><trkpt lat="45.2397708" lon="9.0310885"><ele>82.16666666666666</ele><time>2026-04-12T07:08:58.663Z</time></trkpt><trkpt lat="45.2396839" lon="9.0310176"><ele>82.33333333333333</ele><time>2026-04-12T07:09:00.649Z</time></trkpt><trkpt lat="45.2396037" lon="9.0309476"><ele>82.5</ele><time>2026-04-12T07:09:02.649Z</time></trkpt><trkpt lat="45.2395605" lon="9.0308217"><ele>82.66666666666667</ele><time>2026-04-12T07:09:04.66Z</time></trkpt><trkpt lat="45.2395516" lon="9.03073"><ele>82.83333333333334</ele><time>2026-04-12T07:09:05.662Z</time></trkpt><trkpt lat="45.2395509" lon="9.0306295"><ele>83.0</ele><time>2026-04-12T07:09:06.661Z</time></trkpt><trkpt lat="45.2395434" lon="9.0305316"><ele>82.0</ele><time>2026-04-12T07:09:07.657Z</time></trkpt><trkpt lat="45.239533" lon="9.0304369"><ele>81.0</ele><time>2026-04-12T07:09:08.654Z</time></trkpt><trkpt lat="45.2395195" lon="9.0303323"><ele>80.0</ele><time>2026-04-12T07:09:09.662Z</time></trkpt><trkpt lat="45.2395072" lon="9.0302189"><ele>79.0</ele><time>2026-04-12T07:09:10.644Z</time></trkpt><trkpt lat="45.2394923" lon="9.0301073"><ele>78.0</ele><time>2026-04-12T07:09:11.654Z</time></trkpt><trkpt lat="45.239472" lon="9.0300012"><ele>77.0</ele><time>2026-04-12T07:09:12.655Z</time></trkpt><trkpt lat="45.2394533" lon="9.0299136"><ele>76.0</ele><time>2026-04-12T07:09:13.657Z</time></trkpt><trkpt lat="45.2394403" lon="9.0298201"><ele>74.66666666666666</ele><time>2026-04-12T07:09:14.652Z</time></trkpt><trkpt lat="45.2394259" lon="9.0296727"><ele>73.33333333333333</ele><time>2026-04-12T07:09:16.643Z</time></trkpt><trkpt lat="45.2393923" lon="9.0295301"><ele>72.0</ele><time>2026-04-12T07:09:18.648Z</time></trkpt><trkpt lat="45.2393669" lon="9.0294088"><ele>70.66666666666667</ele><time>2026-04-12T07:09:20.653Z</time></trkpt><trkpt lat="45.2393641" lon="9.0292929"><ele>69.33333333333334</ele><time>2026-04-12T07:09:22.648Z</time></trkpt><trkpt lat="45.2393893" lon="9.029207"><ele>68.0</ele><time>2026-04-12T07:09:24.651Z</time></trkpt><trkpt lat="45.239409" lon="9.0290957"><ele>67.71428571428571</ele><time>2026-04-12T07:09:26.671Z</time></trkpt><trkpt lat="45.2394173" lon="9.0289724"><ele>67.42857142857143</ele><time>2026-04-12T07:09:28.655Z</time></trkpt><trkpt lat="45.239442" lon="9.0288735"><ele>67.14285714285714</ele><time>2026-04-12T07:09:30.647Z</time></trkpt><trkpt lat="45.2394835" lon="9.0288029"><ele>66.85714285714286</ele><time>2026-04-12T07:09:32.651Z</time></trkpt><trkpt lat="45.2395317" lon="9.028736"><ele>66.57142857142857</ele><time>2026-04-12T07:09:34.655Z</time></trkpt><trkpt lat="45.2395779" lon="9.0286684"><ele>66.28571428571428</ele><time>2026-04-12T07:09:36.657Z</time></trkpt><trkpt lat="45.2396356" lon="9.0285878"><ele>66.0</ele><time>2026-04-12T07:09:38.638Z</time></trkpt><trkpt lat="45.2396889" lon="9.0285201"><ele>66.0</ele><time>2026-04-12T07:09:40.648Z</time></trkpt><trkpt lat="45.2397467" lon="9.02845"><ele>66.0</ele><time>2026-04-12T07:09:42.656Z</time></trkpt><trkpt lat="45.2397991" lon="9.0283806"><ele>66.0</ele><time>2026-04-12T07:09:44.657Z</time></trkpt><trkpt lat="45.2398489" lon="9.0283069"><ele>66.0</ele><time>2026-04-12T07:09:46.661Z</time></trkpt><trkpt lat="45.2399021" lon="9.0282373"><ele>66.0</ele><time>2026-04-12T07:09:48.651Z</time></trkpt><trkpt lat="45.2399452" lon="9.0281628"><ele>66.0</ele><time>2026-04-12T07:09:50.653Z</time></trkpt><trkpt lat="45.2399928" lon="9.0280916"><ele>66.0</ele><time>2026-04-12T07:09:52.661Z</time></trkpt><trkpt lat="45.2400445" lon="9.0280136"><ele>66.0</ele><time>2026-04-12T07:09:54.654Z</time></trkpt><trkpt lat="45.2400909" lon="9.0279352"><ele>66.0</ele><time>2026-04-12T07:09:56.66Z</time></trkpt><trkpt lat="45.240124" lon="9.0278553"><ele>66.0</ele><time>2026-04-12T07:09:58.657Z</time></trkpt><trkpt lat="45.2401678" lon="9.0277379"><ele>66.0</ele><time>2026-04-12T07:10:01.65Z</time></trkpt><trkpt lat="45.2401982" lon="9.0276576"><ele>66.0</ele><time>2026-04-12T07:10:03.649Z</time></trkpt><trkpt lat="45.2402354" lon="9.0275775"><ele>66.0</ele><time>2026-04-12T07:10:05.656Z</time></trkpt><trkpt lat="45.2402684" lon="9.0274907"><ele>66.0</ele><time>2026-04-12T07:10:07.653Z</time></trkpt><trkpt lat="45.240296" lon="9.0274033"><ele>66.0</ele><time>2026-04-12T07:10:09.66Z</time></trkpt><trkpt lat="45.2403617" lon="9.0273164"><ele>66.0</ele><time>2026-04-12T07:10:12.656Z</time></trkpt><trkpt lat="45.240449" lon="9.0273255"><ele>66.0</ele><time>2026-04-12T07:10:15.656Z</time></trkpt><trkpt lat="45.2405054" lon="9.0273714"><ele>66.0</ele><time>2026-04-12T07:10:17.652Z</time></trkpt><trkpt lat="45.2405621" lon="9.0274321"><ele>66.0</ele><time>2026-04-12T07:10:19.653Z</time></trkpt><trkpt lat="45.2406164" lon="9.0274972"><ele>66.0</ele><time>2026-04-12T07:10:21.66Z</time></trkpt><trkpt lat="45.2406756" lon="9.027566"><ele>66.0</ele><time>2026-04-12T07:10:23.658Z</time></trkpt><trkpt lat="45.2407276" lon="9.027624"><ele>66.0</ele><time>2026-04-12T07:10:25.659Z</time></trkpt><trkpt lat="45.2407931" lon="9.0276827"><ele>66.0</ele><time>2026-04-12T07:10:27.729Z</time></trkpt><trkpt lat="45.2408478" lon="9.027749"><ele>66.0</ele><time>2026-04-12T07:10:29.804Z</time></trkpt><trkpt lat="45.2409114" lon="9.0278134"><ele>66.0</ele><time>2026-04-12T07:10:31.669Z</time></trkpt><trkpt lat="45.2409725" lon="9.0278739"><ele>66.0</ele><time>2026-04-12T07:10:33.674Z</time></trkpt><trkpt lat="45.241035" lon="9.0279425"><ele>66.0</ele><time>2026-04-12T07:10:35.667Z</time></trkpt><trkpt lat="45.2410941" lon="9.028007"><ele>66.0</ele><time>2026-04-12T07:10:37.656Z</time></trkpt><trkpt lat="45.2411459" lon="9.0280687"><ele>66.0</ele><time>2026-04-12T07:10:39.653Z</time></trkpt><trkpt lat="45.2411953" lon="9.0281374"><ele>66.0</ele><time>2026-04-12T07:10:41.655Z</time></trkpt><trkpt lat="45.241255" lon="9.0282044"><ele>66.0</ele><time>2026-04-12T07:10:43.657Z</time></trkpt><trkpt lat="45.241311" lon="9.0282616"><ele>66.0</ele><time>2026-04-12T07:10:45.681Z</time></trkpt><trkpt lat="45.2413684" lon="9.0283296"><ele>66.0</ele><time>2026-04-12T07:10:47.661Z</time></trkpt><trkpt lat="45.241427" lon="9.0283892"><ele>66.0</ele><time>2026-04-12T07:10:49.657Z</time></trkpt><trkpt lat="45.2414816" lon="9.0284473"><ele>66.66666666666667</ele><time>2026-04-12T07:10:51.649Z</time></trkpt><trkpt lat="45.2415352" lon="9.0285103"><ele>67.33333333333333</ele><time>2026-04-12T07:10:53.66Z</time></trkpt><trkpt lat="45.2415931" lon="9.0285789"><ele>68.0</ele><time>2026-04-12T07:10:55.66Z</time></trkpt><trkpt lat="45.2416558" lon="9.028652"><ele>68.66666666666666</ele><time>2026-04-12T07:10:57.667Z</time></trkpt><trkpt lat="45.2417071" lon="9.028728"><ele>69.33333333333333</ele><time>2026-04-12T07:10:59.659Z</time></trkpt><trkpt lat="45.2417607" lon="9.0288097"><ele>70.0</ele><time>2026-04-12T07:11:01.659Z</time></trkpt><trkpt lat="45.2418207" lon="9.0288903"><ele>70.0</ele><time>2026-04-12T07:11:03.648Z</time></trkpt><trkpt lat="45.2418843" lon="9.0289664"><ele>70.0</ele><time>2026-04-12T07:11:05.655Z</time></trkpt><trkpt lat="45.2419392" lon="9.0290343"><ele>70.0</ele><time>2026-04-12T07:11:07.65Z</time></trkpt><trkpt lat="45.2419992" lon="9.0291076"><ele>70.0</ele><time>2026-04-12T07:11:09.654Z</time></trkpt><trkpt lat="45.2420631" lon="9.0291806"><ele>70.0</ele><time>2026-04-12T07:11:11.651Z</time></trkpt><trkpt lat="45.2421223" lon="9.0292347"><ele>70.0</ele><time>2026-04-12T07:11:13.647Z</time></trkpt><trkpt lat="45.2421782" lon="9.0293043"><ele>70.33333333333333</ele><time>2026-04-12T07:11:15.656Z</time></trkpt><trkpt lat="45.242237" lon="9.0293874"><ele>70.66666666666666</ele><time>2026-04-12T07:11:17.648Z</time></trkpt><trkpt lat="45.2422871" lon="9.0294594"><ele>71.0</ele><time>2026-04-12T07:11:19.65Z</time></trkpt><trkpt lat="45.2423379" lon="9.0295237"><ele>71.33333333333333</ele><time>2026-04-12T07:11:21.655Z</time></trkpt><trkpt lat="45.2423903" lon="9.0295838"><ele>71.66666666666667</ele><time>2026-04-12T07:11:23.658Z</time></trkpt><trkpt lat="45.2424815" lon="9.0295717"><ele>72.0</ele><time>2026-04-12T07:11:26.659Z</time></trkpt><trkpt lat="45.2425407" lon="9.0295133"><ele>72.71428571428572</ele><time>2026-04-12T07:11:28.652Z</time></trkpt><trkpt lat="45.2426009" lon="9.0294654"><ele>73.42857142857143</ele><time>2026-04-12T07:11:30.658Z</time></trkpt><trkpt lat="45.2426592" lon="9.0294158"><ele>74.14285714285714</ele><time>2026-04-12T07:11:32.653Z</time></trkpt><trkpt lat="45.2427167" lon="9.0293484"><ele>74.85714285714286</ele><time>2026-04-12T07:11:34.653Z</time></trkpt><trkpt lat="45.2427777" lon="9.0292817"><ele>75.57142857142857</ele><time>2026-04-12T07:11:36.725Z</time></trkpt><trkpt lat="45.2428373" lon="9.0292324"><ele>76.28571428571429</ele><time>2026-04-12T07:11:38.65Z</time></trkpt><trkpt lat="45.2429064" lon="9.0291723"><ele>77.0</ele><time>2026-04-12T07:11:40.647Z</time></trkpt><trkpt lat="45.2429288" lon="9.0290744"><ele>77.0</ele><time>2026-04-12T07:11:42.653Z</time></trkpt><trkpt lat="45.242921" lon="9.0289643"><ele>77.0</ele><time>2026-04-12T07:11:44.641Z</time></trkpt><trkpt lat="45.2429101" lon="9.0288573"><ele>77.0</ele><time>2026-04-12T07:11:46.653Z</time></trkpt><trkpt lat="45.2429001" lon="9.0287587"><ele>77.0</ele><time>2026-04-12T07:11:48.655Z</time></trkpt><trkpt lat="45.2428974" lon="9.028644"><ele>77.0</ele><time>2026-04-12T07:11:50.657Z</time></trkpt><trkpt lat="45.2429094" lon="9.0285484"><ele>77.0</ele><time>2026-04-12T07:11:52.657Z</time></trkpt><trkpt lat="45.2429315" lon="9.0284466"><ele>77.0</ele><time>2026-04-12T07:11:54.652Z</time></trkpt><trkpt lat="45.2429687" lon="9.0283616"><ele>76.66666666666667</ele><time>2026-04-12T07:11:56.645Z</time></trkpt><trkpt lat="45.2430155" lon="9.028268"><ele>76.33333333333334</ele><time>2026-04-12T07:11:58.657Z</time></trkpt><trkpt lat="45.2430664" lon="9.028187"><ele>76.0</ele><time>2026-04-12T07:12:00.654Z</time></trkpt><trkpt lat="45.2431196" lon="9.0281157"><ele>75.66666666666667</ele><time>2026-04-12T07:12:02.659Z</time></trkpt><trkpt lat="45.2431667" lon="9.0280307"><ele>75.33333333333333</ele><time>2026-04-12T07:12:04.657Z</time></trkpt><trkpt lat="45.2432166" lon="9.0279554"><ele>75.0</ele><time>2026-04-12T07:12:06.654Z</time></trkpt><trkpt lat="45.2432691" lon="9.0278733"><ele>75.71428571428571</ele><time>2026-04-12T07:12:08.65Z</time></trkpt><trkpt lat="45.2433261" lon="9.0278019"><ele>76.42857142857143</ele><time>2026-04-12T07:12:10.651Z</time></trkpt><trkpt lat="45.2433802" lon="9.0277197"><ele>77.14285714285714</ele><time>2026-04-12T07:12:12.654Z</time></trkpt><trkpt lat="45.2434295" lon="9.0276505"><ele>77.85714285714286</ele><time>2026-04-12T07:12:14.649Z</time></trkpt><trkpt lat="45.2434849" lon="9.0275762"><ele>78.57142857142857</ele><time>2026-04-12T07:12:16.657Z</time></trkpt><trkpt lat="45.243545" lon="9.0275125"><ele>79.28571428571428</ele><time>2026-04-12T07:12:18.646Z</time></trkpt><trkpt lat="45.2436179" lon="9.0275102"><ele>80.0</ele><time>2026-04-12T07:12:20.652Z</time></trkpt><trkpt lat="45.2436931" lon="9.0275479"><ele>80.0</ele><time>2026-04-12T07:12:22.651Z</time></trkpt><trkpt lat="45.2437599" lon="9.0275843"><ele>80.0</ele><time>2026-04-12T07:12:24.648Z</time></trkpt><trkpt lat="45.2438282" lon="9.0276371"><ele>80.0</ele><time>2026-04-12T07:12:26.649Z</time></trkpt><trkpt lat="45.2438913" lon="9.0276997"><ele>80.0</ele><time>2026-04-12T07:12:28.657Z</time></trkpt><trkpt lat="45.2439483" lon="9.027768"><ele>80.0</ele><time>2026-04-12T07:12:30.648Z</time></trkpt><trkpt lat="45.2440094" lon="9.027832"><ele>80.0</ele><time>2026-04-12T07:12:32.65Z</time></trkpt><trkpt lat="45.2440648" lon="9.0278928"><ele>80.0</ele><time>2026-04-12T07:12:34.654Z</time></trkpt><trkpt lat="45.2441247" lon="9.0279483"><ele>80.0</ele><time>2026-04-12T07:12:36.653Z</time></trkpt><trkpt lat="45.2441843" lon="9.0280011"><ele>80.0</ele><time>2026-04-12T07:12:38.643Z</time></trkpt><trkpt lat="45.2442399" lon="9.0280596"><ele>80.0</ele><time>2026-04-12T07:12:40.652Z</time></trkpt><trkpt lat="45.2443029" lon="9.0281179"><ele>80.0</ele><time>2026-04-12T07:12:42.649Z</time></trkpt><trkpt lat="45.244364" lon="9.0281733"><ele>80.0</ele><time>2026-04-12T07:12:44.65Z</time></trkpt><trkpt lat="45.2444274" lon="9.0282182"><ele>80.0</ele><time>2026-04-12T07:12:46.656Z</time></trkpt><trkpt lat="45.2444895" lon="9.0282645"><ele>80.0</ele><time>2026-04-12T07:12:48.65Z</time></trkpt><trkpt lat="45.2445495" lon="9.0283165"><ele>80.0</ele><time>2026-04-12T07:12:50.656Z</time></trkpt><trkpt lat="45.2446107" lon="9.0283672"><ele>80.0</ele><time>2026-04-12T07:12:52.652Z</time></trkpt><trkpt lat="45.2446703" lon="9.0284103"><ele>80.0</ele><time>2026-04-12T07:12:54.65Z</time></trkpt><trkpt lat="45.2447325" lon="9.0284597"><ele>80.0</ele><time>2026-04-12T07:12:56.715Z</time></trkpt><trkpt lat="45.2447934" lon="9.0285161"><ele>80.0</ele><time>2026-04-12T07:12:58.657Z</time></trkpt><trkpt lat="45.2448541" lon="9.0285746"><ele>80.0</ele><time>2026-04-12T07:13:00.652Z</time></trkpt><trkpt lat="45.2449244" lon="9.0286312"><ele>80.0</ele><time>2026-04-12T07:13:02.653Z</time></trkpt><trkpt lat="45.244985" lon="9.028694"><ele>80.16666666666667</ele><time>2026-04-12T07:13:04.645Z</time></trkpt><trkpt lat="45.2450506" lon="9.0287501"><ele>80.33333333333334</ele><time>2026-04-12T07:13:06.652Z</time></trkpt><trkpt lat="45.2451143" lon="9.0288044"><ele>80.5</ele><time>2026-04-12T07:13:08.653Z</time></trkpt><trkpt lat="45.2451826" lon="9.0288682"><ele>80.66666666666667</ele><time>2026-04-12T07:13:10.655Z</time></trkpt><trkpt lat="45.2452485" lon="9.0289165"><ele>80.83333333333333</ele><time>2026-04-12T07:13:12.655Z</time></trkpt><trkpt lat="45.2453102" lon="9.0289714"><ele>81.0</ele><time>2026-04-12T07:13:14.66Z</time></trkpt><trkpt lat="45.2453756" lon="9.0290394"><ele>81.0</ele><time>2026-04-12T07:13:16.645Z</time></trkpt><trkpt lat="45.2454406" lon="9.0290989"><ele>81.0</ele><time>2026-04-12T07:13:18.653Z</time></trkpt><trkpt lat="45.2455105" lon="9.0291547"><ele>81.0</ele><time>2026-04-12T07:13:20.718Z</time></trkpt><trkpt lat="45.2455789" lon="9.0292044"><ele>81.0</ele><time>2026-04-12T07:13:22.663Z</time></trkpt><trkpt lat="45.2456505" lon="9.0292585"><ele>81.0</ele><time>2026-04-12T07:13:24.656Z</time></trkpt><trkpt lat="45.2457118" lon="9.0293116"><ele>81.0</ele><time>2026-04-12T07:13:26.652Z</time></trkpt><trkpt lat="45.2457737" lon="9.0293658"><ele>81.42857142857143</ele><time>2026-04-12T07:13:28.66Z</time></trkpt><trkpt lat="45.245828" lon="9.0294111"><ele>81.85714285714286</ele><time>2026-04-12T07:13:30.662Z</time></trkpt><trkpt lat="45.2458929" lon="9.0294735"><ele>82.28571428571428</ele><time>2026-04-12T07:13:33.652Z</time></trkpt><trkpt lat="45.2459688" lon="9.0294707"><ele>82.71428571428572</ele><time>2026-04-12T07:13:36.722Z</time></trkpt><trkpt lat="45.2460164" lon="9.0294094"><ele>83.14285714285714</ele><time>2026-04-12T07:13:38.656Z</time></trkpt><trkpt lat="45.2460525" lon="9.0293357"><ele>83.57142857142857</ele><time>2026-04-12T07:13:40.659Z</time></trkpt><trkpt lat="45.246085" lon="9.0292475"><ele>84.0</ele><time>2026-04-12T07:13:42.653Z</time></trkpt><trkpt lat="45.2461166" lon="9.0291561"><ele>84.0</ele><time>2026-04-12T07:13:44.65Z</time></trkpt><trkpt lat="45.2461559" lon="9.0290606"><ele>84.0</ele><time>2026-04-12T07:13:46.66Z</time></trkpt><trkpt lat="45.246181" lon="9.0289638"><ele>84.0</ele><time>2026-04-12T07:13:48.653Z</time></trkpt><trkpt lat="45.2461993" lon="9.0288707"><ele>84.0</ele><time>2026-04-12T07:13:50.65Z</time></trkpt><trkpt lat="45.246226" lon="9.028783"><ele>84.0</ele><time>2026-04-12T07:13:52.653Z</time></trkpt><trkpt lat="45.2462501" lon="9.0286942"><ele>84.0</ele><time>2026-04-12T07:13:54.653Z</time></trkpt><trkpt lat="45.2462798" lon="9.0286073"><ele>84.0</ele><time>2026-04-12T07:13:56.656Z</time></trkpt><trkpt lat="45.2463014" lon="9.0285139"><ele>84.0</ele><time>2026-04-12T07:13:58.655Z</time></trkpt><trkpt lat="45.2463203" lon="9.0284202"><ele>84.0</ele><time>2026-04-12T07:14:00.656Z</time></trkpt><trkpt lat="45.2463543" lon="9.0283189"><ele>84.0</ele><time>2026-04-12T07:14:02.652Z</time></trkpt><trkpt lat="45.2463851" lon="9.0282126"><ele>84.0</ele><time>2026-04-12T07:14:04.643Z</time></trkpt><trkpt lat="45.246413" lon="9.0281132"><ele>84.0</ele><time>2026-04-12T07:14:06.656Z</time></trkpt><trkpt lat="45.2464375" lon="9.0280163"><ele>84.0</ele><time>2026-04-12T07:14:08.656Z</time></trkpt><trkpt lat="45.246457" lon="9.0279038"><ele>84.5</ele><time>2026-04-12T07:14:10.642Z</time></trkpt><trkpt lat="45.2464797" lon="9.0277981"><ele>85.0</ele><time>2026-04-12T07:14:12.654Z</time></trkpt><trkpt lat="45.2465003" lon="9.0276888"><ele>85.5</ele><time>2026-04-12T07:14:14.718Z</time></trkpt><trkpt lat="45.2465192" lon="9.0275852"><ele>86.0</ele><time>2026-04-12T07:14:16.652Z</time></trkpt><trkpt lat="45.2465364" lon="9.0274835"><ele>86.5</ele><time>2026-04-12T07:14:18.656Z</time></trkpt><trkpt lat="45.2465551" lon="9.027373"><ele>87.0</ele><time>2026-04-12T07:14:20.666Z</time></trkpt><trkpt lat="45.2465736" lon="9.0272746"><ele>87.0</ele><time>2026-04-12T07:14:22.662Z</time></trkpt><trkpt lat="45.2465885" lon="9.0271709"><ele>87.0</ele><time>2026-04-12T07:14:24.653Z</time></trkpt><trkpt lat="45.2466108" lon="9.0270494"><ele>87.0</ele><time>2026-04-12T07:14:26.65Z</time></trkpt><trkpt lat="45.2466286" lon="9.0269249"><ele>87.0</ele><time>2026-04-12T07:14:28.645Z</time></trkpt><trkpt lat="45.2466642" lon="9.0267663"><ele>87.0</ele><time>2026-04-12T07:14:31.655Z</time></trkpt><trkpt lat="45.2466932" lon="9.0266609"><ele>87.0</ele><time>2026-04-12T07:14:33.657Z</time></trkpt><trkpt lat="45.2467181" lon="9.0265714"><ele>86.5</ele><time>2026-04-12T07:14:35.653Z</time></trkpt><trkpt lat="45.2467482" lon="9.0264872"><ele>86.0</ele><time>2026-04-12T07:14:37.653Z</time></trkpt><trkpt lat="45.2468067" lon="9.0264187"><ele>85.5</ele><time>2026-04-12T07:14:39.697Z</time></trkpt><trkpt lat="45.2468838" lon="9.0263756"><ele>85.0</ele><time>2026-04-12T07:14:41.679Z</time></trkpt><trkpt lat="45.2469685" lon="9.0263933"><ele>84.5</ele><time>2026-04-12T07:14:43.671Z</time></trkpt><trkpt lat="45.2470382" lon="9.0264331"><ele>84.0</ele><time>2026-04-12T07:14:45.675Z</time></trkpt><trkpt lat="45.247111" lon="9.0264829"><ele>84.0</ele><time>2026-04-12T07:14:47.669Z</time></trkpt><trkpt lat="45.2471834" lon="9.0265258"><ele>84.0</ele><time>2026-04-12T07:14:49.678Z</time></trkpt><trkpt lat="45.2472544" lon="9.0265735"><ele>84.0</ele><time>2026-04-12T07:14:51.662Z</time></trkpt><trkpt lat="45.2473195" lon="9.0266208"><ele>84.0</ele><time>2026-04-12T07:14:53.652Z</time></trkpt><trkpt lat="45.2473892" lon="9.0266631"><ele>84.0</ele><time>2026-04-12T07:14:55.655Z</time></trkpt><trkpt lat="45.2474509" lon="9.0267059"><ele>84.0</ele><time>2026-04-12T07:14:57.656Z</time></trkpt><trkpt lat="45.247516" lon="9.0267546"><ele>84.0</ele><time>2026-04-12T07:14:59.653Z</time></trkpt><trkpt lat="45.2475842" lon="9.0268045"><ele>84.66666666666667</ele><time>2026-04-12T07:15:01.65Z</time></trkpt><trkpt lat="45.2476461" lon="9.0268594"><ele>85.33333333333333</ele><time>2026-04-12T07:15:03.678Z</time></trkpt><trkpt lat="45.2477032" lon="9.0269242"><ele>86.0</ele><time>2026-04-12T07:15:05.652Z</time></trkpt><trkpt lat="45.2477665" lon="9.0269834"><ele>86.66666666666666</ele><time>2026-04-12T07:15:07.716Z</time></trkpt><trkpt lat="45.2478301" lon="9.0270455"><ele>87.33333333333333</ele><time>2026-04-12T07:15:09.652Z</time></trkpt><trkpt lat="45.2478939" lon="9.0271043"><ele>88.0</ele><time>2026-04-12T07:15:11.653Z</time></trkpt><trkpt lat="45.2479637" lon="9.027164"><ele>88.0</ele><time>2026-04-12T07:15:13.656Z</time></trkpt><trkpt lat="45.2480323" lon="9.0272174"><ele>88.0</ele><time>2026-04-12T07:15:15.659Z</time></trkpt><trkpt lat="45.2481042" lon="9.027266"><ele>88.0</ele><time>2026-04-12T07:15:17.654Z</time></trkpt><trkpt lat="45.2481692" lon="9.0273193"><ele>88.0</ele><time>2026-04-12T07:15:19.657Z</time></trkpt><trkpt lat="45.2482382" lon="9.0273731"><ele>88.0</ele><time>2026-04-12T07:15:21.652Z</time></trkpt><trkpt lat="45.2483046" lon="9.0274343"><ele>88.0</ele><time>2026-04-12T07:15:23.648Z</time></trkpt><trkpt lat="45.2483726" lon="9.0274993"><ele>88.16666666666666</ele><time>2026-04-12T07:15:25.653Z</time></trkpt><trkpt lat="45.248436" lon="9.0275545"><ele>88.33333333333333</ele><time>2026-04-12T07:15:27.65Z</time></trkpt><trkpt lat="45.2485097" lon="9.0275957"><ele>88.5</ele><time>2026-04-12T07:15:29.659Z</time></trkpt><trkpt lat="45.2485799" lon="9.0276495"><ele>88.66666666666667</ele><time>2026-04-12T07:15:31.644Z</time></trkpt><trkpt lat="45.2486556" lon="9.02769"><ele>88.83333333333334</ele><time>2026-04-12T07:15:33.651Z</time></trkpt><trkpt lat="45.2487239" lon="9.0277162"><ele>89.0</ele><time>2026-04-12T07:15:35.662Z</time></trkpt><trkpt lat="45.2488038" lon="9.027734"><ele>88.99999999999999</ele><time>2026-04-12T07:15:37.669Z</time></trkpt><trkpt lat="45.2488787" lon="9.0277566"><ele>89.0</ele><time>2026-04-12T07:15:39.655Z</time></trkpt><trkpt lat="45.248954" lon="9.027768"><ele>89.0</ele><time>2026-04-12T07:15:41.648Z</time></trkpt><trkpt lat="45.2490318" lon="9.0277815"><ele>89.0</ele><time>2026-04-12T07:15:43.654Z</time></trkpt><trkpt lat="45.249102" lon="9.0277921"><ele>89.0</ele><time>2026-04-12T07:15:45.723Z</time></trkpt><trkpt lat="45.2491696" lon="9.0277944"><ele>88.99999999999999</ele><time>2026-04-12T07:15:47.651Z</time></trkpt><trkpt lat="45.2492399" lon="9.0277948"><ele>89.0</ele><time>2026-04-12T07:15:49.66Z</time></trkpt><trkpt lat="45.2493356" lon="9.027785"><ele>88.83333333333334</ele><time>2026-04-12T07:15:52.648Z</time></trkpt><trkpt lat="45.2494251" lon="9.0277799"><ele>88.66666666666667</ele><time>2026-04-12T07:15:55.657Z</time></trkpt><trkpt lat="45.2494715" lon="9.0278757"><ele>88.5</ele><time>2026-04-12T07:15:58.653Z</time></trkpt><trkpt lat="45.2494483" lon="9.0279663"><ele>88.33333333333333</ele><time>2026-04-12T07:16:00.654Z</time></trkpt><trkpt lat="45.2493994" lon="9.028054"><ele>88.16666666666666</ele><time>2026-04-12T07:16:02.648Z</time></trkpt><trkpt lat="45.249363" lon="9.0281441"><ele>88.0</ele><time>2026-04-12T07:16:04.648Z</time></trkpt><trkpt lat="45.2493196" lon="9.0282366"><ele>88.33333333333333</ele><time>2026-04-12T07:16:06.656Z</time></trkpt><trkpt lat="45.2492702" lon="9.0283397"><ele>88.66666666666666</ele><time>2026-04-12T07:16:09.661Z</time></trkpt><trkpt lat="45.2492319" lon="9.0284364"><ele>89.0</ele><time>2026-04-12T07:16:12.727Z</time></trkpt><trkpt lat="45.2491917" lon="9.028556"><ele>89.33333333333333</ele><time>2026-04-12T07:16:15.657Z</time></trkpt><trkpt lat="45.2491579" lon="9.0286436"><ele>89.66666666666667</ele><time>2026-04-12T07:16:17.656Z</time></trkpt><trkpt lat="45.249118" lon="9.0287316"><ele>90.0</ele><time>2026-04-12T07:16:19.679Z</time></trkpt><trkpt lat="45.2490885" lon="9.0288208"><ele>90.0</ele><time>2026-04-12T07:16:21.65Z</time></trkpt><trkpt lat="45.2490601" lon="9.0289066"><ele>90.0</ele><time>2026-04-12T07:16:23.718Z</time></trkpt><trkpt lat="45.2490331" lon="9.0290026"><ele>90.0</ele><time>2026-04-12T07:16:25.79Z</time></trkpt><trkpt lat="45.2490049" lon="9.029095"><ele>90.0</ele><time>2026-04-12T07:16:27.655Z</time></trkpt><trkpt lat="45.2489755" lon="9.0291897"><ele>90.0</ele><time>2026-04-12T07:16:29.659Z</time></trkpt><trkpt lat="45.2489474" lon="9.0292811"><ele>90.0</ele><time>2026-04-12T07:16:31.648Z</time></trkpt><trkpt lat="45.2489181" lon="9.0293664"><ele>90.0</ele><time>2026-04-12T07:16:33.65Z</time></trkpt><trkpt lat="45.2488873" lon="9.0294714"><ele>90.0</ele><time>2026-04-12T07:16:36.65Z</time></trkpt><trkpt lat="45.2488505" lon="9.029574"><ele>90.0</ele><time>2026-04-12T07:16:39.655Z</time></trkpt><trkpt lat="45.2488238" lon="9.0296582"><ele>90.0</ele><time>2026-04-12T07:16:41.653Z</time></trkpt><trkpt lat="45.2487836" lon="9.0297525"><ele>90.0</ele><time>2026-04-12T07:16:43.656Z</time></trkpt><trkpt lat="45.2487484" lon="9.0298413"><ele>90.0</ele><time>2026-04-12T07:16:45.65Z</time></trkpt><trkpt lat="45.2487142" lon="9.0299348"><ele>90.0</ele><time>2026-04-12T07:16:47.646Z</time></trkpt><trkpt lat="45.2486822" lon="9.0300265"><ele>90.0</ele><time>2026-04-12T07:16:49.706Z</time></trkpt><trkpt lat="45.2486461" lon="9.0301126"><ele>90.0</ele><time>2026-04-12T07:16:51.672Z</time></trkpt><trkpt lat="45.2486169" lon="9.030202"><ele>90.0</ele><time>2026-04-12T07:16:53.657Z</time></trkpt><trkpt lat="45.2485867" lon="9.0302989"><ele>90.0</ele><time>2026-04-12T07:16:55.639Z</time></trkpt><trkpt lat="45.248549" lon="9.030386"><ele>90.0</ele><time>2026-04-12T07:16:57.647Z</time></trkpt><trkpt lat="45.2485187" lon="9.0304759"><ele>90.0</ele><time>2026-04-12T07:16:59.645Z</time></trkpt><trkpt lat="45.248478" lon="9.030567"><ele>90.0</ele><time>2026-04-12T07:17:01.655Z</time></trkpt><trkpt lat="45.2484343" lon="9.0306502"><ele>90.0</ele><time>2026-04-12T07:17:03.662Z</time></trkpt><trkpt lat="45.2483917" lon="9.0307284"><ele>89.83333333333333</ele><time>2026-04-12T07:17:05.721Z</time></trkpt><trkpt lat="45.2483339" lon="9.0308099"><ele>89.66666666666667</ele><time>2026-04-12T07:17:07.655Z</time></trkpt><trkpt lat="45.248293" lon="9.0309022"><ele>89.5</ele><time>2026-04-12T07:17:09.658Z</time></trkpt><trkpt lat="45.2482521" lon="9.0309957"><ele>89.33333333333334</ele><time>2026-04-12T07:17:11.654Z</time></trkpt><trkpt lat="45.2482178" lon="9.0310813"><ele>89.16666666666667</ele><time>2026-04-12T07:17:13.644Z</time></trkpt><trkpt lat="45.2481832" lon="9.0311867"><ele>89.0</ele><time>2026-04-12T07:17:16.657Z</time></trkpt><trkpt lat="45.2481536" lon="9.0312707"><ele>88.85714285714285</ele><time>2026-04-12T07:17:18.652Z</time></trkpt><trkpt lat="45.2481232" lon="9.0313718"><ele>88.71428571428571</ele><time>2026-04-12T07:17:20.651Z</time></trkpt><trkpt lat="45.2480972" lon="9.0314588"><ele>88.57142857142857</ele><time>2026-04-12T07:17:22.648Z</time></trkpt><trkpt lat="45.2480632" lon="9.031545"><ele>88.42857142857142</ele><time>2026-04-12T07:17:24.652Z</time></trkpt><trkpt lat="45.2480289" lon="9.031633"><ele>88.28571428571428</ele><time>2026-04-12T07:17:26.659Z</time></trkpt><trkpt lat="45.247983" lon="9.03172"><ele>88.14285714285714</ele><time>2026-04-12T07:17:28.657Z</time></trkpt><trkpt lat="45.2479499" lon="9.03181"><ele>88.0</ele><time>2026-04-12T07:17:30.688Z</time></trkpt><trkpt lat="45.2479166" lon="9.031896"><ele>88.0</ele><time>2026-04-12T07:17:32.659Z</time></trkpt><trkpt lat="45.247877" lon="9.0319796"><ele>88.0</ele><time>2026-04-12T07:17:34.649Z</time></trkpt><trkpt lat="45.2478358" lon="9.0320735"><ele>88.0</ele><time>2026-04-12T07:17:36.653Z</time></trkpt><trkpt lat="45.2477969" lon="9.0321684"><ele>88.0</ele><time>2026-04-12T07:17:38.644Z</time></trkpt><trkpt lat="45.247767" lon="9.0322524"><ele>88.0</ele><time>2026-04-12T07:17:40.653Z</time></trkpt><trkpt lat="45.2477331" lon="9.0323425"><ele>88.0</ele><time>2026-04-12T07:17:42.649Z</time></trkpt><trkpt lat="45.2476928" lon="9.0324354"><ele>88.0</ele><time>2026-04-12T07:17:44.65Z</time></trkpt><trkpt lat="45.2476607" lon="9.0325344"><ele>88.14285714285714</ele><time>2026-04-12T07:17:46.656Z</time></trkpt><trkpt lat="45.2476258" lon="9.0326251"><ele>88.28571428571428</ele><time>2026-04-12T07:17:48.648Z</time></trkpt><trkpt lat="45.2475985" lon="9.0327066"><ele>88.42857142857142</ele><time>2026-04-12T07:17:50.656Z</time></trkpt><trkpt lat="45.2475627" lon="9.0327947"><ele>88.57142857142857</ele><time>2026-04-12T07:17:52.654Z</time></trkpt><trkpt lat="45.2475372" lon="9.0328951"><ele>88.71428571428571</ele><time>2026-04-12T07:17:54.653Z</time></trkpt><trkpt lat="45.2475155" lon="9.0330038"><ele>88.85714285714285</ele><time>2026-04-12T07:17:57.644Z</time></trkpt><trkpt lat="45.2474865" lon="9.0330913"><ele>89.0</ele><time>2026-04-12T07:18:17.653Z</time></trkpt><trkpt lat="45.2474349" lon="9.0331841"><ele>89.0</ele><time>2026-04-12T07:18:21.655Z</time></trkpt><trkpt lat="45.2473821" lon="9.0332907"><ele>89.0</ele><time>2026-04-12T07:18:24.665Z</time></trkpt><trkpt lat="45.2473387" lon="9.033369"><ele>89.0</ele><time>2026-04-12T07:18:26.67Z</time></trkpt><trkpt lat="45.2472935" lon="9.0334615"><ele>89.0</ele><time>2026-04-12T07:18:28.657Z</time></trkpt><trkpt lat="45.2472538" lon="9.0335395"><ele>89.0</ele><time>2026-04-12T07:18:30.654Z</time></trkpt><trkpt lat="45.2472068" lon="9.0336158"><ele>89.0</ele><time>2026-04-12T07:18:32.656Z</time></trkpt><trkpt lat="45.247155" lon="9.0336971"><ele>88.66666666666667</ele><time>2026-04-12T07:18:34.653Z</time></trkpt><trkpt lat="45.2471081" lon="9.0337856"><ele>88.33333333333334</ele><time>2026-04-12T07:18:36.66Z</time></trkpt><trkpt lat="45.24706" lon="9.0338591"><ele>88.0</ele><time>2026-04-12T07:18:38.659Z</time></trkpt><trkpt lat="45.2470114" lon="9.0339442"><ele>87.66666666666667</ele><time>2026-04-12T07:18:40.651Z</time></trkpt><trkpt lat="45.24696" lon="9.0340347"><ele>87.33333333333333</ele><time>2026-04-12T07:18:42.652Z</time></trkpt><trkpt lat="45.2469126" lon="9.0341228"><ele>87.0</ele><time>2026-04-12T07:18:44.652Z</time></trkpt><trkpt lat="45.2468711" lon="9.034206"><ele>87.0</ele><time>2026-04-12T07:18:46.663Z</time></trkpt><trkpt lat="45.2468274" lon="9.0342901"><ele>87.0</ele><time>2026-04-12T07:18:48.648Z</time></trkpt><trkpt lat="45.2467876" lon="9.0343633"><ele>87.0</ele><time>2026-04-12T07:18:50.652Z</time></trkpt><trkpt lat="45.2467179" lon="9.0344342"><ele>87.0</ele><time>2026-04-12T07:18:53.651Z</time></trkpt><trkpt lat="45.2466547" lon="9.0344344"><ele>87.0</ele><time>2026-04-12T07:18:55.646Z</time></trkpt><trkpt lat="45.2465819" lon="9.034397"><ele>87.0</ele><time>2026-04-12T07:18:57.651Z</time></trkpt><trkpt lat="45.2465175" lon="9.0343584"><ele>87.0</ele><time>2026-04-12T07:18:59.649Z</time></trkpt><trkpt lat="45.2464457" lon="9.034312"><ele>86.66666666666667</ele><time>2026-04-12T07:19:01.654Z</time></trkpt><trkpt lat="45.2463762" lon="9.03427"><ele>86.33333333333333</ele><time>2026-04-12T07:19:03.654Z</time></trkpt><trkpt lat="45.2463091" lon="9.0342276"><ele>86.0</ele><time>2026-04-12T07:19:05.644Z</time></trkpt><trkpt lat="45.2462407" lon="9.034167"><ele>85.66666666666666</ele><time>2026-04-12T07:19:07.646Z</time></trkpt><trkpt lat="45.2461565" lon="9.034115"><ele>85.33333333333333</ele><time>2026-04-12T07:19:09.651Z</time></trkpt><trkpt lat="45.2460869" lon="9.0340685"><ele>85.0</ele><time>2026-04-12T07:19:11.657Z</time></trkpt><trkpt lat="45.2460154" lon="9.0340117"><ele>85.0</ele><time>2026-04-12T07:19:13.721Z</time></trkpt><trkpt lat="45.2459587" lon="9.0339612"><ele>85.0</ele><time>2026-04-12T07:19:15.656Z</time></trkpt><trkpt lat="45.2458939" lon="9.0339183"><ele>85.0</ele><time>2026-04-12T07:19:17.654Z</time></trkpt><trkpt lat="45.2458273" lon="9.0338728"><ele>85.0</ele><time>2026-04-12T07:19:19.642Z</time></trkpt><trkpt lat="45.2457524" lon="9.0338231"><ele>85.0</ele><time>2026-04-12T07:19:21.66Z</time></trkpt><trkpt lat="45.2456903" lon="9.0337734"><ele>85.0</ele><time>2026-04-12T07:19:23.653Z</time></trkpt><trkpt lat="45.2456168" lon="9.0337187"><ele>85.0</ele><time>2026-04-12T07:19:25.795Z</time></trkpt><trkpt lat="45.2455426" lon="9.033672"><ele>85.0</ele><time>2026-04-12T07:19:27.651Z</time></trkpt><trkpt lat="45.2454713" lon="9.033619"><ele>85.0</ele><time>2026-04-12T07:19:29.657Z</time></trkpt><trkpt lat="45.2453987" lon="9.0335567"><ele>85.0</ele><time>2026-04-12T07:19:31.654Z</time></trkpt><trkpt lat="45.2453314" lon="9.0335122"><ele>85.0</ele><time>2026-04-12T07:19:33.651Z</time></trkpt><trkpt lat="45.2452537" lon="9.0334562"><ele>85.0</ele><time>2026-04-12T07:19:35.649Z</time></trkpt><trkpt lat="45.2451832" lon="9.0334118"><ele>85.0</ele><time>2026-04-12T07:19:37.656Z</time></trkpt><trkpt lat="45.2451186" lon="9.0333578"><ele>85.0</ele><time>2026-04-12T07:19:39.649Z</time></trkpt><trkpt lat="45.2450369" lon="9.0333087"><ele>85.0</ele><time>2026-04-12T07:19:41.655Z</time></trkpt><trkpt lat="45.2449595" lon="9.0332575"><ele>85.0</ele><time>2026-04-12T07:19:43.656Z</time></trkpt><trkpt lat="45.2448927" lon="9.0331995"><ele>85.0</ele><time>2026-04-12T07:19:45.647Z</time></trkpt><trkpt lat="45.2448196" lon="9.0331503"><ele>85.0</ele><time>2026-04-12T07:19:47.651Z</time></trkpt><trkpt lat="45.2447487" lon="9.0330906"><ele>85.0</ele><time>2026-04-12T07:19:49.657Z</time></trkpt><trkpt lat="45.2446681" lon="9.0330413"><ele>85.33333333333333</ele><time>2026-04-12T07:19:51.722Z</time></trkpt><trkpt lat="45.2445888" lon="9.0329813"><ele>85.66666666666666</ele><time>2026-04-12T07:19:53.664Z</time></trkpt><trkpt lat="45.2445113" lon="9.0329235"><ele>86.0</ele><time>2026-04-12T07:19:55.656Z</time></trkpt><trkpt lat="45.2444417" lon="9.0328794"><ele>86.33333333333333</ele><time>2026-04-12T07:19:57.651Z</time></trkpt><trkpt lat="45.2443643" lon="9.0328236"><ele>86.66666666666667</ele><time>2026-04-12T07:19:59.654Z</time></trkpt><trkpt lat="45.2442876" lon="9.0327698"><ele>87.0</ele><time>2026-04-12T07:20:01.648Z</time></trkpt><trkpt lat="45.2442178" lon="9.0327181"><ele>87.0</ele><time>2026-04-12T07:20:03.653Z</time></trkpt><trkpt lat="45.2441455" lon="9.0326725"><ele>87.0</ele><time>2026-04-12T07:20:05.652Z</time></trkpt><trkpt lat="45.2440873" lon="9.0326274"><ele>87.0</ele><time>2026-04-12T07:20:07.65Z</time></trkpt><trkpt lat="45.2440271" lon="9.0325491"><ele>87.0</ele><time>2026-04-12T07:20:10.651Z</time></trkpt><trkpt lat="45.2440252" lon="9.0324594"><ele>87.0</ele><time>2026-04-12T07:20:14.067Z</time></trkpt><trkpt lat="45.2440539" lon="9.0323731"><ele>87.0</ele><time>2026-04-12T07:20:16.061Z</time></trkpt><trkpt lat="45.2440986" lon="9.0322776"><ele>87.0</ele><time>2026-04-12T07:20:18.05Z</time></trkpt><trkpt lat="45.2441386" lon="9.0321698"><ele>87.0</ele><time>2026-04-12T07:20:20.051Z</time></trkpt><trkpt lat="45.2441795" lon="9.0320726"><ele>87.0</ele><time>2026-04-12T07:20:22.049Z</time></trkpt><trkpt lat="45.2442147" lon="9.0319669"><ele>87.0</ele><time>2026-04-12T07:20:24.046Z</time></trkpt><trkpt lat="45.2442595" lon="9.0318546"><ele>87.0</ele><time>2026-04-12T07:20:26.049Z</time></trkpt><trkpt lat="45.2442937" lon="9.0317465"><ele>87.0</ele><time>2026-04-12T07:20:28.049Z</time></trkpt><trkpt lat="45.2443359" lon="9.0316381"><ele>87.0</ele><time>2026-04-12T07:20:30.047Z</time></trkpt><trkpt lat="45.2443886" lon="9.0315285"><ele>87.0</ele><time>2026-04-12T07:20:32.055Z</time></trkpt><trkpt lat="45.2444466" lon="9.0314303"><ele>87.0</ele><time>2026-04-12T07:20:34.05Z</time></trkpt><trkpt lat="45.2445036" lon="9.0313417"><ele>87.0</ele><time>2026-04-12T07:20:36.047Z</time></trkpt><trkpt lat="45.2445472" lon="9.0312581"><ele>87.0</ele><time>2026-04-12T07:20:38.051Z</time></trkpt><trkpt lat="45.2445579" lon="9.0311477"><ele>87.0</ele><time>2026-04-12T07:20:40.036Z</time></trkpt><trkpt lat="45.2445407" lon="9.0310276"><ele>87.0</ele><time>2026-04-12T07:20:42.053Z</time></trkpt><trkpt lat="45.2445176" lon="9.0309183"><ele>87.0</ele><time>2026-04-12T07:20:44.039Z</time></trkpt><trkpt lat="45.2444799" lon="9.0308122"><ele>87.0</ele><time>2026-04-12T07:20:46.126Z</time></trkpt><trkpt lat="45.2444256" lon="9.0307335"><ele>87.0</ele><time>2026-04-12T07:20:48.045Z</time></trkpt><trkpt lat="45.2443654" lon="9.0306545"><ele>87.0</ele><time>2026-04-12T07:20:50.056Z</time></trkpt><trkpt lat="45.2442939" lon="9.0305685"><ele>87.0</ele><time>2026-04-12T07:20:52.052Z</time></trkpt><trkpt lat="45.2442274" lon="9.0304954"><ele>87.0</ele><time>2026-04-12T07:20:54.039Z</time></trkpt><trkpt lat="45.2441562" lon="9.0304247"><ele>86.33333333333333</ele><time>2026-04-12T07:20:56.05Z</time></trkpt><trkpt lat="45.2440895" lon="9.0303552"><ele>85.66666666666667</ele><time>2026-04-12T07:20:58.061Z</time></trkpt><trkpt lat="45.244013" lon="9.0302929"><ele>85.0</ele><time>2026-04-12T07:21:00.046Z</time></trkpt><trkpt lat="45.2439405" lon="9.0302205"><ele>84.33333333333334</ele><time>2026-04-12T07:21:02.051Z</time></trkpt><trkpt lat="45.2438652" lon="9.0301547"><ele>83.66666666666667</ele><time>2026-04-12T07:21:04.064Z</time></trkpt><trkpt lat="45.2437822" lon="9.0300821"><ele>83.0</ele><time>2026-04-12T07:21:06.05Z</time></trkpt><trkpt lat="45.2437082" lon="9.0300176"><ele>82.60000000000001</ele><time>2026-04-12T07:21:08.05Z</time></trkpt><trkpt lat="45.2436273" lon="9.0299503"><ele>82.2</ele><time>2026-04-12T07:21:10.057Z</time></trkpt><trkpt lat="45.2435574" lon="9.0298837"><ele>81.8</ele><time>2026-04-12T07:21:12.125Z</time></trkpt><trkpt lat="45.2434899" lon="9.0298054"><ele>81.4</ele><time>2026-04-12T07:21:14.052Z</time></trkpt><trkpt lat="45.2434192" lon="9.0297305"><ele>81.0</ele><time>2026-04-12T07:21:16.056Z</time></trkpt><trkpt lat="45.243345" lon="9.029635"><ele>81.0</ele><time>2026-04-12T07:21:18.055Z</time></trkpt><trkpt lat="45.2432747" lon="9.0295468"><ele>81.0</ele><time>2026-04-12T07:21:20.049Z</time></trkpt><trkpt lat="45.2432135" lon="9.0294709"><ele>81.0</ele><time>2026-04-12T07:21:22.049Z</time></trkpt><trkpt lat="45.2431427" lon="9.0293923"><ele>81.0</ele><time>2026-04-12T07:21:24.046Z</time></trkpt><trkpt lat="45.2430746" lon="9.0293063"><ele>81.0</ele><time>2026-04-12T07:21:26.05Z</time></trkpt><trkpt lat="45.2430125" lon="9.0292309"><ele>81.0</ele><time>2026-04-12T07:21:28.057Z</time></trkpt><trkpt lat="45.2429661" lon="9.029164"><ele>80.33333333333333</ele><time>2026-04-12T07:21:30.061Z</time></trkpt><trkpt lat="45.2428926" lon="9.0291552"><ele>79.66666666666667</ele><time>2026-04-12T07:21:35.047Z</time></trkpt><trkpt lat="45.2428343" lon="9.0292464"><ele>79.0</ele><time>2026-04-12T07:21:38.052Z</time></trkpt><trkpt lat="45.2427824" lon="9.0293049"><ele>78.33333333333334</ele><time>2026-04-12T07:21:40.055Z</time></trkpt><trkpt lat="45.2427199" lon="9.029365"><ele>77.66666666666667</ele><time>2026-04-12T07:21:42.051Z</time></trkpt><trkpt lat="45.2426576" lon="9.0294283"><ele>77.0</ele><time>2026-04-12T07:21:44.059Z</time></trkpt><trkpt lat="45.2425893" lon="9.0295027"><ele>77.0</ele><time>2026-04-12T07:21:46.058Z</time></trkpt><trkpt lat="45.2425234" lon="9.029567"><ele>77.0</ele><time>2026-04-12T07:21:48.055Z</time></trkpt><trkpt lat="45.2424597" lon="9.0295997"><ele>77.0</ele><time>2026-04-12T07:21:50.053Z</time></trkpt><trkpt lat="45.2423944" lon="9.0295842"><ele>77.0</ele><time>2026-04-12T07:21:52.061Z</time></trkpt><trkpt lat="45.2423244" lon="9.0294879"><ele>77.0</ele><time>2026-04-12T07:21:54.048Z</time></trkpt><trkpt lat="45.2422435" lon="9.0293647"><ele>77.0</ele><time>2026-04-12T07:21:56.057Z</time></trkpt><trkpt lat="45.2421897" lon="9.0292898"><ele>76.16666666666667</ele><time>2026-04-12T07:21:57.056Z</time></trkpt><trkpt lat="45.2421322" lon="9.0292154"><ele>75.33333333333334</ele><time>2026-04-12T07:21:58.057Z</time></trkpt><trkpt lat="45.2420726" lon="9.0291417"><ele>74.5</ele><time>2026-04-12T07:21:59.05Z</time></trkpt><trkpt lat="45.2420026" lon="9.0290665"><ele>73.66666666666667</ele><time>2026-04-12T07:22:00.054Z</time></trkpt><trkpt lat="45.2419335" lon="9.0289885"><ele>72.83333333333333</ele><time>2026-04-12T07:22:01.049Z</time></trkpt><trkpt lat="45.2418616" lon="9.0289112"><ele>72.0</ele><time>2026-04-12T07:22:02.046Z</time></trkpt><trkpt lat="45.2417892" lon="9.0288195"><ele>71.6</ele><time>2026-04-12T07:22:03.111Z</time></trkpt><trkpt lat="45.2417216" lon="9.0287315"><ele>71.2</ele><time>2026-04-12T07:22:04.052Z</time></trkpt><trkpt lat="45.2416567" lon="9.0286429"><ele>70.8</ele><time>2026-04-12T07:22:05.075Z</time></trkpt><trkpt lat="45.2415947" lon="9.0285462"><ele>70.4</ele><time>2026-04-12T07:22:06.047Z</time></trkpt><trkpt lat="45.2415255" lon="9.0284566"><ele>70.0</ele><time>2026-04-12T07:22:07.047Z</time></trkpt><trkpt lat="45.2414567" lon="9.0283659"><ele>69.33333333333333</ele><time>2026-04-12T07:22:08.051Z</time></trkpt><trkpt lat="45.2413885" lon="9.0282861"><ele>68.66666666666666</ele><time>2026-04-12T07:22:09.057Z</time></trkpt><trkpt lat="45.241314" lon="9.0282098"><ele>68.0</ele><time>2026-04-12T07:22:10.057Z</time></trkpt><trkpt lat="45.2412445" lon="9.0281341"><ele>67.33333333333333</ele><time>2026-04-12T07:22:11.048Z</time></trkpt><trkpt lat="45.2411744" lon="9.0280652"><ele>66.66666666666667</ele><time>2026-04-12T07:22:12.051Z</time></trkpt><trkpt lat="45.2411074" lon="9.0279981"><ele>66.0</ele><time>2026-04-12T07:22:13.047Z</time></trkpt><trkpt lat="45.241044" lon="9.0279284"><ele>66.0</ele><time>2026-04-12T07:22:14.052Z</time></trkpt><trkpt lat="45.2409837" lon="9.0278602"><ele>66.0</ele><time>2026-04-12T07:22:15.047Z</time></trkpt><trkpt lat="45.2409255" lon="9.0277967"><ele>66.0</ele><time>2026-04-12T07:22:16.045Z</time></trkpt><trkpt lat="45.2408716" lon="9.0277363"><ele>66.0</ele><time>2026-04-12T07:22:17.056Z</time></trkpt><trkpt lat="45.2408199" lon="9.0276799"><ele>66.0</ele><time>2026-04-12T07:22:18.051Z</time></trkpt><trkpt lat="45.2407284" lon="9.0275838"><ele>66.0</ele><time>2026-04-12T07:22:20.053Z</time></trkpt><trkpt lat="45.2406502" lon="9.0274975"><ele>66.0</ele><time>2026-04-12T07:22:22.057Z</time></trkpt><trkpt lat="45.2405815" lon="9.027408"><ele>66.0</ele><time>2026-04-12T07:22:24.06Z</time></trkpt><trkpt lat="45.2405195" lon="9.0273431"><ele>66.0</ele><time>2026-04-12T07:22:26.052Z</time></trkpt><trkpt lat="45.2404613" lon="9.027292"><ele>66.0</ele><time>2026-04-12T07:22:28.053Z</time></trkpt><trkpt lat="45.2403928" lon="9.0272881"><ele>66.0</ele><time>2026-04-12T07:22:31.045Z</time></trkpt><trkpt lat="45.2403329" lon="9.0273328"><ele>66.0</ele><time>2026-04-12T07:22:34.058Z</time></trkpt><trkpt lat="45.2402849" lon="9.0274078"><ele>66.0</ele><time>2026-04-12T07:22:37.059Z</time></trkpt><trkpt lat="45.2402552" lon="9.0274972"><ele>65.85714285714286</ele><time>2026-04-12T07:22:39.057Z</time></trkpt><trkpt lat="45.240211" lon="9.0275844"><ele>65.71428571428572</ele><time>2026-04-12T07:22:41.121Z</time></trkpt><trkpt lat="45.2401647" lon="9.0276716"><ele>65.57142857142858</ele><time>2026-04-12T07:22:43.081Z</time></trkpt><trkpt lat="45.2401282" lon="9.0277631"><ele>65.42857142857143</ele><time>2026-04-12T07:22:45.042Z</time></trkpt><trkpt lat="45.2400961" lon="9.0278549"><ele>65.28571428571429</ele><time>2026-04-12T07:22:47.05Z</time></trkpt><trkpt lat="45.2400564" lon="9.027941"><ele>65.14285714285715</ele><time>2026-04-12T07:22:49.051Z</time></trkpt><trkpt lat="45.2399986" lon="9.0280128"><ele>65.0</ele><time>2026-04-12T07:22:51.063Z</time></trkpt><trkpt lat="45.2399412" lon="9.0281088"><ele>65.0</ele><time>2026-04-12T07:22:53.049Z</time></trkpt><trkpt lat="45.2398926" lon="9.0281786"><ele>65.0</ele><time>2026-04-12T07:22:55.064Z</time></trkpt><trkpt lat="45.2398256" lon="9.028274"><ele>65.0</ele><time>2026-04-12T07:22:58.052Z</time></trkpt><trkpt lat="45.2397581" lon="9.0283655"><ele>65.0</ele><time>2026-04-12T07:23:01.058Z</time></trkpt><trkpt lat="45.2396938" lon="9.0284533"><ele>65.0</ele><time>2026-04-12T07:23:04.041Z</time></trkpt><trkpt lat="45.2396447" lon="9.028513"><ele>65.0</ele><time>2026-04-12T07:23:06.052Z</time></trkpt><trkpt lat="45.2395923" lon="9.0285845"><ele>65.14285714285715</ele><time>2026-04-12T07:23:08.135Z</time></trkpt><trkpt lat="45.2395445" lon="9.0286489"><ele>65.28571428571429</ele><time>2026-04-12T07:23:10.053Z</time></trkpt><trkpt lat="45.2394881" lon="9.0287199"><ele>65.42857142857143</ele><time>2026-04-12T07:23:12.055Z</time></trkpt><trkpt lat="45.2394417" lon="9.0288077"><ele>65.57142857142858</ele><time>2026-04-12T07:23:14.058Z</time></trkpt><trkpt lat="45.2394154" lon="9.0289069"><ele>65.71428571428572</ele><time>2026-04-12T07:23:16.061Z</time></trkpt><trkpt lat="45.2394025" lon="9.029007"><ele>65.85714285714286</ele><time>2026-04-12T07:23:18.063Z</time></trkpt><trkpt lat="45.2393879" lon="9.0291144"><ele>66.0</ele><time>2026-04-12T07:23:20.05Z</time></trkpt><trkpt lat="45.2393397" lon="9.029192"><ele>66.0</ele><time>2026-04-12T07:23:23.061Z</time></trkpt><trkpt lat="45.2392696" lon="9.0291526"><ele>66.0</ele><time>2026-04-12T07:23:27.05Z</time></trkpt><trkpt lat="45.2392082" lon="9.0290631"><ele>66.0</ele><time>2026-04-12T07:23:30.057Z</time></trkpt><trkpt lat="45.2391305" lon="9.0290517"><ele>66.0</ele><time>2026-04-12T07:23:33.05Z</time></trkpt><trkpt lat="45.2390652" lon="9.0290761"><ele>66.0</ele><time>2026-04-12T07:23:36.053Z</time></trkpt><trkpt lat="45.2390046" lon="9.0291034"><ele>66.0</ele><time>2026-04-12T07:23:38.049Z</time></trkpt><trkpt lat="45.2389399" lon="9.0291277"><ele>66.0</ele><time>2026-04-12T07:23:40.045Z</time></trkpt><trkpt lat="45.238868" lon="9.029161"><ele>66.14285714285714</ele><time>2026-04-12T07:23:42.052Z</time></trkpt><trkpt lat="45.2388021" lon="9.0291844"><ele>66.28571428571429</ele><time>2026-04-12T07:23:44.057Z</time></trkpt><trkpt lat="45.2387341" lon="9.0292075"><ele>66.42857142857143</ele><time>2026-04-12T07:23:46.056Z</time></trkpt><trkpt lat="45.2386674" lon="9.0292227"><ele>66.57142857142857</ele><time>2026-04-12T07:23:48.046Z</time></trkpt><trkpt lat="45.238602" lon="9.0292363"><ele>66.71428571428571</ele><time>2026-04-12T07:23:50.05Z</time></trkpt><trkpt lat="45.2385392" lon="9.0292775"><ele>66.85714285714286</ele><time>2026-04-12T07:23:52.049Z</time></trkpt><trkpt lat="45.2384651" lon="9.0293214"><ele>67.0</ele><time>2026-04-12T07:23:54.054Z</time></trkpt><trkpt lat="45.2384019" lon="9.0293645"><ele>67.0</ele><time>2026-04-12T07:23:56.054Z</time></trkpt><trkpt lat="45.2383356" lon="9.0293972"><ele>67.0</ele><time>2026-04-12T07:23:58.05Z</time></trkpt><trkpt lat="45.2382677" lon="9.0294219"><ele>67.0</ele><time>2026-04-12T07:24:00.057Z</time></trkpt><trkpt lat="45.2381989" lon="9.0294475"><ele>67.0</ele><time>2026-04-12T07:24:02.063Z</time></trkpt><trkpt lat="45.2381248" lon="9.0294681"><ele>67.0</ele><time>2026-04-12T07:24:04.047Z</time></trkpt><trkpt lat="45.2380612" lon="9.0294816"><ele>67.0</ele><time>2026-04-12T07:24:06.052Z</time></trkpt><trkpt lat="45.2379824" lon="9.0294941"><ele>67.0</ele><time>2026-04-12T07:24:08.05Z</time></trkpt><trkpt lat="45.2379078" lon="9.0295037"><ele>67.33333333333333</ele><time>2026-04-12T07:24:10.055Z</time></trkpt><trkpt lat="45.2378432" lon="9.0295096"><ele>67.66666666666666</ele><time>2026-04-12T07:24:12.058Z</time></trkpt><trkpt lat="45.2377489" lon="9.0295199"><ele>68.0</ele><time>2026-04-12T07:24:15.051Z</time></trkpt><trkpt lat="45.2376814" lon="9.0295289"><ele>68.33333333333333</ele><time>2026-04-12T07:24:17.055Z</time></trkpt><trkpt lat="45.2376085" lon="9.0295608"><ele>68.66666666666667</ele><time>2026-04-12T07:24:19.047Z</time></trkpt><trkpt lat="45.2375363" lon="9.0295992"><ele>69.0</ele><time>2026-04-12T07:24:21.049Z</time></trkpt><trkpt lat="45.2374694" lon="9.0296755"><ele>69.0</ele><time>2026-04-12T07:24:24.137Z</time></trkpt><trkpt lat="45.237438" lon="9.0297654"><ele>69.0</ele><time>2026-04-12T07:24:28.051Z</time></trkpt><trkpt lat="45.2373735" lon="9.0297716"><ele>69.0</ele><time>2026-04-12T07:25:33.079Z</time></trkpt><trkpt lat="45.2373785" lon="9.0296748"><ele>69.0</ele><time>2026-04-12T07:25:53.076Z</time></trkpt><trkpt lat="45.2373545" lon="9.0295914"><ele>69.0</ele><time>2026-04-12T07:25:58.066Z</time></trkpt><trkpt lat="45.2373624" lon="9.0294852"><ele>69.0</ele><time>2026-04-12T07:26:03.08Z</time></trkpt><trkpt lat="45.2373238" lon="9.0293928"><ele>69.0</ele><time>2026-04-12T07:26:08.054Z</time></trkpt><trkpt lat="45.2373389" lon="9.0293049"><ele>68.85714285714286</ele><time>2026-04-12T07:26:11.052Z</time></trkpt><trkpt lat="45.2372807" lon="9.0292369"><ele>68.71428571428572</ele><time>2026-04-12T07:26:17.054Z</time></trkpt><trkpt lat="45.2372228" lon="9.029186"><ele>68.57142857142857</ele><time>2026-04-12T07:26:23.065Z</time></trkpt><trkpt lat="45.2371564" lon="9.0291523"><ele>68.42857142857143</ele><time>2026-04-12T07:26:27.063Z</time></trkpt><trkpt lat="45.2370843" lon="9.029143"><ele>68.28571428571428</ele><time>2026-04-12T07:26:31.081Z</time></trkpt><trkpt lat="45.2370194" lon="9.0291787"><ele>68.14285714285714</ele><time>2026-04-12T07:26:34.079Z</time></trkpt><trkpt lat="45.2369585" lon="9.0292109"><ele>68.0</ele><time>2026-04-12T07:26:38.049Z</time></trkpt><trkpt lat="45.2368843" lon="9.0291597"><ele>67.99999999999999</ele><time>2026-04-12T07:26:42.064Z</time></trkpt><trkpt lat="45.23681" lon="9.0291773"><ele>68.0</ele><time>2026-04-12T07:26:45.081Z</time></trkpt><trkpt lat="45.2367601" lon="9.0292368"><ele>68.0</ele><time>2026-04-12T07:26:48.058Z</time></trkpt><trkpt lat="45.2367115" lon="9.0293229"><ele>68.0</ele><time>2026-04-12T07:26:52.044Z</time></trkpt><trkpt lat="45.2366342" lon="9.029328"><ele>68.0</ele><time>2026-04-12T07:26:56.075Z</time></trkpt><trkpt lat="45.2365639" lon="9.0292944"><ele>67.99999999999999</ele><time>2026-04-12T07:26:59.067Z</time></trkpt><trkpt lat="45.2364842" lon="9.0292925"><ele>68.0</ele><time>2026-04-12T07:27:03.063Z</time></trkpt><trkpt lat="45.2364084" lon="9.0292887"><ele>68.16666666666667</ele><time>2026-04-12T07:27:07.049Z</time></trkpt><trkpt lat="45.2363301" lon="9.0292775"><ele>68.33333333333334</ele><time>2026-04-12T07:27:10.054Z</time></trkpt><trkpt lat="45.2362622" lon="9.0292848"><ele>68.5</ele><time>2026-04-12T07:27:13.054Z</time></trkpt><trkpt lat="45.236195" lon="9.0292998"><ele>68.66666666666667</ele><time>2026-04-12T07:27:16.073Z</time></trkpt><trkpt lat="45.2361139" lon="9.0293088"><ele>68.83333333333333</ele><time>2026-04-12T07:27:20.051Z</time></trkpt><trkpt lat="45.2360412" lon="9.0293068"><ele>69.0</ele><time>2026-04-12T07:27:23.072Z</time></trkpt><trkpt lat="45.2359584" lon="9.0293267"><ele>69.0</ele><time>2026-04-12T07:27:27.056Z</time></trkpt><trkpt lat="45.2358851" lon="9.0293169"><ele>69.0</ele><time>2026-04-12T07:27:30.046Z</time></trkpt><trkpt lat="45.2357968" lon="9.0293046"><ele>69.0</ele><time>2026-04-12T07:27:33.049Z</time></trkpt><trkpt lat="45.2357073" lon="9.029307"><ele>69.0</ele><time>2026-04-12T07:27:36.071Z</time></trkpt><trkpt lat="45.2356172" lon="9.0292998"><ele>69.0</ele><time>2026-04-12T07:27:39.072Z</time></trkpt><trkpt lat="45.2355486" lon="9.0292848"><ele>69.0</ele><time>2026-04-12T07:27:41.072Z</time></trkpt><trkpt lat="45.2354648" lon="9.0292631"><ele>68.5</ele><time>2026-04-12T07:27:44.054Z</time></trkpt><trkpt lat="45.2354153" lon="9.0291843"><ele>68.0</ele><time>2026-04-12T07:27:47.07Z</time></trkpt><trkpt lat="45.2353905" lon="9.0290846"><ele>67.5</ele><time>2026-04-12T07:27:50.059Z</time></trkpt><trkpt lat="45.2353585" lon="9.0289742"><ele>67.0</ele><time>2026-04-12T07:27:54.134Z</time></trkpt><trkpt lat="45.2353446" lon="9.0288571"><ele>66.5</ele><time>2026-04-12T07:27:58.052Z</time></trkpt><trkpt lat="45.2353159" lon="9.0287587"><ele>66.0</ele><time>2026-04-12T07:28:02.057Z</time></trkpt><trkpt lat="45.2352416" lon="9.0287035"><ele>66.0</ele><time>2026-04-12T07:28:05.047Z</time></trkpt><trkpt lat="45.235165" lon="9.0286755"><ele>66.0</ele><time>2026-04-12T07:28:08.047Z</time></trkpt><trkpt lat="45.2350873" lon="9.0286778"><ele>66.0</ele><time>2026-04-12T07:28:11.062Z</time></trkpt><trkpt lat="45.2350035" lon="9.0286842"><ele>66.0</ele><time>2026-04-12T07:28:14.071Z</time></trkpt><trkpt lat="45.2349392" lon="9.0286864"><ele>66.0</ele><time>2026-04-12T07:28:17.048Z</time></trkpt><trkpt lat="45.234894" lon="9.0287563"><ele>66.0</ele><time>2026-04-12T07:28:22.062Z</time></trkpt><trkpt lat="45.2348455" lon="9.0288417"><ele>66.0</ele><time>2026-04-12T07:28:25.046Z</time></trkpt><trkpt lat="45.2347986" lon="9.0289396"><ele>66.0</ele><time>2026-04-12T07:28:28.068Z</time></trkpt><trkpt lat="45.2347654" lon="9.0290441"><ele>66.0</ele><time>2026-04-12T07:28:31.07Z</time></trkpt><trkpt lat="45.2347449" lon="9.0291557"><ele>66.0</ele><time>2026-04-12T07:28:34.064Z</time></trkpt><trkpt lat="45.2346937" lon="9.0292438"><ele>66.0</ele><time>2026-04-12T07:28:37.073Z</time></trkpt><trkpt lat="45.234628" lon="9.0293217"><ele>66.0</ele><time>2026-04-12T07:28:40.059Z</time></trkpt><trkpt lat="45.234557" lon="9.029335"><ele>66.0</ele><time>2026-04-12T07:28:43.052Z</time></trkpt><trkpt lat="45.2344972" lon="9.0292911"><ele>66.0</ele><time>2026-04-12T07:28:47.056Z</time></trkpt><trkpt lat="45.234427" lon="9.0292741"><ele>66.0</ele><time>2026-04-12T07:28:50.05Z</time></trkpt><trkpt lat="45.2343557" lon="9.0292977"><ele>66.0</ele><time>2026-04-12T07:28:53.056Z</time></trkpt><trkpt lat="45.234282" lon="9.029251"><ele>66.0</ele><time>2026-04-12T07:29:09.065Z</time></trkpt><trkpt lat="45.234212" lon="9.0292261"><ele>66.0</ele><time>2026-04-12T07:29:22.081Z</time></trkpt><trkpt lat="45.2341504" lon="9.029273"><ele>66.0</ele><time>2026-04-12T07:29:26.052Z</time></trkpt><trkpt lat="45.2340834" lon="9.0293381"><ele>66.0</ele><time>2026-04-12T07:29:30.059Z</time></trkpt><trkpt lat="45.2340039" lon="9.0293575"><ele>65.85714285714286</ele><time>2026-04-12T07:29:33.064Z</time></trkpt><trkpt lat="45.2339377" lon="9.0293552"><ele>65.71428571428572</ele><time>2026-04-12T07:29:44.05Z</time></trkpt><trkpt lat="45.2338702" lon="9.0293728"><ele>65.57142857142858</ele><time>2026-04-12T07:29:51.055Z</time></trkpt><trkpt lat="45.2338058" lon="9.0293733"><ele>65.42857142857143</ele><time>2026-04-12T07:29:57.079Z</time></trkpt><trkpt lat="45.2337405" lon="9.0293433"><ele>65.28571428571429</ele><time>2026-04-12T07:30:05.054Z</time></trkpt><trkpt lat="45.2336877" lon="9.0294039"><ele>65.14285714285715</ele><time>2026-04-12T07:30:17.05Z</time></trkpt><trkpt lat="45.2336455" lon="9.0294932"><ele>65.0</ele><time>2026-04-12T07:30:22.059Z</time></trkpt><trkpt lat="45.2335902" lon="9.0295682"><ele>65.0</ele><time>2026-04-12T07:30:26.04Z</time></trkpt><trkpt lat="45.233536" lon="9.0296491"><ele>65.0</ele><time>2026-04-12T07:30:29.052Z</time></trkpt><trkpt lat="45.2334821" lon="9.0297303"><ele>65.0</ele><time>2026-04-12T07:30:32.057Z</time></trkpt><trkpt lat="45.233417" lon="9.0297738"><ele>65.0</ele><time>2026-04-12T07:30:35.048Z</time></trkpt><trkpt lat="45.2333441" lon="9.0297478"><ele>65.0</ele><time>2026-04-12T07:30:38.049Z</time></trkpt><trkpt lat="45.2332658" lon="9.0296919"><ele>65.0</ele><time>2026-04-12T07:30:41.065Z</time></trkpt><trkpt lat="45.2331907" lon="9.0296268"><ele>65.33333333333334</ele><time>2026-04-12T07:30:44.05Z</time></trkpt><trkpt lat="45.233132" lon="9.0295945"><ele>65.66666666666667</ele><time>2026-04-12T07:30:46.083Z</time></trkpt><trkpt lat="45.2330494" lon="9.0295396"><ele>66.0</ele><time>2026-04-12T07:30:49.062Z</time></trkpt><trkpt lat="45.2329949" lon="9.0294904"><ele>66.33333333333333</ele><time>2026-04-12T07:30:51.068Z</time></trkpt><trkpt lat="45.2329136" lon="9.0294281"><ele>66.66666666666666</ele><time>2026-04-12T07:30:54.074Z</time></trkpt><trkpt lat="45.2328375" lon="9.029357"><ele>67.0</ele><time>2026-04-12T07:30:57.058Z</time></trkpt><trkpt lat="45.2327595" lon="9.0292892"><ele>67.0</ele><time>2026-04-12T07:31:00.068Z</time></trkpt><trkpt lat="45.2326874" lon="9.0292311"><ele>67.0</ele><time>2026-04-12T07:31:03.073Z</time></trkpt><trkpt lat="45.2326108" lon="9.029168"><ele>67.0</ele><time>2026-04-12T07:31:06.079Z</time></trkpt><trkpt lat="45.2325344" lon="9.0291072"><ele>67.0</ele><time>2026-04-12T07:31:09.067Z</time></trkpt><trkpt lat="45.232457" lon="9.029049"><ele>67.0</ele><time>2026-04-12T07:31:12.076Z</time></trkpt><trkpt lat="45.2324034" lon="9.0290008"><ele>67.0</ele><time>2026-04-12T07:31:14.048Z</time></trkpt><trkpt lat="45.2323509" lon="9.0289513"><ele>66.66666666666666</ele><time>2026-04-12T07:31:16.052Z</time></trkpt><trkpt lat="45.232277" lon="9.0288908"><ele>66.33333333333333</ele><time>2026-04-12T07:31:19.052Z</time></trkpt><trkpt lat="45.2322013" lon="9.028828"><ele>66.0</ele><time>2026-04-12T07:31:22.074Z</time></trkpt><trkpt lat="45.232147" lon="9.0287812"><ele>65.66666666666667</ele><time>2026-04-12T07:31:24.053Z</time></trkpt><trkpt lat="45.2320899" lon="9.0287218"><ele>65.33333333333334</ele><time>2026-04-12T07:31:26.063Z</time></trkpt><trkpt lat="45.2320061" lon="9.0286619"><ele>65.0</ele><time>2026-04-12T07:31:29.058Z</time></trkpt><trkpt lat="45.2319279" lon="9.028622"><ele>65.0</ele><time>2026-04-12T07:31:32.055Z</time></trkpt><trkpt lat="45.2318435" lon="9.0286096"><ele>65.0</ele><time>2026-04-12T07:31:35.058Z</time></trkpt><trkpt lat="45.2317597" lon="9.0285894"><ele>65.0</ele><time>2026-04-12T07:31:38.064Z</time></trkpt><trkpt lat="45.2316846" lon="9.0285639"><ele>65.0</ele><time>2026-04-12T07:31:41.055Z</time></trkpt><trkpt lat="45.2316044" lon="9.0285213"><ele>65.0</ele><time>2026-04-12T07:31:44.058Z</time></trkpt><trkpt lat="45.2315347" lon="9.0284656"><ele>65.0</ele><time>2026-04-12T07:31:47.064Z</time></trkpt><trkpt lat="45.231448" lon="9.0284222"><ele>64.83333333333334</ele><time>2026-04-12T07:31:50.05Z</time></trkpt><trkpt lat="45.2313834" lon="9.0284503"><ele>64.66666666666667</ele><time>2026-04-12T07:31:52.049Z</time></trkpt><trkpt lat="45.2313124" lon="9.0285337"><ele>64.5</ele><time>2026-04-12T07:31:55.067Z</time></trkpt><trkpt lat="45.231256" lon="9.0286408"><ele>64.33333333333333</ele><time>2026-04-12T07:31:58.056Z</time></trkpt><trkpt lat="45.2312236" lon="9.0287332"><ele>64.16666666666666</ele><time>2026-04-12T07:32:00.056Z</time></trkpt><trkpt lat="45.2311834" lon="9.0288186"><ele>64.0</ele><time>2026-04-12T07:32:02.055Z</time></trkpt><trkpt lat="45.2311445" lon="9.0288924"><ele>63.99999999999999</ele><time>2026-04-12T07:32:04.055Z</time></trkpt><trkpt lat="45.2311047" lon="9.0289636"><ele>64.0</ele><time>2026-04-12T07:32:06.052Z</time></trkpt><trkpt lat="45.231056" lon="9.029071"><ele>64.0</ele><time>2026-04-12T07:32:09.057Z</time></trkpt><trkpt lat="45.2310223" lon="9.0291607"><ele>64.0</ele><time>2026-04-12T07:32:12.077Z</time></trkpt><trkpt lat="45.2309776" lon="9.0292629"><ele>63.99999999999999</ele><time>2026-04-12T07:32:16.07Z</time></trkpt><trkpt lat="45.2309408" lon="9.0293371"><ele>64.0</ele><time>2026-04-12T07:32:18.069Z</time></trkpt><trkpt lat="45.2309121" lon="9.0294398"><ele>64.0</ele><time>2026-04-12T07:32:20.069Z</time></trkpt><trkpt lat="45.2308895" lon="9.0295276"><ele>63.99999999999999</ele><time>2026-04-12T07:32:22.071Z</time></trkpt><trkpt lat="45.2308726" lon="9.0296354"><ele>64.0</ele><time>2026-04-12T07:32:24.058Z</time></trkpt><trkpt lat="45.2308711" lon="9.0297406"><ele>64.0</ele><time>2026-04-12T07:32:26.078Z</time></trkpt><trkpt lat="45.2308746" lon="9.0298319"><ele>63.99999999999999</ele><time>2026-04-12T07:32:28.087Z</time></trkpt><trkpt lat="45.2308762" lon="9.0299324"><ele>64.0</ele><time>2026-04-12T07:32:30.079Z</time></trkpt><trkpt lat="45.2308696" lon="9.0300445"><ele>64.0</ele><time>2026-04-12T07:32:32.073Z</time></trkpt><trkpt lat="45.2308688" lon="9.0301538"><ele>64.0</ele><time>2026-04-12T07:32:34.069Z</time></trkpt><trkpt lat="45.2308536" lon="9.0302492"><ele>63.99999999999999</ele><time>2026-04-12T07:32:36.076Z</time></trkpt><trkpt lat="45.2308297" lon="9.0303489"><ele>64.0</ele><time>2026-04-12T07:32:38.077Z</time></trkpt><trkpt lat="45.2308065" lon="9.0304497"><ele>64.0</ele><time>2026-04-12T07:32:40.055Z</time></trkpt><trkpt lat="45.2308053" lon="9.0305518"><ele>63.99999999999999</ele><time>2026-04-12T07:32:42.06Z</time></trkpt><trkpt lat="45.2307879" lon="9.0306507"><ele>64.0</ele><time>2026-04-12T07:32:44.06Z</time></trkpt><trkpt lat="45.2307444" lon="9.0307464"><ele>64.0</ele><time>2026-04-12T07:32:46.053Z</time></trkpt><trkpt lat="45.2306878" lon="9.0308176"><ele>63.99999999999999</ele><time>2026-04-12T07:32:48.054Z</time></trkpt><trkpt lat="45.2306313" lon="9.0308975"><ele>64.0</ele><time>2026-04-12T07:32:50.053Z</time></trkpt><trkpt lat="45.2305834" lon="9.0309982"><ele>64.0</ele><time>2026-04-12T07:32:52.127Z</time></trkpt><trkpt lat="45.2305364" lon="9.031091"><ele>64.0</ele><time>2026-04-12T07:32:54.062Z</time></trkpt><trkpt lat="45.2304846" lon="9.0311833"><ele>63.99999999999999</ele><time>2026-04-12T07:32:56.053Z</time></trkpt><trkpt lat="45.2304388" lon="9.0312557"><ele>64.0</ele><time>2026-04-12T07:32:58.076Z</time></trkpt><trkpt lat="45.2303925" lon="9.0313236"><ele>64.0</ele><time>2026-04-12T07:33:00.072Z</time></trkpt><trkpt lat="45.2303781" lon="9.031429"><ele>63.99999999999999</ele><time>2026-04-12T07:33:03.054Z</time></trkpt><trkpt lat="45.2304312" lon="9.0315344"><ele>64.0</ele><time>2026-04-12T07:33:06.064Z</time></trkpt><trkpt lat="45.2304663" lon="9.0316097"><ele>64.0</ele><time>2026-04-12T07:33:08.053Z</time></trkpt><trkpt lat="45.230493" lon="9.0316926"><ele>63.99999999999999</ele><time>2026-04-12T07:33:10.054Z</time></trkpt><trkpt lat="45.2305101" lon="9.0318038"><ele>64.0</ele><time>2026-04-12T07:33:13.053Z</time></trkpt><trkpt lat="45.2304929" lon="9.0318938"><ele>64.0</ele><time>2026-04-12T07:33:15.175Z</time></trkpt><trkpt lat="45.2304698" lon="9.0320063"><ele>64.28571428571428</ele><time>2026-04-12T07:33:18.145Z</time></trkpt><trkpt lat="45.2304033" lon="9.0320794"><ele>64.57142857142857</ele><time>2026-04-12T07:33:21.048Z</time></trkpt><trkpt lat="45.2303418" lon="9.03211"><ele>64.85714285714286</ele><time>2026-04-12T07:33:23.051Z</time></trkpt><trkpt lat="45.2302806" lon="9.0321338"><ele>65.14285714285714</ele><time>2026-04-12T07:33:25.047Z</time></trkpt><trkpt lat="45.2301941" lon="9.0321939"><ele>65.42857142857143</ele><time>2026-04-12T07:33:28.052Z</time></trkpt><trkpt lat="45.230131" lon="9.0322266"><ele>65.71428571428571</ele><time>2026-04-12T07:33:30.049Z</time></trkpt><trkpt lat="45.2300709" lon="9.0322624"><ele>66.0</ele><time>2026-04-12T07:33:32.041Z</time></trkpt><trkpt lat="45.2300017" lon="9.0323018"><ele>66.0</ele><time>2026-04-12T07:33:34.056Z</time></trkpt><trkpt lat="45.2299376" lon="9.0323319"><ele>66.0</ele><time>2026-04-12T07:33:36.064Z</time></trkpt><trkpt lat="45.2298735" lon="9.032355"><ele>66.0</ele><time>2026-04-12T07:33:38.057Z</time></trkpt><trkpt lat="45.229786" lon="9.0323959"><ele>66.0</ele><time>2026-04-12T07:33:41.055Z</time></trkpt><trkpt lat="45.2297207" lon="9.032443"><ele>66.0</ele><time>2026-04-12T07:33:43.051Z</time></trkpt><trkpt lat="45.2296553" lon="9.0325029"><ele>66.0</ele><time>2026-04-12T07:33:45.051Z</time></trkpt><trkpt lat="45.2296035" lon="9.0325663"><ele>66.0</ele><time>2026-04-12T07:33:47.052Z</time></trkpt><trkpt lat="45.2295395" lon="9.0326445"><ele>65.8</ele><time>2026-04-12T07:33:50.056Z</time></trkpt><trkpt lat="45.2294735" lon="9.0327388"><ele>65.6</ele><time>2026-04-12T07:33:53.055Z</time></trkpt><trkpt lat="45.2294266" lon="9.0328147"><ele>65.4</ele><time>2026-04-12T07:33:55.131Z</time></trkpt><trkpt lat="45.2293693" lon="9.0329304"><ele>65.2</ele><time>2026-04-12T07:33:58.05Z</time></trkpt><trkpt lat="45.2293057" lon="9.0330405"><ele>65.0</ele><time>2026-04-12T07:34:01.051Z</time></trkpt><trkpt lat="45.2292385" lon="9.0331241"><ele>65.0</ele><time>2026-04-12T07:34:03.051Z</time></trkpt><trkpt lat="45.2291775" lon="9.0331745"><ele>65.0</ele><time>2026-04-12T07:34:05.057Z</time></trkpt><trkpt lat="45.2291099" lon="9.0332198"><ele>65.0</ele><time>2026-04-12T07:34:07.051Z</time></trkpt><trkpt lat="45.2290495" lon="9.033276"><ele>65.0</ele><time>2026-04-12T07:34:09.052Z</time></trkpt><trkpt lat="45.2289949" lon="9.0333617"><ele>65.0</ele><time>2026-04-12T07:34:12.054Z</time></trkpt><trkpt lat="45.2289524" lon="9.0334281"><ele>65.0</ele><time>2026-04-12T07:34:14.045Z</time></trkpt><trkpt lat="45.2288912" lon="9.0335314"><ele>65.00000000000001</ele><time>2026-04-12T07:34:17.057Z</time></trkpt><trkpt lat="45.2288393" lon="9.0335952"><ele>65.0</ele><time>2026-04-12T07:34:19.076Z</time></trkpt><trkpt lat="45.2287824" lon="9.0336599"><ele>65.0</ele><time>2026-04-12T07:34:21.073Z</time></trkpt><trkpt lat="45.2287299" lon="9.0337283"><ele>65.0</ele><time>2026-04-12T07:34:23.078Z</time></trkpt><trkpt lat="45.2286731" lon="9.033804"><ele>65.0</ele><time>2026-04-12T07:34:25.072Z</time></trkpt><trkpt lat="45.228626" lon="9.0338675"><ele>65.00000000000001</ele><time>2026-04-12T07:34:27.056Z</time></trkpt><trkpt lat="45.228559" lon="9.0339561"><ele>65.0</ele><time>2026-04-12T07:34:30.059Z</time></trkpt><trkpt lat="45.2285165" lon="9.034025"><ele>65.0</ele><time>2026-04-12T07:34:32.048Z</time></trkpt><trkpt lat="45.2284629" lon="9.0340837"><ele>65.0</ele><time>2026-04-12T07:34:34.049Z</time></trkpt><trkpt lat="45.2283971" lon="9.0341695"><ele>65.0</ele><time>2026-04-12T07:34:36.052Z</time></trkpt><trkpt lat="45.2283461" lon="9.0342498"><ele>65.0</ele><time>2026-04-12T07:34:38.056Z</time></trkpt><trkpt lat="45.2282888" lon="9.0343212"><ele>65.0</ele><time>2026-04-12T07:34:40.059Z</time></trkpt><trkpt lat="45.2282346" lon="9.0343862"><ele>65.0</ele><time>2026-04-12T07:34:42.049Z</time></trkpt><trkpt lat="45.2281834" lon="9.0344641"><ele>64.5</ele><time>2026-04-12T07:34:44.135Z</time></trkpt><trkpt lat="45.2281129" lon="9.0345573"><ele>64.0</ele><time>2026-04-12T07:34:47.051Z</time></trkpt><trkpt lat="45.2280611" lon="9.034624"><ele>63.5</ele><time>2026-04-12T07:34:49.054Z</time></trkpt><trkpt lat="45.2279969" lon="9.0346774"><ele>63.0</ele><time>2026-04-12T07:34:51.048Z</time></trkpt><trkpt lat="45.2279434" lon="9.0347398"><ele>62.50000000000001</ele><time>2026-04-12T07:34:53.053Z</time></trkpt><trkpt lat="45.2278777" lon="9.0348065"><ele>62.0</ele><time>2026-04-12T07:34:56.049Z</time></trkpt><trkpt lat="45.2277967" lon="9.0348637"><ele>62.0</ele><time>2026-04-12T07:34:59.056Z</time></trkpt><trkpt lat="45.2277168" lon="9.0349056"><ele>62.00000000000001</ele><time>2026-04-12T07:35:02.06Z</time></trkpt><trkpt lat="45.227628" lon="9.0349313"><ele>62.0</ele><time>2026-04-12T07:35:05.059Z</time></trkpt><trkpt lat="45.2275696" lon="9.0349714"><ele>62.0</ele><time>2026-04-12T07:35:07.058Z</time></trkpt><trkpt lat="45.2275099" lon="9.0350201"><ele>62.00000000000001</ele><time>2026-04-12T07:35:09.126Z</time></trkpt><trkpt lat="45.2274458" lon="9.0350455"><ele>62.0</ele><time>2026-04-12T07:35:11.084Z</time></trkpt><trkpt lat="45.2273846" lon="9.0350793"><ele>62.0</ele><time>2026-04-12T07:35:13.053Z</time></trkpt><trkpt lat="45.227325" lon="9.03514"><ele>61.85714285714286</ele><time>2026-04-12T07:35:15.055Z</time></trkpt><trkpt lat="45.2272705" lon="9.0352101"><ele>61.71428571428572</ele><time>2026-04-12T07:35:17.055Z</time></trkpt><trkpt lat="45.2272242" lon="9.0352825"><ele>61.57142857142857</ele><time>2026-04-12T07:35:19.072Z</time></trkpt><trkpt lat="45.2271723" lon="9.035348"><ele>61.42857142857143</ele><time>2026-04-12T07:35:21.053Z</time></trkpt><trkpt lat="45.2271329" lon="9.0354241"><ele>61.285714285714285</ele><time>2026-04-12T07:35:23.05Z</time></trkpt><trkpt lat="45.227115" lon="9.0355159"><ele>61.14285714285714</ele><time>2026-04-12T07:35:25.043Z</time></trkpt><trkpt lat="45.2271044" lon="9.0356076"><ele>60.99999999999999</ele><time>2026-04-12T07:35:27.064Z</time></trkpt><trkpt lat="45.2270859" lon="9.035732"><ele>61.166666666666664</ele><time>2026-04-12T07:35:30.075Z</time></trkpt><trkpt lat="45.227057" lon="9.0358479"><ele>61.33333333333333</ele><time>2026-04-12T07:35:33.08Z</time></trkpt><trkpt lat="45.2270371" lon="9.035944"><ele>61.5</ele><time>2026-04-12T07:35:35.056Z</time></trkpt><trkpt lat="45.227011" lon="9.0360365"><ele>61.66666666666667</ele><time>2026-04-12T07:35:37.064Z</time></trkpt><trkpt lat="45.2269706" lon="9.0361586"><ele>61.833333333333336</ele><time>2026-04-12T07:35:40.086Z</time></trkpt><trkpt lat="45.2269377" lon="9.0362351"><ele>62.0</ele><time>2026-04-12T07:35:42.092Z</time></trkpt><trkpt lat="45.2269031" lon="9.0363174"><ele>62.0</ele><time>2026-04-12T07:35:44.055Z</time></trkpt><trkpt lat="45.2268686" lon="9.0364064"><ele>62.00000000000001</ele><time>2026-04-12T07:35:46.07Z</time></trkpt><trkpt lat="45.226834" lon="9.036495"><ele>62.0</ele><time>2026-04-12T07:35:48.071Z</time></trkpt><trkpt lat="45.2267954" lon="9.0365802"><ele>62.0</ele><time>2026-04-12T07:35:51.071Z</time></trkpt><trkpt lat="45.2267625" lon="9.0366608"><ele>62.00000000000001</ele><time>2026-04-12T07:35:54.048Z</time></trkpt><trkpt lat="45.2267223" lon="9.0367593"><ele>62.0</ele><time>2026-04-12T07:36:00.045Z</time></trkpt><trkpt lat="45.2266486" lon="9.0368297"><ele>62.0</ele><time>2026-04-12T07:36:04.05Z</time></trkpt><trkpt lat="45.2265764" lon="9.0369076"><ele>62.16666666666667</ele><time>2026-04-12T07:36:07.05Z</time></trkpt><trkpt lat="45.2265289" lon="9.0369716"><ele>62.333333333333336</ele><time>2026-04-12T07:36:09.051Z</time></trkpt><trkpt lat="45.2264918" lon="9.0370561"><ele>62.5</ele><time>2026-04-12T07:36:11.058Z</time></trkpt><trkpt lat="45.2264575" lon="9.0371367"><ele>62.66666666666667</ele><time>2026-04-12T07:36:13.132Z</time></trkpt><trkpt lat="45.226364" lon="9.0371181"><ele>62.833333333333336</ele><time>2026-04-12T07:36:16.126Z</time></trkpt><trkpt lat="45.2263002" lon="9.0371007"><ele>63.0</ele><time>2026-04-12T07:36:18.054Z</time></trkpt><trkpt lat="45.226205" lon="9.0370995"><ele>63.166666666666664</ele><time>2026-04-12T07:36:21.053Z</time></trkpt><trkpt lat="45.2261318" lon="9.0371339"><ele>63.33333333333333</ele><time>2026-04-12T07:36:23.055Z</time></trkpt><trkpt lat="45.2260583" lon="9.037211"><ele>63.5</ele><time>2026-04-12T07:36:26.047Z</time></trkpt><trkpt lat="45.2260067" lon="9.0372792"><ele>63.666666666666664</ele><time>2026-04-12T07:36:28.046Z</time></trkpt><trkpt lat="45.2259573" lon="9.0373969"><ele>63.83333333333333</ele><time>2026-04-12T07:36:31.081Z</time></trkpt><trkpt lat="45.2259134" lon="9.037497"><ele>64.0</ele><time>2026-04-12T07:36:33.045Z</time></trkpt><trkpt lat="45.2258576" lon="9.0375925"><ele>64.0</ele><time>2026-04-12T07:36:35.059Z</time></trkpt><trkpt lat="45.2258215" lon="9.037747"><ele>64.0</ele><time>2026-04-12T07:36:37.063Z</time></trkpt><trkpt lat="45.2257715" lon="9.0378608"><ele>64.0</ele><time>2026-04-12T07:36:39.052Z</time></trkpt><trkpt lat="45.2257187" lon="9.0379479"><ele>64.0</ele><time>2026-04-12T07:36:41.116Z</time></trkpt><trkpt lat="45.2256646" lon="9.0380372"><ele>64.0</ele><time>2026-04-12T07:36:43.065Z</time></trkpt><trkpt lat="45.2256054" lon="9.0381245"><ele>63.800000000000004</ele><time>2026-04-12T07:36:45.047Z</time></trkpt><trkpt lat="45.2255481" lon="9.0382031"><ele>63.60000000000001</ele><time>2026-04-12T07:36:47.04Z</time></trkpt><trkpt lat="45.2254823" lon="9.0383052"><ele>63.4</ele><time>2026-04-12T07:36:49.06Z</time></trkpt><trkpt lat="45.2254136" lon="9.0383996"><ele>63.2</ele><time>2026-04-12T07:36:51.074Z</time></trkpt><trkpt lat="45.2253605" lon="9.0385006"><ele>63.0</ele><time>2026-04-12T07:36:53.052Z</time></trkpt><trkpt lat="45.2253201" lon="9.0386175"><ele>63.333333333333336</ele><time>2026-04-12T07:36:55.054Z</time></trkpt><trkpt lat="45.2252769" lon="9.0387286"><ele>63.66666666666667</ele><time>2026-04-12T07:36:57.049Z</time></trkpt><trkpt lat="45.2252392" lon="9.0388358"><ele>64.0</ele><time>2026-04-12T07:36:59.053Z</time></trkpt><trkpt lat="45.2252171" lon="9.0389396"><ele>64.33333333333334</ele><time>2026-04-12T07:37:01.054Z</time></trkpt><trkpt lat="45.2252045" lon="9.0390491"><ele>64.66666666666667</ele><time>2026-04-12T07:37:03.055Z</time></trkpt><trkpt lat="45.2252092" lon="9.0391497"><ele>65.0</ele><time>2026-04-12T07:37:05.05Z</time></trkpt><trkpt lat="45.2251783" lon="9.0392482"><ele>65.16666666666667</ele><time>2026-04-12T07:37:09.063Z</time></trkpt><trkpt lat="45.225109" lon="9.0392658"><ele>65.33333333333334</ele><time>2026-04-12T07:37:12.082Z</time></trkpt><trkpt lat="45.2250428" lon="9.0392863"><ele>65.5</ele><time>2026-04-12T07:37:15.064Z</time></trkpt><trkpt lat="45.2249747" lon="9.0393363"><ele>65.66666666666667</ele><time>2026-04-12T07:37:18.076Z</time></trkpt><trkpt lat="45.2249137" lon="9.0394272"><ele>65.83333333333333</ele><time>2026-04-12T07:37:21.073Z</time></trkpt><trkpt lat="45.224866" lon="9.0395265"><ele>66.0</ele><time>2026-04-12T07:37:24.047Z</time></trkpt><trkpt lat="45.2248258" lon="9.0396146"><ele>66.0</ele><time>2026-04-12T07:37:26.069Z</time></trkpt><trkpt lat="45.224762" lon="9.0397025"><ele>66.0</ele><time>2026-04-12T07:37:29.059Z</time></trkpt><trkpt lat="45.2247232" lon="9.0398234"><ele>66.0</ele><time>2026-04-12T07:37:32.049Z</time></trkpt><trkpt lat="45.2246974" lon="9.0399252"><ele>66.0</ele><time>2026-04-12T07:37:35.046Z</time></trkpt><trkpt lat="45.2246311" lon="9.0399657"><ele>66.0</ele><time>2026-04-12T07:37:38.054Z</time></trkpt><trkpt lat="45.2245656" lon="9.0400356"><ele>66.0</ele><time>2026-04-12T07:37:41.054Z</time></trkpt><trkpt lat="45.2245177" lon="9.0400956"><ele>66.0</ele><time>2026-04-12T07:37:43.059Z</time></trkpt><trkpt lat="45.2244582" lon="9.0401902"><ele>66.0</ele><time>2026-04-12T07:37:46.053Z</time></trkpt><trkpt lat="45.2244149" lon="9.0402595"><ele>66.0</ele><time>2026-04-12T07:37:48.056Z</time></trkpt><trkpt lat="45.2243762" lon="9.0403649"><ele>66.0</ele><time>2026-04-12T07:37:50.055Z</time></trkpt><trkpt lat="45.2243446" lon="9.0404605"><ele>66.0</ele><time>2026-04-12T07:37:52.051Z</time></trkpt><trkpt lat="45.2242949" lon="9.0405449"><ele>66.0</ele><time>2026-04-12T07:37:55.059Z</time></trkpt><trkpt lat="45.224199" lon="9.0405612"><ele>66.0</ele><time>2026-04-12T07:37:58.055Z</time></trkpt><trkpt lat="45.2241274" lon="9.0405889"><ele>66.0</ele><time>2026-04-12T07:38:00.136Z</time></trkpt><trkpt lat="45.2240518" lon="9.0406484"><ele>66.0</ele><time>2026-04-12T07:38:03.047Z</time></trkpt><trkpt lat="45.2239941" lon="9.0407277"><ele>66.0</ele><time>2026-04-12T07:38:06.052Z</time></trkpt><trkpt lat="45.2239788" lon="9.0408312"><ele>66.0</ele><time>2026-04-12T07:38:09.044Z</time></trkpt><trkpt lat="45.2239475" lon="9.0409337"><ele>66.0</ele><time>2026-04-12T07:38:12.047Z</time></trkpt><trkpt lat="45.2238908" lon="9.0410169"><ele>65.5</ele><time>2026-04-12T07:38:15.067Z</time></trkpt><trkpt lat="45.2238191" lon="9.0410981"><ele>65.0</ele><time>2026-04-12T07:38:18.084Z</time></trkpt><trkpt lat="45.2238195" lon="9.0411983"><ele>64.5</ele><time>2026-04-12T07:38:20.071Z</time></trkpt><trkpt lat="45.2238322" lon="9.0413019"><ele>64.0</ele><time>2026-04-12T07:38:22.069Z</time></trkpt><trkpt lat="45.2238692" lon="9.0414156"><ele>63.5</ele><time>2026-04-12T07:38:25.069Z</time></trkpt><trkpt lat="45.2238985" lon="9.0415362"><ele>63.0</ele><time>2026-04-12T07:38:28.072Z</time></trkpt><trkpt lat="45.2239267" lon="9.0416543"><ele>63.0</ele><time>2026-04-12T07:38:31.07Z</time></trkpt><trkpt lat="45.2239459" lon="9.0417759"><ele>63.0</ele><time>2026-04-12T07:38:34.068Z</time></trkpt><trkpt lat="45.2239508" lon="9.0418955"><ele>63.0</ele><time>2026-04-12T07:38:37.062Z</time></trkpt><trkpt lat="45.2239621" lon="9.0420243"><ele>63.0</ele><time>2026-04-12T07:38:40.045Z</time></trkpt><trkpt lat="45.223978" lon="9.0421168"><ele>63.0</ele><time>2026-04-12T07:38:42.065Z</time></trkpt><trkpt lat="45.2239937" lon="9.0422084"><ele>63.0</ele><time>2026-04-12T07:38:44.088Z</time></trkpt><trkpt lat="45.2240027" lon="9.0423159"><ele>63.833333333333336</ele><time>2026-04-12T07:38:47.062Z</time></trkpt><trkpt lat="45.2240336" lon="9.0424381"><ele>64.66666666666667</ele><time>2026-04-12T07:38:50.069Z</time></trkpt><trkpt lat="45.2240878" lon="9.0425195"><ele>65.5</ele><time>2026-04-12T07:38:53.044Z</time></trkpt><trkpt lat="45.224124" lon="9.0426478"><ele>66.33333333333334</ele><time>2026-04-12T07:38:56.058Z</time></trkpt><trkpt lat="45.2241268" lon="9.042764"><ele>67.16666666666667</ele><time>2026-04-12T07:38:59.055Z</time></trkpt><trkpt lat="45.2241564" lon="9.0428817"><ele>68.0</ele><time>2026-04-12T07:39:02.048Z</time></trkpt><trkpt lat="45.2242138" lon="9.0429801"><ele>68.16666666666667</ele><time>2026-04-12T07:39:06.052Z</time></trkpt><trkpt lat="45.2242326" lon="9.043098"><ele>68.33333333333334</ele><time>2026-04-12T07:39:10.043Z</time></trkpt><trkpt lat="45.224253" lon="9.043212"><ele>68.5</ele><time>2026-04-12T07:39:13.089Z</time></trkpt><trkpt lat="45.2242734" lon="9.0433162"><ele>68.66666666666667</ele><time>2026-04-12T07:39:16.147Z</time></trkpt><trkpt lat="45.224255" lon="9.0434331"><ele>68.83333333333333</ele><time>2026-04-12T07:39:19.06Z</time></trkpt><trkpt lat="45.2242788" lon="9.0435376"><ele>69.0</ele><time>2026-04-12T07:39:22.074Z</time></trkpt><trkpt lat="45.2243426" lon="9.0435779"><ele>68.57142857142857</ele><time>2026-04-12T07:39:26.048Z</time></trkpt><trkpt lat="45.2243819" lon="9.0436529"><ele>68.14285714285715</ele><time>2026-04-12T07:39:32.051Z</time></trkpt><trkpt lat="45.2244414" lon="9.0437218"><ele>67.71428571428572</ele><time>2026-04-12T07:39:36.049Z</time></trkpt><trkpt lat="45.2244914" lon="9.043804"><ele>67.28571428571429</ele><time>2026-04-12T07:39:40.116Z</time></trkpt><trkpt lat="45.224531" lon="9.0438765"><ele>66.85714285714286</ele><time>2026-04-12T07:39:42.046Z</time></trkpt><trkpt lat="45.2245703" lon="9.0439546"><ele>66.42857142857143</ele><time>2026-04-12T07:39:44.049Z</time></trkpt><trkpt lat="45.2246057" lon="9.0440584"><ele>66.0</ele><time>2026-04-12T07:39:46.046Z</time></trkpt><trkpt lat="45.2246457" lon="9.0441698"><ele>66.0</ele><time>2026-04-12T07:39:49.051Z</time></trkpt><trkpt lat="45.224702" lon="9.0442206"><ele>66.0</ele><time>2026-04-12T07:39:53.139Z</time></trkpt><trkpt lat="45.2247643" lon="9.0442369"><ele>66.0</ele><time>2026-04-12T07:39:57.053Z</time></trkpt><trkpt lat="45.2248347" lon="9.0442583"><ele>66.0</ele><time>2026-04-12T07:39:59.062Z</time></trkpt><trkpt lat="45.2249171" lon="9.0442121"><ele>66.0</ele><time>2026-04-12T07:40:02.053Z</time></trkpt><trkpt lat="45.224979" lon="9.0441886"><ele>66.0</ele><time>2026-04-12T07:40:05.05Z</time></trkpt><trkpt lat="45.2250315" lon="9.0441215"><ele>66.0</ele><time>2026-04-12T07:40:08.052Z</time></trkpt><trkpt lat="45.2250983" lon="9.04408"><ele>66.0</ele><time>2026-04-12T07:40:13.046Z</time></trkpt><trkpt lat="45.2251831" lon="9.0440563"><ele>66.0</ele><time>2026-04-12T07:40:32.045Z</time></trkpt><trkpt lat="45.2252625" lon="9.0440947"><ele>66.0</ele><time>2026-04-12T07:40:36.065Z</time></trkpt><trkpt lat="45.2253053" lon="9.0441918"><ele>66.0</ele><time>2026-04-12T07:40:39.069Z</time></trkpt><trkpt lat="45.2253719" lon="9.0442992"><ele>66.0</ele><time>2026-04-12T07:40:42.048Z</time></trkpt><trkpt lat="45.2254296" lon="9.0443788"><ele>66.0</ele><time>2026-04-12T07:40:44.056Z</time></trkpt><trkpt lat="45.2254937" lon="9.044466"><ele>66.0</ele><time>2026-04-12T07:40:47.049Z</time></trkpt><trkpt lat="45.225536" lon="9.0445474"><ele>66.0</ele><time>2026-04-12T07:40:49.062Z</time></trkpt><trkpt lat="45.2255585" lon="9.0446512"><ele>66.0</ele><time>2026-04-12T07:40:51.064Z</time></trkpt><trkpt lat="45.2255764" lon="9.0447718"><ele>66.0</ele><time>2026-04-12T07:40:53.069Z</time></trkpt><trkpt lat="45.2255896" lon="9.0448773"><ele>66.0</ele><time>2026-04-12T07:40:55.064Z</time></trkpt><trkpt lat="45.2256017" lon="9.044973"><ele>66.0</ele><time>2026-04-12T07:40:57.066Z</time></trkpt><trkpt lat="45.2256011" lon="9.0450863"><ele>66.0</ele><time>2026-04-12T07:40:59.12Z</time></trkpt><trkpt lat="45.2255835" lon="9.0451903"><ele>66.0</ele><time>2026-04-12T07:41:01.044Z</time></trkpt><trkpt lat="45.2255499" lon="9.0452928"><ele>66.0</ele><time>2026-04-12T07:41:03.066Z</time></trkpt><trkpt lat="45.2255133" lon="9.0454202"><ele>66.0</ele><time>2026-04-12T07:41:06.079Z</time></trkpt><trkpt lat="45.2254977" lon="9.0455083"><ele>66.0</ele><time>2026-04-12T07:41:08.068Z</time></trkpt><trkpt lat="45.2254703" lon="9.0456332"><ele>66.0</ele><time>2026-04-12T07:41:11.075Z</time></trkpt><trkpt lat="45.2254385" lon="9.0457276"><ele>66.0</ele><time>2026-04-12T07:41:13.048Z</time></trkpt><trkpt lat="45.2254052" lon="9.0458224"><ele>66.0</ele><time>2026-04-12T07:41:15.048Z</time></trkpt><trkpt lat="45.22536" lon="9.0459125"><ele>66.0</ele><time>2026-04-12T07:41:17.049Z</time></trkpt><trkpt lat="45.2253232" lon="9.0460004"><ele>66.0</ele><time>2026-04-12T07:41:19.049Z</time></trkpt><trkpt lat="45.2252903" lon="9.0460782"><ele>66.0</ele><time>2026-04-12T07:41:21.052Z</time></trkpt><trkpt lat="45.2252625" lon="9.0462069"><ele>66.0</ele><time>2026-04-12T07:41:24.046Z</time></trkpt><trkpt lat="45.2252296" lon="9.0462909"><ele>66.0</ele><time>2026-04-12T07:41:26.051Z</time></trkpt><trkpt lat="45.2251828" lon="9.0463901"><ele>66.0</ele><time>2026-04-12T07:41:28.054Z</time></trkpt><trkpt lat="45.2251732" lon="9.0464933"><ele>66.0</ele><time>2026-04-12T07:41:30.053Z</time></trkpt><trkpt lat="45.22522" lon="9.0465605"><ele>66.0</ele><time>2026-04-12T07:41:32.053Z</time></trkpt><trkpt lat="45.2252943" lon="9.0466433"><ele>66.0</ele><time>2026-04-12T07:41:35.053Z</time></trkpt><trkpt lat="45.2253646" lon="9.0467448"><ele>66.0</ele><time>2026-04-12T07:41:38.048Z</time></trkpt><trkpt lat="45.2254078" lon="9.0468116"><ele>65.83333333333333</ele><time>2026-04-12T07:41:40.056Z</time></trkpt><trkpt lat="45.2255026" lon="9.0468432"><ele>65.66666666666667</ele><time>2026-04-12T07:41:43.064Z</time></trkpt><trkpt lat="45.2255741" lon="9.0468328"><ele>65.5</ele><time>2026-04-12T07:41:45.068Z</time></trkpt><trkpt lat="45.2256508" lon="9.0468264"><ele>65.33333333333334</ele><time>2026-04-12T07:41:47.072Z</time></trkpt><trkpt lat="45.2257308" lon="9.0468266"><ele>65.16666666666667</ele><time>2026-04-12T07:41:49.056Z</time></trkpt><trkpt lat="45.2258199" lon="9.0468125"><ele>65.0</ele><time>2026-04-12T07:41:51.073Z</time></trkpt><trkpt lat="45.2259017" lon="9.0468033"><ele>64.83333333333334</ele><time>2026-04-12T07:41:53.073Z</time></trkpt><trkpt lat="45.2259808" lon="9.0467926"><ele>64.66666666666667</ele><time>2026-04-12T07:41:55.046Z</time></trkpt><trkpt lat="45.2260686" lon="9.0467826"><ele>64.5</ele><time>2026-04-12T07:41:57.056Z</time></trkpt><trkpt lat="45.2261532" lon="9.0467717"><ele>64.33333333333333</ele><time>2026-04-12T07:41:59.045Z</time></trkpt><trkpt lat="45.2262289" lon="9.0467481"><ele>64.16666666666666</ele><time>2026-04-12T07:42:01.131Z</time></trkpt><trkpt lat="45.226316" lon="9.0467417"><ele>64.0</ele><time>2026-04-12T07:42:03.077Z</time></trkpt><trkpt lat="45.2264009" lon="9.0467445"><ele>65.0</ele><time>2026-04-12T07:42:05.052Z</time></trkpt><trkpt lat="45.226489" lon="9.0467412"><ele>66.0</ele><time>2026-04-12T07:42:07.05Z</time></trkpt><trkpt lat="45.2265885" lon="9.0467183"><ele>67.0</ele><time>2026-04-12T07:42:09.046Z</time></trkpt><trkpt lat="45.2266813" lon="9.0466887"><ele>68.0</ele><time>2026-04-12T07:42:11.053Z</time></trkpt><trkpt lat="45.2267508" lon="9.0466469"><ele>69.0</ele><time>2026-04-12T07:42:13.043Z</time></trkpt><trkpt lat="45.2267917" lon="9.0465725"><ele>70.0</ele><time>2026-04-12T07:42:15.047Z</time></trkpt><trkpt lat="45.2268081" lon="9.0464478"><ele>70.66666666666666</ele><time>2026-04-12T07:42:17.046Z</time></trkpt><trkpt lat="45.2268097" lon="9.0463366"><ele>71.33333333333333</ele><time>2026-04-12T07:42:19.046Z</time></trkpt><trkpt lat="45.2268028" lon="9.0462395"><ele>72.0</ele><time>2026-04-12T07:42:21.048Z</time></trkpt><trkpt lat="45.2267875" lon="9.0461402"><ele>72.66666666666667</ele><time>2026-04-12T07:42:23.039Z</time></trkpt><trkpt lat="45.2267665" lon="9.0460269"><ele>73.33333333333334</ele><time>2026-04-12T07:42:25.058Z</time></trkpt><trkpt lat="45.2267638" lon="9.0459127"><ele>74.0</ele><time>2026-04-12T07:42:27.05Z</time></trkpt><trkpt lat="45.226795" lon="9.0458216"><ele>74.0</ele><time>2026-04-12T07:42:29.05Z</time></trkpt><trkpt lat="45.2268433" lon="9.0457155"><ele>74.0</ele><time>2026-04-12T07:42:32.046Z</time></trkpt><trkpt lat="45.2269345" lon="9.0456687"><ele>74.0</ele><time>2026-04-12T07:42:35.073Z</time></trkpt><trkpt lat="45.2270024" lon="9.0456816"><ele>74.0</ele><time>2026-04-12T07:42:37.045Z</time></trkpt><trkpt lat="45.2270581" lon="9.0457457"><ele>74.0</ele><time>2026-04-12T07:42:39.045Z</time></trkpt><trkpt lat="45.2270997" lon="9.0458172"><ele>74.0</ele><time>2026-04-12T07:42:42.045Z</time></trkpt><trkpt lat="45.2271403" lon="9.0457437"><ele>74.0</ele><time>2026-04-12T07:42:55.054Z</time></trkpt><trkpt lat="45.2271381" lon="9.0458402"><ele>74.0</ele><time>2026-04-12T07:43:09.074Z</time></trkpt><trkpt lat="45.2271463" lon="9.0459354"><ele>74.0</ele><time>2026-04-12T07:43:12.065Z</time></trkpt><trkpt lat="45.2271551" lon="9.0460525"><ele>74.0</ele><time>2026-04-12T07:43:15.071Z</time></trkpt><trkpt lat="45.2271711" lon="9.0461425"><ele>74.0</ele><time>2026-04-12T07:43:17.07Z</time></trkpt><trkpt lat="45.2271841" lon="9.0462372"><ele>74.0</ele><time>2026-04-12T07:43:19.066Z</time></trkpt><trkpt lat="45.2272062" lon="9.0463308"><ele>74.0</ele><time>2026-04-12T07:43:21.067Z</time></trkpt><trkpt lat="45.2272373" lon="9.0464159"><ele>74.0</ele><time>2026-04-12T07:43:23.082Z</time></trkpt><trkpt lat="45.2273047" lon="9.0464964"><ele>74.0</ele><time>2026-04-12T07:43:25.087Z</time></trkpt><trkpt lat="45.2273783" lon="9.0465573"><ele>74.0</ele><time>2026-04-12T07:43:27.068Z</time></trkpt><trkpt lat="45.2274654" lon="9.0465885"><ele>74.0</ele><time>2026-04-12T07:43:29.06Z</time></trkpt><trkpt lat="45.2275461" lon="9.0466316"><ele>74.0</ele><time>2026-04-12T07:43:31.051Z</time></trkpt><trkpt lat="45.2276303" lon="9.0466607"><ele>74.0</ele><time>2026-04-12T07:43:33.057Z</time></trkpt><trkpt lat="45.2277059" lon="9.0466835"><ele>74.0</ele><time>2026-04-12T07:43:35.079Z</time></trkpt><trkpt lat="45.227797" lon="9.0467111"><ele>74.0</ele><time>2026-04-12T07:43:37.062Z</time></trkpt><trkpt lat="45.227884" lon="9.0467281"><ele>74.0</ele><time>2026-04-12T07:43:39.057Z</time></trkpt><trkpt lat="45.2279678" lon="9.0467526"><ele>74.0</ele><time>2026-04-12T07:43:41.064Z</time></trkpt><trkpt lat="45.2280532" lon="9.0467737"><ele>74.0</ele><time>2026-04-12T07:43:43.077Z</time></trkpt><trkpt lat="45.2281304" lon="9.0468115"><ele>74.0</ele><time>2026-04-12T07:43:45.062Z</time></trkpt><trkpt lat="45.2282089" lon="9.0468208"><ele>74.16666666666667</ele><time>2026-04-12T07:43:47.07Z</time></trkpt><trkpt lat="45.2282932" lon="9.0468481"><ele>74.33333333333334</ele><time>2026-04-12T07:43:49.078Z</time></trkpt><trkpt lat="45.2283798" lon="9.0468789"><ele>74.5</ele><time>2026-04-12T07:43:51.076Z</time></trkpt><trkpt lat="45.2284668" lon="9.0468805"><ele>74.66666666666667</ele><time>2026-04-12T07:43:53.072Z</time></trkpt><trkpt lat="45.228542" lon="9.0468676"><ele>74.83333333333333</ele><time>2026-04-12T07:43:55.08Z</time></trkpt><trkpt lat="45.2286114" lon="9.0469181"><ele>75.0</ele><time>2026-04-12T07:43:57.076Z</time></trkpt><trkpt lat="45.2286554" lon="9.0470066"><ele>75.0</ele><time>2026-04-12T07:43:59.071Z</time></trkpt><trkpt lat="45.2286756" lon="9.0471246"><ele>75.0</ele><time>2026-04-12T07:44:01.069Z</time></trkpt><trkpt lat="45.2286688" lon="9.0472377"><ele>75.0</ele><time>2026-04-12T07:44:03.078Z</time></trkpt><trkpt lat="45.2286646" lon="9.0473585"><ele>75.0</ele><time>2026-04-12T07:44:05.076Z</time></trkpt><trkpt lat="45.2286579" lon="9.0474743"><ele>75.0</ele><time>2026-04-12T07:44:07.067Z</time></trkpt><trkpt lat="45.2286372" lon="9.0475964"><ele>75.0</ele><time>2026-04-12T07:44:09.077Z</time></trkpt><trkpt lat="45.2286216" lon="9.0477124"><ele>75.16666666666667</ele><time>2026-04-12T07:44:11.078Z</time></trkpt><trkpt lat="45.2286052" lon="9.0478231"><ele>75.33333333333333</ele><time>2026-04-12T07:44:13.083Z</time></trkpt><trkpt lat="45.2285944" lon="9.0479414"><ele>75.5</ele><time>2026-04-12T07:44:15.053Z</time></trkpt><trkpt lat="45.2285789" lon="9.048059"><ele>75.66666666666666</ele><time>2026-04-12T07:44:17.044Z</time></trkpt><trkpt lat="45.2285687" lon="9.0481741"><ele>75.83333333333333</ele><time>2026-04-12T07:44:19.15Z</time></trkpt><trkpt lat="45.2285538" lon="9.0482988"><ele>76.0</ele><time>2026-04-12T07:44:21.076Z</time></trkpt><trkpt lat="45.228541" lon="9.0484231"><ele>76.33333333333333</ele><time>2026-04-12T07:44:23.072Z</time></trkpt><trkpt lat="45.2285282" lon="9.0485386"><ele>76.66666666666666</ele><time>2026-04-12T07:44:25.068Z</time></trkpt><trkpt lat="45.2285233" lon="9.0486593"><ele>77.0</ele><time>2026-04-12T07:44:27.045Z</time></trkpt><trkpt lat="45.2285022" lon="9.0487893"><ele>77.33333333333333</ele><time>2026-04-12T07:44:29.055Z</time></trkpt><trkpt lat="45.2284856" lon="9.0489181"><ele>77.66666666666667</ele><time>2026-04-12T07:44:31.068Z</time></trkpt><trkpt lat="45.2284721" lon="9.0490317"><ele>78.0</ele><time>2026-04-12T07:44:33.055Z</time></trkpt><trkpt lat="45.2284591" lon="9.0491395"><ele>78.0</ele><time>2026-04-12T07:44:35.048Z</time></trkpt><trkpt lat="45.2284414" lon="9.0492588"><ele>78.0</ele><time>2026-04-12T07:44:37.046Z</time></trkpt><trkpt lat="45.2284307" lon="9.0493825"><ele>78.0</ele><time>2026-04-12T07:44:39.069Z</time></trkpt><trkpt lat="45.2284163" lon="9.0494923"><ele>78.0</ele><time>2026-04-12T07:44:41.044Z</time></trkpt><trkpt lat="45.2284065" lon="9.0496048"><ele>78.0</ele><time>2026-04-12T07:44:43.064Z</time></trkpt><trkpt lat="45.2283899" lon="9.0497232"><ele>78.0</ele><time>2026-04-12T07:44:45.07Z</time></trkpt><trkpt lat="45.2283696" lon="9.0498363"><ele>78.0</ele><time>2026-04-12T07:44:47.065Z</time></trkpt><trkpt lat="45.2283755" lon="9.0499449"><ele>78.0</ele><time>2026-04-12T07:44:49.078Z</time></trkpt><trkpt lat="45.2284355" lon="9.0500175"><ele>78.0</ele><time>2026-04-12T07:44:51.072Z</time></trkpt><trkpt lat="45.2285188" lon="9.0500465"><ele>78.0</ele><time>2026-04-12T07:44:53.071Z</time></trkpt><trkpt lat="45.2285986" lon="9.0500741"><ele>78.0</ele><time>2026-04-12T07:44:55.049Z</time></trkpt><trkpt lat="45.2286694" lon="9.0501075"><ele>78.0</ele><time>2026-04-12T07:44:57.134Z</time></trkpt><trkpt lat="45.2287278" lon="9.0501681"><ele>78.16666666666667</ele><time>2026-04-12T07:44:59.069Z</time></trkpt><trkpt lat="45.2287295" lon="9.0502708"><ele>78.33333333333333</ele><time>2026-04-12T07:45:01.049Z</time></trkpt><trkpt lat="45.2287061" lon="9.0503941"><ele>78.5</ele><time>2026-04-12T07:45:03.048Z</time></trkpt><trkpt lat="45.2286769" lon="9.0505195"><ele>78.66666666666666</ele><time>2026-04-12T07:45:05.048Z</time></trkpt><trkpt lat="45.228651" lon="9.0506394"><ele>78.83333333333333</ele><time>2026-04-12T07:45:07.058Z</time></trkpt><trkpt lat="45.2286262" lon="9.0507508"><ele>79.0</ele><time>2026-04-12T07:45:09.049Z</time></trkpt><trkpt lat="45.2285991" lon="9.05086"><ele>79.0</ele><time>2026-04-12T07:45:11.075Z</time></trkpt><trkpt lat="45.2285769" lon="9.0509649"><ele>79.0</ele><time>2026-04-12T07:45:13.067Z</time></trkpt><trkpt lat="45.2285586" lon="9.0510721"><ele>79.0</ele><time>2026-04-12T07:45:15.066Z</time></trkpt><trkpt lat="45.2285405" lon="9.0511871"><ele>79.0</ele><time>2026-04-12T07:45:17.056Z</time></trkpt><trkpt lat="45.2285206" lon="9.0512982"><ele>79.0</ele><time>2026-04-12T07:45:19.081Z</time></trkpt><trkpt lat="45.2285209" lon="9.0514275"><ele>79.0</ele><time>2026-04-12T07:45:21.071Z</time></trkpt><trkpt lat="45.2285753" lon="9.0515006"><ele>79.0</ele><time>2026-04-12T07:45:23.063Z</time></trkpt><trkpt lat="45.2286524" lon="9.0515229"><ele>79.0</ele><time>2026-04-12T07:45:25.079Z</time></trkpt><trkpt lat="45.2287324" lon="9.0515455"><ele>79.0</ele><time>2026-04-12T07:45:27.086Z</time></trkpt><trkpt lat="45.2287764" lon="9.0516389"><ele>79.0</ele><time>2026-04-12T07:45:29.066Z</time></trkpt><trkpt lat="45.2287809" lon="9.0517385"><ele>79.0</ele><time>2026-04-12T07:45:31.061Z</time></trkpt><trkpt lat="45.2287703" lon="9.051845"><ele>79.0</ele><time>2026-04-12T07:45:33.056Z</time></trkpt><trkpt lat="45.228764" lon="9.051954"><ele>78.5</ele><time>2026-04-12T07:45:35.049Z</time></trkpt><trkpt lat="45.2287549" lon="9.0520725"><ele>78.0</ele><time>2026-04-12T07:45:37.061Z</time></trkpt><trkpt lat="45.2287477" lon="9.0521817"><ele>77.5</ele><time>2026-04-12T07:45:39.147Z</time></trkpt><trkpt lat="45.228742" lon="9.0522949"><ele>77.0</ele><time>2026-04-12T07:45:41.075Z</time></trkpt><trkpt lat="45.2287325" lon="9.0524055"><ele>76.5</ele><time>2026-04-12T07:45:43.049Z</time></trkpt><trkpt lat="45.2287229" lon="9.052512"><ele>76.0</ele><time>2026-04-12T07:45:45.04Z</time></trkpt><trkpt lat="45.2287136" lon="9.0526234"><ele>76.0</ele><time>2026-04-12T07:45:47.046Z</time></trkpt><trkpt lat="45.2287071" lon="9.0527418"><ele>76.0</ele><time>2026-04-12T07:45:49.058Z</time></trkpt><trkpt lat="45.2286932" lon="9.0528644"><ele>76.0</ele><time>2026-04-12T07:45:51.058Z</time></trkpt><trkpt lat="45.2286848" lon="9.0529793"><ele>76.0</ele><time>2026-04-12T07:45:53.059Z</time></trkpt><trkpt lat="45.2286653" lon="9.0530954"><ele>76.0</ele><time>2026-04-12T07:45:55.057Z</time></trkpt><trkpt lat="45.228655" lon="9.0532138"><ele>76.0</ele><time>2026-04-12T07:45:57.051Z</time></trkpt><trkpt lat="45.2286443" lon="9.0533191"><ele>76.6</ele><time>2026-04-12T07:45:59.053Z</time></trkpt><trkpt lat="45.2286292" lon="9.053429"><ele>77.19999999999999</ele><time>2026-04-12T07:46:01.049Z</time></trkpt><trkpt lat="45.228597" lon="9.0535251"><ele>77.80000000000001</ele><time>2026-04-12T07:46:03.05Z</time></trkpt><trkpt lat="45.2285545" lon="9.0536351"><ele>78.4</ele><time>2026-04-12T07:46:05.07Z</time></trkpt><trkpt lat="45.2285005" lon="9.0537585"><ele>79.0</ele><time>2026-04-12T07:46:07.078Z</time></trkpt><trkpt lat="45.2284438" lon="9.053888"><ele>79.0</ele><time>2026-04-12T07:46:09.06Z</time></trkpt><trkpt lat="45.2283659" lon="9.0539766"><ele>79.0</ele><time>2026-04-12T07:46:11.076Z</time></trkpt><trkpt lat="45.2282649" lon="9.0539564"><ele>79.0</ele><time>2026-04-12T07:46:13.076Z</time></trkpt><trkpt lat="45.2281791" lon="9.0539023"><ele>79.0</ele><time>2026-04-12T07:46:15.069Z</time></trkpt><trkpt lat="45.2280758" lon="9.0538589"><ele>79.0</ele><time>2026-04-12T07:46:17.132Z</time></trkpt><trkpt lat="45.2279767" lon="9.0538045"><ele>78.60000000000001</ele><time>2026-04-12T07:46:19.075Z</time></trkpt><trkpt lat="45.2278761" lon="9.0537562"><ele>78.2</ele><time>2026-04-12T07:46:21.073Z</time></trkpt><trkpt lat="45.2277934" lon="9.0537097"><ele>77.80000000000001</ele><time>2026-04-12T07:46:23.077Z</time></trkpt><trkpt lat="45.227704" lon="9.0536569"><ele>77.4</ele><time>2026-04-12T07:46:25.049Z</time></trkpt><trkpt lat="45.2276108" lon="9.0535948"><ele>77.0</ele><time>2026-04-12T07:46:27.076Z</time></trkpt><trkpt lat="45.2275022" lon="9.053536"><ele>77.0</ele><time>2026-04-12T07:46:29.061Z</time></trkpt><trkpt lat="45.2273934" lon="9.0535301"><ele>77.0</ele><time>2026-04-12T07:46:31.075Z</time></trkpt><trkpt lat="45.2272943" lon="9.053626"><ele>77.0</ele><time>2026-04-12T07:46:33.072Z</time></trkpt><trkpt lat="45.22723" lon="9.0537589"><ele>77.0</ele><time>2026-04-12T07:46:35.068Z</time></trkpt><trkpt lat="45.2271678" lon="9.0538983"><ele>76.5</ele><time>2026-04-12T07:46:37.081Z</time></trkpt><trkpt lat="45.2271107" lon="9.0540417"><ele>76.0</ele><time>2026-04-12T07:46:39.078Z</time></trkpt><trkpt lat="45.2270661" lon="9.054186"><ele>75.5</ele><time>2026-04-12T07:46:41.079Z</time></trkpt><trkpt lat="45.227024" lon="9.0543325"><ele>75.0</ele><time>2026-04-12T07:46:43.059Z</time></trkpt><trkpt lat="45.2269747" lon="9.0544811"><ele>75.0</ele><time>2026-04-12T07:46:45.046Z</time></trkpt><trkpt lat="45.2269258" lon="9.0546297"><ele>75.0</ele><time>2026-04-12T07:46:47.049Z</time></trkpt><trkpt lat="45.2268697" lon="9.0547941"><ele>75.0</ele><time>2026-04-12T07:46:49.047Z</time></trkpt><trkpt lat="45.2268091" lon="9.0549447"><ele>75.0</ele><time>2026-04-12T07:46:51.053Z</time></trkpt><trkpt lat="45.2267503" lon="9.0550779"><ele>75.25</ele><time>2026-04-12T07:46:53.076Z</time></trkpt><trkpt lat="45.226701" lon="9.0552272"><ele>75.5</ele><time>2026-04-12T07:46:55.05Z</time></trkpt><trkpt lat="45.2266466" lon="9.0553746"><ele>75.75</ele><time>2026-04-12T07:46:57.051Z</time></trkpt><trkpt lat="45.2265997" lon="9.0555163"><ele>76.0</ele><time>2026-04-12T07:46:59.052Z</time></trkpt><trkpt lat="45.2265537" lon="9.0556591"><ele>76.2</ele><time>2026-04-12T07:47:01.041Z</time></trkpt><trkpt lat="45.2264965" lon="9.0558011"><ele>76.39999999999999</ele><time>2026-04-12T07:47:03.046Z</time></trkpt><trkpt lat="45.2264394" lon="9.0559455"><ele>76.6</ele><time>2026-04-12T07:47:05.047Z</time></trkpt><trkpt lat="45.2263866" lon="9.0561021"><ele>76.8</ele><time>2026-04-12T07:47:07.046Z</time></trkpt><trkpt lat="45.2263559" lon="9.0561815"><ele>77.0</ele><time>2026-04-12T07:47:08.055Z</time></trkpt><trkpt lat="45.2263291" lon="9.0562659"><ele>77.0</ele><time>2026-04-12T07:47:09.121Z</time></trkpt><trkpt lat="45.2262607" lon="9.0564138"><ele>77.0</ele><time>2026-04-12T07:47:11.057Z</time></trkpt><trkpt lat="45.2261994" lon="9.0565488"><ele>77.0</ele><time>2026-04-12T07:47:13.051Z</time></trkpt><trkpt lat="45.2261564" lon="9.0566164"><ele>77.0</ele><time>2026-04-12T07:47:14.055Z</time></trkpt><trkpt lat="45.2260702" lon="9.0566854"><ele>77.0</ele><time>2026-04-12T07:47:16.043Z</time></trkpt><trkpt lat="45.2259685" lon="9.0567571"><ele>77.0</ele><time>2026-04-12T07:47:18.047Z</time></trkpt><trkpt lat="45.2258706" lon="9.0568494"><ele>77.0</ele><time>2026-04-12T07:47:20.072Z</time></trkpt><trkpt lat="45.2257843" lon="9.0569677"><ele>77.0</ele><time>2026-04-12T07:47:22.052Z</time></trkpt><trkpt lat="45.2257275" lon="9.05709"><ele>77.0</ele><time>2026-04-12T07:47:24.047Z</time></trkpt><trkpt lat="45.2256683" lon="9.0572084"><ele>77.0</ele><time>2026-04-12T07:47:26.045Z</time></trkpt><trkpt lat="45.2256112" lon="9.0573277"><ele>76.6</ele><time>2026-04-12T07:47:28.048Z</time></trkpt><trkpt lat="45.2255557" lon="9.0574553"><ele>76.2</ele><time>2026-04-12T07:47:30.045Z</time></trkpt><trkpt lat="45.2255036" lon="9.0575904"><ele>75.8</ele><time>2026-04-12T07:47:32.117Z</time></trkpt><trkpt lat="45.2254488" lon="9.0577252"><ele>75.4</ele><time>2026-04-12T07:47:34.068Z</time></trkpt><trkpt lat="45.2253999" lon="9.0578721"><ele>75.0</ele><time>2026-04-12T07:47:36.05Z</time></trkpt><trkpt lat="45.2253372" lon="9.0579925"><ele>75.0</ele><time>2026-04-12T07:47:38.051Z</time></trkpt><trkpt lat="45.2252767" lon="9.0581239"><ele>75.0</ele><time>2026-04-12T07:47:40.054Z</time></trkpt><trkpt lat="45.2251978" lon="9.0582687"><ele>75.0</ele><time>2026-04-12T07:47:42.05Z</time></trkpt><trkpt lat="45.2251489" lon="9.0583472"><ele>75.0</ele><time>2026-04-12T07:47:43.056Z</time></trkpt><trkpt lat="45.225099" lon="9.0584356"><ele>75.0</ele><time>2026-04-12T07:47:44.048Z</time></trkpt><trkpt lat="45.2250478" lon="9.0585061"><ele>75.2</ele><time>2026-04-12T07:47:45.051Z</time></trkpt><trkpt lat="45.2249964" lon="9.0585818"><ele>75.4</ele><time>2026-04-12T07:47:46.045Z</time></trkpt><trkpt lat="45.2249451" lon="9.0586445"><ele>75.6</ele><time>2026-04-12T07:47:47.042Z</time></trkpt><trkpt lat="45.2248611" lon="9.0587414"><ele>75.8</ele><time>2026-04-12T07:47:49.045Z</time></trkpt><trkpt lat="45.2247899" lon="9.0588356"><ele>76.0</ele><time>2026-04-12T07:47:51.049Z</time></trkpt><trkpt lat="45.2247272" lon="9.0589585"><ele>76.25</ele><time>2026-04-12T07:47:53.051Z</time></trkpt><trkpt lat="45.2247092" lon="9.0591186"><ele>76.5</ele><time>2026-04-12T07:47:55.051Z</time></trkpt><trkpt lat="45.2247098" lon="9.0592834"><ele>76.75</ele><time>2026-04-12T07:47:57.053Z</time></trkpt><trkpt lat="45.2247297" lon="9.0594526"><ele>77.0</ele><time>2026-04-12T07:47:59.052Z</time></trkpt><trkpt lat="45.2247666" lon="9.0596163"><ele>77.0</ele><time>2026-04-12T07:48:01.057Z</time></trkpt><trkpt lat="45.2247974" lon="9.0597717"><ele>77.0</ele><time>2026-04-12T07:48:03.055Z</time></trkpt><trkpt lat="45.2248171" lon="9.0599493"><ele>77.0</ele><time>2026-04-12T07:48:05.053Z</time></trkpt><trkpt lat="45.2248287" lon="9.060114"><ele>77.0</ele><time>2026-04-12T07:48:07.055Z</time></trkpt><trkpt lat="45.2248218" lon="9.0602813"><ele>77.0</ele><time>2026-04-12T07:48:09.055Z</time></trkpt><trkpt lat="45.2248076" lon="9.0604084"><ele>77.0</ele><time>2026-04-12T07:48:11.05Z</time></trkpt><trkpt lat="45.2247633" lon="9.060523"><ele>77.0</ele><time>2026-04-12T07:48:13.049Z</time></trkpt><trkpt lat="45.2247062" lon="9.0606311"><ele>77.0</ele><time>2026-04-12T07:48:15.049Z</time></trkpt><trkpt lat="45.2246442" lon="9.0607628"><ele>77.0</ele><time>2026-04-12T07:48:17.047Z</time></trkpt><trkpt lat="45.2245677" lon="9.0608761"><ele>77.0</ele><time>2026-04-12T07:48:19.055Z</time></trkpt><trkpt lat="45.2244684" lon="9.0609297"><ele>77.0</ele><time>2026-04-12T07:48:21.042Z</time></trkpt><trkpt lat="45.2243662" lon="9.060881"><ele>77.0</ele><time>2026-04-12T07:48:23.042Z</time></trkpt><trkpt lat="45.2243061" lon="9.0607989"><ele>77.0</ele><time>2026-04-12T07:48:25.073Z</time></trkpt><trkpt lat="45.2242399" lon="9.060691"><ele>77.0</ele><time>2026-04-12T07:48:27.066Z</time></trkpt><trkpt lat="45.2241588" lon="9.060587"><ele>76.8</ele><time>2026-04-12T07:48:29.068Z</time></trkpt><trkpt lat="45.2240602" lon="9.0605239"><ele>76.6</ele><time>2026-04-12T07:48:31.073Z</time></trkpt><trkpt lat="45.2239527" lon="9.060473"><ele>76.39999999999999</ele><time>2026-04-12T07:48:33.067Z</time></trkpt><trkpt lat="45.2238583" lon="9.0604142"><ele>76.2</ele><time>2026-04-12T07:48:35.082Z</time></trkpt><trkpt lat="45.2237662" lon="9.0603429"><ele>76.0</ele><time>2026-04-12T07:48:37.069Z</time></trkpt><trkpt lat="45.2236766" lon="9.060264"><ele>76.2</ele><time>2026-04-12T07:48:39.061Z</time></trkpt><trkpt lat="45.2235815" lon="9.0601902"><ele>76.39999999999999</ele><time>2026-04-12T07:48:41.07Z</time></trkpt><trkpt lat="45.2235024" lon="9.0600949"><ele>76.6</ele><time>2026-04-12T07:48:43.076Z</time></trkpt><trkpt lat="45.223416" lon="9.0599923"><ele>76.8</ele><time>2026-04-12T07:48:45.071Z</time></trkpt><trkpt lat="45.2233279" lon="9.0598843"><ele>77.0</ele><time>2026-04-12T07:48:47.064Z</time></trkpt><trkpt lat="45.2232419" lon="9.059775"><ele>77.0</ele><time>2026-04-12T07:48:49.065Z</time></trkpt><trkpt lat="45.2231597" lon="9.0596688"><ele>77.0</ele><time>2026-04-12T07:48:51.066Z</time></trkpt><trkpt lat="45.2230831" lon="9.0595798"><ele>77.0</ele><time>2026-04-12T07:48:53.076Z</time></trkpt><trkpt lat="45.2230193" lon="9.0594968"><ele>77.0</ele><time>2026-04-12T07:48:55.058Z</time></trkpt><trkpt lat="45.2229488" lon="9.0594008"><ele>77.0</ele><time>2026-04-12T07:48:57.063Z</time></trkpt><trkpt lat="45.2228867" lon="9.059322"><ele>76.83333333333334</ele><time>2026-04-12T07:48:59.065Z</time></trkpt><trkpt lat="45.2228225" lon="9.0592296"><ele>76.66666666666667</ele><time>2026-04-12T07:49:01.045Z</time></trkpt><trkpt lat="45.2227482" lon="9.059135"><ele>76.5</ele><time>2026-04-12T07:49:03.072Z</time></trkpt><trkpt lat="45.2226772" lon="9.059044"><ele>76.33333333333333</ele><time>2026-04-12T07:49:05.067Z</time></trkpt><trkpt lat="45.2226123" lon="9.0589651"><ele>76.16666666666666</ele><time>2026-04-12T07:49:07.064Z</time></trkpt><trkpt lat="45.2225533" lon="9.0589166"><ele>76.0</ele><time>2026-04-12T07:49:09.057Z</time></trkpt><trkpt lat="45.2224894" lon="9.0589362"><ele>75.2</ele><time>2026-04-12T07:49:11.074Z</time></trkpt><trkpt lat="45.2224276" lon="9.0589866"><ele>74.39999999999999</ele><time>2026-04-12T07:49:13.078Z</time></trkpt><trkpt lat="45.2223723" lon="9.0590578"><ele>73.6</ele><time>2026-04-12T07:49:15.055Z</time></trkpt><trkpt lat="45.2223006" lon="9.0591669"><ele>72.8</ele><time>2026-04-12T07:49:17.057Z</time></trkpt><trkpt lat="45.2222258" lon="9.0592725"><ele>72.0</ele><time>2026-04-12T07:49:19.059Z</time></trkpt><trkpt lat="45.2221446" lon="9.0593729"><ele>72.0</ele><time>2026-04-12T07:49:21.058Z</time></trkpt><trkpt lat="45.2220587" lon="9.0594742"><ele>72.0</ele><time>2026-04-12T07:49:23.068Z</time></trkpt><trkpt lat="45.2219693" lon="9.0595592"><ele>72.0</ele><time>2026-04-12T07:49:25.073Z</time></trkpt><trkpt lat="45.2218832" lon="9.0596497"><ele>72.0</ele><time>2026-04-12T07:49:27.068Z</time></trkpt><trkpt lat="45.2217951" lon="9.059738"><ele>72.0</ele><time>2026-04-12T07:49:29.062Z</time></trkpt><trkpt lat="45.221711" lon="9.0598261"><ele>72.0</ele><time>2026-04-12T07:49:31.066Z</time></trkpt><trkpt lat="45.2216293" lon="9.0599316"><ele>72.0</ele><time>2026-04-12T07:49:33.061Z</time></trkpt><trkpt lat="45.2215445" lon="9.0600235"><ele>72.0</ele><time>2026-04-12T07:49:35.059Z</time></trkpt><trkpt lat="45.2214692" lon="9.0601088"><ele>72.0</ele><time>2026-04-12T07:49:37.058Z</time></trkpt><trkpt lat="45.221389" lon="9.0601915"><ele>72.0</ele><time>2026-04-12T07:49:39.066Z</time></trkpt><trkpt lat="45.2213056" lon="9.0602824"><ele>72.8</ele><time>2026-04-12T07:49:41.064Z</time></trkpt><trkpt lat="45.2212273" lon="9.0603732"><ele>73.6</ele><time>2026-04-12T07:49:43.077Z</time></trkpt><trkpt lat="45.2211569" lon="9.0604536"><ele>74.39999999999999</ele><time>2026-04-12T07:49:45.058Z</time></trkpt><trkpt lat="45.2210864" lon="9.0605305"><ele>75.2</ele><time>2026-04-12T07:49:47.069Z</time></trkpt><trkpt lat="45.2210163" lon="9.0606145"><ele>76.0</ele><time>2026-04-12T07:49:49.075Z</time></trkpt><trkpt lat="45.2209379" lon="9.0607017"><ele>76.2</ele><time>2026-04-12T07:49:51.073Z</time></trkpt><trkpt lat="45.2208586" lon="9.06079"><ele>76.39999999999999</ele><time>2026-04-12T07:49:53.073Z</time></trkpt><trkpt lat="45.2207815" lon="9.0608717"><ele>76.6</ele><time>2026-04-12T07:49:55.045Z</time></trkpt><trkpt lat="45.2207013" lon="9.0609579"><ele>76.8</ele><time>2026-04-12T07:49:57.046Z</time></trkpt><trkpt lat="45.2206326" lon="9.0610468"><ele>77.0</ele><time>2026-04-12T07:49:59.042Z</time></trkpt><trkpt lat="45.2205507" lon="9.0611447"><ele>77.0</ele><time>2026-04-12T07:50:01.048Z</time></trkpt><trkpt lat="45.2204775" lon="9.0612345"><ele>77.0</ele><time>2026-04-12T07:50:03.078Z</time></trkpt><trkpt lat="45.2204107" lon="9.0613032"><ele>77.0</ele><time>2026-04-12T07:50:05.044Z</time></trkpt><trkpt lat="45.2203372" lon="9.0612375"><ele>77.0</ele><time>2026-04-12T07:50:08.047Z</time></trkpt><trkpt lat="45.2202911" lon="9.0611273"><ele>77.0</ele><time>2026-04-12T07:50:10.051Z</time></trkpt><trkpt lat="45.2202672" lon="9.0610396"><ele>77.0</ele><time>2026-04-12T07:50:12.043Z</time></trkpt><trkpt lat="45.2202254" lon="9.0609705"><ele>77.0</ele><time>2026-04-12T07:50:15.053Z</time></trkpt><trkpt lat="45.2201761" lon="9.060872"><ele>77.0</ele><time>2026-04-12T07:50:18.041Z</time></trkpt><trkpt lat="45.2201363" lon="9.0607599"><ele>77.0</ele><time>2026-04-12T07:50:20.061Z</time></trkpt><trkpt lat="45.220097" lon="9.0606417"><ele>77.0</ele><time>2026-04-12T07:50:22.073Z</time></trkpt><trkpt lat="45.2200648" lon="9.0605389"><ele>77.0</ele><time>2026-04-12T07:50:24.051Z</time></trkpt><trkpt lat="45.2200435" lon="9.0604241"><ele>77.0</ele><time>2026-04-12T07:50:26.044Z</time></trkpt><trkpt lat="45.2200185" lon="9.0603125"><ele>77.0</ele><time>2026-04-12T07:50:28.055Z</time></trkpt><trkpt lat="45.2199899" lon="9.0601963"><ele>77.0</ele><time>2026-04-12T07:50:30.041Z</time></trkpt><trkpt lat="45.2199683" lon="9.0600705"><ele>77.0</ele><time>2026-04-12T07:50:32.07Z</time></trkpt><trkpt lat="45.2199513" lon="9.0599641"><ele>77.0</ele><time>2026-04-12T07:50:34.073Z</time></trkpt><trkpt lat="45.2199307" lon="9.0598753"><ele>77.0</ele><time>2026-04-12T07:50:36.137Z</time></trkpt><trkpt lat="45.2199092" lon="9.0597862"><ele>77.0</ele><time>2026-04-12T07:50:38.075Z</time></trkpt><trkpt lat="45.2198924" lon="9.0596872"><ele>76.42857142857143</ele><time>2026-04-12T07:50:41.076Z</time></trkpt><trkpt lat="45.2198787" lon="9.0595996"><ele>75.85714285714286</ele><time>2026-04-12T07:50:45.061Z</time></trkpt><trkpt lat="45.2198571" lon="9.0595054"><ele>75.28571428571428</ele><time>2026-04-12T07:50:51.051Z</time></trkpt><trkpt lat="45.2197871" lon="9.0594682"><ele>74.71428571428572</ele><time>2026-04-12T07:50:55.061Z</time></trkpt><trkpt lat="45.219724" lon="9.0594583"><ele>74.14285714285714</ele><time>2026-04-12T07:50:57.063Z</time></trkpt><trkpt lat="45.2196595" lon="9.0594855"><ele>73.57142857142857</ele><time>2026-04-12T07:50:59.06Z</time></trkpt><trkpt lat="45.2195694" lon="9.0594525"><ele>73.0</ele><time>2026-04-12T07:51:02.05Z</time></trkpt><trkpt lat="45.2194982" lon="9.0594928"><ele>72.83333333333333</ele><time>2026-04-12T07:51:04.073Z</time></trkpt><trkpt lat="45.2194156" lon="9.0594376"><ele>72.66666666666666</ele><time>2026-04-12T07:51:07.063Z</time></trkpt><trkpt lat="45.2193493" lon="9.0593878"><ele>72.5</ele><time>2026-04-12T07:51:09.054Z</time></trkpt><trkpt lat="45.2192668" lon="9.0594125"><ele>72.33333333333333</ele><time>2026-04-12T07:51:11.069Z</time></trkpt><trkpt lat="45.2191765" lon="9.0594246"><ele>72.16666666666667</ele><time>2026-04-12T07:51:13.061Z</time></trkpt><trkpt lat="45.2190891" lon="9.0594507"><ele>72.0</ele><time>2026-04-12T07:51:15.062Z</time></trkpt><trkpt lat="45.2190117" lon="9.0594667"><ele>72.33333333333333</ele><time>2026-04-12T07:51:17.043Z</time></trkpt><trkpt lat="45.2189233" lon="9.0594342"><ele>72.66666666666667</ele><time>2026-04-12T07:51:20.077Z</time></trkpt><trkpt lat="45.2188478" lon="9.059353"><ele>73.0</ele><time>2026-04-12T07:51:22.093Z</time></trkpt><trkpt lat="45.2187811" lon="9.0592572"><ele>73.33333333333334</ele><time>2026-04-12T07:51:24.08Z</time></trkpt><trkpt lat="45.2187193" lon="9.0592106"><ele>73.66666666666667</ele><time>2026-04-12T07:51:26.067Z</time></trkpt><trkpt lat="45.2186395" lon="9.0591735"><ele>74.0</ele><time>2026-04-12T07:51:28.06Z</time></trkpt><trkpt lat="45.2185649" lon="9.0591321"><ele>74.0</ele><time>2026-04-12T07:51:30.04Z</time></trkpt><trkpt lat="45.2184811" lon="9.0591011"><ele>74.0</ele><time>2026-04-12T07:51:32.058Z</time></trkpt><trkpt lat="45.218406" lon="9.0591113"><ele>74.0</ele><time>2026-04-12T07:51:34.064Z</time></trkpt><trkpt lat="45.2183126" lon="9.0591283"><ele>74.0</ele><time>2026-04-12T07:51:37.045Z</time></trkpt><trkpt lat="45.2182472" lon="9.0591397"><ele>74.0</ele><time>2026-04-12T07:51:39.062Z</time></trkpt><trkpt lat="45.2181799" lon="9.0591465"><ele>74.0</ele><time>2026-04-12T07:51:41.052Z</time></trkpt><trkpt lat="45.2181081" lon="9.0591159"><ele>73.83333333333334</ele><time>2026-04-12T07:51:43.139Z</time></trkpt><trkpt lat="45.2180327" lon="9.0591386"><ele>73.66666666666667</ele><time>2026-04-12T07:51:45.043Z</time></trkpt><trkpt lat="45.2179684" lon="9.0592133"><ele>73.5</ele><time>2026-04-12T07:51:47.057Z</time></trkpt><trkpt lat="45.217882" lon="9.0592594"><ele>73.33333333333333</ele><time>2026-04-12T07:51:49.046Z</time></trkpt><trkpt lat="45.2177939" lon="9.0593053"><ele>73.16666666666666</ele><time>2026-04-12T07:51:51.075Z</time></trkpt><trkpt lat="45.2177132" lon="9.0593623"><ele>73.0</ele><time>2026-04-12T07:51:53.059Z</time></trkpt><trkpt lat="45.2176384" lon="9.0594272"><ele>73.0</ele><time>2026-04-12T07:51:55.071Z</time></trkpt><trkpt lat="45.2176157" lon="9.0595278"><ele>73.0</ele><time>2026-04-12T07:51:57.069Z</time></trkpt><trkpt lat="45.2176227" lon="9.0596346"><ele>73.0</ele><time>2026-04-12T07:51:59.059Z</time></trkpt><trkpt lat="45.2176398" lon="9.0597488"><ele>73.0</ele><time>2026-04-12T07:52:01.063Z</time></trkpt><trkpt lat="45.2176543" lon="9.0598377"><ele>73.0</ele><time>2026-04-12T07:52:02.07Z</time></trkpt><trkpt lat="45.2176741" lon="9.0599778"><ele>73.0</ele><time>2026-04-12T07:52:04.066Z</time></trkpt><trkpt lat="45.2177157" lon="9.0601061"><ele>73.5</ele><time>2026-04-12T07:52:06.08Z</time></trkpt><trkpt lat="45.2177781" lon="9.0601849"><ele>74.0</ele><time>2026-04-12T07:52:08.063Z</time></trkpt><trkpt lat="45.2178551" lon="9.0602206"><ele>74.5</ele><time>2026-04-12T07:52:10.072Z</time></trkpt><trkpt lat="45.2179299" lon="9.0602729"><ele>75.0</ele><time>2026-04-12T07:52:12.083Z</time></trkpt><trkpt lat="45.2180011" lon="9.0603116"><ele>75.5</ele><time>2026-04-12T07:52:14.067Z</time></trkpt><trkpt lat="45.2180806" lon="9.0603798"><ele>76.0</ele><time>2026-04-12T07:52:16.07Z</time></trkpt><trkpt lat="45.2181396" lon="9.0604606"><ele>76.0</ele><time>2026-04-12T07:52:18.074Z</time></trkpt><trkpt lat="45.2181833" lon="9.0605366"><ele>76.0</ele><time>2026-04-12T07:52:20.07Z</time></trkpt><trkpt lat="45.2182011" lon="9.0606246"><ele>76.0</ele><time>2026-04-12T07:52:22.071Z</time></trkpt><trkpt lat="45.2181597" lon="9.0607115"><ele>76.0</ele><time>2026-04-12T07:52:24.06Z</time></trkpt><trkpt lat="45.2180941" lon="9.0607555"><ele>76.0</ele><time>2026-04-12T07:52:26.065Z</time></trkpt><trkpt lat="45.2180069" lon="9.060783"><ele>76.0</ele><time>2026-04-12T07:52:28.086Z</time></trkpt><trkpt lat="45.217927" lon="9.0608405"><ele>76.0</ele><time>2026-04-12T07:52:30.059Z</time></trkpt><trkpt lat="45.2178444" lon="9.0608955"><ele>76.0</ele><time>2026-04-12T07:52:32.064Z</time></trkpt><trkpt lat="45.2177719" lon="9.0609527"><ele>76.0</ele><time>2026-04-12T07:52:34.064Z</time></trkpt><trkpt lat="45.2176945" lon="9.0610256"><ele>76.0</ele><time>2026-04-12T07:52:36.064Z</time></trkpt><trkpt lat="45.2176121" lon="9.0611127"><ele>76.0</ele><time>2026-04-12T07:52:38.068Z</time></trkpt><trkpt lat="45.2175377" lon="9.0611687"><ele>76.0</ele><time>2026-04-12T07:52:40.067Z</time></trkpt><trkpt lat="45.2175031" lon="9.0612709"><ele>76.0</ele><time>2026-04-12T07:52:42.045Z</time></trkpt><trkpt lat="45.2174731" lon="9.0613928"><ele>76.0</ele><time>2026-04-12T07:52:44.049Z</time></trkpt><trkpt lat="45.2174362" lon="9.0615107"><ele>76.0</ele><time>2026-04-12T07:52:46.045Z</time></trkpt><trkpt lat="45.2173875" lon="9.0615909"><ele>76.0</ele><time>2026-04-12T07:52:48.047Z</time></trkpt><trkpt lat="45.2173164" lon="9.061658"><ele>76.0</ele><time>2026-04-12T07:52:50.048Z</time></trkpt><trkpt lat="45.2172339" lon="9.0616808"><ele>76.28571428571428</ele><time>2026-04-12T07:52:52.042Z</time></trkpt><trkpt lat="45.2171881" lon="9.0617448"><ele>76.57142857142858</ele><time>2026-04-12T07:52:54.055Z</time></trkpt><trkpt lat="45.2172014" lon="9.0618343"><ele>76.85714285714286</ele><time>2026-04-12T07:52:56.042Z</time></trkpt><trkpt lat="45.217232" lon="9.0619252"><ele>77.14285714285714</ele><time>2026-04-12T07:52:58.048Z</time></trkpt><trkpt lat="45.2172651" lon="9.0620136"><ele>77.42857142857142</ele><time>2026-04-12T07:53:00.047Z</time></trkpt><trkpt lat="45.2172923" lon="9.0621142"><ele>77.71428571428572</ele><time>2026-04-12T07:53:02.041Z</time></trkpt><trkpt lat="45.217316" lon="9.0622024"><ele>78.0</ele><time>2026-04-12T07:53:04.118Z</time></trkpt><trkpt lat="45.2173509" lon="9.062299"><ele>78.0</ele><time>2026-04-12T07:53:06.06Z</time></trkpt><trkpt lat="45.217382" lon="9.0624025"><ele>78.0</ele><time>2026-04-12T07:53:08.046Z</time></trkpt><trkpt lat="45.2174048" lon="9.0624987"><ele>78.0</ele><time>2026-04-12T07:53:10.049Z</time></trkpt><trkpt lat="45.2173853" lon="9.0626072"><ele>78.0</ele><time>2026-04-12T07:53:12.04Z</time></trkpt><trkpt lat="45.2173425" lon="9.0627106"><ele>78.0</ele><time>2026-04-12T07:53:14.049Z</time></trkpt><trkpt lat="45.2172879" lon="9.0627924"><ele>78.0</ele><time>2026-04-12T07:53:16.05Z</time></trkpt><trkpt lat="45.2172152" lon="9.0628304"><ele>77.5</ele><time>2026-04-12T07:53:18.049Z</time></trkpt><trkpt lat="45.2171389" lon="9.062896"><ele>77.0</ele><time>2026-04-12T07:53:20.062Z</time></trkpt><trkpt lat="45.217064" lon="9.0629719"><ele>76.5</ele><time>2026-04-12T07:53:22.059Z</time></trkpt><trkpt lat="45.2169901" lon="9.0630488"><ele>76.0</ele><time>2026-04-12T07:53:24.046Z</time></trkpt><trkpt lat="45.216923" lon="9.0631149"><ele>75.5</ele><time>2026-04-12T07:53:26.051Z</time></trkpt><trkpt lat="45.2168605" lon="9.063199"><ele>75.0</ele><time>2026-04-12T07:53:28.049Z</time></trkpt><trkpt lat="45.2168059" lon="9.063289"><ele>75.0</ele><time>2026-04-12T07:53:30.045Z</time></trkpt><trkpt lat="45.2167491" lon="9.0633776"><ele>75.0</ele><time>2026-04-12T07:53:32.044Z</time></trkpt><trkpt lat="45.2166916" lon="9.0634659"><ele>75.0</ele><time>2026-04-12T07:53:34.046Z</time></trkpt><trkpt lat="45.2166367" lon="9.0635721"><ele>75.0</ele><time>2026-04-12T07:53:36.047Z</time></trkpt><trkpt lat="45.2165763" lon="9.0636696"><ele>75.0</ele><time>2026-04-12T07:53:38.045Z</time></trkpt><trkpt lat="45.2165177" lon="9.0637547"><ele>75.0</ele><time>2026-04-12T07:53:40.082Z</time></trkpt><trkpt lat="45.2164652" lon="9.0638426"><ele>74.4</ele><time>2026-04-12T07:53:42.079Z</time></trkpt><trkpt lat="45.2164248" lon="9.063933"><ele>73.8</ele><time>2026-04-12T07:53:44.08Z</time></trkpt><trkpt lat="45.216377" lon="9.0640074"><ele>73.2</ele><time>2026-04-12T07:53:46.067Z</time></trkpt><trkpt lat="45.2163158" lon="9.0641115"><ele>72.6</ele><time>2026-04-12T07:53:48.081Z</time></trkpt><trkpt lat="45.2162676" lon="9.0642507"><ele>72.0</ele><time>2026-04-12T07:53:50.063Z</time></trkpt><trkpt lat="45.216232" lon="9.0643837"><ele>72.0</ele><time>2026-04-12T07:53:52.069Z</time></trkpt><trkpt lat="45.2161977" lon="9.0645234"><ele>72.0</ele><time>2026-04-12T07:53:54.077Z</time></trkpt><trkpt lat="45.2161707" lon="9.064663"><ele>72.0</ele><time>2026-04-12T07:53:56.069Z</time></trkpt><trkpt lat="45.2161417" lon="9.0648101"><ele>72.0</ele><time>2026-04-12T07:53:58.06Z</time></trkpt><trkpt lat="45.2160967" lon="9.0649269"><ele>72.0</ele><time>2026-04-12T07:54:00.045Z</time></trkpt><trkpt lat="45.2160145" lon="9.0650181"><ele>72.0</ele><time>2026-04-12T07:54:02.039Z</time></trkpt><trkpt lat="45.2159257" lon="9.0650889"><ele>72.0</ele><time>2026-04-12T07:54:04.041Z</time></trkpt><trkpt lat="45.2158606" lon="9.0651175"><ele>72.0</ele><time>2026-04-12T07:54:06.039Z</time></trkpt><trkpt lat="45.2157907" lon="9.0650653"><ele>72.0</ele><time>2026-04-12T07:54:09.042Z</time></trkpt><trkpt lat="45.2157577" lon="9.0649668"><ele>72.0</ele><time>2026-04-12T07:54:12.043Z</time></trkpt><trkpt lat="45.2157189" lon="9.0648881"><ele>72.0</ele><time>2026-04-12T07:54:14.048Z</time></trkpt><trkpt lat="45.2156791" lon="9.0648107"><ele>71.16666666666667</ele><time>2026-04-12T07:54:16.05Z</time></trkpt><trkpt lat="45.2156292" lon="9.0646919"><ele>70.33333333333333</ele><time>2026-04-12T07:54:19.053Z</time></trkpt><trkpt lat="45.2155892" lon="9.0646144"><ele>69.5</ele><time>2026-04-12T07:54:21.049Z</time></trkpt><trkpt lat="45.2155579" lon="9.0645254"><ele>68.66666666666666</ele><time>2026-04-12T07:54:23.052Z</time></trkpt><trkpt lat="45.2155244" lon="9.0644343"><ele>67.83333333333333</ele><time>2026-04-12T07:54:25.045Z</time></trkpt><trkpt lat="45.2154483" lon="9.0643786"><ele>67.0</ele><time>2026-04-12T07:54:27.044Z</time></trkpt><trkpt lat="45.2153468" lon="9.0644022"><ele>67.0</ele><time>2026-04-12T07:54:29.043Z</time></trkpt><trkpt lat="45.2152423" lon="9.0644579"><ele>67.0</ele><time>2026-04-12T07:54:31.052Z</time></trkpt><trkpt lat="45.2151669" lon="9.0645278"><ele>67.0</ele><time>2026-04-12T07:54:33.047Z</time></trkpt><trkpt lat="45.2150893" lon="9.064613"><ele>67.0</ele><time>2026-04-12T07:54:35.052Z</time></trkpt><trkpt lat="45.2150189" lon="9.0647108"><ele>67.0</ele><time>2026-04-12T07:54:37.071Z</time></trkpt><trkpt lat="45.2149503" lon="9.0647834"><ele>67.0</ele><time>2026-04-12T07:54:39.046Z</time></trkpt><trkpt lat="45.2148771" lon="9.0648586"><ele>67.0</ele><time>2026-04-12T07:54:41.05Z</time></trkpt><trkpt lat="45.2148081" lon="9.0649208"><ele>67.0</ele><time>2026-04-12T07:54:43.057Z</time></trkpt><trkpt lat="45.2147315" lon="9.0649429"><ele>67.0</ele><time>2026-04-12T07:54:45.051Z</time></trkpt><trkpt lat="45.2146526" lon="9.0649728"><ele>67.0</ele><time>2026-04-12T07:54:47.048Z</time></trkpt><trkpt lat="45.2145747" lon="9.0649817"><ele>67.0</ele><time>2026-04-12T07:54:49.047Z</time></trkpt><trkpt lat="45.2144942" lon="9.0649865"><ele>66.5</ele><time>2026-04-12T07:54:51.055Z</time></trkpt><trkpt lat="45.2144268" lon="9.0650062"><ele>66.0</ele><time>2026-04-12T07:54:53.046Z</time></trkpt><trkpt lat="45.2143539" lon="9.0650258"><ele>65.5</ele><time>2026-04-12T07:54:55.044Z</time></trkpt><trkpt lat="45.2142688" lon="9.0650549"><ele>65.0</ele><time>2026-04-12T07:54:57.055Z</time></trkpt><trkpt lat="45.2141915" lon="9.0650977"><ele>64.5</ele><time>2026-04-12T07:54:59.062Z</time></trkpt><trkpt lat="45.2140881" lon="9.0651235"><ele>64.0</ele><time>2026-04-12T07:55:01.061Z</time></trkpt><trkpt lat="45.2140167" lon="9.0651738"><ele>64.16666666666666</ele><time>2026-04-12T07:55:03.064Z</time></trkpt><trkpt lat="45.2139504" lon="9.0652399"><ele>64.33333333333333</ele><time>2026-04-12T07:55:05.051Z</time></trkpt><trkpt lat="45.2139035" lon="9.0653327"><ele>64.5</ele><time>2026-04-12T07:55:07.043Z</time></trkpt><trkpt lat="45.2138532" lon="9.0654295"><ele>64.66666666666667</ele><time>2026-04-12T07:55:09.074Z</time></trkpt><trkpt lat="45.2138122" lon="9.065534"><ele>64.83333333333334</ele><time>2026-04-12T07:55:11.071Z</time></trkpt><trkpt lat="45.2137638" lon="9.0656654"><ele>65.0</ele><time>2026-04-12T07:55:13.045Z</time></trkpt><trkpt lat="45.2137248" lon="9.0657809"><ele>65.16666666666667</ele><time>2026-04-12T07:55:15.042Z</time></trkpt><trkpt lat="45.2136935" lon="9.0659041"><ele>65.33333333333334</ele><time>2026-04-12T07:55:17.05Z</time></trkpt><trkpt lat="45.2136604" lon="9.066028"><ele>65.5</ele><time>2026-04-12T07:55:19.051Z</time></trkpt><trkpt lat="45.2136312" lon="9.0661421"><ele>65.66666666666667</ele><time>2026-04-12T07:55:21.052Z</time></trkpt><trkpt lat="45.2136058" lon="9.0662421"><ele>65.83333333333333</ele><time>2026-04-12T07:55:23.042Z</time></trkpt><trkpt lat="45.2135826" lon="9.0663322"><ele>66.0</ele><time>2026-04-12T07:55:25.049Z</time></trkpt><trkpt lat="45.2135476" lon="9.0664582"><ele>66.0</ele><time>2026-04-12T07:55:28.048Z</time></trkpt><trkpt lat="45.2135273" lon="9.0665534"><ele>66.0</ele><time>2026-04-12T07:55:30.05Z</time></trkpt><trkpt lat="45.2135046" lon="9.0666645"><ele>66.0</ele><time>2026-04-12T07:55:32.05Z</time></trkpt><trkpt lat="45.2134834" lon="9.066785"><ele>66.0</ele><time>2026-04-12T07:55:34.053Z</time></trkpt><trkpt lat="45.2134532" lon="9.0669065"><ele>66.0</ele><time>2026-04-12T07:55:36.062Z</time></trkpt><trkpt lat="45.2134293" lon="9.0670532"><ele>66.0</ele><time>2026-04-12T07:55:38.056Z</time></trkpt><trkpt lat="45.2134115" lon="9.0671675"><ele>66.2</ele><time>2026-04-12T07:55:40.071Z</time></trkpt><trkpt lat="45.2133839" lon="9.0672791"><ele>66.39999999999999</ele><time>2026-04-12T07:55:42.062Z</time></trkpt><trkpt lat="45.2133478" lon="9.067388"><ele>66.6</ele><time>2026-04-12T07:55:44.056Z</time></trkpt><trkpt lat="45.2132901" lon="9.0675565"><ele>66.8</ele><time>2026-04-12T07:55:47.049Z</time></trkpt><trkpt lat="45.2132418" lon="9.0676514"><ele>67.0</ele><time>2026-04-12T07:55:49.047Z</time></trkpt><trkpt lat="45.2131901" lon="9.0677426"><ele>66.83333333333333</ele><time>2026-04-12T07:55:51.044Z</time></trkpt><trkpt lat="45.2131676" lon="9.0678523"><ele>66.66666666666666</ele><time>2026-04-12T07:55:53.075Z</time></trkpt><trkpt lat="45.2131543" lon="9.067972"><ele>66.5</ele><time>2026-04-12T07:55:55.056Z</time></trkpt><trkpt lat="45.2131519" lon="9.0680799"><ele>66.33333333333333</ele><time>2026-04-12T07:55:57.07Z</time></trkpt><trkpt lat="45.2131485" lon="9.0682019"><ele>66.16666666666667</ele><time>2026-04-12T07:55:59.065Z</time></trkpt><trkpt lat="45.2131288" lon="9.0683233"><ele>66.0</ele><time>2026-04-12T07:56:01.075Z</time></trkpt><trkpt lat="45.2131156" lon="9.0684207"><ele>66.0</ele><time>2026-04-12T07:56:03.066Z</time></trkpt><trkpt lat="45.2131039" lon="9.0685576"><ele>66.0</ele><time>2026-04-12T07:56:06.06Z</time></trkpt><trkpt lat="45.213093" lon="9.0686576"><ele>66.0</ele><time>2026-04-12T07:56:08.064Z</time></trkpt><trkpt lat="45.2130808" lon="9.0687753"><ele>66.0</ele><time>2026-04-12T07:56:10.07Z</time></trkpt><trkpt lat="45.2130716" lon="9.0688912"><ele>66.0</ele><time>2026-04-12T07:56:12.065Z</time></trkpt><trkpt lat="45.2130417" lon="9.0690151"><ele>66.0</ele><time>2026-04-12T07:56:14.072Z</time></trkpt><trkpt lat="45.213016" lon="9.0691177"><ele>66.39999999999999</ele><time>2026-04-12T07:56:16.068Z</time></trkpt><trkpt lat="45.2129867" lon="9.0692254"><ele>66.8</ele><time>2026-04-12T07:56:18.065Z</time></trkpt><trkpt lat="45.2129582" lon="9.069344"><ele>67.19999999999999</ele><time>2026-04-12T07:56:20.065Z</time></trkpt><trkpt lat="45.2129128" lon="9.0694902"><ele>67.6</ele><time>2026-04-12T07:56:22.043Z</time></trkpt><trkpt lat="45.212868" lon="9.0696149"><ele>68.0</ele><time>2026-04-12T07:56:24.072Z</time></trkpt><trkpt lat="45.2128242" lon="9.0697359"><ele>68.0</ele><time>2026-04-12T07:56:26.064Z</time></trkpt><trkpt lat="45.2127871" lon="9.0698526"><ele>68.0</ele><time>2026-04-12T07:56:28.064Z</time></trkpt><trkpt lat="45.2127671" lon="9.0699506"><ele>68.0</ele><time>2026-04-12T07:56:30.088Z</time></trkpt><trkpt lat="45.2127369" lon="9.0700404"><ele>68.0</ele><time>2026-04-12T07:56:32.061Z</time></trkpt><trkpt lat="45.2127119" lon="9.0701637"><ele>68.0</ele><time>2026-04-12T07:56:35.068Z</time></trkpt><trkpt lat="45.2126916" lon="9.0702733"><ele>68.0</ele><time>2026-04-12T07:56:38.115Z</time></trkpt><trkpt lat="45.2126941" lon="9.0703801"><ele>67.66666666666667</ele><time>2026-04-12T07:56:41.062Z</time></trkpt><trkpt lat="45.2127133" lon="9.0704807"><ele>67.33333333333334</ele><time>2026-04-12T07:56:44.06Z</time></trkpt><trkpt lat="45.2127465" lon="9.0705996"><ele>67.0</ele><time>2026-04-12T07:56:47.06Z</time></trkpt><trkpt lat="45.2127645" lon="9.0706949"><ele>66.66666666666667</ele><time>2026-04-12T07:56:49.066Z</time></trkpt><trkpt lat="45.2127662" lon="9.0708173"><ele>66.33333333333333</ele><time>2026-04-12T07:56:52.077Z</time></trkpt><trkpt lat="45.2127412" lon="9.0709212"><ele>66.0</ele><time>2026-04-12T07:56:55.051Z</time></trkpt><trkpt lat="45.212688" lon="9.0709861"><ele>65.85714285714286</ele><time>2026-04-12T07:56:58.047Z</time></trkpt><trkpt lat="45.2126201" lon="9.0709656"><ele>65.71428571428572</ele><time>2026-04-12T07:57:04.045Z</time></trkpt><trkpt lat="45.2125389" lon="9.0709503"><ele>65.57142857142858</ele><time>2026-04-12T07:57:09.061Z</time></trkpt><trkpt lat="45.2124828" lon="9.0709042"><ele>65.42857142857143</ele><time>2026-04-12T07:57:14.067Z</time></trkpt><trkpt lat="45.2124113" lon="9.0709296"><ele>65.28571428571429</ele><time>2026-04-12T07:57:19.073Z</time></trkpt><trkpt lat="45.2123478" lon="9.0709443"><ele>65.14285714285715</ele><time>2026-04-12T07:57:21.064Z</time></trkpt><trkpt lat="45.2123059" lon="9.0710125"><ele>65.0</ele><time>2026-04-12T07:57:24.059Z</time></trkpt><trkpt lat="45.2122385" lon="9.0710465"><ele>64.66666666666667</ele><time>2026-04-12T07:57:28.06Z</time></trkpt><trkpt lat="45.212176" lon="9.0710208"><ele>64.33333333333334</ele><time>2026-04-12T07:57:36.062Z</time></trkpt><trkpt lat="45.2121163" lon="9.0709373"><ele>64.0</ele><time>2026-04-12T07:57:43.049Z</time></trkpt><trkpt lat="45.2120484" lon="9.0709079"><ele>63.66666666666667</ele><time>2026-04-12T07:57:48.049Z</time></trkpt><trkpt lat="45.2119708" lon="9.0708769"><ele>63.333333333333336</ele><time>2026-04-12T07:57:51.05Z</time></trkpt><trkpt lat="45.211896" lon="9.0708249"><ele>63.0</ele><time>2026-04-12T07:57:55.074Z</time></trkpt><trkpt lat="45.2118424" lon="9.0707292"><ele>63.0</ele><time>2026-04-12T07:57:58.046Z</time></trkpt><trkpt lat="45.2117984" lon="9.0706537"><ele>63.0</ele><time>2026-04-12T07:58:01.046Z</time></trkpt><trkpt lat="45.2117444" lon="9.0705948"><ele>63.0</ele><time>2026-04-12T07:58:04.069Z</time></trkpt><trkpt lat="45.2116912" lon="9.0705356"><ele>63.0</ele><time>2026-04-12T07:58:07.047Z</time></trkpt><trkpt lat="45.211642" lon="9.0704557"><ele>63.0</ele><time>2026-04-12T07:58:10.078Z</time></trkpt><trkpt lat="45.2115813" lon="9.0704188"><ele>63.0</ele><time>2026-04-12T07:58:13.062Z</time></trkpt><trkpt lat="45.2115196" lon="9.0703686"><ele>63.0</ele><time>2026-04-12T07:58:17.043Z</time></trkpt><trkpt lat="45.2115157" lon="9.0702574"><ele>63.0</ele><time>2026-04-12T07:58:22.055Z</time></trkpt><trkpt lat="45.2115181" lon="9.0701572"><ele>63.0</ele><time>2026-04-12T07:58:26.063Z</time></trkpt><trkpt lat="45.2115146" lon="9.0700568"><ele>63.0</ele><time>2026-04-12T07:58:29.057Z</time></trkpt><trkpt lat="45.211534" lon="9.0699506"><ele>63.0</ele><time>2026-04-12T07:58:32.068Z</time></trkpt><trkpt lat="45.2115542" lon="9.0698282"><ele>63.0</ele><time>2026-04-12T07:58:35.067Z</time></trkpt><trkpt lat="45.2115855" lon="9.0697024"><ele>63.0</ele><time>2026-04-12T07:58:38.063Z</time></trkpt><trkpt lat="45.2116047" lon="9.0695877"><ele>63.0</ele><time>2026-04-12T07:58:41.068Z</time></trkpt><trkpt lat="45.2116335" lon="9.0694792"><ele>63.0</ele><time>2026-04-12T07:58:45.063Z</time></trkpt><trkpt lat="45.2116496" lon="9.0693687"><ele>63.0</ele><time>2026-04-12T07:58:48.08Z</time></trkpt><trkpt lat="45.2116405" lon="9.0692671"><ele>63.0</ele><time>2026-04-12T07:58:51.063Z</time></trkpt><trkpt lat="45.2116266" lon="9.0691654"><ele>63.0</ele><time>2026-04-12T07:58:54.063Z</time></trkpt><trkpt lat="45.2116041" lon="9.0690634"><ele>63.0</ele><time>2026-04-12T07:58:57.06Z</time></trkpt><trkpt lat="45.2115771" lon="9.0689601"><ele>63.0</ele><time>2026-04-12T07:59:00.068Z</time></trkpt><trkpt lat="45.2115336" lon="9.0688428"><ele>63.0</ele><time>2026-04-12T07:59:03.06Z</time></trkpt><trkpt lat="45.2114998" lon="9.068724"><ele>63.0</ele><time>2026-04-12T07:59:06.062Z</time></trkpt><trkpt lat="45.21146" lon="9.0686089"><ele>63.0</ele><time>2026-04-12T07:59:09.05Z</time></trkpt><trkpt lat="45.211432" lon="9.068526"><ele>63.0</ele><time>2026-04-12T07:59:11.047Z</time></trkpt><trkpt lat="45.2113977" lon="9.0684086"><ele>63.0</ele><time>2026-04-12T07:59:14.048Z</time></trkpt><trkpt lat="45.2113696" lon="9.0683239"><ele>63.333333333333336</ele><time>2026-04-12T07:59:16.114Z</time></trkpt><trkpt lat="45.2113409" lon="9.0682318"><ele>63.66666666666667</ele><time>2026-04-12T07:59:18.049Z</time></trkpt><trkpt lat="45.2113043" lon="9.0681132"><ele>64.0</ele><time>2026-04-12T07:59:21.044Z</time></trkpt><trkpt lat="45.2112647" lon="9.0679978"><ele>64.33333333333334</ele><time>2026-04-12T07:59:24.048Z</time></trkpt><trkpt lat="45.2112359" lon="9.0679134"><ele>64.66666666666667</ele><time>2026-04-12T07:59:26.054Z</time></trkpt><trkpt lat="45.2112023" lon="9.0677946"><ele>65.0</ele><time>2026-04-12T07:59:29.052Z</time></trkpt><trkpt lat="45.2111639" lon="9.0676827"><ele>65.00000000000001</ele><time>2026-04-12T07:59:32.055Z</time></trkpt><trkpt lat="45.2111219" lon="9.0675745"><ele>65.0</ele><time>2026-04-12T07:59:35.05Z</time></trkpt><trkpt lat="45.2111129" lon="9.0674735"><ele>65.0</ele><time>2026-04-12T07:59:38.058Z</time></trkpt><trkpt lat="45.2110738" lon="9.067393"><ele>65.0</ele><time>2026-04-12T07:59:41.05Z</time></trkpt><trkpt lat="45.211011" lon="9.0673711"><ele>65.0</ele><time>2026-04-12T07:59:43.052Z</time></trkpt><trkpt lat="45.2109436" lon="9.0673698"><ele>65.00000000000001</ele><time>2026-04-12T07:59:45.043Z</time></trkpt><trkpt lat="45.2108707" lon="9.0673654"><ele>65.0</ele><time>2026-04-12T07:59:47.064Z</time></trkpt><trkpt lat="45.2107943" lon="9.0673474"><ele>64.83333333333334</ele><time>2026-04-12T07:59:49.066Z</time></trkpt><trkpt lat="45.2107152" lon="9.0673335"><ele>64.66666666666667</ele><time>2026-04-12T07:59:51.055Z</time></trkpt><trkpt lat="45.2106288" lon="9.0673046"><ele>64.5</ele><time>2026-04-12T07:59:53.053Z</time></trkpt><trkpt lat="45.2105573" lon="9.0673046"><ele>64.33333333333333</ele><time>2026-04-12T07:59:55.125Z</time></trkpt><trkpt lat="45.2104713" lon="9.0672864"><ele>64.16666666666666</ele><time>2026-04-12T07:59:57.045Z</time></trkpt><trkpt lat="45.2103877" lon="9.0672726"><ele>64.0</ele><time>2026-04-12T07:59:59.064Z</time></trkpt><trkpt lat="45.2102996" lon="9.0672476"><ele>63.49999999999999</ele><time>2026-04-12T08:00:01.069Z</time></trkpt><trkpt lat="45.2102116" lon="9.0672388"><ele>63.0</ele><time>2026-04-12T08:00:03.079Z</time></trkpt><trkpt lat="45.2101281" lon="9.067223"><ele>62.5</ele><time>2026-04-12T08:00:05.087Z</time></trkpt><trkpt lat="45.210037" lon="9.0672201"><ele>62.0</ele><time>2026-04-12T08:00:07.078Z</time></trkpt><trkpt lat="45.2099523" lon="9.0672079"><ele>61.49999999999999</ele><time>2026-04-12T08:00:09.074Z</time></trkpt><trkpt lat="45.2098688" lon="9.0671994"><ele>61.0</ele><time>2026-04-12T08:00:11.068Z</time></trkpt><trkpt lat="45.2097937" lon="9.0671872"><ele>61.99999999999999</ele><time>2026-04-12T08:00:13.064Z</time></trkpt><trkpt lat="45.20971" lon="9.0671774"><ele>63.0</ele><time>2026-04-12T08:00:15.066Z</time></trkpt><trkpt lat="45.2096288" lon="9.0671709"><ele>64.0</ele><time>2026-04-12T08:00:17.057Z</time></trkpt><trkpt lat="45.2095583" lon="9.0671655"><ele>65.0</ele><time>2026-04-12T08:00:19.045Z</time></trkpt><trkpt lat="45.2094756" lon="9.0671558"><ele>66.0</ele><time>2026-04-12T08:00:21.041Z</time></trkpt><trkpt lat="45.2093931" lon="9.0671383"><ele>67.0</ele><time>2026-04-12T08:00:23.064Z</time></trkpt><trkpt lat="45.2093114" lon="9.0671264"><ele>67.0</ele><time>2026-04-12T08:00:25.06Z</time></trkpt><trkpt lat="45.2092325" lon="9.067119"><ele>67.0</ele><time>2026-04-12T08:00:27.068Z</time></trkpt><trkpt lat="45.2091561" lon="9.0671031"><ele>67.0</ele><time>2026-04-12T08:00:29.065Z</time></trkpt><trkpt lat="45.209086" lon="9.0671008"><ele>67.0</ele><time>2026-04-12T08:00:31.047Z</time></trkpt><trkpt lat="45.2090089" lon="9.0670829"><ele>67.0</ele><time>2026-04-12T08:00:33.071Z</time></trkpt><trkpt lat="45.2089378" lon="9.0670844"><ele>67.0</ele><time>2026-04-12T08:00:35.084Z</time></trkpt><trkpt lat="45.2088652" lon="9.067095"><ele>67.0</ele><time>2026-04-12T08:00:37.043Z</time></trkpt><trkpt lat="45.2087912" lon="9.0671091"><ele>66.33333333333333</ele><time>2026-04-12T08:00:39.054Z</time></trkpt><trkpt lat="45.2087179" lon="9.0671224"><ele>65.66666666666666</ele><time>2026-04-12T08:00:41.08Z</time></trkpt><trkpt lat="45.2086366" lon="9.0671071"><ele>65.0</ele><time>2026-04-12T08:00:43.065Z</time></trkpt><trkpt lat="45.2085401" lon="9.0670817"><ele>64.33333333333333</ele><time>2026-04-12T08:00:45.051Z</time></trkpt><trkpt lat="45.2084616" lon="9.0670751"><ele>63.666666666666664</ele><time>2026-04-12T08:00:47.056Z</time></trkpt><trkpt lat="45.2083876" lon="9.0670784"><ele>63.0</ele><time>2026-04-12T08:00:49.052Z</time></trkpt><trkpt lat="45.2083108" lon="9.0671554"><ele>63.0</ele><time>2026-04-12T08:00:52.071Z</time></trkpt><trkpt lat="45.2082827" lon="9.0672721"><ele>63.0</ele><time>2026-04-12T08:00:55.068Z</time></trkpt><trkpt lat="45.2082786" lon="9.0673704"><ele>63.0</ele><time>2026-04-12T08:00:58.066Z</time></trkpt><trkpt lat="45.2082647" lon="9.0674094"><ele>63.0</ele><time>2026-04-12T08:03:24.064Z</time></trkpt><trkpt lat="45.2082447" lon="9.0673146"><ele>63.0</ele><time>2026-04-12T08:03:38.039Z</time></trkpt><trkpt lat="45.208252" lon="9.0672146"><ele>63.0</ele><time>2026-04-12T08:03:43.048Z</time></trkpt><trkpt lat="45.2082982" lon="9.0671223"><ele>63.0</ele><time>2026-04-12T08:03:46.044Z</time></trkpt><trkpt lat="45.2083597" lon="9.0670808"><ele>63.0</ele><time>2026-04-12T08:03:49.046Z</time></trkpt><trkpt lat="45.2084401" lon="9.0670825"><ele>63.0</ele><time>2026-04-12T08:03:52.041Z</time></trkpt><trkpt lat="45.2085046" lon="9.0670901"><ele>63.0</ele><time>2026-04-12T08:03:54.043Z</time></trkpt><trkpt lat="45.2085971" lon="9.0671063"><ele>63.0</ele><time>2026-04-12T08:03:57.043Z</time></trkpt><trkpt lat="45.208667" lon="9.0671132"><ele>63.0</ele><time>2026-04-12T08:03:59.063Z</time></trkpt><trkpt lat="45.2087593" lon="9.0671126"><ele>63.0</ele><time>2026-04-12T08:04:02.044Z</time></trkpt><trkpt lat="45.2088243" lon="9.0671051"><ele>63.0</ele><time>2026-04-12T08:04:04.068Z</time></trkpt><trkpt lat="45.2088948" lon="9.0670932"><ele>63.0</ele><time>2026-04-12T08:04:06.123Z</time></trkpt><trkpt lat="45.208961" lon="9.0670979"><ele>63.0</ele><time>2026-04-12T08:04:08.065Z</time></trkpt><trkpt lat="45.2090298" lon="9.0671067"><ele>63.0</ele><time>2026-04-12T08:04:10.056Z</time></trkpt><trkpt lat="45.2091054" lon="9.0671176"><ele>63.0</ele><time>2026-04-12T08:04:12.036Z</time></trkpt><trkpt lat="45.2091788" lon="9.0671202"><ele>63.0</ele><time>2026-04-12T08:04:14.066Z</time></trkpt><trkpt lat="45.2092555" lon="9.0671244"><ele>63.0</ele><time>2026-04-12T08:04:16.069Z</time></trkpt><trkpt lat="45.209321" lon="9.067127"><ele>63.57142857142857</ele><time>2026-04-12T08:04:18.068Z</time></trkpt><trkpt lat="45.2094004" lon="9.0671527"><ele>64.14285714285714</ele><time>2026-04-12T08:04:21.104Z</time></trkpt><trkpt lat="45.2094641" lon="9.0671673"><ele>64.71428571428572</ele><time>2026-04-12T08:04:23.04Z</time></trkpt><trkpt lat="45.2095332" lon="9.0671793"><ele>65.28571428571428</ele><time>2026-04-12T08:04:25.082Z</time></trkpt><trkpt lat="45.2096009" lon="9.0671888"><ele>65.85714285714286</ele><time>2026-04-12T08:04:27.051Z</time></trkpt><trkpt lat="45.2096699" lon="9.0672052"><ele>66.42857142857143</ele><time>2026-04-12T08:04:29.046Z</time></trkpt><trkpt lat="45.2097376" lon="9.067212"><ele>67.0</ele><time>2026-04-12T08:04:31.044Z</time></trkpt><trkpt lat="45.2098075" lon="9.067221"><ele>66.0</ele><time>2026-04-12T08:04:33.063Z</time></trkpt><trkpt lat="45.209878" lon="9.0672286"><ele>65.0</ele><time>2026-04-12T08:04:35.043Z</time></trkpt><trkpt lat="45.2099797" lon="9.0672516"><ele>64.0</ele><time>2026-04-12T08:04:38.038Z</time></trkpt><trkpt lat="45.2100516" lon="9.0672599"><ele>63.0</ele><time>2026-04-12T08:04:40.05Z</time></trkpt><trkpt lat="45.2101294" lon="9.0672612"><ele>61.99999999999999</ele><time>2026-04-12T08:04:42.048Z</time></trkpt><trkpt lat="45.2102009" lon="9.0672646"><ele>61.0</ele><time>2026-04-12T08:04:44.047Z</time></trkpt><trkpt lat="45.2102723" lon="9.0672685"><ele>60.99999999999999</ele><time>2026-04-12T08:04:46.054Z</time></trkpt><trkpt lat="45.2103459" lon="9.0672821"><ele>61.0</ele><time>2026-04-12T08:04:48.051Z</time></trkpt><trkpt lat="45.210419" lon="9.0672919"><ele>60.99999999999999</ele><time>2026-04-12T08:04:50.044Z</time></trkpt><trkpt lat="45.2104955" lon="9.0672927"><ele>60.99999999999999</ele><time>2026-04-12T08:04:52.048Z</time></trkpt><trkpt lat="45.2105698" lon="9.0673025"><ele>61.0</ele><time>2026-04-12T08:04:54.039Z</time></trkpt><trkpt lat="45.210639" lon="9.067316"><ele>60.99999999999999</ele><time>2026-04-12T08:04:56.043Z</time></trkpt><trkpt lat="45.2107168" lon="9.0673231"><ele>60.99999999999999</ele><time>2026-04-12T08:04:58.048Z</time></trkpt><trkpt lat="45.2107879" lon="9.0673259"><ele>61.428571428571416</ele><time>2026-04-12T08:05:00.045Z</time></trkpt><trkpt lat="45.2108639" lon="9.0673409"><ele>61.857142857142854</ele><time>2026-04-12T08:05:02.053Z</time></trkpt><trkpt lat="45.2109405" lon="9.0673432"><ele>62.28571428571428</ele><time>2026-04-12T08:05:04.052Z</time></trkpt><trkpt lat="45.2110135" lon="9.0673527"><ele>62.71428571428571</ele><time>2026-04-12T08:05:06.047Z</time></trkpt><trkpt lat="45.211084" lon="9.0673612"><ele>63.14285714285714</ele><time>2026-04-12T08:05:08.044Z</time></trkpt><trkpt lat="45.2111562" lon="9.067373"><ele>63.57142857142857</ele><time>2026-04-12T08:05:10.045Z</time></trkpt><trkpt lat="45.2112311" lon="9.067393"><ele>64.0</ele><time>2026-04-12T08:05:12.043Z</time></trkpt><trkpt lat="45.2113098" lon="9.0674034"><ele>64.0</ele><time>2026-04-12T08:05:14.049Z</time></trkpt><trkpt lat="45.2113907" lon="9.0674096"><ele>63.99999999999999</ele><time>2026-04-12T08:05:16.048Z</time></trkpt><trkpt lat="45.2114586" lon="9.0674118"><ele>64.0</ele><time>2026-04-12T08:05:18.045Z</time></trkpt><trkpt lat="45.2115309" lon="9.0674267"><ele>64.0</ele><time>2026-04-12T08:05:20.052Z</time></trkpt><trkpt lat="45.2116073" lon="9.0674431"><ele>63.99999999999999</ele><time>2026-04-12T08:05:22.046Z</time></trkpt><trkpt lat="45.2116807" lon="9.0674522"><ele>64.0</ele><time>2026-04-12T08:05:24.114Z</time></trkpt><trkpt lat="45.211755" lon="9.0674615"><ele>64.0</ele><time>2026-04-12T08:05:26.061Z</time></trkpt><trkpt lat="45.2118336" lon="9.0674698"><ele>64.14285714285714</ele><time>2026-04-12T08:05:28.048Z</time></trkpt><trkpt lat="45.2119059" lon="9.0674655"><ele>64.28571428571428</ele><time>2026-04-12T08:05:30.045Z</time></trkpt><trkpt lat="45.2119754" lon="9.0674786"><ele>64.42857142857143</ele><time>2026-04-12T08:05:32.038Z</time></trkpt><trkpt lat="45.2120457" lon="9.0674942"><ele>64.57142857142857</ele><time>2026-04-12T08:05:34.046Z</time></trkpt><trkpt lat="45.2121213" lon="9.0675221"><ele>64.71428571428572</ele><time>2026-04-12T08:05:36.042Z</time></trkpt><trkpt lat="45.2121929" lon="9.0675293"><ele>64.85714285714286</ele><time>2026-04-12T08:05:38.047Z</time></trkpt><trkpt lat="45.212265" lon="9.067537"><ele>65.0</ele><time>2026-04-12T08:05:40.046Z</time></trkpt><trkpt lat="45.2123398" lon="9.0675491"><ele>65.00000000000001</ele><time>2026-04-12T08:05:42.057Z</time></trkpt><trkpt lat="45.2124062" lon="9.0675526"><ele>65.0</ele><time>2026-04-12T08:05:44.045Z</time></trkpt><trkpt lat="45.2125024" lon="9.0675643"><ele>65.0</ele><time>2026-04-12T08:05:47.053Z</time></trkpt><trkpt lat="45.2125757" lon="9.0675798"><ele>65.0</ele><time>2026-04-12T08:05:49.052Z</time></trkpt><trkpt lat="45.2126441" lon="9.0676095"><ele>65.0</ele><time>2026-04-12T08:05:51.051Z</time></trkpt><trkpt lat="45.2127062" lon="9.0676485"><ele>65.00000000000001</ele><time>2026-04-12T08:05:53.051Z</time></trkpt><trkpt lat="45.2127716" lon="9.0676884"><ele>65.0</ele><time>2026-04-12T08:05:55.045Z</time></trkpt><trkpt lat="45.2128338" lon="9.067734"><ele>65.00000000000001</ele><time>2026-04-12T08:05:57.05Z</time></trkpt><trkpt lat="45.2128937" lon="9.0677827"><ele>65.0</ele><time>2026-04-12T08:05:59.047Z</time></trkpt><trkpt lat="45.2129587" lon="9.0678148"><ele>65.0</ele><time>2026-04-12T08:06:01.041Z</time></trkpt><trkpt lat="45.2130225" lon="9.0678328"><ele>65.0</ele><time>2026-04-12T08:06:03.042Z</time></trkpt><trkpt lat="45.2131" lon="9.0678292"><ele>65.0</ele><time>2026-04-12T08:06:05.055Z</time></trkpt><trkpt lat="45.2131707" lon="9.0677785"><ele>65.00000000000001</ele><time>2026-04-12T08:06:07.037Z</time></trkpt><trkpt lat="45.2132256" lon="9.0676814"><ele>65.0</ele><time>2026-04-12T08:06:09.05Z</time></trkpt><trkpt lat="45.2132555" lon="9.0675841"><ele>65.28571428571429</ele><time>2026-04-12T08:06:11.052Z</time></trkpt><trkpt lat="45.2132851" lon="9.0674896"><ele>65.57142857142857</ele><time>2026-04-12T08:06:13.05Z</time></trkpt><trkpt lat="45.2133186" lon="9.0673875"><ele>65.85714285714286</ele><time>2026-04-12T08:06:15.043Z</time></trkpt><trkpt lat="45.2133484" lon="9.0672913"><ele>66.14285714285714</ele><time>2026-04-12T08:06:17.049Z</time></trkpt><trkpt lat="45.2133777" lon="9.0671994"><ele>66.42857142857143</ele><time>2026-04-12T08:06:19.049Z</time></trkpt><trkpt lat="45.213394" lon="9.0670955"><ele>66.71428571428572</ele><time>2026-04-12T08:06:21.047Z</time></trkpt><trkpt lat="45.2134196" lon="9.0669984"><ele>67.0</ele><time>2026-04-12T08:06:23.049Z</time></trkpt><trkpt lat="45.213439" lon="9.0668893"><ele>67.0</ele><time>2026-04-12T08:06:25.039Z</time></trkpt><trkpt lat="45.213447" lon="9.0667866"><ele>67.0</ele><time>2026-04-12T08:06:27.038Z</time></trkpt><trkpt lat="45.2134564" lon="9.0666892"><ele>67.0</ele><time>2026-04-12T08:06:29.048Z</time></trkpt><trkpt lat="45.2134722" lon="9.0665942"><ele>67.0</ele><time>2026-04-12T08:06:31.047Z</time></trkpt><trkpt lat="45.2134969" lon="9.0664866"><ele>67.0</ele><time>2026-04-12T08:06:33.047Z</time></trkpt><trkpt lat="45.2135199" lon="9.0663906"><ele>67.0</ele><time>2026-04-12T08:06:35.046Z</time></trkpt><trkpt lat="45.2135562" lon="9.0663005"><ele>67.0</ele><time>2026-04-12T08:06:37.048Z</time></trkpt><trkpt lat="45.2135916" lon="9.0662078"><ele>66.83333333333333</ele><time>2026-04-12T08:06:39.047Z</time></trkpt><trkpt lat="45.2136209" lon="9.0661091"><ele>66.66666666666666</ele><time>2026-04-12T08:06:41.11Z</time></trkpt><trkpt lat="45.2136511" lon="9.0660204"><ele>66.5</ele><time>2026-04-12T08:06:43.112Z</time></trkpt><trkpt lat="45.2136861" lon="9.0659234"><ele>66.33333333333333</ele><time>2026-04-12T08:06:45.037Z</time></trkpt><trkpt lat="45.2137149" lon="9.0658258"><ele>66.16666666666667</ele><time>2026-04-12T08:06:47.04Z</time></trkpt><trkpt lat="45.2137447" lon="9.0657269"><ele>66.0</ele><time>2026-04-12T08:06:49.047Z</time></trkpt><trkpt lat="45.2137826" lon="9.0656304"><ele>65.85714285714286</ele><time>2026-04-12T08:06:51.041Z</time></trkpt><trkpt lat="45.2138088" lon="9.0655384"><ele>65.71428571428572</ele><time>2026-04-12T08:06:53.048Z</time></trkpt><trkpt lat="45.2138329" lon="9.0654395"><ele>65.57142857142858</ele><time>2026-04-12T08:06:55.044Z</time></trkpt><trkpt lat="45.2138641" lon="9.065346"><ele>65.42857142857143</ele><time>2026-04-12T08:06:57.044Z</time></trkpt><trkpt lat="45.213902" lon="9.0652641"><ele>65.28571428571429</ele><time>2026-04-12T08:06:59.045Z</time></trkpt><trkpt lat="45.2139772" lon="9.0652068"><ele>65.14285714285715</ele><time>2026-04-12T08:07:01.049Z</time></trkpt><trkpt lat="45.2140418" lon="9.0651703"><ele>65.0</ele><time>2026-04-12T08:07:03.054Z</time></trkpt><trkpt lat="45.2141073" lon="9.0651454"><ele>64.83333333333334</ele><time>2026-04-12T08:07:05.049Z</time></trkpt><trkpt lat="45.2141767" lon="9.0651187"><ele>64.66666666666667</ele><time>2026-04-12T08:07:07.046Z</time></trkpt><trkpt lat="45.2142486" lon="9.065089"><ele>64.5</ele><time>2026-04-12T08:07:09.097Z</time></trkpt><trkpt lat="45.2143206" lon="9.0650709"><ele>64.33333333333333</ele><time>2026-04-12T08:07:11.047Z</time></trkpt><trkpt lat="45.214392" lon="9.0650526"><ele>64.16666666666666</ele><time>2026-04-12T08:07:13.045Z</time></trkpt><trkpt lat="45.2144671" lon="9.0650348"><ele>64.0</ele><time>2026-04-12T08:07:15.042Z</time></trkpt><trkpt lat="45.2145532" lon="9.0650186"><ele>63.99999999999999</ele><time>2026-04-12T08:07:17.062Z</time></trkpt><trkpt lat="45.2146283" lon="9.0649973"><ele>64.0</ele><time>2026-04-12T08:07:19.05Z</time></trkpt><trkpt lat="45.2147073" lon="9.0649744"><ele>64.0</ele><time>2026-04-12T08:07:21.053Z</time></trkpt><trkpt lat="45.2147772" lon="9.0649627"><ele>64.0</ele><time>2026-04-12T08:07:23.043Z</time></trkpt><trkpt lat="45.2148477" lon="9.064931"><ele>63.99999999999999</ele><time>2026-04-12T08:07:25.044Z</time></trkpt><trkpt lat="45.2149169" lon="9.0648715"><ele>64.0</ele><time>2026-04-12T08:07:27.048Z</time></trkpt><trkpt lat="45.2149789" lon="9.0647922"><ele>64.5</ele><time>2026-04-12T08:07:29.047Z</time></trkpt><trkpt lat="45.2150311" lon="9.0647264"><ele>65.0</ele><time>2026-04-12T08:07:31.047Z</time></trkpt><trkpt lat="45.2150853" lon="9.0646569"><ele>65.5</ele><time>2026-04-12T08:07:33.042Z</time></trkpt><trkpt lat="45.2151362" lon="9.0645806"><ele>66.0</ele><time>2026-04-12T08:07:35.043Z</time></trkpt><trkpt lat="45.2151971" lon="9.0644887"><ele>66.5</ele><time>2026-04-12T08:07:37.046Z</time></trkpt><trkpt lat="45.2152663" lon="9.0644096"><ele>67.0</ele><time>2026-04-12T08:07:39.046Z</time></trkpt><trkpt lat="45.2153199" lon="9.0643548"><ele>67.0</ele><time>2026-04-12T08:07:41.055Z</time></trkpt><trkpt lat="45.2154061" lon="9.0643709"><ele>67.0</ele><time>2026-04-12T08:07:44.036Z</time></trkpt><trkpt lat="45.2154702" lon="9.0644615"><ele>67.0</ele><time>2026-04-12T08:07:47.049Z</time></trkpt><trkpt lat="45.2155108" lon="9.0645637"><ele>67.0</ele><time>2026-04-12T08:07:49.048Z</time></trkpt><trkpt lat="45.2155655" lon="9.0646781"><ele>67.0</ele><time>2026-04-12T08:07:51.046Z</time></trkpt><trkpt lat="45.2156103" lon="9.0647685"><ele>67.0</ele><time>2026-04-12T08:07:53.047Z</time></trkpt><trkpt lat="45.2156599" lon="9.0648559"><ele>68.5</ele><time>2026-04-12T08:07:55.044Z</time></trkpt><trkpt lat="45.2157056" lon="9.0649526"><ele>70.0</ele><time>2026-04-12T08:07:57.119Z</time></trkpt><trkpt lat="45.215749" lon="9.0650432"><ele>71.5</ele><time>2026-04-12T08:07:59.114Z</time></trkpt><trkpt lat="45.2158169" lon="9.0651176"><ele>73.0</ele><time>2026-04-12T08:08:01.045Z</time></trkpt><trkpt lat="45.2158996" lon="9.0651397"><ele>74.5</ele><time>2026-04-12T08:08:03.046Z</time></trkpt><trkpt lat="45.2159693" lon="9.0651104"><ele>76.0</ele><time>2026-04-12T08:08:05.045Z</time></trkpt><trkpt lat="45.21604" lon="9.0650703"><ele>76.0</ele><time>2026-04-12T08:08:07.045Z</time></trkpt><trkpt lat="45.2161024" lon="9.0649792"><ele>76.0</ele><time>2026-04-12T08:08:09.049Z</time></trkpt><trkpt lat="45.2161438" lon="9.0648798"><ele>76.0</ele><time>2026-04-12T08:08:11.043Z</time></trkpt><trkpt lat="45.2161767" lon="9.0647682"><ele>76.0</ele><time>2026-04-12T08:08:14.053Z</time></trkpt><trkpt lat="45.2162027" lon="9.0646799"><ele>76.0</ele><time>2026-04-12T08:08:26.043Z</time></trkpt><trkpt lat="45.2162126" lon="9.0645627"><ele>76.0</ele><time>2026-04-12T08:08:30.048Z</time></trkpt><trkpt lat="45.2162337" lon="9.0644679"><ele>75.33333333333333</ele><time>2026-04-12T08:08:32.044Z</time></trkpt><trkpt lat="45.2162558" lon="9.0643658"><ele>74.66666666666666</ele><time>2026-04-12T08:08:34.046Z</time></trkpt><trkpt lat="45.2162862" lon="9.0642515"><ele>74.0</ele><time>2026-04-12T08:08:36.039Z</time></trkpt><trkpt lat="45.2163193" lon="9.0641514"><ele>73.33333333333333</ele><time>2026-04-12T08:08:38.045Z</time></trkpt><trkpt lat="45.2163635" lon="9.0640458"><ele>72.66666666666667</ele><time>2026-04-12T08:08:40.052Z</time></trkpt><trkpt lat="45.2164083" lon="9.06395"><ele>72.0</ele><time>2026-04-12T08:08:42.045Z</time></trkpt><trkpt lat="45.2164488" lon="9.0638638"><ele>72.5</ele><time>2026-04-12T08:08:44.049Z</time></trkpt><trkpt lat="45.2164968" lon="9.0637701"><ele>73.0</ele><time>2026-04-12T08:08:46.042Z</time></trkpt><trkpt lat="45.2165531" lon="9.0636899"><ele>73.5</ele><time>2026-04-12T08:08:48.044Z</time></trkpt><trkpt lat="45.2165973" lon="9.0636191"><ele>74.0</ele><time>2026-04-12T08:08:50.046Z</time></trkpt><trkpt lat="45.2166415" lon="9.0635386"><ele>74.5</ele><time>2026-04-12T08:08:52.04Z</time></trkpt><trkpt lat="45.2166906" lon="9.0634539"><ele>75.0</ele><time>2026-04-12T08:08:54.051Z</time></trkpt><trkpt lat="45.2167366" lon="9.0633647"><ele>75.0</ele><time>2026-04-12T08:08:56.047Z</time></trkpt><trkpt lat="45.2167824" lon="9.0632902"><ele>75.0</ele><time>2026-04-12T08:08:58.041Z</time></trkpt><trkpt lat="45.2168366" lon="9.0632039"><ele>75.0</ele><time>2026-04-12T08:09:00.046Z</time></trkpt><trkpt lat="45.2168971" lon="9.0631212"><ele>75.0</ele><time>2026-04-12T08:09:02.039Z</time></trkpt><trkpt lat="45.2169574" lon="9.063053"><ele>75.0</ele><time>2026-04-12T08:09:04.04Z</time></trkpt><trkpt lat="45.217026" lon="9.0629812"><ele>75.0</ele><time>2026-04-12T08:09:06.045Z</time></trkpt><trkpt lat="45.2170925" lon="9.062907"><ele>75.16666666666667</ele><time>2026-04-12T08:09:08.05Z</time></trkpt><trkpt lat="45.2171502" lon="9.0628428"><ele>75.33333333333333</ele><time>2026-04-12T08:09:10.045Z</time></trkpt><trkpt lat="45.2172052" lon="9.062794"><ele>75.5</ele><time>2026-04-12T08:09:12.04Z</time></trkpt><trkpt lat="45.2172754" lon="9.0627673"><ele>75.66666666666666</ele><time>2026-04-12T08:09:15.045Z</time></trkpt><trkpt lat="45.2173503" lon="9.0628445"><ele>75.83333333333333</ele><time>2026-04-12T08:09:18.039Z</time></trkpt><trkpt lat="45.2173706" lon="9.0629728"><ele>76.0</ele><time>2026-04-12T08:09:20.046Z</time></trkpt><trkpt lat="45.2173922" lon="9.0630829"><ele>76.0</ele><time>2026-04-12T08:09:22.038Z</time></trkpt><trkpt lat="45.2174083" lon="9.0631973"><ele>76.0</ele><time>2026-04-12T08:09:24.038Z</time></trkpt><trkpt lat="45.2174332" lon="9.0632991"><ele>76.0</ele><time>2026-04-12T08:09:26.043Z</time></trkpt><trkpt lat="45.2174588" lon="9.0634034"><ele>76.0</ele><time>2026-04-12T08:09:28.037Z</time></trkpt><trkpt lat="45.217485" lon="9.0635167"><ele>76.0</ele><time>2026-04-12T08:09:30.044Z</time></trkpt><trkpt lat="45.2175036" lon="9.0636246"><ele>76.0</ele><time>2026-04-12T08:09:32.048Z</time></trkpt><trkpt lat="45.2175217" lon="9.0637316"><ele>76.0</ele><time>2026-04-12T08:09:34.046Z</time></trkpt><trkpt lat="45.2175396" lon="9.0638393"><ele>76.0</ele><time>2026-04-12T08:09:36.046Z</time></trkpt><trkpt lat="45.2175694" lon="9.0639521"><ele>76.0</ele><time>2026-04-12T08:09:38.044Z</time></trkpt><trkpt lat="45.2175913" lon="9.0640613"><ele>76.0</ele><time>2026-04-12T08:09:40.041Z</time></trkpt><trkpt lat="45.2176136" lon="9.0641708"><ele>76.0</ele><time>2026-04-12T08:09:42.045Z</time></trkpt><trkpt lat="45.2176354" lon="9.0642933"><ele>76.0</ele><time>2026-04-12T08:09:44.039Z</time></trkpt><trkpt lat="45.2176565" lon="9.064407"><ele>76.0</ele><time>2026-04-12T08:09:46.05Z</time></trkpt><trkpt lat="45.2176847" lon="9.0645145"><ele>76.0</ele><time>2026-04-12T08:09:48.044Z</time></trkpt><trkpt lat="45.217711" lon="9.0646209"><ele>76.0</ele><time>2026-04-12T08:09:50.037Z</time></trkpt><trkpt lat="45.217735" lon="9.0647245"><ele>76.0</ele><time>2026-04-12T08:09:52.042Z</time></trkpt><trkpt lat="45.2177623" lon="9.0648326"><ele>76.0</ele><time>2026-04-12T08:09:54.048Z</time></trkpt><trkpt lat="45.2177908" lon="9.0649456"><ele>76.0</ele><time>2026-04-12T08:09:56.112Z</time></trkpt><trkpt lat="45.2178131" lon="9.0650709"><ele>76.0</ele><time>2026-04-12T08:09:58.039Z</time></trkpt><trkpt lat="45.2178377" lon="9.0651794"><ele>76.0</ele><time>2026-04-12T08:10:00.044Z</time></trkpt><trkpt lat="45.2178678" lon="9.065293"><ele>76.0</ele><time>2026-04-12T08:10:02.034Z</time></trkpt><trkpt lat="45.2178988" lon="9.0654094"><ele>76.0</ele><time>2026-04-12T08:10:04.04Z</time></trkpt><trkpt lat="45.2179248" lon="9.0655348"><ele>76.0</ele><time>2026-04-12T08:10:06.035Z</time></trkpt><trkpt lat="45.2179502" lon="9.065655"><ele>76.0</ele><time>2026-04-12T08:10:08.043Z</time></trkpt><trkpt lat="45.2179741" lon="9.0657744"><ele>76.0</ele><time>2026-04-12T08:10:10.049Z</time></trkpt><trkpt lat="45.2179978" lon="9.0658809"><ele>76.0</ele><time>2026-04-12T08:10:12.045Z</time></trkpt><trkpt lat="45.2180253" lon="9.0659937"><ele>76.0</ele><time>2026-04-12T08:10:14.049Z</time></trkpt><trkpt lat="45.2180485" lon="9.0661085"><ele>76.0</ele><time>2026-04-12T08:10:16.045Z</time></trkpt><trkpt lat="45.2180371" lon="9.0662126"><ele>76.0</ele><time>2026-04-12T08:10:18.048Z</time></trkpt><trkpt lat="45.2179844" lon="9.0662992"><ele>76.0</ele><time>2026-04-12T08:10:20.054Z</time></trkpt><trkpt lat="45.2179139" lon="9.0663604"><ele>76.0</ele><time>2026-04-12T08:10:22.099Z</time></trkpt><trkpt lat="45.2178451" lon="9.0664292"><ele>76.0</ele><time>2026-04-12T08:10:24.042Z</time></trkpt><trkpt lat="45.2177751" lon="9.0664831"><ele>76.0</ele><time>2026-04-12T08:10:26.041Z</time></trkpt><trkpt lat="45.2177108" lon="9.0665333"><ele>76.0</ele><time>2026-04-12T08:10:28.035Z</time></trkpt><trkpt lat="45.2176435" lon="9.0665921"><ele>76.0</ele><time>2026-04-12T08:10:30.04Z</time></trkpt><trkpt lat="45.2175707" lon="9.0666545"><ele>76.0</ele><time>2026-04-12T08:10:32.033Z</time></trkpt><trkpt lat="45.2174953" lon="9.0667207"><ele>76.0</ele><time>2026-04-12T08:10:34.11Z</time></trkpt><trkpt lat="45.2174232" lon="9.0667747"><ele>76.0</ele><time>2026-04-12T08:10:36.041Z</time></trkpt><trkpt lat="45.2173429" lon="9.0668433"><ele>76.0</ele><time>2026-04-12T08:10:39.04Z</time></trkpt><trkpt lat="45.2172812" lon="9.0668979"><ele>76.0</ele><time>2026-04-12T08:10:41.039Z</time></trkpt><trkpt lat="45.2172672" lon="9.0669939"><ele>76.0</ele><time>2026-04-12T08:10:43.039Z</time></trkpt><trkpt lat="45.2172816" lon="9.0670958"><ele>76.0</ele><time>2026-04-12T08:10:45.038Z</time></trkpt><trkpt lat="45.2173017" lon="9.0672096"><ele>76.0</ele><time>2026-04-12T08:10:47.042Z</time></trkpt><trkpt lat="45.2173232" lon="9.0673205"><ele>76.0</ele><time>2026-04-12T08:10:49.04Z</time></trkpt><trkpt lat="45.2173366" lon="9.0674354"><ele>76.0</ele><time>2026-04-12T08:10:51.045Z</time></trkpt><trkpt lat="45.2173517" lon="9.0675592"><ele>76.0</ele><time>2026-04-12T08:10:53.048Z</time></trkpt><trkpt lat="45.2173611" lon="9.0676721"><ele>76.0</ele><time>2026-04-12T08:10:55.043Z</time></trkpt><trkpt lat="45.2173804" lon="9.0677839"><ele>76.0</ele><time>2026-04-12T08:10:57.11Z</time></trkpt><trkpt lat="45.217396" lon="9.0678912"><ele>75.66666666666666</ele><time>2026-04-12T08:10:59.045Z</time></trkpt><trkpt lat="45.2174205" lon="9.0679825"><ele>75.33333333333333</ele><time>2026-04-12T08:11:01.044Z</time></trkpt><trkpt lat="45.2174336" lon="9.0680798"><ele>75.0</ele><time>2026-04-12T08:11:03.042Z</time></trkpt><trkpt lat="45.2174424" lon="9.0681917"><ele>74.66666666666667</ele><time>2026-04-12T08:11:05.038Z</time></trkpt><trkpt lat="45.2174516" lon="9.0683024"><ele>74.33333333333334</ele><time>2026-04-12T08:11:07.047Z</time></trkpt><trkpt lat="45.2174747" lon="9.068417"><ele>74.0</ele><time>2026-04-12T08:11:09.05Z</time></trkpt><trkpt lat="45.2175036" lon="9.0685421"><ele>74.0</ele><time>2026-04-12T08:11:11.039Z</time></trkpt><trkpt lat="45.2175525" lon="9.068655"><ele>74.0</ele><time>2026-04-12T08:11:13.044Z</time></trkpt><trkpt lat="45.2176069" lon="9.0687578"><ele>74.0</ele><time>2026-04-12T08:11:15.042Z</time></trkpt><trkpt lat="45.2176516" lon="9.0688607"><ele>74.0</ele><time>2026-04-12T08:11:17.042Z</time></trkpt><trkpt lat="45.217694" lon="9.0689671"><ele>74.0</ele><time>2026-04-12T08:11:19.054Z</time></trkpt><trkpt lat="45.217743" lon="9.069065"><ele>74.0</ele><time>2026-04-12T08:11:21.038Z</time></trkpt><trkpt lat="45.2177831" lon="9.0691406"><ele>74.0</ele><time>2026-04-12T08:11:23.1Z</time></trkpt><trkpt lat="45.2178143" lon="9.0692246"><ele>74.0</ele><time>2026-04-12T08:11:25.046Z</time></trkpt><trkpt lat="45.2178491" lon="9.0693113"><ele>74.0</ele><time>2026-04-12T08:11:27.04Z</time></trkpt><trkpt lat="45.2178805" lon="9.0694118"><ele>74.0</ele><time>2026-04-12T08:11:29.039Z</time></trkpt><trkpt lat="45.2179047" lon="9.0695073"><ele>74.0</ele><time>2026-04-12T08:11:31.049Z</time></trkpt><trkpt lat="45.217917" lon="9.0696174"><ele>74.0</ele><time>2026-04-12T08:11:33.038Z</time></trkpt><trkpt lat="45.2179326" lon="9.0697403"><ele>74.0</ele><time>2026-04-12T08:11:35.118Z</time></trkpt><trkpt lat="45.2179442" lon="9.06984"><ele>74.0</ele><time>2026-04-12T08:11:37.046Z</time></trkpt><trkpt lat="45.2179576" lon="9.0699418"><ele>74.0</ele><time>2026-04-12T08:11:39.047Z</time></trkpt><trkpt lat="45.2179699" lon="9.0700552"><ele>74.0</ele><time>2026-04-12T08:11:41.047Z</time></trkpt><trkpt lat="45.2179718" lon="9.0701766"><ele>74.0</ele><time>2026-04-12T08:11:43.047Z</time></trkpt><trkpt lat="45.2179576" lon="9.0702888"><ele>74.0</ele><time>2026-04-12T08:11:45.051Z</time></trkpt><trkpt lat="45.2179139" lon="9.0703919"><ele>74.16666666666667</ele><time>2026-04-12T08:11:47.045Z</time></trkpt><trkpt lat="45.2178689" lon="9.070493"><ele>74.33333333333334</ele><time>2026-04-12T08:11:49.037Z</time></trkpt><trkpt lat="45.2178151" lon="9.0705841"><ele>74.5</ele><time>2026-04-12T08:11:51.037Z</time></trkpt><trkpt lat="45.2177621" lon="9.0706556"><ele>74.66666666666667</ele><time>2026-04-12T08:11:53.046Z</time></trkpt><trkpt lat="45.2177053" lon="9.0707424"><ele>74.83333333333333</ele><time>2026-04-12T08:11:55.049Z</time></trkpt><trkpt lat="45.2176548" lon="9.070829"><ele>75.0</ele><time>2026-04-12T08:11:57.046Z</time></trkpt><trkpt lat="45.2175968" lon="9.0709067"><ele>75.33333333333333</ele><time>2026-04-12T08:11:59.041Z</time></trkpt><trkpt lat="45.217521" lon="9.0709511"><ele>75.66666666666667</ele><time>2026-04-12T08:12:01.049Z</time></trkpt><trkpt lat="45.2174475" lon="9.0709791"><ele>76.0</ele><time>2026-04-12T08:12:03.045Z</time></trkpt><trkpt lat="45.2173736" lon="9.0710181"><ele>76.33333333333334</ele><time>2026-04-12T08:12:05.046Z</time></trkpt><trkpt lat="45.2172965" lon="9.0710634"><ele>76.66666666666667</ele><time>2026-04-12T08:12:07.038Z</time></trkpt><trkpt lat="45.2172185" lon="9.0711017"><ele>77.0</ele><time>2026-04-12T08:12:09.045Z</time></trkpt><trkpt lat="45.2171397" lon="9.0711472"><ele>76.33333333333334</ele><time>2026-04-12T08:12:11.045Z</time></trkpt><trkpt lat="45.2170626" lon="9.0711963"><ele>75.66666666666667</ele><time>2026-04-12T08:12:13.039Z</time></trkpt><trkpt lat="45.2169887" lon="9.0712289"><ele>75.0</ele><time>2026-04-12T08:12:15.041Z</time></trkpt><trkpt lat="45.2169112" lon="9.0712587"><ele>74.33333333333333</ele><time>2026-04-12T08:12:17.042Z</time></trkpt><trkpt lat="45.2168278" lon="9.0713068"><ele>73.66666666666666</ele><time>2026-04-12T08:12:19.043Z</time></trkpt><trkpt lat="45.2167434" lon="9.0713468"><ele>73.0</ele><time>2026-04-12T08:12:21.049Z</time></trkpt><trkpt lat="45.216678" lon="9.0714125"><ele>73.0</ele><time>2026-04-12T08:12:23.045Z</time></trkpt><trkpt lat="45.2166096" lon="9.0714767"><ele>73.0</ele><time>2026-04-12T08:12:25.042Z</time></trkpt><trkpt lat="45.2165546" lon="9.0715657"><ele>73.0</ele><time>2026-04-12T08:12:27.041Z</time></trkpt><trkpt lat="45.2165" lon="9.0716543"><ele>73.0</ele><time>2026-04-12T08:12:29.037Z</time></trkpt><trkpt lat="45.2164407" lon="9.0717471"><ele>73.0</ele><time>2026-04-12T08:12:31.041Z</time></trkpt><trkpt lat="45.2163873" lon="9.0718459"><ele>73.0</ele><time>2026-04-12T08:12:33.037Z</time></trkpt><trkpt lat="45.2163382" lon="9.071949"><ele>72.83333333333333</ele><time>2026-04-12T08:12:35.042Z</time></trkpt><trkpt lat="45.2162865" lon="9.072048"><ele>72.66666666666666</ele><time>2026-04-12T08:12:37.037Z</time></trkpt><trkpt lat="45.2162269" lon="9.0721516"><ele>72.5</ele><time>2026-04-12T08:12:39.105Z</time></trkpt><trkpt lat="45.216161" lon="9.0722376"><ele>72.33333333333333</ele><time>2026-04-12T08:12:41.045Z</time></trkpt><trkpt lat="45.2160997" lon="9.0723189"><ele>72.16666666666667</ele><time>2026-04-12T08:12:43.039Z</time></trkpt><trkpt lat="45.2160378" lon="9.072391"><ele>72.0</ele><time>2026-04-12T08:12:45.04Z</time></trkpt><trkpt lat="45.2159785" lon="9.0724684"><ele>71.83333333333333</ele><time>2026-04-12T08:12:47.039Z</time></trkpt><trkpt lat="45.2159196" lon="9.0725543"><ele>71.66666666666667</ele><time>2026-04-12T08:12:49.046Z</time></trkpt><trkpt lat="45.2158579" lon="9.0726488"><ele>71.5</ele><time>2026-04-12T08:12:51.037Z</time></trkpt><trkpt lat="45.2157914" lon="9.0727336"><ele>71.33333333333334</ele><time>2026-04-12T08:12:53.042Z</time></trkpt><trkpt lat="45.215729" lon="9.0728214"><ele>71.16666666666667</ele><time>2026-04-12T08:12:55.043Z</time></trkpt><trkpt lat="45.2156692" lon="9.0728936"><ele>71.0</ele><time>2026-04-12T08:12:57.042Z</time></trkpt><trkpt lat="45.2156036" lon="9.0729808"><ele>71.0</ele><time>2026-04-12T08:12:59.051Z</time></trkpt><trkpt lat="45.2155337" lon="9.073069"><ele>71.0</ele><time>2026-04-12T08:13:01.041Z</time></trkpt><trkpt lat="45.2154789" lon="9.0731647"><ele>71.0</ele><time>2026-04-12T08:13:03.038Z</time></trkpt><trkpt lat="45.2154321" lon="9.073254"><ele>71.0</ele><time>2026-04-12T08:13:05.051Z</time></trkpt><trkpt lat="45.2153865" lon="9.0733187"><ele>71.0</ele><time>2026-04-12T08:13:07.043Z</time></trkpt><trkpt lat="45.215334" lon="9.073395"><ele>71.0</ele><time>2026-04-12T08:13:09.041Z</time></trkpt><trkpt lat="45.2152712" lon="9.0734751"><ele>71.28571428571428</ele><time>2026-04-12T08:13:11.043Z</time></trkpt><trkpt lat="45.2152152" lon="9.0735485"><ele>71.57142857142857</ele><time>2026-04-12T08:13:13.046Z</time></trkpt><trkpt lat="45.2151652" lon="9.0736126"><ele>71.85714285714286</ele><time>2026-04-12T08:13:15.047Z</time></trkpt><trkpt lat="45.215108" lon="9.0736857"><ele>72.14285714285714</ele><time>2026-04-12T08:13:17.049Z</time></trkpt><trkpt lat="45.2150499" lon="9.0737474"><ele>72.42857142857143</ele><time>2026-04-12T08:13:19.047Z</time></trkpt><trkpt lat="45.2150037" lon="9.073825"><ele>72.71428571428571</ele><time>2026-04-12T08:13:21.1Z</time></trkpt><trkpt lat="45.2149594" lon="9.0738906"><ele>73.0</ele><time>2026-04-12T08:13:23.051Z</time></trkpt><trkpt lat="45.2149095" lon="9.0739656"><ele>73.0</ele><time>2026-04-12T08:13:25.043Z</time></trkpt><trkpt lat="45.2148638" lon="9.0740385"><ele>73.0</ele><time>2026-04-12T08:13:27.049Z</time></trkpt><trkpt lat="45.2148103" lon="9.0741088"><ele>73.0</ele><time>2026-04-12T08:13:29.041Z</time></trkpt><trkpt lat="45.21475" lon="9.0741702"><ele>73.0</ele><time>2026-04-12T08:13:31.052Z</time></trkpt><trkpt lat="45.2146725" lon="9.074216"><ele>73.0</ele><time>2026-04-12T08:13:33.044Z</time></trkpt><trkpt lat="45.2145989" lon="9.0742646"><ele>73.0</ele><time>2026-04-12T08:13:35.041Z</time></trkpt><trkpt lat="45.2145244" lon="9.0743101"><ele>73.33333333333333</ele><time>2026-04-12T08:13:37.039Z</time></trkpt><trkpt lat="45.2144493" lon="9.0743644"><ele>73.66666666666666</ele><time>2026-04-12T08:13:39.044Z</time></trkpt><trkpt lat="45.2143802" lon="9.0744309"><ele>74.0</ele><time>2026-04-12T08:13:41.046Z</time></trkpt><trkpt lat="45.2143184" lon="9.0745122"><ele>74.33333333333333</ele><time>2026-04-12T08:13:43.041Z</time></trkpt><trkpt lat="45.2142562" lon="9.0745921"><ele>74.66666666666667</ele><time>2026-04-12T08:13:45.04Z</time></trkpt><trkpt lat="45.2141962" lon="9.0746651"><ele>75.0</ele><time>2026-04-12T08:13:47.037Z</time></trkpt><trkpt lat="45.2141416" lon="9.0747502"><ele>75.0</ele><time>2026-04-12T08:13:49.031Z</time></trkpt><trkpt lat="45.2140839" lon="9.0748298"><ele>75.0</ele><time>2026-04-12T08:13:51.032Z</time></trkpt><trkpt lat="45.2140389" lon="9.0749122"><ele>75.0</ele><time>2026-04-12T08:13:53.047Z</time></trkpt><trkpt lat="45.2139988" lon="9.0750167"><ele>75.0</ele><time>2026-04-12T08:13:55.042Z</time></trkpt><trkpt lat="45.2139617" lon="9.0751118"><ele>75.0</ele><time>2026-04-12T08:13:57.038Z</time></trkpt><trkpt lat="45.2139107" lon="9.0751949"><ele>75.0</ele><time>2026-04-12T08:13:59.036Z</time></trkpt><trkpt lat="45.2138562" lon="9.0752786"><ele>74.5</ele><time>2026-04-12T08:14:01.042Z</time></trkpt><trkpt lat="45.2137998" lon="9.0753601"><ele>74.0</ele><time>2026-04-12T08:14:03.043Z</time></trkpt><trkpt lat="45.2137532" lon="9.0754514"><ele>73.5</ele><time>2026-04-12T08:14:05.048Z</time></trkpt><trkpt lat="45.2137014" lon="9.0755402"><ele>73.0</ele><time>2026-04-12T08:14:07.043Z</time></trkpt><trkpt lat="45.2136453" lon="9.0756359"><ele>72.5</ele><time>2026-04-12T08:14:09.043Z</time></trkpt><trkpt lat="45.2136023" lon="9.0757329"><ele>72.0</ele><time>2026-04-12T08:14:11.053Z</time></trkpt><trkpt lat="45.2135632" lon="9.0758351"><ele>72.0</ele><time>2026-04-12T08:14:13.054Z</time></trkpt><trkpt lat="45.2135219" lon="9.0759301"><ele>72.0</ele><time>2026-04-12T08:14:15.034Z</time></trkpt><trkpt lat="45.2134851" lon="9.0760357"><ele>72.0</ele><time>2026-04-12T08:14:17.038Z</time></trkpt><trkpt lat="45.2134446" lon="9.0761398"><ele>72.0</ele><time>2026-04-12T08:14:19.046Z</time></trkpt><trkpt lat="45.2134047" lon="9.0762479"><ele>72.0</ele><time>2026-04-12T08:14:21.044Z</time></trkpt><trkpt lat="45.2133645" lon="9.0763449"><ele>72.0</ele><time>2026-04-12T08:14:23.041Z</time></trkpt><trkpt lat="45.2133325" lon="9.0764373"><ele>72.0</ele><time>2026-04-12T08:14:25.038Z</time></trkpt><trkpt lat="45.2132998" lon="9.0765323"><ele>72.0</ele><time>2026-04-12T08:14:27.037Z</time></trkpt><trkpt lat="45.2132626" lon="9.0766325"><ele>72.0</ele><time>2026-04-12T08:14:29.047Z</time></trkpt><trkpt lat="45.2132336" lon="9.0767409"><ele>72.0</ele><time>2026-04-12T08:14:31.041Z</time></trkpt><trkpt lat="45.2132038" lon="9.0768489"><ele>72.0</ele><time>2026-04-12T08:14:33.044Z</time></trkpt><trkpt lat="45.213177" lon="9.0769539"><ele>72.0</ele><time>2026-04-12T08:14:35.043Z</time></trkpt><trkpt lat="45.2131605" lon="9.0770612"><ele>72.33333333333333</ele><time>2026-04-12T08:14:37.038Z</time></trkpt><trkpt lat="45.2131539" lon="9.0771512"><ele>72.66666666666667</ele><time>2026-04-12T08:14:39.047Z</time></trkpt><trkpt lat="45.2131435" lon="9.0772641"><ele>73.0</ele><time>2026-04-12T08:14:41.046Z</time></trkpt><trkpt lat="45.2131491" lon="9.077367"><ele>73.33333333333334</ele><time>2026-04-12T08:14:43.048Z</time></trkpt><trkpt lat="45.2131512" lon="9.077504"><ele>73.66666666666667</ele><time>2026-04-12T08:14:46.041Z</time></trkpt><trkpt lat="45.2131502" lon="9.0776085"><ele>74.0</ele><time>2026-04-12T08:14:48.043Z</time></trkpt><trkpt lat="45.2131601" lon="9.0777107"><ele>74.42857142857143</ele><time>2026-04-12T08:14:50.04Z</time></trkpt><trkpt lat="45.2131564" lon="9.0778179"><ele>74.85714285714286</ele><time>2026-04-12T08:14:52.049Z</time></trkpt><trkpt lat="45.2131456" lon="9.0779252"><ele>75.28571428571428</ele><time>2026-04-12T08:14:54.05Z</time></trkpt><trkpt lat="45.213141" lon="9.0780332"><ele>75.71428571428572</ele><time>2026-04-12T08:14:56.045Z</time></trkpt><trkpt lat="45.2131324" lon="9.0781339"><ele>76.14285714285714</ele><time>2026-04-12T08:14:58.037Z</time></trkpt><trkpt lat="45.2131189" lon="9.0782456"><ele>76.57142857142857</ele><time>2026-04-12T08:15:00.048Z</time></trkpt><trkpt lat="45.2131044" lon="9.0783354"><ele>77.0</ele><time>2026-04-12T08:15:02.045Z</time></trkpt><trkpt lat="45.2131283" lon="9.0784539"><ele>76.5</ele><time>2026-04-12T08:15:05.05Z</time></trkpt><trkpt lat="45.2131915" lon="9.0784971"><ele>76.0</ele><time>2026-04-12T08:15:07.047Z</time></trkpt><trkpt lat="45.2132637" lon="9.0785356"><ele>75.5</ele><time>2026-04-12T08:15:09.04Z</time></trkpt><trkpt lat="45.213341" lon="9.0785909"><ele>75.0</ele><time>2026-04-12T08:15:11.041Z</time></trkpt><trkpt lat="45.2134137" lon="9.0786518"><ele>74.5</ele><time>2026-04-12T08:15:13.043Z</time></trkpt><trkpt lat="45.2134748" lon="9.0787175"><ele>74.0</ele><time>2026-04-12T08:15:15.046Z</time></trkpt><trkpt lat="45.2135387" lon="9.0787913"><ele>74.0</ele><time>2026-04-12T08:15:17.047Z</time></trkpt><trkpt lat="45.2136016" lon="9.0788629"><ele>74.0</ele><time>2026-04-12T08:15:19.056Z</time></trkpt><trkpt lat="45.2136681" lon="9.0789461"><ele>74.0</ele><time>2026-04-12T08:15:21.041Z</time></trkpt><trkpt lat="45.2137289" lon="9.079022"><ele>74.0</ele><time>2026-04-12T08:15:23.043Z</time></trkpt><trkpt lat="45.213786" lon="9.0791036"><ele>74.0</ele><time>2026-04-12T08:15:25.046Z</time></trkpt><trkpt lat="45.2138524" lon="9.0791786"><ele>74.0</ele><time>2026-04-12T08:15:27.043Z</time></trkpt><trkpt lat="45.21393" lon="9.079239"><ele>75.16666666666667</ele><time>2026-04-12T08:15:29.046Z</time></trkpt><trkpt lat="45.2139993" lon="9.0793077"><ele>76.33333333333334</ele><time>2026-04-12T08:15:31.047Z</time></trkpt><trkpt lat="45.2140618" lon="9.0793705"><ele>77.5</ele><time>2026-04-12T08:15:33.043Z</time></trkpt><trkpt lat="45.214123" lon="9.0794357"><ele>78.66666666666667</ele><time>2026-04-12T08:15:35.044Z</time></trkpt><trkpt lat="45.2141826" lon="9.0794938"><ele>79.83333333333333</ele><time>2026-04-12T08:15:37.039Z</time></trkpt><trkpt lat="45.2142433" lon="9.0795623"><ele>81.0</ele><time>2026-04-12T08:15:39.051Z</time></trkpt><trkpt lat="45.2143089" lon="9.0796299"><ele>81.0</ele><time>2026-04-12T08:15:41.054Z</time></trkpt><trkpt lat="45.2143707" lon="9.0796998"><ele>81.0</ele><time>2026-04-12T08:15:43.047Z</time></trkpt><trkpt lat="45.2144329" lon="9.079758"><ele>81.0</ele><time>2026-04-12T08:15:45.043Z</time></trkpt><trkpt lat="45.2144968" lon="9.0798211"><ele>81.0</ele><time>2026-04-12T08:15:47.041Z</time></trkpt><trkpt lat="45.214561" lon="9.0798893"><ele>81.0</ele><time>2026-04-12T08:15:49.045Z</time></trkpt><trkpt lat="45.214621" lon="9.0799608"><ele>81.0</ele><time>2026-04-12T08:15:51.052Z</time></trkpt><trkpt lat="45.2146907" lon="9.08001"><ele>81.0</ele><time>2026-04-12T08:15:53.045Z</time></trkpt><trkpt lat="45.2147494" lon="9.0800707"><ele>81.0</ele><time>2026-04-12T08:15:55.061Z</time></trkpt><trkpt lat="45.2148059" lon="9.0801228"><ele>81.0</ele><time>2026-04-12T08:15:57.045Z</time></trkpt><trkpt lat="45.2148638" lon="9.0801739"><ele>81.0</ele><time>2026-04-12T08:15:59.048Z</time></trkpt><trkpt lat="45.2149167" lon="9.0802292"><ele>81.0</ele><time>2026-04-12T08:16:01.042Z</time></trkpt><trkpt lat="45.2149208" lon="9.0803402"><ele>81.0</ele><time>2026-04-12T08:16:05.044Z</time></trkpt><trkpt lat="45.2148802" lon="9.0804145"><ele>81.0</ele><time>2026-04-12T08:16:07.037Z</time></trkpt><trkpt lat="45.2148387" lon="9.0804978"><ele>81.0</ele><time>2026-04-12T08:16:09.042Z</time></trkpt><trkpt lat="45.2148076" lon="9.080593"><ele>81.0</ele><time>2026-04-12T08:16:11.042Z</time></trkpt><trkpt lat="45.2147733" lon="9.0806754"><ele>81.0</ele><time>2026-04-12T08:16:13.045Z</time></trkpt><trkpt lat="45.214733" lon="9.0807674"><ele>81.0</ele><time>2026-04-12T08:16:15.041Z</time></trkpt><trkpt lat="45.2146979" lon="9.080847"><ele>81.0</ele><time>2026-04-12T08:16:17.037Z</time></trkpt><trkpt lat="45.2146613" lon="9.0809257"><ele>81.0</ele><time>2026-04-12T08:16:19.043Z</time></trkpt><trkpt lat="45.2146232" lon="9.0810105"><ele>81.0</ele><time>2026-04-12T08:16:21.046Z</time></trkpt><trkpt lat="45.2145814" lon="9.0811044"><ele>81.0</ele><time>2026-04-12T08:16:23.046Z</time></trkpt><trkpt lat="45.2145393" lon="9.081194"><ele>81.0</ele><time>2026-04-12T08:16:25.052Z</time></trkpt><trkpt lat="45.2144918" lon="9.0812872"><ele>81.0</ele><time>2026-04-12T08:16:27.051Z</time></trkpt><trkpt lat="45.2144534" lon="9.0813874"><ele>81.0</ele><time>2026-04-12T08:16:29.04Z</time></trkpt><trkpt lat="45.2144054" lon="9.0814815"><ele>81.0</ele><time>2026-04-12T08:16:31.036Z</time></trkpt><trkpt lat="45.2143532" lon="9.0815769"><ele>81.0</ele><time>2026-04-12T08:16:33.043Z</time></trkpt><trkpt lat="45.2143101" lon="9.0816751"><ele>80.83333333333333</ele><time>2026-04-12T08:16:35.043Z</time></trkpt><trkpt lat="45.2142642" lon="9.0817726"><ele>80.66666666666667</ele><time>2026-04-12T08:16:37.04Z</time></trkpt><trkpt lat="45.2142164" lon="9.0818797"><ele>80.5</ele><time>2026-04-12T08:16:39.115Z</time></trkpt><trkpt lat="45.2141664" lon="9.0819829"><ele>80.33333333333334</ele><time>2026-04-12T08:16:41.055Z</time></trkpt><trkpt lat="45.2141125" lon="9.0820792"><ele>80.16666666666667</ele><time>2026-04-12T08:16:43.037Z</time></trkpt><trkpt lat="45.2140597" lon="9.0821876"><ele>80.0</ele><time>2026-04-12T08:16:45.038Z</time></trkpt><trkpt lat="45.2140073" lon="9.082278"><ele>80.16666666666667</ele><time>2026-04-12T08:16:47.041Z</time></trkpt><trkpt lat="45.2139505" lon="9.0823741"><ele>80.33333333333334</ele><time>2026-04-12T08:16:49.05Z</time></trkpt><trkpt lat="45.2139021" lon="9.0824672"><ele>80.5</ele><time>2026-04-12T08:16:51.049Z</time></trkpt><trkpt lat="45.2138515" lon="9.0825622"><ele>80.66666666666667</ele><time>2026-04-12T08:16:53.039Z</time></trkpt><trkpt lat="45.2137996" lon="9.0826606"><ele>80.83333333333333</ele><time>2026-04-12T08:16:55.04Z</time></trkpt><trkpt lat="45.2137447" lon="9.0827603"><ele>81.0</ele><time>2026-04-12T08:16:57.043Z</time></trkpt><trkpt lat="45.2136942" lon="9.0828512"><ele>81.0</ele><time>2026-04-12T08:16:59.037Z</time></trkpt><trkpt lat="45.2136375" lon="9.0829394"><ele>81.0</ele><time>2026-04-12T08:17:01.036Z</time></trkpt><trkpt lat="45.2135775" lon="9.0830262"><ele>81.0</ele><time>2026-04-12T08:17:03.043Z</time></trkpt><trkpt lat="45.2135245" lon="9.0831132"><ele>81.0</ele><time>2026-04-12T08:17:05.039Z</time></trkpt><trkpt lat="45.2134693" lon="9.083204"><ele>81.0</ele><time>2026-04-12T08:17:07.036Z</time></trkpt><trkpt lat="45.2134186" lon="9.0832992"><ele>81.0</ele><time>2026-04-12T08:17:09.046Z</time></trkpt><trkpt lat="45.2133723" lon="9.0833775"><ele>80.83333333333333</ele><time>2026-04-12T08:17:11.05Z</time></trkpt><trkpt lat="45.2133198" lon="9.0834664"><ele>80.66666666666667</ele><time>2026-04-12T08:17:13.037Z</time></trkpt><trkpt lat="45.2132512" lon="9.0835602"><ele>80.5</ele><time>2026-04-12T08:17:15.045Z</time></trkpt><trkpt lat="45.2131942" lon="9.0836669"><ele>80.33333333333334</ele><time>2026-04-12T08:17:17.051Z</time></trkpt><trkpt lat="45.2131457" lon="9.083757"><ele>80.16666666666667</ele><time>2026-04-12T08:17:19.043Z</time></trkpt><trkpt lat="45.2130946" lon="9.0838437"><ele>80.0</ele><time>2026-04-12T08:17:21.048Z</time></trkpt><trkpt lat="45.2130389" lon="9.083942"><ele>80.16666666666667</ele><time>2026-04-12T08:17:23.045Z</time></trkpt><trkpt lat="45.2129822" lon="9.0840461"><ele>80.33333333333334</ele><time>2026-04-12T08:17:25.05Z</time></trkpt><trkpt lat="45.2129245" lon="9.0841347"><ele>80.5</ele><time>2026-04-12T08:17:27.042Z</time></trkpt><trkpt lat="45.2128723" lon="9.0842358"><ele>80.66666666666667</ele><time>2026-04-12T08:17:29.043Z</time></trkpt><trkpt lat="45.2128155" lon="9.0843321"><ele>80.83333333333333</ele><time>2026-04-12T08:17:31.047Z</time></trkpt><trkpt lat="45.2127627" lon="9.0844236"><ele>81.0</ele><time>2026-04-12T08:17:33.041Z</time></trkpt><trkpt lat="45.2127021" lon="9.0845165"><ele>81.0</ele><time>2026-04-12T08:17:35.045Z</time></trkpt><trkpt lat="45.2126422" lon="9.0846061"><ele>81.0</ele><time>2026-04-12T08:17:37.058Z</time></trkpt><trkpt lat="45.2125881" lon="9.084703"><ele>81.0</ele><time>2026-04-12T08:17:39.035Z</time></trkpt><trkpt lat="45.2125323" lon="9.0848047"><ele>81.0</ele><time>2026-04-12T08:17:41.043Z</time></trkpt><trkpt lat="45.2124776" lon="9.0849018"><ele>81.0</ele><time>2026-04-12T08:17:43.059Z</time></trkpt><trkpt lat="45.2124231" lon="9.0849988"><ele>81.0</ele><time>2026-04-12T08:17:45.045Z</time></trkpt><trkpt lat="45.2123569" lon="9.0850907"><ele>80.66666666666667</ele><time>2026-04-12T08:17:47.047Z</time></trkpt><trkpt lat="45.2123152" lon="9.0851751"><ele>80.33333333333333</ele><time>2026-04-12T08:17:49.044Z</time></trkpt><trkpt lat="45.2122667" lon="9.085269"><ele>80.0</ele><time>2026-04-12T08:17:51.039Z</time></trkpt><trkpt lat="45.2122231" lon="9.0853619"><ele>79.66666666666666</ele><time>2026-04-12T08:17:53.044Z</time></trkpt><trkpt lat="45.2121707" lon="9.0854689"><ele>79.33333333333333</ele><time>2026-04-12T08:17:55.045Z</time></trkpt><trkpt lat="45.212117" lon="9.0855634"><ele>79.0</ele><time>2026-04-12T08:17:57.045Z</time></trkpt><trkpt lat="45.212064" lon="9.0856436"><ele>79.0</ele><time>2026-04-12T08:17:59.051Z</time></trkpt><trkpt lat="45.2120072" lon="9.0857338"><ele>79.0</ele><time>2026-04-12T08:18:01.041Z</time></trkpt><trkpt lat="45.2119442" lon="9.0858276"><ele>79.0</ele><time>2026-04-12T08:18:03.041Z</time></trkpt><trkpt lat="45.21189" lon="9.0859234"><ele>79.0</ele><time>2026-04-12T08:18:05.038Z</time></trkpt><trkpt lat="45.21183" lon="9.0860279"><ele>79.0</ele><time>2026-04-12T08:18:07.038Z</time></trkpt><trkpt lat="45.2117729" lon="9.0861254"><ele>79.0</ele><time>2026-04-12T08:18:09.045Z</time></trkpt><trkpt lat="45.2117115" lon="9.0862213"><ele>79.0</ele><time>2026-04-12T08:18:11.043Z</time></trkpt><trkpt lat="45.2116619" lon="9.0863279"><ele>79.0</ele><time>2026-04-12T08:18:13.042Z</time></trkpt><trkpt lat="45.2116121" lon="9.0864416"><ele>79.0</ele><time>2026-04-12T08:18:15.039Z</time></trkpt><trkpt lat="45.2115592" lon="9.0865522"><ele>79.0</ele><time>2026-04-12T08:18:17.038Z</time></trkpt><trkpt lat="45.2115025" lon="9.0866559"><ele>79.0</ele><time>2026-04-12T08:18:19.039Z</time></trkpt><trkpt lat="45.211447" lon="9.0867596"><ele>78.8</ele><time>2026-04-12T08:18:21.036Z</time></trkpt><trkpt lat="45.2113948" lon="9.0868532"><ele>78.60000000000001</ele><time>2026-04-12T08:18:23.044Z</time></trkpt><trkpt lat="45.2113349" lon="9.0869492"><ele>78.4</ele><time>2026-04-12T08:18:25.038Z</time></trkpt><trkpt lat="45.211282" lon="9.0870518"><ele>78.2</ele><time>2026-04-12T08:18:27.041Z</time></trkpt><trkpt lat="45.2112305" lon="9.0871589"><ele>78.0</ele><time>2026-04-12T08:18:29.04Z</time></trkpt><trkpt lat="45.2111683" lon="9.0872666"><ele>78.0</ele><time>2026-04-12T08:18:31.039Z</time></trkpt><trkpt lat="45.2111108" lon="9.0873739"><ele>78.0</ele><time>2026-04-12T08:18:33.042Z</time></trkpt><trkpt lat="45.211053" lon="9.0874801"><ele>78.0</ele><time>2026-04-12T08:18:35.038Z</time></trkpt><trkpt lat="45.2109992" lon="9.0875834"><ele>78.0</ele><time>2026-04-12T08:18:37.042Z</time></trkpt><trkpt lat="45.2109381" lon="9.087679"><ele>78.0</ele><time>2026-04-12T08:18:39.036Z</time></trkpt><trkpt lat="45.2108858" lon="9.0877743"><ele>78.16666666666667</ele><time>2026-04-12T08:18:41.05Z</time></trkpt><trkpt lat="45.2108295" lon="9.0878766"><ele>78.33333333333333</ele><time>2026-04-12T08:18:43.046Z</time></trkpt><trkpt lat="45.2107742" lon="9.0879704"><ele>78.5</ele><time>2026-04-12T08:18:45.04Z</time></trkpt><trkpt lat="45.2107125" lon="9.0880661"><ele>78.66666666666666</ele><time>2026-04-12T08:18:47.042Z</time></trkpt><trkpt lat="45.2106573" lon="9.0881602"><ele>78.83333333333333</ele><time>2026-04-12T08:18:49.037Z</time></trkpt><trkpt lat="45.2106073" lon="9.0882506"><ele>79.0</ele><time>2026-04-12T08:18:51.044Z</time></trkpt><trkpt lat="45.2105595" lon="9.0883216"><ele>79.0</ele><time>2026-04-12T08:18:53.04Z</time></trkpt><trkpt lat="45.2105162" lon="9.0884054"><ele>79.0</ele><time>2026-04-12T08:18:55.041Z</time></trkpt><trkpt lat="45.2104686" lon="9.0884857"><ele>79.0</ele><time>2026-04-12T08:18:57.042Z</time></trkpt><trkpt lat="45.2104103" lon="9.0885664"><ele>79.0</ele><time>2026-04-12T08:18:59.048Z</time></trkpt><trkpt lat="45.2103606" lon="9.088644"><ele>79.0</ele><time>2026-04-12T08:19:01.051Z</time></trkpt><trkpt lat="45.2103229" lon="9.0887226"><ele>79.0</ele><time>2026-04-12T08:19:03.044Z</time></trkpt><trkpt lat="45.2102532" lon="9.0887817"><ele>79.0</ele><time>2026-04-12T08:19:06.036Z</time></trkpt><trkpt lat="45.2101684" lon="9.0887203"><ele>79.0</ele><time>2026-04-12T08:19:09.051Z</time></trkpt><trkpt lat="45.2100942" lon="9.0886673"><ele>79.0</ele><time>2026-04-12T08:19:11.058Z</time></trkpt><trkpt lat="45.2100251" lon="9.0885993"><ele>79.0</ele><time>2026-04-12T08:19:13.054Z</time></trkpt><trkpt lat="45.209975" lon="9.0885335"><ele>79.0</ele><time>2026-04-12T08:19:15.047Z</time></trkpt><trkpt lat="45.2099212" lon="9.0884748"><ele>79.0</ele><time>2026-04-12T08:19:17.044Z</time></trkpt><trkpt lat="45.2098652" lon="9.0884207"><ele>79.00000000000001</ele><time>2026-04-12T08:19:19.123Z</time></trkpt><trkpt lat="45.2098059" lon="9.0883661"><ele>79.0</ele><time>2026-04-12T08:19:21.05Z</time></trkpt><trkpt lat="45.20975" lon="9.08831"><ele>79.0</ele><time>2026-04-12T08:19:23.053Z</time></trkpt><trkpt lat="45.2096944" lon="9.0882403"><ele>79.0</ele><time>2026-04-12T08:19:25.045Z</time></trkpt><trkpt lat="45.2096358" lon="9.0881805"><ele>79.0</ele><time>2026-04-12T08:19:27.038Z</time></trkpt><trkpt lat="45.2095803" lon="9.0881339"><ele>79.00000000000001</ele><time>2026-04-12T08:19:29.041Z</time></trkpt><trkpt lat="45.209501" lon="9.0880587"><ele>79.0</ele><time>2026-04-12T08:19:32.036Z</time></trkpt><trkpt lat="45.209442" lon="9.0880071"><ele>79.0</ele><time>2026-04-12T08:19:34.049Z</time></trkpt><trkpt lat="45.2093759" lon="9.0879444"><ele>79.0</ele><time>2026-04-12T08:19:36.053Z</time></trkpt><trkpt lat="45.2093149" lon="9.0878888"><ele>79.0</ele><time>2026-04-12T08:19:38.047Z</time></trkpt><trkpt lat="45.2092565" lon="9.0878273"><ele>79.0</ele><time>2026-04-12T08:19:40.042Z</time></trkpt><trkpt lat="45.2091897" lon="9.087756"><ele>79.0</ele><time>2026-04-12T08:19:42.05Z</time></trkpt><trkpt lat="45.2091342" lon="9.0876862"><ele>79.0</ele><time>2026-04-12T08:19:44.054Z</time></trkpt><trkpt lat="45.2090761" lon="9.0876337"><ele>79.0</ele><time>2026-04-12T08:19:46.044Z</time></trkpt><trkpt lat="45.2089945" lon="9.0875556"><ele>79.0</ele><time>2026-04-12T08:19:49.056Z</time></trkpt><trkpt lat="45.2089229" lon="9.0874916"><ele>79.0</ele><time>2026-04-12T08:19:51.047Z</time></trkpt><trkpt lat="45.2088657" lon="9.0874231"><ele>79.0</ele><time>2026-04-12T08:19:53.043Z</time></trkpt><trkpt lat="45.2088057" lon="9.0873614"><ele>79.0</ele><time>2026-04-12T08:19:55.043Z</time></trkpt><trkpt lat="45.2087516" lon="9.0872926"><ele>79.0</ele><time>2026-04-12T08:19:57.044Z</time></trkpt><trkpt lat="45.2086934" lon="9.0872324"><ele>78.71428571428572</ele><time>2026-04-12T08:19:59.046Z</time></trkpt><trkpt lat="45.2086283" lon="9.0871673"><ele>78.42857142857143</ele><time>2026-04-12T08:20:01.047Z</time></trkpt><trkpt lat="45.2085612" lon="9.0871035"><ele>78.14285714285714</ele><time>2026-04-12T08:20:03.044Z</time></trkpt><trkpt lat="45.2085059" lon="9.0870498"><ele>77.85714285714286</ele><time>2026-04-12T08:20:05.043Z</time></trkpt><trkpt lat="45.208453" lon="9.0869908"><ele>77.57142857142857</ele><time>2026-04-12T08:20:07.045Z</time></trkpt><trkpt lat="45.2083967" lon="9.08693"><ele>77.28571428571429</ele><time>2026-04-12T08:20:09.052Z</time></trkpt><trkpt lat="45.208343" lon="9.0868542"><ele>77.0</ele><time>2026-04-12T08:20:11.046Z</time></trkpt><trkpt lat="45.2083067" lon="9.086752"><ele>77.0</ele><time>2026-04-12T08:20:13.042Z</time></trkpt><trkpt lat="45.2082723" lon="9.0866524"><ele>77.0</ele><time>2026-04-12T08:20:15.039Z</time></trkpt><trkpt lat="45.2082218" lon="9.0865844"><ele>77.0</ele><time>2026-04-12T08:20:17.04Z</time></trkpt><trkpt lat="45.2081559" lon="9.0865217"><ele>77.0</ele><time>2026-04-12T08:20:19.058Z</time></trkpt><trkpt lat="45.2080962" lon="9.0864693"><ele>77.0</ele><time>2026-04-12T08:20:21.042Z</time></trkpt><trkpt lat="45.2080336" lon="9.0864033"><ele>77.0</ele><time>2026-04-12T08:20:23.04Z</time></trkpt><trkpt lat="45.2079737" lon="9.0863323"><ele>76.66666666666667</ele><time>2026-04-12T08:20:25.047Z</time></trkpt><trkpt lat="45.2079343" lon="9.0862565"><ele>76.33333333333334</ele><time>2026-04-12T08:20:27.047Z</time></trkpt><trkpt lat="45.2078896" lon="9.0861881"><ele>76.0</ele><time>2026-04-12T08:20:29.045Z</time></trkpt><trkpt lat="45.2078142" lon="9.0861119"><ele>75.66666666666667</ele><time>2026-04-12T08:20:32.04Z</time></trkpt><trkpt lat="45.2077357" lon="9.0860346"><ele>75.33333333333333</ele><time>2026-04-12T08:20:35.039Z</time></trkpt><trkpt lat="45.2076845" lon="9.0859815"><ele>75.0</ele><time>2026-04-12T08:20:37.033Z</time></trkpt><trkpt lat="45.2076162" lon="9.0859585"><ele>75.0</ele><time>2026-04-12T08:20:40.03Z</time></trkpt><trkpt lat="45.2075594" lon="9.0859017"><ele>75.0</ele><time>2026-04-12T08:20:46.039Z</time></trkpt><trkpt lat="45.2075206" lon="9.0858238"><ele>75.0</ele><time>2026-04-12T08:20:48.037Z</time></trkpt><trkpt lat="45.2075108" lon="9.0857183"><ele>75.0</ele><time>2026-04-12T08:20:50.032Z</time></trkpt><trkpt lat="45.2074957" lon="9.0856053"><ele>75.0</ele><time>2026-04-12T08:20:52.039Z</time></trkpt><trkpt lat="45.2074251" lon="9.0855312"><ele>75.0</ele><time>2026-04-12T08:20:55.034Z</time></trkpt><trkpt lat="45.2073519" lon="9.0854932"><ele>74.42857142857142</ele><time>2026-04-12T08:20:59.033Z</time></trkpt><trkpt lat="45.2073198" lon="9.0854132"><ele>73.85714285714286</ele><time>2026-04-12T08:21:02.035Z</time></trkpt><trkpt lat="45.2072594" lon="9.0853412"><ele>73.28571428571428</ele><time>2026-04-12T08:21:06.086Z</time></trkpt><trkpt lat="45.2072366" lon="9.0852248"><ele>72.71428571428571</ele><time>2026-04-12T08:21:11.031Z</time></trkpt><trkpt lat="45.2072428" lon="9.0851063"><ele>72.14285714285714</ele><time>2026-04-12T08:21:14.039Z</time></trkpt><trkpt lat="45.2072261" lon="9.0850174"><ele>71.57142857142857</ele><time>2026-04-12T08:21:16.084Z</time></trkpt><trkpt lat="45.2072032" lon="9.0849259"><ele>71.0</ele><time>2026-04-12T08:21:19.034Z</time></trkpt><trkpt lat="45.2071179" lon="9.0848656"><ele>71.0</ele><time>2026-04-12T08:21:22.032Z</time></trkpt><trkpt lat="45.2070487" lon="9.0848468"><ele>71.0</ele><time>2026-04-12T08:21:25.037Z</time></trkpt><trkpt lat="45.206997" lon="9.0847734"><ele>71.0</ele><time>2026-04-12T08:21:29.031Z</time></trkpt><trkpt lat="45.2070285" lon="9.0846781"><ele>71.0</ele><time>2026-04-12T08:21:36.033Z</time></trkpt><trkpt lat="45.2070516" lon="9.0845861"><ele>71.0</ele><time>2026-04-12T08:21:38.035Z</time></trkpt><trkpt lat="45.2070637" lon="9.0844677"><ele>71.0</ele><time>2026-04-12T08:21:41.032Z</time></trkpt><trkpt lat="45.2070305" lon="9.0843835"><ele>71.0</ele><time>2026-04-12T08:21:44.072Z</time></trkpt><trkpt lat="45.206999" lon="9.0842978"><ele>71.0</ele><time>2026-04-12T08:21:47.042Z</time></trkpt><trkpt lat="45.2069911" lon="9.0841995"><ele>71.0</ele><time>2026-04-12T08:21:50.043Z</time></trkpt><trkpt lat="45.2070218" lon="9.0841163"><ele>71.0</ele><time>2026-04-12T08:21:53.037Z</time></trkpt><trkpt lat="45.2070983" lon="9.0840736"><ele>71.0</ele><time>2026-04-12T08:21:57.038Z</time></trkpt><trkpt lat="45.2071293" lon="9.0839667"><ele>71.0</ele><time>2026-04-12T08:22:01.035Z</time></trkpt><trkpt lat="45.2071338" lon="9.0838622"><ele>71.0</ele><time>2026-04-12T08:22:04.037Z</time></trkpt><trkpt lat="45.2071376" lon="9.0837722"><ele>71.0</ele><time>2026-04-12T08:22:06.033Z</time></trkpt><trkpt lat="45.2071387" lon="9.0836788"><ele>70.57142857142857</ele><time>2026-04-12T08:22:09.041Z</time></trkpt><trkpt lat="45.207179" lon="9.0835965"><ele>70.14285714285714</ele><time>2026-04-12T08:22:13.04Z</time></trkpt><trkpt lat="45.2072053" lon="9.0835053"><ele>69.71428571428571</ele><time>2026-04-12T08:22:17.04Z</time></trkpt><trkpt lat="45.2072419" lon="9.0834133"><ele>69.28571428571428</ele><time>2026-04-12T08:22:21.038Z</time></trkpt><trkpt lat="45.2072628" lon="9.0833191"><ele>68.85714285714286</ele><time>2026-04-12T08:22:24.042Z</time></trkpt><trkpt lat="45.2072194" lon="9.0832401"><ele>68.42857142857142</ele><time>2026-04-12T08:22:30.033Z</time></trkpt><trkpt lat="45.2071936" lon="9.0831505"><ele>68.0</ele><time>2026-04-12T08:22:36.039Z</time></trkpt><trkpt lat="45.2072085" lon="9.0830489"><ele>67.66666666666667</ele><time>2026-04-12T08:22:39.034Z</time></trkpt><trkpt lat="45.2072474" lon="9.0829658"><ele>67.33333333333334</ele><time>2026-04-12T08:22:42.034Z</time></trkpt><trkpt lat="45.2072848" lon="9.0828658"><ele>67.0</ele><time>2026-04-12T08:22:46.035Z</time></trkpt><trkpt lat="45.2073222" lon="9.0827673"><ele>66.66666666666667</ele><time>2026-04-12T08:22:49.033Z</time></trkpt><trkpt lat="45.2073459" lon="9.0826794"><ele>66.33333333333333</ele><time>2026-04-12T08:22:51.033Z</time></trkpt><trkpt lat="45.2073824" lon="9.0825627"><ele>66.0</ele><time>2026-04-12T08:22:54.033Z</time></trkpt><trkpt lat="45.2074216" lon="9.0824476"><ele>65.83333333333333</ele><time>2026-04-12T08:22:57.032Z</time></trkpt><trkpt lat="45.2074612" lon="9.0823326"><ele>65.66666666666667</ele><time>2026-04-12T08:23:00.043Z</time></trkpt><trkpt lat="45.2074854" lon="9.0822215"><ele>65.5</ele><time>2026-04-12T08:23:04.04Z</time></trkpt><trkpt lat="45.2074501" lon="9.0821456"><ele>65.33333333333334</ele><time>2026-04-12T08:23:07.035Z</time></trkpt><trkpt lat="45.2073818" lon="9.0820787"><ele>65.16666666666667</ele><time>2026-04-12T08:23:11.037Z</time></trkpt><trkpt lat="45.2073112" lon="9.0820436"><ele>65.0</ele><time>2026-04-12T08:23:14.077Z</time></trkpt><trkpt lat="45.2072494" lon="9.0820117"><ele>65.0</ele><time>2026-04-12T08:23:16.032Z</time></trkpt><trkpt lat="45.2071713" lon="9.08197"><ele>65.0</ele><time>2026-04-12T08:23:19.034Z</time></trkpt><trkpt lat="45.2070911" lon="9.0819431"><ele>65.0</ele><time>2026-04-12T08:23:23.03Z</time></trkpt><trkpt lat="45.2070147" lon="9.0819649"><ele>65.0</ele><time>2026-04-12T08:23:28.026Z</time></trkpt><trkpt lat="45.2069854" lon="9.0820686"><ele>65.0</ele><time>2026-04-12T08:23:31.033Z</time></trkpt><trkpt lat="45.206965" lon="9.082173"><ele>65.0</ele><time>2026-04-12T08:23:34.033Z</time></trkpt><trkpt lat="45.206944" lon="9.0822621"><ele>65.0</ele><time>2026-04-12T08:23:36.04Z</time></trkpt><trkpt lat="45.2069232" lon="9.0823708"><ele>65.0</ele><time>2026-04-12T08:23:39.034Z</time></trkpt><trkpt lat="45.2068972" lon="9.0824529"><ele>65.0</ele><time>2026-04-12T08:23:41.031Z</time></trkpt><trkpt lat="45.2068813" lon="9.0825772"><ele>65.0</ele><time>2026-04-12T08:23:44.037Z</time></trkpt><trkpt lat="45.2068636" lon="9.0827043"><ele>65.0</ele><time>2026-04-12T08:23:47.033Z</time></trkpt><trkpt lat="45.2068539" lon="9.0827989"><ele>65.0</ele><time>2026-04-12T08:23:49.032Z</time></trkpt><trkpt lat="45.2068413" lon="9.0828945"><ele>65.14285714285715</ele><time>2026-04-12T08:23:51.034Z</time></trkpt><trkpt lat="45.2068295" lon="9.0829878"><ele>65.28571428571429</ele><time>2026-04-12T08:23:53.032Z</time></trkpt><trkpt lat="45.2068119" lon="9.083081"><ele>65.42857142857143</ele><time>2026-04-12T08:23:55.029Z</time></trkpt><trkpt lat="45.2067923" lon="9.0831735"><ele>65.57142857142858</ele><time>2026-04-12T08:23:57.028Z</time></trkpt><trkpt lat="45.2067714" lon="9.0832579"><ele>65.71428571428572</ele><time>2026-04-12T08:23:59.035Z</time></trkpt><trkpt lat="45.206743" lon="9.0833689"><ele>65.85714285714286</ele><time>2026-04-12T08:24:02.029Z</time></trkpt><trkpt lat="45.2067259" lon="9.0834685"><ele>66.0</ele><time>2026-04-12T08:24:05.027Z</time></trkpt><trkpt lat="45.2067152" lon="9.0835568"><ele>66.28571428571428</ele><time>2026-04-12T08:24:07.041Z</time></trkpt><trkpt lat="45.2066956" lon="9.0836561"><ele>66.57142857142857</ele><time>2026-04-12T08:24:09.03Z</time></trkpt><trkpt lat="45.2066708" lon="9.0837497"><ele>66.85714285714286</ele><time>2026-04-12T08:24:11.032Z</time></trkpt><trkpt lat="45.2066572" lon="9.08384"><ele>67.14285714285714</ele><time>2026-04-12T08:24:13.032Z</time></trkpt><trkpt lat="45.2066411" lon="9.0839296"><ele>67.42857142857143</ele><time>2026-04-12T08:24:15.033Z</time></trkpt><trkpt lat="45.2066281" lon="9.0840232"><ele>67.71428571428571</ele><time>2026-04-12T08:24:17.034Z</time></trkpt><trkpt lat="45.2066076" lon="9.0841132"><ele>68.0</ele><time>2026-04-12T08:24:19.067Z</time></trkpt><trkpt lat="45.2065645" lon="9.0841882"><ele>68.5</ele><time>2026-04-12T08:24:21.028Z</time></trkpt><trkpt lat="45.2064983" lon="9.0842276"><ele>69.0</ele><time>2026-04-12T08:24:23.031Z</time></trkpt><trkpt lat="45.206412" lon="9.0841963"><ele>69.5</ele><time>2026-04-12T08:24:25.04Z</time></trkpt><trkpt lat="45.2063348" lon="9.0841623"><ele>70.0</ele><time>2026-04-12T08:24:27.033Z</time></trkpt><trkpt lat="45.2062577" lon="9.084153"><ele>70.5</ele><time>2026-04-12T08:24:29.029Z</time></trkpt><trkpt lat="45.206168" lon="9.0841339"><ele>71.0</ele><time>2026-04-12T08:24:32.028Z</time></trkpt><trkpt lat="45.2061051" lon="9.084118"><ele>69.16666666666667</ele><time>2026-04-12T08:24:34.034Z</time></trkpt><trkpt lat="45.2060328" lon="9.0840942"><ele>67.33333333333334</ele><time>2026-04-12T08:24:36.029Z</time></trkpt><trkpt lat="45.2059491" lon="9.084071"><ele>65.5</ele><time>2026-04-12T08:24:38.037Z</time></trkpt><trkpt lat="45.2058764" lon="9.0840404"><ele>63.66666666666667</ele><time>2026-04-12T08:24:40.036Z</time></trkpt><trkpt lat="45.2057927" lon="9.0840199"><ele>61.833333333333336</ele><time>2026-04-12T08:24:42.036Z</time></trkpt><trkpt lat="45.2057137" lon="9.0840017"><ele>60.0</ele><time>2026-04-12T08:24:44.035Z</time></trkpt><trkpt lat="45.2056247" lon="9.0839729"><ele>60.0</ele><time>2026-04-12T08:24:46.038Z</time></trkpt><trkpt lat="45.2055346" lon="9.0839506"><ele>60.0</ele><time>2026-04-12T08:24:48.038Z</time></trkpt><trkpt lat="45.2054487" lon="9.0839232"><ele>60.0</ele><time>2026-04-12T08:24:50.037Z</time></trkpt><trkpt lat="45.2053715" lon="9.0839006"><ele>60.0</ele><time>2026-04-12T08:24:52.037Z</time></trkpt><trkpt lat="45.2052921" lon="9.083874"><ele>60.0</ele><time>2026-04-12T08:24:54.036Z</time></trkpt><trkpt lat="45.2051993" lon="9.0838396"><ele>60.0</ele><time>2026-04-12T08:24:56.074Z</time></trkpt><trkpt lat="45.2051111" lon="9.0838165"><ele>60.0</ele><time>2026-04-12T08:24:58.081Z</time></trkpt><trkpt lat="45.2050217" lon="9.083779"><ele>60.0</ele><time>2026-04-12T08:25:00.039Z</time></trkpt><trkpt lat="45.2049324" lon="9.0837426"><ele>60.0</ele><time>2026-04-12T08:25:02.031Z</time></trkpt><trkpt lat="45.2048351" lon="9.083712"><ele>60.0</ele><time>2026-04-12T08:25:04.039Z</time></trkpt><trkpt lat="45.2047378" lon="9.0836911"><ele>60.0</ele><time>2026-04-12T08:25:06.032Z</time></trkpt><trkpt lat="45.2046584" lon="9.0836583"><ele>59.833333333333336</ele><time>2026-04-12T08:25:08.034Z</time></trkpt><trkpt lat="45.2045753" lon="9.0836294"><ele>59.66666666666667</ele><time>2026-04-12T08:25:10.076Z</time></trkpt><trkpt lat="45.2044901" lon="9.0836006"><ele>59.5</ele><time>2026-04-12T08:25:12.036Z</time></trkpt><trkpt lat="45.2044026" lon="9.0835811"><ele>59.333333333333336</ele><time>2026-04-12T08:25:14.047Z</time></trkpt><trkpt lat="45.2043163" lon="9.0835639"><ele>59.16666666666667</ele><time>2026-04-12T08:25:16.051Z</time></trkpt><trkpt lat="45.2042301" lon="9.0835347"><ele>59.0</ele><time>2026-04-12T08:25:18.039Z</time></trkpt><trkpt lat="45.2041384" lon="9.0835151"><ele>59.00000000000001</ele><time>2026-04-12T08:25:20.046Z</time></trkpt><trkpt lat="45.2040564" lon="9.0834946"><ele>59.0</ele><time>2026-04-12T08:25:22.046Z</time></trkpt><trkpt lat="45.2039715" lon="9.0834629"><ele>59.0</ele><time>2026-04-12T08:25:24.048Z</time></trkpt><trkpt lat="45.2038869" lon="9.0834326"><ele>59.0</ele><time>2026-04-12T08:25:26.038Z</time></trkpt><trkpt lat="45.2038079" lon="9.0833989"><ele>59.00000000000001</ele><time>2026-04-12T08:25:28.041Z</time></trkpt><trkpt lat="45.2037273" lon="9.083374"><ele>59.0</ele><time>2026-04-12T08:25:30.044Z</time></trkpt><trkpt lat="45.2036425" lon="9.0833511"><ele>59.00000000000001</ele><time>2026-04-12T08:25:32.036Z</time></trkpt><trkpt lat="45.2035635" lon="9.0833225"><ele>59.0</ele><time>2026-04-12T08:25:34.034Z</time></trkpt><trkpt lat="45.2034884" lon="9.0833041"><ele>59.0</ele><time>2026-04-12T08:25:36.04Z</time></trkpt><trkpt lat="45.2034203" lon="9.0832843"><ele>59.0</ele><time>2026-04-12T08:25:38.039Z</time></trkpt><trkpt lat="45.2033405" lon="9.0832655"><ele>59.00000000000001</ele><time>2026-04-12T08:25:40.037Z</time></trkpt><trkpt lat="45.2032674" lon="9.0832463"><ele>59.0</ele><time>2026-04-12T08:25:42.041Z</time></trkpt><trkpt lat="45.2031891" lon="9.0832209"><ele>59.00000000000001</ele><time>2026-04-12T08:25:44.041Z</time></trkpt><trkpt lat="45.2031162" lon="9.0831997"><ele>59.0</ele><time>2026-04-12T08:25:46.043Z</time></trkpt><trkpt lat="45.2030418" lon="9.0831763"><ele>59.0</ele><time>2026-04-12T08:25:48.049Z</time></trkpt><trkpt lat="45.2029697" lon="9.0831529"><ele>59.0</ele><time>2026-04-12T08:25:50.039Z</time></trkpt><trkpt lat="45.2029323" lon="9.083272"><ele>59.00000000000001</ele><time>2026-04-12T08:25:53.046Z</time></trkpt><trkpt lat="45.2029401" lon="9.0833887"><ele>59.0</ele><time>2026-04-12T08:25:55.047Z</time></trkpt><trkpt lat="45.2029549" lon="9.0835147"><ele>59.16666666666667</ele><time>2026-04-12T08:25:57.047Z</time></trkpt><trkpt lat="45.2029622" lon="9.0836463"><ele>59.333333333333336</ele><time>2026-04-12T08:25:59.11Z</time></trkpt><trkpt lat="45.2029677" lon="9.0837767"><ele>59.5</ele><time>2026-04-12T08:26:01.043Z</time></trkpt><trkpt lat="45.2029726" lon="9.0838893"><ele>59.66666666666667</ele><time>2026-04-12T08:26:03.042Z</time></trkpt><trkpt lat="45.202973" lon="9.0840039"><ele>59.833333333333336</ele><time>2026-04-12T08:26:05.042Z</time></trkpt><trkpt lat="45.2029781" lon="9.0841057"><ele>60.0</ele><time>2026-04-12T08:26:07.045Z</time></trkpt><trkpt lat="45.2029824" lon="9.0842029"><ele>59.666666666666664</ele><time>2026-04-12T08:26:09.042Z</time></trkpt><trkpt lat="45.2029825" lon="9.0843151"><ele>59.33333333333333</ele><time>2026-04-12T08:26:11.049Z</time></trkpt><trkpt lat="45.2029928" lon="9.0844386"><ele>59.0</ele><time>2026-04-12T08:26:13.046Z</time></trkpt><trkpt lat="45.2029989" lon="9.0845662"><ele>58.666666666666664</ele><time>2026-04-12T08:26:15.045Z</time></trkpt><trkpt lat="45.2030073" lon="9.0846929"><ele>58.33333333333333</ele><time>2026-04-12T08:26:17.044Z</time></trkpt><trkpt lat="45.2030151" lon="9.0848236"><ele>58.0</ele><time>2026-04-12T08:26:19.043Z</time></trkpt><trkpt lat="45.2030235" lon="9.0849398"><ele>57.99999999999999</ele><time>2026-04-12T08:26:21.049Z</time></trkpt><trkpt lat="45.2030326" lon="9.0850616"><ele>58.0</ele><time>2026-04-12T08:26:23.039Z</time></trkpt><trkpt lat="45.2030354" lon="9.0851937"><ele>58.0</ele><time>2026-04-12T08:26:25.11Z</time></trkpt><trkpt lat="45.2030379" lon="9.0853159"><ele>58.0</ele><time>2026-04-12T08:26:27.109Z</time></trkpt><trkpt lat="45.2030494" lon="9.0854454"><ele>57.99999999999999</ele><time>2026-04-12T08:26:29.043Z</time></trkpt><trkpt lat="45.2030637" lon="9.0855712"><ele>58.0</ele><time>2026-04-12T08:26:31.047Z</time></trkpt><trkpt lat="45.2030616" lon="9.0856959"><ele>57.83333333333333</ele><time>2026-04-12T08:26:33.04Z</time></trkpt><trkpt lat="45.2030673" lon="9.0858182"><ele>57.666666666666664</ele><time>2026-04-12T08:26:35.044Z</time></trkpt><trkpt lat="45.2030704" lon="9.0859376"><ele>57.5</ele><time>2026-04-12T08:26:37.04Z</time></trkpt><trkpt lat="45.2030845" lon="9.0860588"><ele>57.33333333333333</ele><time>2026-04-12T08:26:39.043Z</time></trkpt><trkpt lat="45.2030989" lon="9.0861736"><ele>57.166666666666664</ele><time>2026-04-12T08:26:41.044Z</time></trkpt><trkpt lat="45.2031172" lon="9.0862922"><ele>57.0</ele><time>2026-04-12T08:26:43.044Z</time></trkpt><trkpt lat="45.2031499" lon="9.0864112"><ele>57.166666666666664</ele><time>2026-04-12T08:26:45.047Z</time></trkpt><trkpt lat="45.2031907" lon="9.0865174"><ele>57.33333333333333</ele><time>2026-04-12T08:26:47.045Z</time></trkpt><trkpt lat="45.2032342" lon="9.0866444"><ele>57.5</ele><time>2026-04-12T08:26:49.048Z</time></trkpt><trkpt lat="45.2032735" lon="9.0867622"><ele>57.666666666666664</ele><time>2026-04-12T08:26:51.041Z</time></trkpt><trkpt lat="45.2033136" lon="9.0868765"><ele>57.83333333333333</ele><time>2026-04-12T08:26:53.046Z</time></trkpt><trkpt lat="45.2033488" lon="9.0869787"><ele>58.0</ele><time>2026-04-12T08:26:55.049Z</time></trkpt><trkpt lat="45.2033937" lon="9.0870905"><ele>57.99999999999999</ele><time>2026-04-12T08:26:57.043Z</time></trkpt><trkpt lat="45.2034334" lon="9.0872015"><ele>58.0</ele><time>2026-04-12T08:26:59.048Z</time></trkpt><trkpt lat="45.2034785" lon="9.0873186"><ele>58.0</ele><time>2026-04-12T08:27:01.045Z</time></trkpt><trkpt lat="45.2035185" lon="9.0874407"><ele>58.0</ele><time>2026-04-12T08:27:03.046Z</time></trkpt><trkpt lat="45.2035531" lon="9.0875529"><ele>57.99999999999999</ele><time>2026-04-12T08:27:05.047Z</time></trkpt><trkpt lat="45.203588" lon="9.087664"><ele>58.0</ele><time>2026-04-12T08:27:07.123Z</time></trkpt><trkpt lat="45.2036195" lon="9.0877789"><ele>58.2</ele><time>2026-04-12T08:27:09.045Z</time></trkpt><trkpt lat="45.203657" lon="9.0879052"><ele>58.4</ele><time>2026-04-12T08:27:11.041Z</time></trkpt><trkpt lat="45.2037052" lon="9.0880309"><ele>58.60000000000001</ele><time>2026-04-12T08:27:13.039Z</time></trkpt><trkpt lat="45.2037455" lon="9.0881602"><ele>58.800000000000004</ele><time>2026-04-12T08:27:15.047Z</time></trkpt><trkpt lat="45.2038045" lon="9.0882775"><ele>59.0</ele><time>2026-04-12T08:27:17.036Z</time></trkpt><trkpt lat="45.203874" lon="9.088376"><ele>59.2</ele><time>2026-04-12T08:27:19.037Z</time></trkpt><trkpt lat="45.2039528" lon="9.0884725"><ele>59.400000000000006</ele><time>2026-04-12T08:27:21.048Z</time></trkpt><trkpt lat="45.2040234" lon="9.088556"><ele>59.6</ele><time>2026-04-12T08:27:23.044Z</time></trkpt><trkpt lat="45.2041051" lon="9.0886406"><ele>59.8</ele><time>2026-04-12T08:27:25.047Z</time></trkpt><trkpt lat="45.2041785" lon="9.0887247"><ele>60.0</ele><time>2026-04-12T08:27:27.036Z</time></trkpt><trkpt lat="45.2042489" lon="9.0887933"><ele>60.8</ele><time>2026-04-12T08:27:29.04Z</time></trkpt><trkpt lat="45.2043347" lon="9.088854"><ele>61.6</ele><time>2026-04-12T08:27:31.039Z</time></trkpt><trkpt lat="45.2044254" lon="9.0889051"><ele>62.400000000000006</ele><time>2026-04-12T08:27:33.042Z</time></trkpt><trkpt lat="45.2045099" lon="9.0889616"><ele>63.2</ele><time>2026-04-12T08:27:35.045Z</time></trkpt><trkpt lat="45.2045857" lon="9.0890336"><ele>64.0</ele><time>2026-04-12T08:27:37.045Z</time></trkpt><trkpt lat="45.2046487" lon="9.0891339"><ele>65.5</ele><time>2026-04-12T08:27:39.039Z</time></trkpt><trkpt lat="45.204709" lon="9.0892247"><ele>67.0</ele><time>2026-04-12T08:27:41.107Z</time></trkpt><trkpt lat="45.2047627" lon="9.0893212"><ele>68.5</ele><time>2026-04-12T08:27:43.044Z</time></trkpt><trkpt lat="45.204817" lon="9.0894089"><ele>70.0</ele><time>2026-04-12T08:27:45.045Z</time></trkpt><trkpt lat="45.2048727" lon="9.0894988"><ele>71.5</ele><time>2026-04-12T08:27:47.033Z</time></trkpt><trkpt lat="45.2049357" lon="9.0895743"><ele>73.0</ele><time>2026-04-12T08:27:49.046Z</time></trkpt><trkpt lat="45.2049938" lon="9.089643"><ele>73.0</ele><time>2026-04-12T08:27:51.051Z</time></trkpt><trkpt lat="45.2050579" lon="9.0897245"><ele>73.0</ele><time>2026-04-12T08:27:53.039Z</time></trkpt><trkpt lat="45.2051258" lon="9.0897898"><ele>73.0</ele><time>2026-04-12T08:27:55.053Z</time></trkpt><trkpt lat="45.205204" lon="9.0898276"><ele>73.0</ele><time>2026-04-12T08:27:57.045Z</time></trkpt><trkpt lat="45.2052655" lon="9.0898538"><ele>73.0</ele><time>2026-04-12T08:27:59.045Z</time></trkpt><trkpt lat="45.2053189" lon="9.0899067"><ele>73.0</ele><time>2026-04-12T08:28:01.038Z</time></trkpt><trkpt lat="45.2053716" lon="9.0899863"><ele>74.0</ele><time>2026-04-12T08:28:03.046Z</time></trkpt><trkpt lat="45.2054248" lon="9.0900701"><ele>75.0</ele><time>2026-04-12T08:28:05.038Z</time></trkpt><trkpt lat="45.205457" lon="9.0901533"><ele>76.0</ele><time>2026-04-12T08:28:07.111Z</time></trkpt><trkpt lat="45.2054987" lon="9.090229"><ele>77.0</ele><time>2026-04-12T08:28:09.043Z</time></trkpt><trkpt lat="45.2055695" lon="9.0902898"><ele>78.0</ele><time>2026-04-12T08:28:12.045Z</time></trkpt><trkpt lat="45.2056397" lon="9.0902392"><ele>79.0</ele><time>2026-04-12T08:28:15.044Z</time></trkpt><trkpt lat="45.2057" lon="9.0901538"><ele>79.28571428571429</ele><time>2026-04-12T08:28:18.041Z</time></trkpt><trkpt lat="45.2057549" lon="9.0900739"><ele>79.57142857142857</ele><time>2026-04-12T08:28:38.042Z</time></trkpt><trkpt lat="45.2058108" lon="9.0899932"><ele>79.85714285714286</ele><time>2026-04-12T08:28:43.046Z</time></trkpt><trkpt lat="45.2058533" lon="9.0899265"><ele>80.14285714285714</ele><time>2026-04-12T08:28:46.065Z</time></trkpt><trkpt lat="45.2058996" lon="9.0898612"><ele>80.42857142857143</ele><time>2026-04-12T08:28:48.131Z</time></trkpt><trkpt lat="45.2059465" lon="9.0897796"><ele>80.71428571428572</ele><time>2026-04-12T08:28:50.046Z</time></trkpt><trkpt lat="45.2060009" lon="9.0896987"><ele>81.0</ele><time>2026-04-12T08:28:52.067Z</time></trkpt><trkpt lat="45.2060551" lon="9.0896298"><ele>80.16666666666667</ele><time>2026-04-12T08:28:54.038Z</time></trkpt><trkpt lat="45.2061063" lon="9.089559"><ele>79.33333333333333</ele><time>2026-04-12T08:28:56.077Z</time></trkpt><trkpt lat="45.206163" lon="9.0894888"><ele>78.5</ele><time>2026-04-12T08:28:58.068Z</time></trkpt><trkpt lat="45.2062268" lon="9.0894163"><ele>77.66666666666666</ele><time>2026-04-12T08:29:00.069Z</time></trkpt><trkpt lat="45.2062851" lon="9.0893425"><ele>76.83333333333333</ele><time>2026-04-12T08:29:02.058Z</time></trkpt><trkpt lat="45.2063412" lon="9.0892712"><ele>76.0</ele><time>2026-04-12T08:29:04.061Z</time></trkpt><trkpt lat="45.206398" lon="9.0891958"><ele>76.0</ele><time>2026-04-12T08:29:06.079Z</time></trkpt><trkpt lat="45.206464" lon="9.0891206"><ele>76.0</ele><time>2026-04-12T08:29:08.066Z</time></trkpt><trkpt lat="45.2065174" lon="9.0890477"><ele>76.0</ele><time>2026-04-12T08:29:10.061Z</time></trkpt><trkpt lat="45.2065775" lon="9.0889793"><ele>76.0</ele><time>2026-04-12T08:29:12.082Z</time></trkpt><trkpt lat="45.2066361" lon="9.088905"><ele>76.0</ele><time>2026-04-12T08:29:14.05Z</time></trkpt><trkpt lat="45.2066981" lon="9.0888305"><ele>76.0</ele><time>2026-04-12T08:29:16.057Z</time></trkpt><trkpt lat="45.2067579" lon="9.0887601"><ele>76.16666666666666</ele><time>2026-04-12T08:29:18.065Z</time></trkpt><trkpt lat="45.2068182" lon="9.0886861"><ele>76.33333333333333</ele><time>2026-04-12T08:29:20.075Z</time></trkpt><trkpt lat="45.2068848" lon="9.0886088"><ele>76.5</ele><time>2026-04-12T08:29:22.071Z</time></trkpt><trkpt lat="45.2069488" lon="9.0885276"><ele>76.66666666666667</ele><time>2026-04-12T08:29:24.081Z</time></trkpt><trkpt lat="45.2070039" lon="9.0884575"><ele>76.83333333333334</ele><time>2026-04-12T08:29:26.074Z</time></trkpt><trkpt lat="45.2070654" lon="9.088386"><ele>77.0</ele><time>2026-04-12T08:29:28.051Z</time></trkpt><trkpt lat="45.2071215" lon="9.0883103"><ele>77.33333333333334</ele><time>2026-04-12T08:29:30.072Z</time></trkpt><trkpt lat="45.2071752" lon="9.0882404"><ele>77.66666666666667</ele><time>2026-04-12T08:29:32.072Z</time></trkpt><trkpt lat="45.2072395" lon="9.0881688"><ele>78.0</ele><time>2026-04-12T08:29:34.068Z</time></trkpt><trkpt lat="45.2073058" lon="9.0880956"><ele>78.33333333333333</ele><time>2026-04-12T08:29:36.064Z</time></trkpt><trkpt lat="45.2073716" lon="9.0880274"><ele>78.66666666666666</ele><time>2026-04-12T08:29:38.068Z</time></trkpt><trkpt lat="45.2074367" lon="9.0879638"><ele>79.0</ele><time>2026-04-12T08:29:40.049Z</time></trkpt><trkpt lat="45.2075111" lon="9.0879265"><ele>79.00000000000001</ele><time>2026-04-12T08:29:42.061Z</time></trkpt><trkpt lat="45.2075803" lon="9.087896"><ele>79.0</ele><time>2026-04-12T08:29:44.067Z</time></trkpt><trkpt lat="45.2076488" lon="9.0878804"><ele>79.0</ele><time>2026-04-12T08:29:46.059Z</time></trkpt><trkpt lat="45.2077216" lon="9.0878753"><ele>79.0</ele><time>2026-04-12T08:29:48.057Z</time></trkpt><trkpt lat="45.2077968" lon="9.0878787"><ele>79.0</ele><time>2026-04-12T08:29:50.066Z</time></trkpt><trkpt lat="45.207875" lon="9.0878745"><ele>79.00000000000001</ele><time>2026-04-12T08:29:52.071Z</time></trkpt><trkpt lat="45.2079481" lon="9.0878894"><ele>79.0</ele><time>2026-04-12T08:29:54.064Z</time></trkpt><trkpt lat="45.2080343" lon="9.0879023"><ele>79.0</ele><time>2026-04-12T08:29:56.081Z</time></trkpt><trkpt lat="45.2081157" lon="9.0879251"><ele>79.0</ele><time>2026-04-12T08:29:58.052Z</time></trkpt><trkpt lat="45.2081893" lon="9.0879476"><ele>79.0</ele><time>2026-04-12T08:30:00.065Z</time></trkpt><trkpt lat="45.2082576" lon="9.0879736"><ele>79.0</ele><time>2026-04-12T08:30:02.065Z</time></trkpt><trkpt lat="45.2083388" lon="9.0879625"><ele>79.0</ele><time>2026-04-12T08:30:04.039Z</time></trkpt><trkpt lat="45.2084185" lon="9.0879118"><ele>79.0</ele><time>2026-04-12T08:30:06.057Z</time></trkpt><trkpt lat="45.208481" lon="9.0878404"><ele>78.66666666666666</ele><time>2026-04-12T08:30:08.056Z</time></trkpt><trkpt lat="45.2085521" lon="9.0877541"><ele>78.33333333333333</ele><time>2026-04-12T08:30:10.042Z</time></trkpt><trkpt lat="45.2086104" lon="9.0876625"><ele>78.0</ele><time>2026-04-12T08:30:12.042Z</time></trkpt><trkpt lat="45.2086531" lon="9.08758"><ele>77.66666666666667</ele><time>2026-04-12T08:30:14.04Z</time></trkpt><trkpt lat="45.2087195" lon="9.087495"><ele>77.33333333333334</ele><time>2026-04-12T08:30:17.046Z</time></trkpt><trkpt lat="45.2088036" lon="9.0874453"><ele>77.0</ele><time>2026-04-12T08:30:20.045Z</time></trkpt><trkpt lat="45.2088761" lon="9.0874594"><ele>77.0</ele><time>2026-04-12T08:30:22.048Z</time></trkpt><trkpt lat="45.2089423" lon="9.0874902"><ele>77.0</ele><time>2026-04-12T08:30:24.046Z</time></trkpt><trkpt lat="45.2090076" lon="9.0875411"><ele>77.0</ele><time>2026-04-12T08:30:26.036Z</time></trkpt><trkpt lat="45.2090635" lon="9.0875958"><ele>77.0</ele><time>2026-04-12T08:30:28.035Z</time></trkpt><trkpt lat="45.2091307" lon="9.0876441"><ele>77.0</ele><time>2026-04-12T08:30:30.047Z</time></trkpt><trkpt lat="45.2092001" lon="9.0876955"><ele>77.0</ele><time>2026-04-12T08:30:32.04Z</time></trkpt><trkpt lat="45.209265" lon="9.087763"><ele>77.0</ele><time>2026-04-12T08:30:34.043Z</time></trkpt><trkpt lat="45.2093278" lon="9.087823"><ele>77.33333333333334</ele><time>2026-04-12T08:30:36.043Z</time></trkpt><trkpt lat="45.2093903" lon="9.0878784"><ele>77.66666666666667</ele><time>2026-04-12T08:30:38.04Z</time></trkpt><trkpt lat="45.2094529" lon="9.0879348"><ele>78.0</ele><time>2026-04-12T08:30:40.045Z</time></trkpt><trkpt lat="45.2095182" lon="9.0879848"><ele>78.33333333333333</ele><time>2026-04-12T08:30:42.039Z</time></trkpt><trkpt lat="45.2095785" lon="9.0880458"><ele>78.66666666666666</ele><time>2026-04-12T08:30:44.05Z</time></trkpt><trkpt lat="45.2096414" lon="9.0881138"><ele>79.0</ele><time>2026-04-12T08:30:46.044Z</time></trkpt><trkpt lat="45.2097015" lon="9.0881822"><ele>79.0</ele><time>2026-04-12T08:30:48.039Z</time></trkpt><trkpt lat="45.2097663" lon="9.0882472"><ele>79.0</ele><time>2026-04-12T08:30:50.038Z</time></trkpt><trkpt lat="45.2098316" lon="9.0883144"><ele>79.0</ele><time>2026-04-12T08:30:52.065Z</time></trkpt><trkpt lat="45.2098956" lon="9.0883778"><ele>79.0</ele><time>2026-04-12T08:30:54.061Z</time></trkpt><trkpt lat="45.2099545" lon="9.0884403"><ele>79.0</ele><time>2026-04-12T08:30:56.064Z</time></trkpt><trkpt lat="45.2100198" lon="9.0885038"><ele>79.0</ele><time>2026-04-12T08:30:58.065Z</time></trkpt><trkpt lat="45.2100837" lon="9.0885624"><ele>79.00000000000001</ele><time>2026-04-12T08:31:00.051Z</time></trkpt><trkpt lat="45.210137" lon="9.0886195"><ele>79.0</ele><time>2026-04-12T08:31:02.062Z</time></trkpt><trkpt lat="45.2101994" lon="9.0886938"><ele>79.0</ele><time>2026-04-12T08:31:05.045Z</time></trkpt><trkpt lat="45.2102639" lon="9.0887447"><ele>79.0</ele><time>2026-04-12T08:31:08.038Z</time></trkpt><trkpt lat="45.2103286" lon="9.0886903"><ele>79.0</ele><time>2026-04-12T08:31:11.039Z</time></trkpt><trkpt lat="45.2103741" lon="9.0886147"><ele>79.00000000000001</ele><time>2026-04-12T08:31:13.058Z</time></trkpt><trkpt lat="45.21042" lon="9.0885305"><ele>79.0</ele><time>2026-04-12T08:31:15.042Z</time></trkpt><trkpt lat="45.2104659" lon="9.0884497"><ele>79.0</ele><time>2026-04-12T08:31:17.07Z</time></trkpt><trkpt lat="45.2105106" lon="9.0883651"><ele>79.0</ele><time>2026-04-12T08:31:19.068Z</time></trkpt><trkpt lat="45.2105603" lon="9.0882809"><ele>79.0</ele><time>2026-04-12T08:31:21.139Z</time></trkpt><trkpt lat="45.2106089" lon="9.0881866"><ele>79.0</ele><time>2026-04-12T08:31:23.058Z</time></trkpt><trkpt lat="45.2106622" lon="9.0880966"><ele>79.0</ele><time>2026-04-12T08:31:25.051Z</time></trkpt><trkpt lat="45.2107121" lon="9.0880118"><ele>79.0</ele><time>2026-04-12T08:31:27.068Z</time></trkpt><trkpt lat="45.2107566" lon="9.0879264"><ele>79.0</ele><time>2026-04-12T08:31:29.062Z</time></trkpt><trkpt lat="45.2108075" lon="9.0878297"><ele>79.0</ele><time>2026-04-12T08:31:31.067Z</time></trkpt><trkpt lat="45.2108575" lon="9.0877303"><ele>79.0</ele><time>2026-04-12T08:31:33.127Z</time></trkpt><trkpt lat="45.2109117" lon="9.0876456"><ele>79.0</ele><time>2026-04-12T08:31:35.055Z</time></trkpt><trkpt lat="45.2109546" lon="9.0875653"><ele>79.0</ele><time>2026-04-12T08:31:37.057Z</time></trkpt><trkpt lat="45.2110045" lon="9.0874865"><ele>79.0</ele><time>2026-04-12T08:31:39.058Z</time></trkpt><trkpt lat="45.2110473" lon="9.0874189"><ele>78.83333333333333</ele><time>2026-04-12T08:31:41.056Z</time></trkpt><trkpt lat="45.2110907" lon="9.0873311"><ele>78.66666666666666</ele><time>2026-04-12T08:31:44.134Z</time></trkpt><trkpt lat="45.2111588" lon="9.0872253"><ele>78.5</ele><time>2026-04-12T08:31:47.041Z</time></trkpt><trkpt lat="45.211209" lon="9.0871407"><ele>78.33333333333333</ele><time>2026-04-12T08:31:49.057Z</time></trkpt><trkpt lat="45.2112648" lon="9.0870502"><ele>78.16666666666667</ele><time>2026-04-12T08:31:51.062Z</time></trkpt><trkpt lat="45.2113175" lon="9.0869584"><ele>78.0</ele><time>2026-04-12T08:31:53.042Z</time></trkpt><trkpt lat="45.2113709" lon="9.086862"><ele>78.0</ele><time>2026-04-12T08:31:55.063Z</time></trkpt><trkpt lat="45.2114286" lon="9.0867725"><ele>78.0</ele><time>2026-04-12T08:31:57.048Z</time></trkpt><trkpt lat="45.2114797" lon="9.0866776"><ele>78.0</ele><time>2026-04-12T08:31:59.042Z</time></trkpt><trkpt lat="45.2115388" lon="9.0865833"><ele>78.0</ele><time>2026-04-12T08:32:01.046Z</time></trkpt><trkpt lat="45.2115867" lon="9.0864837"><ele>78.0</ele><time>2026-04-12T08:32:03.044Z</time></trkpt><trkpt lat="45.2116387" lon="9.0863843"><ele>78.0</ele><time>2026-04-12T08:32:05.036Z</time></trkpt><trkpt lat="45.2116833" lon="9.0862884"><ele>78.16666666666667</ele><time>2026-04-12T08:32:07.055Z</time></trkpt><trkpt lat="45.2117413" lon="9.0861835"><ele>78.33333333333333</ele><time>2026-04-12T08:32:09.065Z</time></trkpt><trkpt lat="45.2117951" lon="9.0860902"><ele>78.5</ele><time>2026-04-12T08:32:11.038Z</time></trkpt><trkpt lat="45.2118501" lon="9.0859927"><ele>78.66666666666666</ele><time>2026-04-12T08:32:13.053Z</time></trkpt><trkpt lat="45.2118984" lon="9.0858975"><ele>78.83333333333333</ele><time>2026-04-12T08:32:15.048Z</time></trkpt><trkpt lat="45.2119473" lon="9.085811"><ele>79.0</ele><time>2026-04-12T08:32:17.035Z</time></trkpt><trkpt lat="45.2119995" lon="9.0857216"><ele>79.0</ele><time>2026-04-12T08:32:19.047Z</time></trkpt><trkpt lat="45.2120525" lon="9.0856312"><ele>79.0</ele><time>2026-04-12T08:32:21.053Z</time></trkpt><trkpt lat="45.2121079" lon="9.0855405"><ele>79.0</ele><time>2026-04-12T08:32:23.042Z</time></trkpt><trkpt lat="45.2121618" lon="9.0854477"><ele>79.0</ele><time>2026-04-12T08:32:25.04Z</time></trkpt><trkpt lat="45.2122194" lon="9.0853486"><ele>79.0</ele><time>2026-04-12T08:32:27.04Z</time></trkpt><trkpt lat="45.2122662" lon="9.0852423"><ele>79.0</ele><time>2026-04-12T08:32:29.042Z</time></trkpt><trkpt lat="45.2123165" lon="9.0851565"><ele>79.33333333333333</ele><time>2026-04-12T08:32:31.035Z</time></trkpt><trkpt lat="45.2123708" lon="9.0850745"><ele>79.66666666666666</ele><time>2026-04-12T08:32:33.042Z</time></trkpt><trkpt lat="45.2124272" lon="9.0849848"><ele>80.0</ele><time>2026-04-12T08:32:35.045Z</time></trkpt><trkpt lat="45.2124846" lon="9.084892"><ele>80.33333333333333</ele><time>2026-04-12T08:32:37.04Z</time></trkpt><trkpt lat="45.2125381" lon="9.0847917"><ele>80.66666666666667</ele><time>2026-04-12T08:32:39.049Z</time></trkpt><trkpt lat="45.2125935" lon="9.0846999"><ele>81.0</ele><time>2026-04-12T08:32:41.06Z</time></trkpt><trkpt lat="45.2126553" lon="9.0846084"><ele>81.0</ele><time>2026-04-12T08:32:43.041Z</time></trkpt><trkpt lat="45.2127047" lon="9.0845144"><ele>81.0</ele><time>2026-04-12T08:32:45.06Z</time></trkpt><trkpt lat="45.2127617" lon="9.0844164"><ele>81.0</ele><time>2026-04-12T08:32:47.062Z</time></trkpt><trkpt lat="45.212815" lon="9.0843196"><ele>81.0</ele><time>2026-04-12T08:32:49.039Z</time></trkpt><trkpt lat="45.2128676" lon="9.084224"><ele>81.0</ele><time>2026-04-12T08:32:51.06Z</time></trkpt><trkpt lat="45.2129202" lon="9.0841211"><ele>81.0</ele><time>2026-04-12T08:32:53.056Z</time></trkpt><trkpt lat="45.2129777" lon="9.0840178"><ele>81.19999999999999</ele><time>2026-04-12T08:32:55.061Z</time></trkpt><trkpt lat="45.2130324" lon="9.0839199"><ele>81.39999999999999</ele><time>2026-04-12T08:32:57.06Z</time></trkpt><trkpt lat="45.2130899" lon="9.0838206"><ele>81.6</ele><time>2026-04-12T08:32:59.063Z</time></trkpt><trkpt lat="45.2131487" lon="9.0837206"><ele>81.8</ele><time>2026-04-12T08:33:01.035Z</time></trkpt><trkpt lat="45.2132117" lon="9.0836072"><ele>82.0</ele><time>2026-04-12T08:33:03.063Z</time></trkpt><trkpt lat="45.2132757" lon="9.0834996"><ele>81.8</ele><time>2026-04-12T08:33:05.048Z</time></trkpt><trkpt lat="45.2133414" lon="9.0834039"><ele>81.6</ele><time>2026-04-12T08:33:07.039Z</time></trkpt><trkpt lat="45.2133958" lon="9.0833073"><ele>81.39999999999999</ele><time>2026-04-12T08:33:09.054Z</time></trkpt><trkpt lat="45.2134818" lon="9.0831633"><ele>81.19999999999999</ele><time>2026-04-12T08:33:12.059Z</time></trkpt><trkpt lat="45.213533" lon="9.0830676"><ele>81.0</ele><time>2026-04-12T08:33:14.061Z</time></trkpt><trkpt lat="45.2135896" lon="9.0829779"><ele>81.0</ele><time>2026-04-12T08:33:16.038Z</time></trkpt><trkpt lat="45.2136416" lon="9.0828868"><ele>81.0</ele><time>2026-04-12T08:33:18.052Z</time></trkpt><trkpt lat="45.213689" lon="9.0827993"><ele>81.0</ele><time>2026-04-12T08:33:20.06Z</time></trkpt><trkpt lat="45.2137383" lon="9.0827085"><ele>81.0</ele><time>2026-04-12T08:33:22.064Z</time></trkpt><trkpt lat="45.2137823" lon="9.082605"><ele>81.0</ele><time>2026-04-12T08:33:24.062Z</time></trkpt><trkpt lat="45.2138343" lon="9.0825016"><ele>81.0</ele><time>2026-04-12T08:33:26.058Z</time></trkpt><trkpt lat="45.2138898" lon="9.082398"><ele>80.83333333333333</ele><time>2026-04-12T08:33:28.067Z</time></trkpt><trkpt lat="45.2139448" lon="9.0823015"><ele>80.66666666666667</ele><time>2026-04-12T08:33:30.059Z</time></trkpt><trkpt lat="45.2139951" lon="9.0822059"><ele>80.5</ele><time>2026-04-12T08:33:32.059Z</time></trkpt><trkpt lat="45.2140472" lon="9.0821135"><ele>80.33333333333334</ele><time>2026-04-12T08:33:34.073Z</time></trkpt><trkpt lat="45.2140984" lon="9.0820223"><ele>80.16666666666667</ele><time>2026-04-12T08:33:36.06Z</time></trkpt><trkpt lat="45.2141559" lon="9.0819191"><ele>80.0</ele><time>2026-04-12T08:33:38.037Z</time></trkpt><trkpt lat="45.2142" lon="9.0818187"><ele>80.0</ele><time>2026-04-12T08:33:40.055Z</time></trkpt><trkpt lat="45.2142536" lon="9.0817203"><ele>80.0</ele><time>2026-04-12T08:33:42.068Z</time></trkpt><trkpt lat="45.2143048" lon="9.0816215"><ele>80.0</ele><time>2026-04-12T08:33:44.061Z</time></trkpt><trkpt lat="45.2143606" lon="9.0815206"><ele>80.0</ele><time>2026-04-12T08:33:46.055Z</time></trkpt><trkpt lat="45.2144082" lon="9.0814089"><ele>80.0</ele><time>2026-04-12T08:33:48.059Z</time></trkpt><trkpt lat="45.2144561" lon="9.0813108"><ele>80.0</ele><time>2026-04-12T08:33:50.065Z</time></trkpt><trkpt lat="45.2145027" lon="9.0812095"><ele>80.16666666666667</ele><time>2026-04-12T08:33:52.061Z</time></trkpt><trkpt lat="45.2145522" lon="9.0811076"><ele>80.33333333333334</ele><time>2026-04-12T08:33:54.07Z</time></trkpt><trkpt lat="45.2145977" lon="9.0810073"><ele>80.5</ele><time>2026-04-12T08:33:56.038Z</time></trkpt><trkpt lat="45.2146535" lon="9.0809066"><ele>80.66666666666667</ele><time>2026-04-12T08:33:58.033Z</time></trkpt><trkpt lat="45.2146947" lon="9.0808082"><ele>80.83333333333333</ele><time>2026-04-12T08:34:00.071Z</time></trkpt><trkpt lat="45.2147385" lon="9.0807169"><ele>81.0</ele><time>2026-04-12T08:34:02.032Z</time></trkpt><trkpt lat="45.2147797" lon="9.0806207"><ele>81.0</ele><time>2026-04-12T08:34:04.119Z</time></trkpt><trkpt lat="45.2148185" lon="9.0805292"><ele>81.0</ele><time>2026-04-12T08:34:06.128Z</time></trkpt><trkpt lat="45.2148527" lon="9.0804471"><ele>81.0</ele><time>2026-04-12T08:34:08.058Z</time></trkpt><trkpt lat="45.2149091" lon="9.0803504"><ele>81.0</ele><time>2026-04-12T08:34:11.066Z</time></trkpt><trkpt lat="45.2149006" lon="9.0802394"><ele>81.0</ele><time>2026-04-12T08:34:14.064Z</time></trkpt><trkpt lat="45.214826" lon="9.0801687"><ele>81.0</ele><time>2026-04-12T08:34:17.071Z</time></trkpt><trkpt lat="45.214759" lon="9.0801041"><ele>81.0</ele><time>2026-04-12T08:34:19.066Z</time></trkpt><trkpt lat="45.2146964" lon="9.0800296"><ele>81.0</ele><time>2026-04-12T08:34:21.039Z</time></trkpt><trkpt lat="45.2146233" lon="9.0799589"><ele>81.0</ele><time>2026-04-12T08:34:23.062Z</time></trkpt><trkpt lat="45.2145549" lon="9.0798861"><ele>81.0</ele><time>2026-04-12T08:34:25.057Z</time></trkpt><trkpt lat="45.2144833" lon="9.0798145"><ele>81.0</ele><time>2026-04-12T08:34:27.062Z</time></trkpt><trkpt lat="45.2144076" lon="9.0797286"><ele>81.0</ele><time>2026-04-12T08:34:29.056Z</time></trkpt><trkpt lat="45.21433" lon="9.0796419"><ele>81.0</ele><time>2026-04-12T08:34:31.04Z</time></trkpt><trkpt lat="45.2142562" lon="9.0795654"><ele>81.0</ele><time>2026-04-12T08:34:33.064Z</time></trkpt><trkpt lat="45.2141774" lon="9.0794866"><ele>81.0</ele><time>2026-04-12T08:34:35.055Z</time></trkpt><trkpt lat="45.2140909" lon="9.0794059"><ele>81.0</ele><time>2026-04-12T08:34:37.064Z</time></trkpt><trkpt lat="45.2140039" lon="9.0793204"><ele>81.0</ele><time>2026-04-12T08:34:39.063Z</time></trkpt><trkpt lat="45.2139162" lon="9.0792415"><ele>80.39999999999999</ele><time>2026-04-12T08:34:41.045Z</time></trkpt><trkpt lat="45.2138304" lon="9.0791337"><ele>79.8</ele><time>2026-04-12T08:34:43.139Z</time></trkpt><trkpt lat="45.2137438" lon="9.0790415"><ele>79.19999999999999</ele><time>2026-04-12T08:34:45.073Z</time></trkpt><trkpt lat="45.2136621" lon="9.0789502"><ele>78.6</ele><time>2026-04-12T08:34:47.063Z</time></trkpt><trkpt lat="45.2135829" lon="9.0788566"><ele>78.0</ele><time>2026-04-12T08:34:49.069Z</time></trkpt><trkpt lat="45.2134989" lon="9.0787728"><ele>78.0</ele><time>2026-04-12T08:34:51.064Z</time></trkpt><trkpt lat="45.2134182" lon="9.0786891"><ele>78.0</ele><time>2026-04-12T08:34:53.123Z</time></trkpt><trkpt lat="45.213338" lon="9.0786124"><ele>78.0</ele><time>2026-04-12T08:34:55.131Z</time></trkpt><trkpt lat="45.2132682" lon="9.0785496"><ele>78.0</ele><time>2026-04-12T08:34:57.064Z</time></trkpt><trkpt lat="45.2131974" lon="9.0785061"><ele>78.0</ele><time>2026-04-12T08:34:59.07Z</time></trkpt><trkpt lat="45.213136" lon="9.0784391"><ele>78.0</ele><time>2026-04-12T08:35:01.06Z</time></trkpt><trkpt lat="45.2131124" lon="9.078348"><ele>78.0</ele><time>2026-04-12T08:35:03.064Z</time></trkpt><trkpt lat="45.213122" lon="9.0782351"><ele>78.0</ele><time>2026-04-12T08:35:05.064Z</time></trkpt><trkpt lat="45.2131349" lon="9.0781114"><ele>78.0</ele><time>2026-04-12T08:35:07.074Z</time></trkpt><trkpt lat="45.213135" lon="9.0779621"><ele>78.0</ele><time>2026-04-12T08:35:09.068Z</time></trkpt><trkpt lat="45.2131338" lon="9.0778127"><ele>78.0</ele><time>2026-04-12T08:35:11.064Z</time></trkpt><trkpt lat="45.2131262" lon="9.0776621"><ele>78.0</ele><time>2026-04-12T08:35:13.054Z</time></trkpt><trkpt lat="45.2131298" lon="9.0775164"><ele>78.0</ele><time>2026-04-12T08:35:15.052Z</time></trkpt><trkpt lat="45.2131316" lon="9.0773732"><ele>78.0</ele><time>2026-04-12T08:35:17.052Z</time></trkpt><trkpt lat="45.2131343" lon="9.0772421"><ele>78.0</ele><time>2026-04-12T08:35:19.055Z</time></trkpt><trkpt lat="45.213141" lon="9.0771219"><ele>78.0</ele><time>2026-04-12T08:35:21.063Z</time></trkpt><trkpt lat="45.21315" lon="9.0770275"><ele>78.0</ele><time>2026-04-12T08:35:23.049Z</time></trkpt><trkpt lat="45.213176" lon="9.0769199"><ele>77.4</ele><time>2026-04-12T08:35:25.071Z</time></trkpt><trkpt lat="45.213215" lon="9.0767945"><ele>76.8</ele><time>2026-04-12T08:35:27.05Z</time></trkpt><trkpt lat="45.2132585" lon="9.0766841"><ele>76.2</ele><time>2026-04-12T08:35:29.059Z</time></trkpt><trkpt lat="45.2132996" lon="9.0765612"><ele>75.6</ele><time>2026-04-12T08:35:31.035Z</time></trkpt><trkpt lat="45.2133426" lon="9.0764387"><ele>75.0</ele><time>2026-04-12T08:35:33.14Z</time></trkpt><trkpt lat="45.2133826" lon="9.076324"><ele>74.4</ele><time>2026-04-12T08:35:35.061Z</time></trkpt><trkpt lat="45.2134261" lon="9.076207"><ele>73.8</ele><time>2026-04-12T08:35:37.045Z</time></trkpt><trkpt lat="45.2134711" lon="9.0760895"><ele>73.2</ele><time>2026-04-12T08:35:39.062Z</time></trkpt><trkpt lat="45.2135169" lon="9.0759665"><ele>72.6</ele><time>2026-04-12T08:35:41.065Z</time></trkpt><trkpt lat="45.213562" lon="9.0758484"><ele>72.0</ele><time>2026-04-12T08:35:43.037Z</time></trkpt><trkpt lat="45.2136128" lon="9.0757269"><ele>71.33333333333333</ele><time>2026-04-12T08:35:45.04Z</time></trkpt><trkpt lat="45.2136617" lon="9.075617"><ele>70.66666666666667</ele><time>2026-04-12T08:35:47.061Z</time></trkpt><trkpt lat="45.2137182" lon="9.0755223"><ele>70.0</ele><time>2026-04-12T08:35:49.044Z</time></trkpt><trkpt lat="45.2137712" lon="9.0754306"><ele>69.33333333333334</ele><time>2026-04-12T08:35:51.034Z</time></trkpt><trkpt lat="45.2138155" lon="9.0753263"><ele>68.66666666666667</ele><time>2026-04-12T08:35:53.061Z</time></trkpt><trkpt lat="45.2138787" lon="9.0752239"><ele>68.0</ele><time>2026-04-12T08:35:55.066Z</time></trkpt><trkpt lat="45.2139389" lon="9.0751237"><ele>69.16666666666667</ele><time>2026-04-12T08:35:57.061Z</time></trkpt><trkpt lat="45.2139902" lon="9.0750172"><ele>70.33333333333334</ele><time>2026-04-12T08:35:59.06Z</time></trkpt><trkpt lat="45.2140518" lon="9.0749092"><ele>71.5</ele><time>2026-04-12T08:36:01.066Z</time></trkpt><trkpt lat="45.214106" lon="9.0748272"><ele>72.66666666666667</ele><time>2026-04-12T08:36:03.064Z</time></trkpt><trkpt lat="45.2141542" lon="9.0747548"><ele>73.83333333333333</ele><time>2026-04-12T08:36:05.061Z</time></trkpt><trkpt lat="45.2142072" lon="9.0746805"><ele>75.0</ele><time>2026-04-12T08:36:07.069Z</time></trkpt><trkpt lat="45.2142574" lon="9.074602"><ele>75.0</ele><time>2026-04-12T08:36:09.072Z</time></trkpt><trkpt lat="45.2143137" lon="9.0745259"><ele>75.0</ele><time>2026-04-12T08:36:11.072Z</time></trkpt><trkpt lat="45.2143771" lon="9.0744461"><ele>75.0</ele><time>2026-04-12T08:36:13.058Z</time></trkpt><trkpt lat="45.2144421" lon="9.0743698"><ele>75.0</ele><time>2026-04-12T08:36:15.045Z</time></trkpt><trkpt lat="45.214518" lon="9.0743136"><ele>75.0</ele><time>2026-04-12T08:36:17.057Z</time></trkpt><trkpt lat="45.2145908" lon="9.074257"><ele>75.0</ele><time>2026-04-12T08:36:19.038Z</time></trkpt><trkpt lat="45.2146824" lon="9.0741982"><ele>75.0</ele><time>2026-04-12T08:36:21.058Z</time></trkpt><trkpt lat="45.2147736" lon="9.0741444"><ele>75.0</ele><time>2026-04-12T08:36:23.056Z</time></trkpt><trkpt lat="45.2148392" lon="9.07407"><ele>75.0</ele><time>2026-04-12T08:36:25.058Z</time></trkpt><trkpt lat="45.2149063" lon="9.0739745"><ele>75.0</ele><time>2026-04-12T08:36:27.069Z</time></trkpt><trkpt lat="45.214967" lon="9.0738807"><ele>75.0</ele><time>2026-04-12T08:36:29.065Z</time></trkpt><trkpt lat="45.2150359" lon="9.0737851"><ele>74.66666666666667</ele><time>2026-04-12T08:36:31.067Z</time></trkpt><trkpt lat="45.2150966" lon="9.0737026"><ele>74.33333333333333</ele><time>2026-04-12T08:36:33.057Z</time></trkpt><trkpt lat="45.2151563" lon="9.0736113"><ele>74.0</ele><time>2026-04-12T08:36:35.057Z</time></trkpt><trkpt lat="45.2152115" lon="9.0735256"><ele>73.66666666666666</ele><time>2026-04-12T08:36:37.057Z</time></trkpt><trkpt lat="45.2152724" lon="9.0734397"><ele>73.33333333333333</ele><time>2026-04-12T08:36:39.063Z</time></trkpt><trkpt lat="45.2153347" lon="9.0733581"><ele>73.0</ele><time>2026-04-12T08:36:41.037Z</time></trkpt><trkpt lat="45.2154049" lon="9.0732735"><ele>73.16666666666666</ele><time>2026-04-12T08:36:43.059Z</time></trkpt><trkpt lat="45.2154731" lon="9.0731795"><ele>73.33333333333333</ele><time>2026-04-12T08:36:45.051Z</time></trkpt><trkpt lat="45.2155296" lon="9.0730968"><ele>73.5</ele><time>2026-04-12T08:36:47.058Z</time></trkpt><trkpt lat="45.2155939" lon="9.0730168"><ele>73.66666666666667</ele><time>2026-04-12T08:36:49.063Z</time></trkpt><trkpt lat="45.2156538" lon="9.0729296"><ele>73.83333333333334</ele><time>2026-04-12T08:36:51.13Z</time></trkpt><trkpt lat="45.2157223" lon="9.0728338"><ele>74.0</ele><time>2026-04-12T08:36:53.056Z</time></trkpt><trkpt lat="45.2157883" lon="9.0727375"><ele>74.0</ele><time>2026-04-12T08:36:55.065Z</time></trkpt><trkpt lat="45.2158491" lon="9.0726621"><ele>74.0</ele><time>2026-04-12T08:36:57.055Z</time></trkpt><trkpt lat="45.2159066" lon="9.0725728"><ele>74.0</ele><time>2026-04-12T08:36:59.057Z</time></trkpt><trkpt lat="45.2159726" lon="9.0724805"><ele>74.0</ele><time>2026-04-12T08:37:01.059Z</time></trkpt><trkpt lat="45.2160441" lon="9.0723871"><ele>74.0</ele><time>2026-04-12T08:37:03.035Z</time></trkpt><trkpt lat="45.216107" lon="9.0723019"><ele>74.0</ele><time>2026-04-12T08:37:05.124Z</time></trkpt><trkpt lat="45.2161698" lon="9.072231"><ele>73.66666666666667</ele><time>2026-04-12T08:37:07.035Z</time></trkpt><trkpt lat="45.2162317" lon="9.0721375"><ele>73.33333333333334</ele><time>2026-04-12T08:37:09.037Z</time></trkpt><trkpt lat="45.2162956" lon="9.0720481"><ele>73.0</ele><time>2026-04-12T08:37:11.066Z</time></trkpt><trkpt lat="45.2163489" lon="9.0719603"><ele>72.66666666666667</ele><time>2026-04-12T08:37:13.069Z</time></trkpt><trkpt lat="45.2164019" lon="9.0718604"><ele>72.33333333333333</ele><time>2026-04-12T08:37:15.067Z</time></trkpt><trkpt lat="45.216453" lon="9.0717698"><ele>72.0</ele><time>2026-04-12T08:37:17.052Z</time></trkpt><trkpt lat="45.2165154" lon="9.0716868"><ele>72.16666666666667</ele><time>2026-04-12T08:37:19.054Z</time></trkpt><trkpt lat="45.2165784" lon="9.0716027"><ele>72.33333333333333</ele><time>2026-04-12T08:37:21.037Z</time></trkpt><trkpt lat="45.2166357" lon="9.0715168"><ele>72.5</ele><time>2026-04-12T08:37:23.064Z</time></trkpt><trkpt lat="45.2166983" lon="9.0714333"><ele>72.66666666666666</ele><time>2026-04-12T08:37:25.037Z</time></trkpt><trkpt lat="45.2167769" lon="9.0713651"><ele>72.83333333333333</ele><time>2026-04-12T08:37:27.066Z</time></trkpt><trkpt lat="45.2168552" lon="9.071315"><ele>73.0</ele><time>2026-04-12T08:37:29.067Z</time></trkpt><trkpt lat="45.2169322" lon="9.0712741"><ele>73.0</ele><time>2026-04-12T08:37:31.065Z</time></trkpt><trkpt lat="45.2170199" lon="9.0712238"><ele>73.0</ele><time>2026-04-12T08:37:33.063Z</time></trkpt><trkpt lat="45.2171026" lon="9.0711774"><ele>73.0</ele><time>2026-04-12T08:37:35.064Z</time></trkpt><trkpt lat="45.2171871" lon="9.0711395"><ele>73.0</ele><time>2026-04-12T08:37:37.04Z</time></trkpt><trkpt lat="45.2172707" lon="9.0710981"><ele>73.0</ele><time>2026-04-12T08:37:39.062Z</time></trkpt><trkpt lat="45.2173538" lon="9.0710487"><ele>73.4</ele><time>2026-04-12T08:37:41.142Z</time></trkpt><trkpt lat="45.2174371" lon="9.0710094"><ele>73.8</ele><time>2026-04-12T08:37:43.065Z</time></trkpt><trkpt lat="45.2175125" lon="9.0709684"><ele>74.2</ele><time>2026-04-12T08:37:45.066Z</time></trkpt><trkpt lat="45.217597" lon="9.0709225"><ele>74.6</ele><time>2026-04-12T08:37:47.069Z</time></trkpt><trkpt lat="45.217677" lon="9.0708431"><ele>75.0</ele><time>2026-04-12T08:37:49.06Z</time></trkpt><trkpt lat="45.2177578" lon="9.0707374"><ele>75.0</ele><time>2026-04-12T08:37:51.06Z</time></trkpt><trkpt lat="45.2178305" lon="9.0706203"><ele>75.0</ele><time>2026-04-12T08:37:53.059Z</time></trkpt><trkpt lat="45.2178969" lon="9.0705378"><ele>75.0</ele><time>2026-04-12T08:37:55.061Z</time></trkpt><trkpt lat="45.2179587" lon="9.0704538"><ele>75.0</ele><time>2026-04-12T08:37:57.058Z</time></trkpt><trkpt lat="45.218004" lon="9.0703578"><ele>75.0</ele><time>2026-04-12T08:37:59.061Z</time></trkpt><trkpt lat="45.2180092" lon="9.0702377"><ele>75.0</ele><time>2026-04-12T08:38:01.059Z</time></trkpt><trkpt lat="45.2179875" lon="9.070094"><ele>75.0</ele><time>2026-04-12T08:38:03.062Z</time></trkpt><trkpt lat="45.2179634" lon="9.0699529"><ele>75.0</ele><time>2026-04-12T08:38:05.054Z</time></trkpt><trkpt lat="45.2179361" lon="9.0698048"><ele>75.0</ele><time>2026-04-12T08:38:07.13Z</time></trkpt><trkpt lat="45.2179001" lon="9.0696746"><ele>75.0</ele><time>2026-04-12T08:38:09.058Z</time></trkpt><trkpt lat="45.2178798" lon="9.0695641"><ele>74.83333333333333</ele><time>2026-04-12T08:38:11.06Z</time></trkpt><trkpt lat="45.2178564" lon="9.0694693"><ele>74.66666666666667</ele><time>2026-04-12T08:38:13.046Z</time></trkpt><trkpt lat="45.2178259" lon="9.0693476"><ele>74.5</ele><time>2026-04-12T08:38:15.063Z</time></trkpt><trkpt lat="45.2177822" lon="9.0692433"><ele>74.33333333333334</ele><time>2026-04-12T08:38:17.06Z</time></trkpt><trkpt lat="45.2177413" lon="9.0691475"><ele>74.16666666666667</ele><time>2026-04-12T08:38:19.061Z</time></trkpt><trkpt lat="45.21769" lon="9.069039"><ele>74.0</ele><time>2026-04-12T08:38:21.056Z</time></trkpt><trkpt lat="45.2176511" lon="9.0689238"><ele>73.8</ele><time>2026-04-12T08:38:23.043Z</time></trkpt><trkpt lat="45.2176085" lon="9.0688221"><ele>73.60000000000001</ele><time>2026-04-12T08:38:25.058Z</time></trkpt><trkpt lat="45.2175651" lon="9.0687053"><ele>73.4</ele><time>2026-04-12T08:38:27.047Z</time></trkpt><trkpt lat="45.2175253" lon="9.0685851"><ele>73.2</ele><time>2026-04-12T08:38:29.035Z</time></trkpt><trkpt lat="45.2174917" lon="9.0684553"><ele>73.0</ele><time>2026-04-12T08:38:31.049Z</time></trkpt><trkpt lat="45.2174588" lon="9.0683401"><ele>73.16666666666666</ele><time>2026-04-12T08:38:33.063Z</time></trkpt><trkpt lat="45.2174427" lon="9.0682171"><ele>73.33333333333333</ele><time>2026-04-12T08:38:35.063Z</time></trkpt><trkpt lat="45.2174216" lon="9.0680943"><ele>73.5</ele><time>2026-04-12T08:38:37.066Z</time></trkpt><trkpt lat="45.2174016" lon="9.0679688"><ele>73.66666666666667</ele><time>2026-04-12T08:38:39.073Z</time></trkpt><trkpt lat="45.2173829" lon="9.0678458"><ele>73.83333333333334</ele><time>2026-04-12T08:38:41.058Z</time></trkpt><trkpt lat="45.2173567" lon="9.0677245"><ele>74.0</ele><time>2026-04-12T08:38:43.064Z</time></trkpt><trkpt lat="45.2173433" lon="9.0675971"><ele>74.0</ele><time>2026-04-12T08:38:45.054Z</time></trkpt><trkpt lat="45.2173253" lon="9.0674677"><ele>74.0</ele><time>2026-04-12T08:38:47.038Z</time></trkpt><trkpt lat="45.2173136" lon="9.067344"><ele>74.0</ele><time>2026-04-12T08:38:49.051Z</time></trkpt><trkpt lat="45.2172904" lon="9.0672191"><ele>74.0</ele><time>2026-04-12T08:38:51.07Z</time></trkpt><trkpt lat="45.2172695" lon="9.0670985"><ele>74.0</ele><time>2026-04-12T08:38:53.052Z</time></trkpt><trkpt lat="45.2172435" lon="9.066999"><ele>74.0</ele><time>2026-04-12T08:38:55.04Z</time></trkpt><trkpt lat="45.2172337" lon="9.0669061"><ele>73.83333333333334</ele><time>2026-04-12T08:38:57.041Z</time></trkpt><trkpt lat="45.2172746" lon="9.0668332"><ele>73.66666666666667</ele><time>2026-04-12T08:38:59.047Z</time></trkpt><trkpt lat="45.2173442" lon="9.0667907"><ele>73.5</ele><time>2026-04-12T08:39:01.129Z</time></trkpt><trkpt lat="45.2174036" lon="9.0667438"><ele>73.33333333333333</ele><time>2026-04-12T08:39:03.054Z</time></trkpt><trkpt lat="45.217473" lon="9.0666875"><ele>73.16666666666666</ele><time>2026-04-12T08:39:05.056Z</time></trkpt><trkpt lat="45.2175477" lon="9.0666255"><ele>73.0</ele><time>2026-04-12T08:39:07.065Z</time></trkpt><trkpt lat="45.2176166" lon="9.0665644"><ele>73.42857142857143</ele><time>2026-04-12T08:39:09.061Z</time></trkpt><trkpt lat="45.2176885" lon="9.0665017"><ele>73.85714285714286</ele><time>2026-04-12T08:39:11.06Z</time></trkpt><trkpt lat="45.2177494" lon="9.0664491"><ele>74.28571428571428</ele><time>2026-04-12T08:39:13.06Z</time></trkpt><trkpt lat="45.217814" lon="9.0664015"><ele>74.71428571428572</ele><time>2026-04-12T08:39:15.061Z</time></trkpt><trkpt lat="45.2178707" lon="9.066342"><ele>75.14285714285715</ele><time>2026-04-12T08:39:17.057Z</time></trkpt><trkpt lat="45.2179331" lon="9.0662846"><ele>75.57142857142857</ele><time>2026-04-12T08:39:19.05Z</time></trkpt><trkpt lat="45.2179902" lon="9.0662351"><ele>76.0</ele><time>2026-04-12T08:39:21.038Z</time></trkpt><trkpt lat="45.2180397" lon="9.066157"><ele>76.0</ele><time>2026-04-12T08:39:23.058Z</time></trkpt><trkpt lat="45.2180338" lon="9.0660229"><ele>76.0</ele><time>2026-04-12T08:39:26.041Z</time></trkpt><trkpt lat="45.2180054" lon="9.0659097"><ele>76.0</ele><time>2026-04-12T08:39:28.034Z</time></trkpt><trkpt lat="45.2179849" lon="9.0657926"><ele>76.0</ele><time>2026-04-12T08:39:30.059Z</time></trkpt><trkpt lat="45.2179566" lon="9.0656826"><ele>76.0</ele><time>2026-04-12T08:39:32.056Z</time></trkpt><trkpt lat="45.2179291" lon="9.0655768"><ele>76.0</ele><time>2026-04-12T08:39:34.057Z</time></trkpt><trkpt lat="45.2178991" lon="9.0654568"><ele>76.0</ele><time>2026-04-12T08:39:36.036Z</time></trkpt><trkpt lat="45.2178709" lon="9.0653385"><ele>76.0</ele><time>2026-04-12T08:39:38.04Z</time></trkpt><trkpt lat="45.2178458" lon="9.0652227"><ele>76.0</ele><time>2026-04-12T08:39:40.038Z</time></trkpt><trkpt lat="45.2178196" lon="9.0651125"><ele>76.0</ele><time>2026-04-12T08:39:42.041Z</time></trkpt><trkpt lat="45.2177931" lon="9.0649915"><ele>76.0</ele><time>2026-04-12T08:39:44.042Z</time></trkpt><trkpt lat="45.2177677" lon="9.0648726"><ele>76.0</ele><time>2026-04-12T08:39:46.048Z</time></trkpt><trkpt lat="45.217744" lon="9.0647551"><ele>76.0</ele><time>2026-04-12T08:39:48.044Z</time></trkpt><trkpt lat="45.2177206" lon="9.0646364"><ele>76.0</ele><time>2026-04-12T08:39:50.04Z</time></trkpt><trkpt lat="45.2176999" lon="9.064513"><ele>76.0</ele><time>2026-04-12T08:39:52.037Z</time></trkpt><trkpt lat="45.2176706" lon="9.0643968"><ele>76.0</ele><time>2026-04-12T08:39:54.037Z</time></trkpt><trkpt lat="45.2176433" lon="9.0642791"><ele>76.0</ele><time>2026-04-12T08:39:56.043Z</time></trkpt><trkpt lat="45.2176188" lon="9.0641565"><ele>76.0</ele><time>2026-04-12T08:39:58.035Z</time></trkpt><trkpt lat="45.2175898" lon="9.0640324"><ele>75.83333333333333</ele><time>2026-04-12T08:40:00.047Z</time></trkpt><trkpt lat="45.2175658" lon="9.0639165"><ele>75.66666666666666</ele><time>2026-04-12T08:40:02.041Z</time></trkpt><trkpt lat="45.2175421" lon="9.0637874"><ele>75.5</ele><time>2026-04-12T08:40:04.047Z</time></trkpt><trkpt lat="45.2175182" lon="9.0636683"><ele>75.33333333333333</ele><time>2026-04-12T08:40:06.123Z</time></trkpt><trkpt lat="45.2174961" lon="9.0635537"><ele>75.16666666666667</ele><time>2026-04-12T08:40:08.046Z</time></trkpt><trkpt lat="45.2174723" lon="9.0634266"><ele>75.0</ele><time>2026-04-12T08:40:10.033Z</time></trkpt><trkpt lat="45.2174396" lon="9.0633107"><ele>75.2</ele><time>2026-04-12T08:40:12.035Z</time></trkpt><trkpt lat="45.2174145" lon="9.0631895"><ele>75.4</ele><time>2026-04-12T08:40:14.042Z</time></trkpt><trkpt lat="45.2173891" lon="9.0630584"><ele>75.6</ele><time>2026-04-12T08:40:16.038Z</time></trkpt><trkpt lat="45.2173541" lon="9.062931"><ele>75.8</ele><time>2026-04-12T08:40:18.059Z</time></trkpt><trkpt lat="45.2173301" lon="9.062796"><ele>76.0</ele><time>2026-04-12T08:40:20.064Z</time></trkpt><trkpt lat="45.2173353" lon="9.0626823"><ele>76.0</ele><time>2026-04-12T08:40:22.053Z</time></trkpt><trkpt lat="45.2173665" lon="9.0625943"><ele>76.0</ele><time>2026-04-12T08:40:24.036Z</time></trkpt><trkpt lat="45.2173785" lon="9.062505"><ele>76.0</ele><time>2026-04-12T08:40:26.081Z</time></trkpt><trkpt lat="45.2173704" lon="9.0624117"><ele>76.0</ele><time>2026-04-12T08:40:28.069Z</time></trkpt><trkpt lat="45.2173401" lon="9.0623239"><ele>76.0</ele><time>2026-04-12T08:40:30.06Z</time></trkpt><trkpt lat="45.2173046" lon="9.0622214"><ele>76.0</ele><time>2026-04-12T08:40:32.063Z</time></trkpt><trkpt lat="45.2172864" lon="9.0620986"><ele>76.0</ele><time>2026-04-12T08:40:34.055Z</time></trkpt><trkpt lat="45.2172568" lon="9.061985"><ele>76.0</ele><time>2026-04-12T08:40:36.054Z</time></trkpt><trkpt lat="45.2172234" lon="9.0618812"><ele>76.0</ele><time>2026-04-12T08:40:38.063Z</time></trkpt><trkpt lat="45.2172009" lon="9.0617847"><ele>76.0</ele><time>2026-04-12T08:40:40.061Z</time></trkpt><trkpt lat="45.2172415" lon="9.0616735"><ele>76.0</ele><time>2026-04-12T08:40:43.06Z</time></trkpt><trkpt lat="45.2173215" lon="9.0616198"><ele>76.0</ele><time>2026-04-12T08:40:45.133Z</time></trkpt><trkpt lat="45.2173707" lon="9.0615564"><ele>76.0</ele><time>2026-04-12T08:40:47.06Z</time></trkpt><trkpt lat="45.2174107" lon="9.0614783"><ele>76.0</ele><time>2026-04-12T08:40:49.061Z</time></trkpt><trkpt lat="45.217457" lon="9.0613897"><ele>76.0</ele><time>2026-04-12T08:40:51.062Z</time></trkpt><trkpt lat="45.2174886" lon="9.0612911"><ele>76.0</ele><time>2026-04-12T08:40:53.071Z</time></trkpt><trkpt lat="45.2175167" lon="9.0611952"><ele>76.0</ele><time>2026-04-12T08:40:55.06Z</time></trkpt><trkpt lat="45.2175709" lon="9.0611211"><ele>76.0</ele><time>2026-04-12T08:40:57.059Z</time></trkpt><trkpt lat="45.2176458" lon="9.0610532"><ele>76.0</ele><time>2026-04-12T08:40:59.061Z</time></trkpt><trkpt lat="45.2177" lon="9.0609873"><ele>76.0</ele><time>2026-04-12T08:41:01.059Z</time></trkpt><trkpt lat="45.2177645" lon="9.0609252"><ele>76.0</ele><time>2026-04-12T08:41:03.062Z</time></trkpt><trkpt lat="45.217846" lon="9.0608763"><ele>76.0</ele><time>2026-04-12T08:41:05.046Z</time></trkpt><trkpt lat="45.2179253" lon="9.0608286"><ele>76.0</ele><time>2026-04-12T08:41:07.055Z</time></trkpt><trkpt lat="45.2179861" lon="9.0607682"><ele>76.0</ele><time>2026-04-12T08:41:09.066Z</time></trkpt><trkpt lat="45.2180599" lon="9.0607271"><ele>76.0</ele><time>2026-04-12T08:41:11.059Z</time></trkpt><trkpt lat="45.2181386" lon="9.0607035"><ele>76.0</ele><time>2026-04-12T08:41:13.055Z</time></trkpt><trkpt lat="45.2181889" lon="9.060622"><ele>76.0</ele><time>2026-04-12T08:41:15.046Z</time></trkpt><trkpt lat="45.2181764" lon="9.0604994"><ele>76.0</ele><time>2026-04-12T08:41:18.053Z</time></trkpt><trkpt lat="45.2181271" lon="9.0604349"><ele>76.0</ele><time>2026-04-12T08:41:20.066Z</time></trkpt><trkpt lat="45.2180562" lon="9.0603464"><ele>76.0</ele><time>2026-04-12T08:41:23.06Z</time></trkpt><trkpt lat="45.2179856" lon="9.0602948"><ele>76.0</ele><time>2026-04-12T08:41:25.065Z</time></trkpt><trkpt lat="45.2179078" lon="9.0602585"><ele>76.0</ele><time>2026-04-12T08:41:27.039Z</time></trkpt><trkpt lat="45.2178492" lon="9.0602208"><ele>76.0</ele><time>2026-04-12T08:41:29.04Z</time></trkpt><trkpt lat="45.2177642" lon="9.060166"><ele>76.0</ele><time>2026-04-12T08:41:32.071Z</time></trkpt><trkpt lat="45.2176978" lon="9.0600782"><ele>76.0</ele><time>2026-04-12T08:41:35.059Z</time></trkpt><trkpt lat="45.2176658" lon="9.0599491"><ele>76.0</ele><time>2026-04-12T08:41:38.059Z</time></trkpt><trkpt lat="45.2176499" lon="9.0598364"><ele>76.0</ele><time>2026-04-12T08:41:40.057Z</time></trkpt><trkpt lat="45.2176332" lon="9.0596984"><ele>75.5</ele><time>2026-04-12T08:41:42.068Z</time></trkpt><trkpt lat="45.2176272" lon="9.0595693"><ele>75.0</ele><time>2026-04-12T08:41:44.065Z</time></trkpt><trkpt lat="45.2176363" lon="9.0594686"><ele>74.5</ele><time>2026-04-12T08:41:46.061Z</time></trkpt><trkpt lat="45.2176871" lon="9.0593917"><ele>74.0</ele><time>2026-04-12T08:41:48.057Z</time></trkpt><trkpt lat="45.2177559" lon="9.0593378"><ele>73.5</ele><time>2026-04-12T08:41:50.057Z</time></trkpt><trkpt lat="45.2178204" lon="9.0592789"><ele>73.0</ele><time>2026-04-12T08:41:52.058Z</time></trkpt><trkpt lat="45.2179018" lon="9.0592112"><ele>73.0</ele><time>2026-04-12T08:41:54.038Z</time></trkpt><trkpt lat="45.2179773" lon="9.0591662"><ele>73.0</ele><time>2026-04-12T08:41:56.038Z</time></trkpt><trkpt lat="45.2180395" lon="9.0591179"><ele>73.0</ele><time>2026-04-12T08:41:58.059Z</time></trkpt><trkpt lat="45.2181049" lon="9.059105"><ele>73.0</ele><time>2026-04-12T08:42:00.057Z</time></trkpt><trkpt lat="45.2181816" lon="9.059114"><ele>73.0</ele><time>2026-04-12T08:42:02.061Z</time></trkpt><trkpt lat="45.2182477" lon="9.0591035"><ele>73.0</ele><time>2026-04-12T08:42:04.052Z</time></trkpt><trkpt lat="45.2183151" lon="9.0591055"><ele>73.0</ele><time>2026-04-12T08:42:06.067Z</time></trkpt><trkpt lat="45.2183839" lon="9.0591022"><ele>73.16666666666666</ele><time>2026-04-12T08:42:08.049Z</time></trkpt><trkpt lat="45.2184523" lon="9.0591064"><ele>73.33333333333333</ele><time>2026-04-12T08:42:10.036Z</time></trkpt><trkpt lat="45.2185382" lon="9.0591262"><ele>73.5</ele><time>2026-04-12T08:42:12.065Z</time></trkpt><trkpt lat="45.21864" lon="9.0591677"><ele>73.66666666666667</ele><time>2026-04-12T08:42:14.058Z</time></trkpt><trkpt lat="45.2187223" lon="9.0592041"><ele>73.83333333333334</ele><time>2026-04-12T08:42:16.107Z</time></trkpt><trkpt lat="45.2187957" lon="9.0592602"><ele>74.0</ele><time>2026-04-12T08:42:18.07Z</time></trkpt><trkpt lat="45.2188495" lon="9.0593378"><ele>74.0</ele><time>2026-04-12T08:42:20.068Z</time></trkpt><trkpt lat="45.218921" lon="9.0593769"><ele>74.0</ele><time>2026-04-12T08:42:22.038Z</time></trkpt><trkpt lat="45.2189796" lon="9.0594209"><ele>74.0</ele><time>2026-04-12T08:42:24.069Z</time></trkpt><trkpt lat="45.2190562" lon="9.0594562"><ele>74.0</ele><time>2026-04-12T08:42:27.038Z</time></trkpt><trkpt lat="45.2191165" lon="9.0594286"><ele>74.0</ele><time>2026-04-12T08:42:29.067Z</time></trkpt><trkpt lat="45.2191856" lon="9.0594058"><ele>74.0</ele><time>2026-04-12T08:42:31.056Z</time></trkpt><trkpt lat="45.2192609" lon="9.0593891"><ele>74.0</ele><time>2026-04-12T08:42:33.067Z</time></trkpt><trkpt lat="45.2193287" lon="9.0593694"><ele>73.66666666666667</ele><time>2026-04-12T08:42:35.05Z</time></trkpt><trkpt lat="45.2193935" lon="9.0593941"><ele>73.33333333333334</ele><time>2026-04-12T08:42:37.055Z</time></trkpt><trkpt lat="45.2194566" lon="9.059437"><ele>73.0</ele><time>2026-04-12T08:42:39.117Z</time></trkpt><trkpt lat="45.2195231" lon="9.0594338"><ele>72.66666666666667</ele><time>2026-04-12T08:42:41.11Z</time></trkpt><trkpt lat="45.2196073" lon="9.0594198"><ele>72.33333333333333</ele><time>2026-04-12T08:42:44.042Z</time></trkpt><trkpt lat="45.2196892" lon="9.0594189"><ele>72.0</ele><time>2026-04-12T08:42:47.041Z</time></trkpt><trkpt lat="45.2197819" lon="9.0594407"><ele>72.16666666666667</ele><time>2026-04-12T08:42:50.034Z</time></trkpt><trkpt lat="45.2198584" lon="9.0594477"><ele>72.33333333333333</ele><time>2026-04-12T08:42:53.04Z</time></trkpt><trkpt lat="45.2199043" lon="9.0593821"><ele>72.5</ele><time>2026-04-12T08:42:56.041Z</time></trkpt><trkpt lat="45.2199686" lon="9.0592985"><ele>72.66666666666666</ele><time>2026-04-12T08:43:00.039Z</time></trkpt><trkpt lat="45.2200473" lon="9.0593115"><ele>72.83333333333333</ele><time>2026-04-12T08:43:04.044Z</time></trkpt><trkpt lat="45.2201327" lon="9.0593017"><ele>73.0</ele><time>2026-04-12T08:43:07.132Z</time></trkpt><trkpt lat="45.2202154" lon="9.0593203"><ele>73.0</ele><time>2026-04-12T08:43:10.038Z</time></trkpt><trkpt lat="45.2202946" lon="9.0593274"><ele>73.0</ele><time>2026-04-12T08:43:13.035Z</time></trkpt><trkpt lat="45.2203834" lon="9.0593671"><ele>73.0</ele><time>2026-04-12T08:43:16.04Z</time></trkpt><trkpt lat="45.2204645" lon="9.0593431"><ele>73.0</ele><time>2026-04-12T08:43:19.103Z</time></trkpt><trkpt lat="45.220541" lon="9.0593075"><ele>73.0</ele><time>2026-04-12T08:43:22.065Z</time></trkpt><trkpt lat="45.2206159" lon="9.0593184"><ele>73.0</ele><time>2026-04-12T08:43:26.049Z</time></trkpt><trkpt lat="45.2206866" lon="9.0593241"><ele>72.71428571428571</ele><time>2026-04-12T08:43:29.053Z</time></trkpt><trkpt lat="45.220763" lon="9.0593433"><ele>72.42857142857143</ele><time>2026-04-12T08:43:32.062Z</time></trkpt><trkpt lat="45.2208288" lon="9.0593472"><ele>72.14285714285714</ele><time>2026-04-12T08:43:34.063Z</time></trkpt><trkpt lat="45.2208912" lon="9.0593285"><ele>71.85714285714286</ele><time>2026-04-12T08:43:36.064Z</time></trkpt><trkpt lat="45.2209579" lon="9.0593037"><ele>71.57142857142857</ele><time>2026-04-12T08:43:38.046Z</time></trkpt><trkpt lat="45.2210257" lon="9.059264"><ele>71.28571428571428</ele><time>2026-04-12T08:43:40.06Z</time></trkpt><trkpt lat="45.2210907" lon="9.0592532"><ele>71.0</ele><time>2026-04-12T08:43:42.059Z</time></trkpt><trkpt lat="45.2211548" lon="9.0592468"><ele>71.0</ele><time>2026-04-12T08:43:44.075Z</time></trkpt><trkpt lat="45.2212494" lon="9.0592749"><ele>71.0</ele><time>2026-04-12T08:43:47.059Z</time></trkpt><trkpt lat="45.2213142" lon="9.0592842"><ele>71.0</ele><time>2026-04-12T08:43:49.052Z</time></trkpt><trkpt lat="45.2213745" lon="9.0593126"><ele>71.0</ele><time>2026-04-12T08:43:51.064Z</time></trkpt><trkpt lat="45.2214559" lon="9.0592573"><ele>71.0</ele><time>2026-04-12T08:43:54.031Z</time></trkpt><trkpt lat="45.2215307" lon="9.0592222"><ele>71.0</ele><time>2026-04-12T08:43:56.051Z</time></trkpt><trkpt lat="45.2215853" lon="9.059162"><ele>71.16666666666667</ele><time>2026-04-12T08:43:58.064Z</time></trkpt><trkpt lat="45.221682" lon="9.0591428"><ele>71.33333333333334</ele><time>2026-04-12T08:44:01.057Z</time></trkpt><trkpt lat="45.2217443" lon="9.0591055"><ele>71.5</ele><time>2026-04-12T08:44:03.038Z</time></trkpt><trkpt lat="45.2217934" lon="9.0590377"><ele>71.66666666666667</ele><time>2026-04-12T08:44:05.044Z</time></trkpt><trkpt lat="45.2218385" lon="9.0589702"><ele>71.83333333333333</ele><time>2026-04-12T08:44:07.037Z</time></trkpt><trkpt lat="45.2218825" lon="9.0588569"><ele>72.0</ele><time>2026-04-12T08:44:10.057Z</time></trkpt><trkpt lat="45.2219706" lon="9.0588137"><ele>70.83333333333333</ele><time>2026-04-12T08:44:13.06Z</time></trkpt><trkpt lat="45.2220556" lon="9.058751"><ele>69.66666666666667</ele><time>2026-04-12T08:44:16.055Z</time></trkpt><trkpt lat="45.2221234" lon="9.0586584"><ele>68.5</ele><time>2026-04-12T08:44:19.064Z</time></trkpt><trkpt lat="45.2221663" lon="9.0585374"><ele>67.33333333333334</ele><time>2026-04-12T08:44:22.053Z</time></trkpt><trkpt lat="45.2221657" lon="9.0584451"><ele>66.16666666666667</ele><time>2026-04-12T08:44:24.055Z</time></trkpt><trkpt lat="45.2222093" lon="9.0583752"><ele>65.0</ele><time>2026-04-12T08:44:26.056Z</time></trkpt><trkpt lat="45.2222733" lon="9.058337"><ele>65.0</ele><time>2026-04-12T08:44:28.059Z</time></trkpt><trkpt lat="45.2223503" lon="9.0582766"><ele>65.0</ele><time>2026-04-12T08:44:31.033Z</time></trkpt><trkpt lat="45.2224145" lon="9.0582391"><ele>65.0</ele><time>2026-04-12T08:44:33.049Z</time></trkpt><trkpt lat="45.2224819" lon="9.0582181"><ele>65.0</ele><time>2026-04-12T08:44:35.038Z</time></trkpt><trkpt lat="45.2225469" lon="9.0581769"><ele>65.0</ele><time>2026-04-12T08:44:37.048Z</time></trkpt><trkpt lat="45.2226223" lon="9.0580999"><ele>65.0</ele><time>2026-04-12T08:44:40.043Z</time></trkpt><trkpt lat="45.2226804" lon="9.0580481"><ele>65.00000000000001</ele><time>2026-04-12T08:44:42.058Z</time></trkpt><trkpt lat="45.2227587" lon="9.0580586"><ele>65.0</ele><time>2026-04-12T08:44:44.031Z</time></trkpt><trkpt lat="45.222836" lon="9.0580759"><ele>65.0</ele><time>2026-04-12T08:44:46.033Z</time></trkpt><trkpt lat="45.2229031" lon="9.0580924"><ele>65.0</ele><time>2026-04-12T08:44:48.054Z</time></trkpt><trkpt lat="45.2229727" lon="9.0580736"><ele>65.0</ele><time>2026-04-12T08:44:50.068Z</time></trkpt><trkpt lat="45.2230396" lon="9.0580436"><ele>65.00000000000001</ele><time>2026-04-12T08:44:52.047Z</time></trkpt><trkpt lat="45.2231057" lon="9.0580464"><ele>65.0</ele><time>2026-04-12T08:44:54.039Z</time></trkpt><trkpt lat="45.2231782" lon="9.0580804"><ele>65.66666666666667</ele><time>2026-04-12T08:44:56.063Z</time></trkpt><trkpt lat="45.2232563" lon="9.058113"><ele>66.33333333333334</ele><time>2026-04-12T08:44:58.055Z</time></trkpt><trkpt lat="45.2233284" lon="9.0581363"><ele>67.0</ele><time>2026-04-12T08:45:00.056Z</time></trkpt><trkpt lat="45.2234044" lon="9.0581601"><ele>67.66666666666667</ele><time>2026-04-12T08:45:02.066Z</time></trkpt><trkpt lat="45.2234763" lon="9.0581833"><ele>68.33333333333333</ele><time>2026-04-12T08:45:04.058Z</time></trkpt><trkpt lat="45.2235635" lon="9.0582042"><ele>69.0</ele><time>2026-04-12T08:45:06.057Z</time></trkpt><trkpt lat="45.2236461" lon="9.0582256"><ele>69.0</ele><time>2026-04-12T08:45:08.053Z</time></trkpt><trkpt lat="45.223734" lon="9.0582404"><ele>69.0</ele><time>2026-04-12T08:45:10.057Z</time></trkpt><trkpt lat="45.2238229" lon="9.0582747"><ele>69.0</ele><time>2026-04-12T08:45:12.049Z</time></trkpt><trkpt lat="45.223927" lon="9.0583012"><ele>69.0</ele><time>2026-04-12T08:45:14.051Z</time></trkpt><trkpt lat="45.2240513" lon="9.0583334"><ele>69.0</ele><time>2026-04-12T08:45:16.048Z</time></trkpt><trkpt lat="45.2241164" lon="9.0583428"><ele>69.83333333333333</ele><time>2026-04-12T08:45:17.047Z</time></trkpt><trkpt lat="45.2241871" lon="9.0583506"><ele>70.66666666666667</ele><time>2026-04-12T08:45:18.064Z</time></trkpt><trkpt lat="45.2242567" lon="9.0583495"><ele>71.5</ele><time>2026-04-12T08:45:19.06Z</time></trkpt><trkpt lat="45.224327" lon="9.0583492"><ele>72.33333333333334</ele><time>2026-04-12T08:45:20.054Z</time></trkpt><trkpt lat="45.2243968" lon="9.0583445"><ele>73.16666666666667</ele><time>2026-04-12T08:45:21.054Z</time></trkpt><trkpt lat="45.2244689" lon="9.0583403"><ele>74.0</ele><time>2026-04-12T08:45:22.05Z</time></trkpt><trkpt lat="45.2245849" lon="9.0583079"><ele>74.0</ele><time>2026-04-12T08:45:24.033Z</time></trkpt><trkpt lat="45.2246792" lon="9.0583421"><ele>74.0</ele><time>2026-04-12T08:45:26.064Z</time></trkpt><trkpt lat="45.2247284" lon="9.0584485"><ele>74.0</ele><time>2026-04-12T08:45:29.036Z</time></trkpt><trkpt lat="45.2247443" lon="9.0585626"><ele>74.0</ele><time>2026-04-12T08:45:32.064Z</time></trkpt><trkpt lat="45.2247376" lon="9.0586703"><ele>74.0</ele><time>2026-04-12T08:45:35.048Z</time></trkpt><trkpt lat="45.2247852" lon="9.0587729"><ele>74.0</ele><time>2026-04-12T08:45:38.028Z</time></trkpt><trkpt lat="45.2248451" lon="9.0587097"><ele>74.16666666666667</ele><time>2026-04-12T08:45:41.061Z</time></trkpt><trkpt lat="45.2249024" lon="9.0586439"><ele>74.33333333333334</ele><time>2026-04-12T08:45:43.062Z</time></trkpt><trkpt lat="45.2249615" lon="9.0585828"><ele>74.5</ele><time>2026-04-12T08:45:45.061Z</time></trkpt><trkpt lat="45.2250115" lon="9.0585249"><ele>74.66666666666667</ele><time>2026-04-12T08:45:47.036Z</time></trkpt><trkpt lat="45.2250681" lon="9.058472"><ele>74.83333333333333</ele><time>2026-04-12T08:45:49.044Z</time></trkpt><trkpt lat="45.2251283" lon="9.0583597"><ele>75.0</ele><time>2026-04-12T08:45:52.049Z</time></trkpt><trkpt lat="45.2251753" lon="9.0582799"><ele>75.0</ele><time>2026-04-12T08:45:54.06Z</time></trkpt><trkpt lat="45.2252211" lon="9.0581829"><ele>75.0</ele><time>2026-04-12T08:45:56.057Z</time></trkpt><trkpt lat="45.2252541" lon="9.0580948"><ele>75.0</ele><time>2026-04-12T08:45:58.056Z</time></trkpt><trkpt lat="45.2252999" lon="9.0579923"><ele>75.0</ele><time>2026-04-12T08:46:00.041Z</time></trkpt><trkpt lat="45.2253474" lon="9.0578923"><ele>75.0</ele><time>2026-04-12T08:46:02.051Z</time></trkpt><trkpt lat="45.2253869" lon="9.0577867"><ele>75.0</ele><time>2026-04-12T08:46:04.033Z</time></trkpt><trkpt lat="45.2254318" lon="9.0576898"><ele>75.0</ele><time>2026-04-12T08:46:06.058Z</time></trkpt><trkpt lat="45.2254772" lon="9.0575875"><ele>75.0</ele><time>2026-04-12T08:46:08.047Z</time></trkpt><trkpt lat="45.2255154" lon="9.0574898"><ele>75.0</ele><time>2026-04-12T08:46:10.058Z</time></trkpt><trkpt lat="45.2255548" lon="9.0573919"><ele>75.0</ele><time>2026-04-12T08:46:12.063Z</time></trkpt><trkpt lat="45.2255915" lon="9.0572992"><ele>75.0</ele><time>2026-04-12T08:46:14.062Z</time></trkpt><trkpt lat="45.225633" lon="9.0571993"><ele>75.0</ele><time>2026-04-12T08:46:16.051Z</time></trkpt><trkpt lat="45.2256767" lon="9.0571118"><ele>75.33333333333333</ele><time>2026-04-12T08:46:18.123Z</time></trkpt><trkpt lat="45.2257262" lon="9.0570291"><ele>75.66666666666667</ele><time>2026-04-12T08:46:20.063Z</time></trkpt><trkpt lat="45.2257576" lon="9.0569361"><ele>76.0</ele><time>2026-04-12T08:46:22.058Z</time></trkpt><trkpt lat="45.2258113" lon="9.0568513"><ele>76.33333333333334</ele><time>2026-04-12T08:46:24.061Z</time></trkpt><trkpt lat="45.2258959" lon="9.0567788"><ele>76.66666666666667</ele><time>2026-04-12T08:46:26.055Z</time></trkpt><trkpt lat="45.2259805" lon="9.0567108"><ele>77.0</ele><time>2026-04-12T08:46:28.071Z</time></trkpt><trkpt lat="45.2260648" lon="9.0566509"><ele>76.5</ele><time>2026-04-12T08:46:30.062Z</time></trkpt><trkpt lat="45.2261503" lon="9.0565872"><ele>76.0</ele><time>2026-04-12T08:46:32.058Z</time></trkpt><trkpt lat="45.2262062" lon="9.056508"><ele>75.5</ele><time>2026-04-12T08:46:34.061Z</time></trkpt><trkpt lat="45.2262469" lon="9.0564134"><ele>75.0</ele><time>2026-04-12T08:46:36.06Z</time></trkpt><trkpt lat="45.2262829" lon="9.0563176"><ele>74.5</ele><time>2026-04-12T08:46:38.032Z</time></trkpt><trkpt lat="45.2263297" lon="9.0562236"><ele>74.0</ele><time>2026-04-12T08:46:40.048Z</time></trkpt><trkpt lat="45.2263772" lon="9.0561079"><ele>74.0</ele><time>2026-04-12T08:46:42.062Z</time></trkpt><trkpt lat="45.2264159" lon="9.0560171"><ele>74.0</ele><time>2026-04-12T08:46:44.028Z</time></trkpt><trkpt lat="45.2264631" lon="9.0559058"><ele>74.0</ele><time>2026-04-12T08:46:46.042Z</time></trkpt><trkpt lat="45.2265028" lon="9.0557947"><ele>74.0</ele><time>2026-04-12T08:46:48.042Z</time></trkpt><trkpt lat="45.2265475" lon="9.0556862"><ele>74.0</ele><time>2026-04-12T08:46:50.039Z</time></trkpt><trkpt lat="45.2265872" lon="9.0555858"><ele>74.0</ele><time>2026-04-12T08:46:52.034Z</time></trkpt><trkpt lat="45.2266219" lon="9.055483"><ele>74.14285714285714</ele><time>2026-04-12T08:46:54.033Z</time></trkpt><trkpt lat="45.2266514" lon="9.0553979"><ele>74.28571428571428</ele><time>2026-04-12T08:46:56.033Z</time></trkpt><trkpt lat="45.2266851" lon="9.055301"><ele>74.42857142857142</ele><time>2026-04-12T08:46:58.068Z</time></trkpt><trkpt lat="45.2267104" lon="9.0552174"><ele>74.57142857142857</ele><time>2026-04-12T08:47:00.051Z</time></trkpt><trkpt lat="45.2267525" lon="9.0551028"><ele>74.71428571428571</ele><time>2026-04-12T08:47:03.031Z</time></trkpt><trkpt lat="45.2267848" lon="9.0550218"><ele>74.85714285714285</ele><time>2026-04-12T08:47:05.055Z</time></trkpt><trkpt lat="45.2268196" lon="9.0549334"><ele>75.0</ele><time>2026-04-12T08:47:07.041Z</time></trkpt><trkpt lat="45.2268502" lon="9.0548422"><ele>75.0</ele><time>2026-04-12T08:47:09.102Z</time></trkpt><trkpt lat="45.226893" lon="9.0547438"><ele>75.0</ele><time>2026-04-12T08:47:11.03Z</time></trkpt><trkpt lat="45.2269318" lon="9.0546505"><ele>75.0</ele><time>2026-04-12T08:47:13.038Z</time></trkpt><trkpt lat="45.2269639" lon="9.0545561"><ele>75.0</ele><time>2026-04-12T08:47:15.058Z</time></trkpt><trkpt lat="45.2269952" lon="9.0544528"><ele>75.0</ele><time>2026-04-12T08:47:17.03Z</time></trkpt><trkpt lat="45.2270229" lon="9.0543595"><ele>75.0</ele><time>2026-04-12T08:47:19.063Z</time></trkpt><trkpt lat="45.2270508" lon="9.0542683"><ele>74.99999999999999</ele><time>2026-04-12T08:47:21.063Z</time></trkpt><trkpt lat="45.2270811" lon="9.054162"><ele>75.0</ele><time>2026-04-12T08:47:23.051Z</time></trkpt><trkpt lat="45.2271162" lon="9.0540627"><ele>75.0</ele><time>2026-04-12T08:47:25.054Z</time></trkpt><trkpt lat="45.2271501" lon="9.0539707"><ele>75.0</ele><time>2026-04-12T08:47:27.052Z</time></trkpt><trkpt lat="45.2271799" lon="9.0538775"><ele>75.0</ele><time>2026-04-12T08:47:29.04Z</time></trkpt><trkpt lat="45.2272139" lon="9.0537881"><ele>74.99999999999999</ele><time>2026-04-12T08:47:31.04Z</time></trkpt><trkpt lat="45.2272497" lon="9.0536971"><ele>75.0</ele><time>2026-04-12T08:47:33.033Z</time></trkpt><trkpt lat="45.2272992" lon="9.0536041"><ele>75.33333333333333</ele><time>2026-04-12T08:47:35.067Z</time></trkpt><trkpt lat="45.2273477" lon="9.053542"><ele>75.66666666666667</ele><time>2026-04-12T08:47:37.03Z</time></trkpt><trkpt lat="45.2274234" lon="9.05351"><ele>76.0</ele><time>2026-04-12T08:47:39.051Z</time></trkpt><trkpt lat="45.2274964" lon="9.0535046"><ele>76.33333333333334</ele><time>2026-04-12T08:47:41.057Z</time></trkpt><trkpt lat="45.2276007" lon="9.0535309"><ele>76.66666666666667</ele><time>2026-04-12T08:47:44.068Z</time></trkpt><trkpt lat="45.2276804" lon="9.0535718"><ele>77.0</ele><time>2026-04-12T08:47:46.052Z</time></trkpt><trkpt lat="45.2277532" lon="9.0536188"><ele>77.0</ele><time>2026-04-12T08:47:48.047Z</time></trkpt><trkpt lat="45.2278156" lon="9.0536571"><ele>77.0</ele><time>2026-04-12T08:47:50.054Z</time></trkpt><trkpt lat="45.2278886" lon="9.0536922"><ele>77.0</ele><time>2026-04-12T08:47:52.048Z</time></trkpt><trkpt lat="45.2279628" lon="9.0537299"><ele>77.0</ele><time>2026-04-12T08:47:54.065Z</time></trkpt><trkpt lat="45.2280261" lon="9.0537755"><ele>77.0</ele><time>2026-04-12T08:47:56.062Z</time></trkpt><trkpt lat="45.2280997" lon="9.0538316"><ele>77.0</ele><time>2026-04-12T08:47:58.066Z</time></trkpt><trkpt lat="45.2281747" lon="9.0538683"><ele>77.33333333333334</ele><time>2026-04-12T08:48:00.11Z</time></trkpt><trkpt lat="45.2282391" lon="9.0539203"><ele>77.66666666666667</ele><time>2026-04-12T08:48:02.052Z</time></trkpt><trkpt lat="45.2283122" lon="9.0539434"><ele>78.0</ele><time>2026-04-12T08:48:04.064Z</time></trkpt><trkpt lat="45.2283867" lon="9.0539289"><ele>78.33333333333333</ele><time>2026-04-12T08:48:06.066Z</time></trkpt><trkpt lat="45.2284367" lon="9.0538278"><ele>78.66666666666666</ele><time>2026-04-12T08:48:09.036Z</time></trkpt><trkpt lat="45.2284743" lon="9.0537321"><ele>79.0</ele><time>2026-04-12T08:48:12.039Z</time></trkpt><trkpt lat="45.2285121" lon="9.0536412"><ele>79.0</ele><time>2026-04-12T08:48:15.073Z</time></trkpt><trkpt lat="45.2284372" lon="9.0536013"><ele>79.0</ele><time>2026-04-12T08:48:18.06Z</time></trkpt><trkpt lat="45.2283393" lon="9.0536084"><ele>79.0</ele><time>2026-04-12T08:48:20.059Z</time></trkpt><trkpt lat="45.2282213" lon="9.0536098"><ele>79.0</ele><time>2026-04-12T08:48:22.065Z</time></trkpt><trkpt lat="45.2281076" lon="9.0535883"><ele>79.0</ele><time>2026-04-12T08:48:24.064Z</time></trkpt><trkpt lat="45.2280532" lon="9.0535406"><ele>78.60000000000001</ele><time>2026-04-12T08:48:25.057Z</time></trkpt><trkpt lat="45.2279506" lon="9.0534593"><ele>78.2</ele><time>2026-04-12T08:48:27.062Z</time></trkpt><trkpt lat="45.2278559" lon="9.0533667"><ele>77.80000000000001</ele><time>2026-04-12T08:48:29.047Z</time></trkpt><trkpt lat="45.2277986" lon="9.0533237"><ele>77.4</ele><time>2026-04-12T08:48:30.057Z</time></trkpt><trkpt lat="45.227702" lon="9.0532468"><ele>77.0</ele><time>2026-04-12T08:48:32.058Z</time></trkpt><trkpt lat="45.2276429" lon="9.053209"><ele>76.0</ele><time>2026-04-12T08:48:33.044Z</time></trkpt><trkpt lat="45.227532" lon="9.0531567"><ele>75.0</ele><time>2026-04-12T08:48:35.06Z</time></trkpt><trkpt lat="45.2274165" lon="9.0531114"><ele>74.0</ele><time>2026-04-12T08:48:37.065Z</time></trkpt><trkpt lat="45.2273526" lon="9.0530848"><ele>73.0</ele><time>2026-04-12T08:48:38.054Z</time></trkpt><trkpt lat="45.2272908" lon="9.0530514"><ele>72.0</ele><time>2026-04-12T08:48:39.06Z</time></trkpt><trkpt lat="45.227229" lon="9.0530162"><ele>71.0</ele><time>2026-04-12T08:48:40.063Z</time></trkpt><trkpt lat="45.2271527" lon="9.0530044"><ele>70.16666666666667</ele><time>2026-04-12T08:48:41.055Z</time></trkpt><trkpt lat="45.2270856" lon="9.0530186"><ele>69.33333333333334</ele><time>2026-04-12T08:48:42.062Z</time></trkpt><trkpt lat="45.2270187" lon="9.0530417"><ele>68.5</ele><time>2026-04-12T08:48:43.04Z</time></trkpt><trkpt lat="45.2269579" lon="9.0530829"><ele>67.66666666666667</ele><time>2026-04-12T08:48:44.032Z</time></trkpt><trkpt lat="45.2268902" lon="9.0531241"><ele>66.83333333333333</ele><time>2026-04-12T08:48:45.037Z</time></trkpt><trkpt lat="45.2267684" lon="9.0531938"><ele>66.0</ele><time>2026-04-12T08:48:47.056Z</time></trkpt><trkpt lat="45.2267014" lon="9.0532075"><ele>66.0</ele><time>2026-04-12T08:48:48.052Z</time></trkpt><trkpt lat="45.2266332" lon="9.053218"><ele>66.0</ele><time>2026-04-12T08:48:49.114Z</time></trkpt><trkpt lat="45.2265654" lon="9.0532269"><ele>66.0</ele><time>2026-04-12T08:48:50.051Z</time></trkpt><trkpt lat="45.226502" lon="9.0532384"><ele>66.0</ele><time>2026-04-12T08:48:51.11Z</time></trkpt><trkpt lat="45.2263729" lon="9.0532632"><ele>66.0</ele><time>2026-04-12T08:48:53.042Z</time></trkpt><trkpt lat="45.2263056" lon="9.0532738"><ele>66.0</ele><time>2026-04-12T08:48:54.031Z</time></trkpt><trkpt lat="45.2261906" lon="9.0532868"><ele>65.2</ele><time>2026-04-12T08:48:56.06Z</time></trkpt><trkpt lat="45.2260889" lon="9.0533026"><ele>64.39999999999999</ele><time>2026-04-12T08:48:58.058Z</time></trkpt><trkpt lat="45.2259878" lon="9.0533184"><ele>63.6</ele><time>2026-04-12T08:49:00.049Z</time></trkpt><trkpt lat="45.225894" lon="9.0533759"><ele>62.8</ele><time>2026-04-12T08:49:02.056Z</time></trkpt><trkpt lat="45.225812" lon="9.0534558"><ele>62.0</ele><time>2026-04-12T08:49:04.063Z</time></trkpt><trkpt lat="45.2257366" lon="9.053526"><ele>62.00000000000001</ele><time>2026-04-12T08:49:06.046Z</time></trkpt><trkpt lat="45.2256749" lon="9.0535888"><ele>62.0</ele><time>2026-04-12T08:49:08.056Z</time></trkpt><trkpt lat="45.2256245" lon="9.0536467"><ele>62.0</ele><time>2026-04-12T08:49:10.031Z</time></trkpt><trkpt lat="45.2255449" lon="9.0537112"><ele>62.0</ele><time>2026-04-12T08:49:13.033Z</time></trkpt><trkpt lat="45.2254971" lon="9.0537727"><ele>62.00000000000001</ele><time>2026-04-12T08:49:15.036Z</time></trkpt><trkpt lat="45.2254324" lon="9.0538297"><ele>62.0</ele><time>2026-04-12T08:49:17.036Z</time></trkpt><trkpt lat="45.2253602" lon="9.0538834"><ele>62.00000000000001</ele><time>2026-04-12T08:49:19.039Z</time></trkpt><trkpt lat="45.2252882" lon="9.0539419"><ele>62.0</ele><time>2026-04-12T08:49:21.036Z</time></trkpt><trkpt lat="45.2252216" lon="9.0539956"><ele>62.0</ele><time>2026-04-12T08:49:23.038Z</time></trkpt><trkpt lat="45.2251634" lon="9.0540596"><ele>62.0</ele><time>2026-04-12T08:49:25.032Z</time></trkpt><trkpt lat="45.225106" lon="9.0541171"><ele>62.00000000000001</ele><time>2026-04-12T08:49:27.036Z</time></trkpt><trkpt lat="45.2250421" lon="9.0541756"><ele>62.0</ele><time>2026-04-12T08:49:29.038Z</time></trkpt><trkpt lat="45.2249844" lon="9.0542411"><ele>62.00000000000001</ele><time>2026-04-12T08:49:31.037Z</time></trkpt><trkpt lat="45.2249205" lon="9.0542978"><ele>62.0</ele><time>2026-04-12T08:49:33.05Z</time></trkpt><trkpt lat="45.2248625" lon="9.0543532"><ele>62.0</ele><time>2026-04-12T08:49:35.049Z</time></trkpt><trkpt lat="45.2247994" lon="9.054406"><ele>62.0</ele><time>2026-04-12T08:49:37.06Z</time></trkpt><trkpt lat="45.2247315" lon="9.0544591"><ele>62.00000000000001</ele><time>2026-04-12T08:49:39.047Z</time></trkpt><trkpt lat="45.2246478" lon="9.0545121"><ele>62.0</ele><time>2026-04-12T08:49:42.054Z</time></trkpt><trkpt lat="45.224587" lon="9.0544867"><ele>62.00000000000001</ele><time>2026-04-12T08:49:45.058Z</time></trkpt><trkpt lat="45.2245567" lon="9.0543852"><ele>62.0</ele><time>2026-04-12T08:49:48.064Z</time></trkpt><trkpt lat="45.224535" lon="9.0542613"><ele>62.0</ele><time>2026-04-12T08:49:51.064Z</time></trkpt><trkpt lat="45.2245245" lon="9.054158"><ele>62.0</ele><time>2026-04-12T08:49:53.067Z</time></trkpt><trkpt lat="45.224519" lon="9.0540453"><ele>62.00000000000001</ele><time>2026-04-12T08:49:55.054Z</time></trkpt><trkpt lat="45.2245197" lon="9.0539506"><ele>62.0</ele><time>2026-04-12T08:49:57.05Z</time></trkpt><trkpt lat="45.2245159" lon="9.0538299"><ele>62.0</ele><time>2026-04-12T08:50:00.044Z</time></trkpt><trkpt lat="45.2245141" lon="9.0537018"><ele>62.00000000000001</ele><time>2026-04-12T08:50:03.039Z</time></trkpt><trkpt lat="45.2245126" lon="9.053601"><ele>62.0</ele><time>2026-04-12T08:50:05.049Z</time></trkpt><trkpt lat="45.2245029" lon="9.053505"><ele>62.0</ele><time>2026-04-12T08:50:07.031Z</time></trkpt><trkpt lat="45.2244988" lon="9.053402"><ele>62.00000000000001</ele><time>2026-04-12T08:50:09.058Z</time></trkpt><trkpt lat="45.224491" lon="9.0533064"><ele>62.0</ele><time>2026-04-12T08:50:11.057Z</time></trkpt><trkpt lat="45.2244871" lon="9.0532107"><ele>62.0</ele><time>2026-04-12T08:50:13.035Z</time></trkpt><trkpt lat="45.2244855" lon="9.0531163"><ele>62.00000000000001</ele><time>2026-04-12T08:50:15.058Z</time></trkpt><trkpt lat="45.2244763" lon="9.0530251"><ele>62.0</ele><time>2026-04-12T08:50:17.132Z</time></trkpt><trkpt lat="45.2244596" lon="9.0529023"><ele>62.0</ele><time>2026-04-12T08:50:20.061Z</time></trkpt><trkpt lat="45.2244442" lon="9.0527906"><ele>62.0</ele><time>2026-04-12T08:50:23.062Z</time></trkpt><trkpt lat="45.2244183" lon="9.0526609"><ele>62.00000000000001</ele><time>2026-04-12T08:50:26.055Z</time></trkpt><trkpt lat="45.2244012" lon="9.0525611"><ele>62.0</ele><time>2026-04-12T08:50:28.051Z</time></trkpt><trkpt lat="45.2243887" lon="9.0524723"><ele>62.28571428571429</ele><time>2026-04-12T08:50:30.052Z</time></trkpt><trkpt lat="45.2243767" lon="9.0523841"><ele>62.57142857142858</ele><time>2026-04-12T08:50:32.055Z</time></trkpt><trkpt lat="45.2243583" lon="9.0522887"><ele>62.85714285714286</ele><time>2026-04-12T08:50:34.057Z</time></trkpt><trkpt lat="45.2243442" lon="9.0521934"><ele>63.14285714285714</ele><time>2026-04-12T08:50:36.053Z</time></trkpt><trkpt lat="45.224323" lon="9.0521005"><ele>63.42857142857142</ele><time>2026-04-12T08:50:38.036Z</time></trkpt><trkpt lat="45.2243263" lon="9.0520077"><ele>63.71428571428571</ele><time>2026-04-12T08:50:40.036Z</time></trkpt><trkpt lat="45.2243143" lon="9.0519015"><ele>64.0</ele><time>2026-04-12T08:50:43.038Z</time></trkpt><trkpt lat="45.2242999" lon="9.0518025"><ele>64.0</ele><time>2026-04-12T08:50:46.033Z</time></trkpt><trkpt lat="45.2242998" lon="9.0517042"><ele>63.99999999999999</ele><time>2026-04-12T08:50:50.041Z</time></trkpt><trkpt lat="45.2242527" lon="9.0516318"><ele>64.0</ele><time>2026-04-12T08:50:54.041Z</time></trkpt><trkpt lat="45.2242499" lon="9.0515275"><ele>64.0</ele><time>2026-04-12T08:50:58.055Z</time></trkpt><trkpt lat="45.2242401" lon="9.0514326"><ele>63.99999999999999</ele><time>2026-04-12T08:51:03.032Z</time></trkpt><trkpt lat="45.2241591" lon="9.0514348"><ele>64.0</ele><time>2026-04-12T08:51:08.031Z</time></trkpt><trkpt lat="45.2240886" lon="9.0514035"><ele>64.0</ele><time>2026-04-12T08:51:12.061Z</time></trkpt><trkpt lat="45.2241266" lon="9.0513093"><ele>64.28571428571428</ele><time>2026-04-12T08:51:17.054Z</time></trkpt><trkpt lat="45.2241778" lon="9.0512341"><ele>64.57142857142857</ele><time>2026-04-12T08:51:21.032Z</time></trkpt><trkpt lat="45.2242299" lon="9.05117"><ele>64.85714285714286</ele><time>2026-04-12T08:51:26.036Z</time></trkpt><trkpt lat="45.2242994" lon="9.0511608"><ele>65.14285714285714</ele><time>2026-04-12T08:51:30.045Z</time></trkpt><trkpt lat="45.224358" lon="9.0510979"><ele>65.42857142857143</ele><time>2026-04-12T08:51:33.055Z</time></trkpt><trkpt lat="45.22439" lon="9.0510129"><ele>65.71428571428571</ele><time>2026-04-12T08:51:37.024Z</time></trkpt><trkpt lat="45.2244269" lon="9.0509166"><ele>66.0</ele><time>2026-04-12T08:51:41.055Z</time></trkpt><trkpt lat="45.2244303" lon="9.0508035"><ele>66.28571428571428</ele><time>2026-04-12T08:51:45.043Z</time></trkpt><trkpt lat="45.224448" lon="9.0507147"><ele>66.57142857142857</ele><time>2026-04-12T08:51:48.042Z</time></trkpt><trkpt lat="45.2244581" lon="9.0505998"><ele>66.85714285714286</ele><time>2026-04-12T08:51:52.034Z</time></trkpt><trkpt lat="45.2244645" lon="9.0505108"><ele>67.14285714285714</ele><time>2026-04-12T08:51:55.068Z</time></trkpt><trkpt lat="45.2244885" lon="9.0503812"><ele>67.42857142857143</ele><time>2026-04-12T08:51:58.056Z</time></trkpt><trkpt lat="45.2245169" lon="9.0502765"><ele>67.71428571428571</ele><time>2026-04-12T08:52:01.059Z</time></trkpt><trkpt lat="45.2245413" lon="9.0501905"><ele>68.0</ele><time>2026-04-12T08:52:03.062Z</time></trkpt><trkpt lat="45.2245656" lon="9.0500816"><ele>68.0</ele><time>2026-04-12T08:52:06.052Z</time></trkpt><trkpt lat="45.2245845" lon="9.0499712"><ele>68.0</ele><time>2026-04-12T08:52:09.037Z</time></trkpt><trkpt lat="45.2246138" lon="9.0498604"><ele>68.0</ele><time>2026-04-12T08:52:12.055Z</time></trkpt><trkpt lat="45.2246415" lon="9.0497446"><ele>68.0</ele><time>2026-04-12T08:52:15.056Z</time></trkpt><trkpt lat="45.2246595" lon="9.0496171"><ele>68.0</ele><time>2026-04-12T08:52:18.051Z</time></trkpt><trkpt lat="45.2246707" lon="9.0494841"><ele>68.0</ele><time>2026-04-12T08:52:21.051Z</time></trkpt><trkpt lat="45.2246765" lon="9.0493794"><ele>67.5</ele><time>2026-04-12T08:52:23.057Z</time></trkpt><trkpt lat="45.2246825" lon="9.0492846"><ele>67.0</ele><time>2026-04-12T08:52:25.031Z</time></trkpt><trkpt lat="45.2246862" lon="9.0491509"><ele>66.5</ele><time>2026-04-12T08:52:28.051Z</time></trkpt><trkpt lat="45.2246902" lon="9.0490256"><ele>66.0</ele><time>2026-04-12T08:52:31.058Z</time></trkpt><trkpt lat="45.2246844" lon="9.0489345"><ele>65.5</ele><time>2026-04-12T08:52:33.051Z</time></trkpt><trkpt lat="45.2246767" lon="9.0488422"><ele>65.0</ele><time>2026-04-12T08:52:35.059Z</time></trkpt><trkpt lat="45.2246602" lon="9.0487141"><ele>65.00000000000001</ele><time>2026-04-12T08:52:38.033Z</time></trkpt><trkpt lat="45.2246377" lon="9.0486004"><ele>65.0</ele><time>2026-04-12T08:52:41.095Z</time></trkpt><trkpt lat="45.2246648" lon="9.048497"><ele>65.0</ele><time>2026-04-12T08:52:44.041Z</time></trkpt><trkpt lat="45.2246956" lon="9.048383"><ele>65.0</ele><time>2026-04-12T08:52:47.034Z</time></trkpt><trkpt lat="45.224721" lon="9.0482979"><ele>65.0</ele><time>2026-04-12T08:52:49.029Z</time></trkpt><trkpt lat="45.224743" lon="9.0482123"><ele>65.00000000000001</ele><time>2026-04-12T08:52:51.041Z</time></trkpt><trkpt lat="45.2247684" lon="9.0481151"><ele>65.0</ele><time>2026-04-12T08:52:53.111Z</time></trkpt><trkpt lat="45.2247973" lon="9.0480241"><ele>65.0</ele><time>2026-04-12T08:52:55.04Z</time></trkpt><trkpt lat="45.2248488" lon="9.047916"><ele>65.0</ele><time>2026-04-12T08:52:58.042Z</time></trkpt><trkpt lat="45.2248769" lon="9.0478286"><ele>65.0</ele><time>2026-04-12T08:53:00.032Z</time></trkpt><trkpt lat="45.224908" lon="9.0477393"><ele>65.0</ele><time>2026-04-12T08:53:02.032Z</time></trkpt><trkpt lat="45.2249548" lon="9.0476607"><ele>65.0</ele><time>2026-04-12T08:53:04.032Z</time></trkpt><trkpt lat="45.2250023" lon="9.0475482"><ele>65.0</ele><time>2026-04-12T08:53:07.035Z</time></trkpt><trkpt lat="45.2250593" lon="9.0474389"><ele>65.00000000000001</ele><time>2026-04-12T08:53:10.04Z</time></trkpt><trkpt lat="45.2250961" lon="9.0473652"><ele>65.0</ele><time>2026-04-12T08:53:12.034Z</time></trkpt><trkpt lat="45.2251339" lon="9.0472846"><ele>65.0</ele><time>2026-04-12T08:53:14.035Z</time></trkpt><trkpt lat="45.2251691" lon="9.0472091"><ele>65.0</ele><time>2026-04-12T08:53:16.118Z</time></trkpt><trkpt lat="45.2252179" lon="9.0471415"><ele>65.0</ele><time>2026-04-12T08:53:18.052Z</time></trkpt><trkpt lat="45.2252642" lon="9.0470732"><ele>65.00000000000001</ele><time>2026-04-12T08:53:20.048Z</time></trkpt><trkpt lat="45.2252882" lon="9.0469693"><ele>65.0</ele><time>2026-04-12T08:53:23.054Z</time></trkpt><trkpt lat="45.2252597" lon="9.0468844"><ele>65.0</ele><time>2026-04-12T08:53:26.026Z</time></trkpt><trkpt lat="45.2252072" lon="9.0468072"><ele>65.0</ele><time>2026-04-12T08:53:29.051Z</time></trkpt><trkpt lat="45.225147" lon="9.0467398"><ele>65.0</ele><time>2026-04-12T08:53:32.063Z</time></trkpt><trkpt lat="45.2251088" lon="9.0466332"><ele>65.0</ele><time>2026-04-12T08:53:35.065Z</time></trkpt><trkpt lat="45.2251331" lon="9.046517"><ele>65.0</ele><time>2026-04-12T08:53:37.068Z</time></trkpt><trkpt lat="45.2251557" lon="9.0464285"><ele>65.0</ele><time>2026-04-12T08:53:39.048Z</time></trkpt><trkpt lat="45.2251819" lon="9.046344"><ele>65.14285714285715</ele><time>2026-04-12T08:53:41.05Z</time></trkpt><trkpt lat="45.2252202" lon="9.0462498"><ele>65.28571428571429</ele><time>2026-04-12T08:53:43.103Z</time></trkpt><trkpt lat="45.2252713" lon="9.046176"><ele>65.42857142857143</ele><time>2026-04-12T08:53:45.046Z</time></trkpt><trkpt lat="45.2253033" lon="9.0460956"><ele>65.57142857142858</ele><time>2026-04-12T08:53:47.034Z</time></trkpt><trkpt lat="45.2253407" lon="9.0460199"><ele>65.71428571428572</ele><time>2026-04-12T08:53:49.037Z</time></trkpt><trkpt lat="45.2253659" lon="9.0459258"><ele>65.85714285714286</ele><time>2026-04-12T08:53:51.025Z</time></trkpt><trkpt lat="45.2253934" lon="9.0458362"><ele>66.0</ele><time>2026-04-12T08:53:53.05Z</time></trkpt><trkpt lat="45.2254209" lon="9.0457434"><ele>66.0</ele><time>2026-04-12T08:53:55.061Z</time></trkpt><trkpt lat="45.2254455" lon="9.0456441"><ele>66.0</ele><time>2026-04-12T08:53:57.03Z</time></trkpt><trkpt lat="45.2254621" lon="9.0455466"><ele>66.0</ele><time>2026-04-12T08:53:59.059Z</time></trkpt><trkpt lat="45.2254802" lon="9.0454529"><ele>66.0</ele><time>2026-04-12T08:54:01.046Z</time></trkpt><trkpt lat="45.2255011" lon="9.04536"><ele>66.0</ele><time>2026-04-12T08:54:03.033Z</time></trkpt><trkpt lat="45.2255308" lon="9.0452415"><ele>66.0</ele><time>2026-04-12T08:54:06.039Z</time></trkpt><trkpt lat="45.2255605" lon="9.0451469"><ele>66.0</ele><time>2026-04-12T08:54:08.041Z</time></trkpt><trkpt lat="45.2255702" lon="9.0450452"><ele>65.66666666666667</ele><time>2026-04-12T08:54:10.032Z</time></trkpt><trkpt lat="45.2255574" lon="9.0449467"><ele>65.33333333333333</ele><time>2026-04-12T08:54:12.048Z</time></trkpt><trkpt lat="45.2255343" lon="9.0448202"><ele>65.0</ele><time>2026-04-12T08:54:15.057Z</time></trkpt><trkpt lat="45.225532" lon="9.04472"><ele>64.66666666666666</ele><time>2026-04-12T08:54:17.06Z</time></trkpt><trkpt lat="45.2255316" lon="9.0446044"><ele>64.33333333333333</ele><time>2026-04-12T08:54:19.048Z</time></trkpt><trkpt lat="45.2255095" lon="9.0445105"><ele>64.0</ele><time>2026-04-12T08:54:21.124Z</time></trkpt><trkpt lat="45.2254688" lon="9.0444264"><ele>64.0</ele><time>2026-04-12T08:54:24.038Z</time></trkpt><trkpt lat="45.2254153" lon="9.0443764"><ele>63.99999999999999</ele><time>2026-04-12T08:54:26.04Z</time></trkpt><trkpt lat="45.2253579" lon="9.0443086"><ele>64.0</ele><time>2026-04-12T08:54:29.032Z</time></trkpt><trkpt lat="45.2253084" lon="9.0442501"><ele>64.0</ele><time>2026-04-12T08:54:32.034Z</time></trkpt><trkpt lat="45.225248" lon="9.0441679"><ele>63.99999999999999</ele><time>2026-04-12T08:54:35.031Z</time></trkpt><trkpt lat="45.2251854" lon="9.0441071"><ele>64.0</ele><time>2026-04-12T08:54:38.035Z</time></trkpt><trkpt lat="45.2251079" lon="9.0441032"><ele>64.0</ele><time>2026-04-12T08:54:41.034Z</time></trkpt><trkpt lat="45.2250462" lon="9.0440806"><ele>63.99999999999999</ele><time>2026-04-12T08:55:02.052Z</time></trkpt><trkpt lat="45.2250044" lon="9.0441494"><ele>64.0</ele><time>2026-04-12T08:55:15.031Z</time></trkpt><trkpt lat="45.2249299" lon="9.0442"><ele>64.0</ele><time>2026-04-12T08:55:20.067Z</time></trkpt><trkpt lat="45.2248571" lon="9.0441777"><ele>64.0</ele><time>2026-04-12T08:55:23.055Z</time></trkpt><trkpt lat="45.2247749" lon="9.0441871"><ele>63.99999999999999</ele><time>2026-04-12T08:55:26.086Z</time></trkpt><trkpt lat="45.2246975" lon="9.0442381"><ele>64.0</ele><time>2026-04-12T08:55:30.064Z</time></trkpt><trkpt lat="45.2246288" lon="9.0441763"><ele>64.28571428571428</ele><time>2026-04-12T08:55:34.05Z</time></trkpt><trkpt lat="45.224608" lon="9.0440915"><ele>64.57142857142857</ele><time>2026-04-12T08:55:36.049Z</time></trkpt><trkpt lat="45.224583" lon="9.044005"><ele>64.85714285714286</ele><time>2026-04-12T08:55:39.051Z</time></trkpt><trkpt lat="45.2245431" lon="9.0439077"><ele>65.14285714285714</ele><time>2026-04-12T08:55:43.05Z</time></trkpt><trkpt lat="45.2245379" lon="9.0437949"><ele>65.42857142857143</ele><time>2026-04-12T08:55:47.047Z</time></trkpt><trkpt lat="45.2244677" lon="9.0437458"><ele>65.71428571428571</ele><time>2026-04-12T08:55:51.033Z</time></trkpt><trkpt lat="45.2244539" lon="9.0436571"><ele>66.0</ele><time>2026-04-12T08:55:55.04Z</time></trkpt><trkpt lat="45.2243856" lon="9.0436061"><ele>66.0</ele><time>2026-04-12T08:55:59.031Z</time></trkpt><trkpt lat="45.2242991" lon="9.0436106"><ele>66.0</ele><time>2026-04-12T08:56:02.037Z</time></trkpt><trkpt lat="45.2242279" lon="9.0435989"><ele>66.0</ele><time>2026-04-12T08:56:05.035Z</time></trkpt><trkpt lat="45.2242538" lon="9.0435014"><ele>66.0</ele><time>2026-04-12T08:56:09.033Z</time></trkpt><trkpt lat="45.2242409" lon="9.0433855"><ele>66.0</ele><time>2026-04-12T08:56:13.037Z</time></trkpt><trkpt lat="45.2242269" lon="9.0432935"><ele>66.0</ele><time>2026-04-12T08:56:16.032Z</time></trkpt><trkpt lat="45.2242206" lon="9.0431787"><ele>66.42857142857143</ele><time>2026-04-12T08:56:20.035Z</time></trkpt><trkpt lat="45.2241952" lon="9.0430882"><ele>66.85714285714286</ele><time>2026-04-12T08:56:23.033Z</time></trkpt><trkpt lat="45.2241353" lon="9.0430456"><ele>67.28571428571429</ele><time>2026-04-12T08:56:26.03Z</time></trkpt><trkpt lat="45.2241162" lon="9.0429478"><ele>67.71428571428572</ele><time>2026-04-12T08:56:30.093Z</time></trkpt><trkpt lat="45.2241084" lon="9.0428531"><ele>68.14285714285715</ele><time>2026-04-12T08:56:33.041Z</time></trkpt><trkpt lat="45.2240757" lon="9.0427625"><ele>68.57142857142857</ele><time>2026-04-12T08:56:36.036Z</time></trkpt><trkpt lat="45.2240221" lon="9.0426689"><ele>69.0</ele><time>2026-04-12T08:56:39.031Z</time></trkpt><trkpt lat="45.2239838" lon="9.0425822"><ele>68.33333333333333</ele><time>2026-04-12T08:56:42.028Z</time></trkpt><trkpt lat="45.2239593" lon="9.0424791"><ele>67.66666666666667</ele><time>2026-04-12T08:56:45.037Z</time></trkpt><trkpt lat="45.2239568" lon="9.0423667"><ele>67.0</ele><time>2026-04-12T08:56:49.039Z</time></trkpt><trkpt lat="45.2239275" lon="9.042258"><ele>66.33333333333334</ele><time>2026-04-12T08:56:53.035Z</time></trkpt><trkpt lat="45.223919" lon="9.0421687"><ele>65.66666666666667</ele><time>2026-04-12T08:56:56.039Z</time></trkpt><trkpt lat="45.2239406" lon="9.0420371"><ele>65.0</ele><time>2026-04-12T08:56:59.027Z</time></trkpt><trkpt lat="45.223945" lon="9.0419315"><ele>64.71428571428572</ele><time>2026-04-12T08:57:02.037Z</time></trkpt><trkpt lat="45.2239481" lon="9.0418401"><ele>64.42857142857143</ele><time>2026-04-12T08:57:04.042Z</time></trkpt><trkpt lat="45.2239427" lon="9.0417501"><ele>64.14285714285714</ele><time>2026-04-12T08:57:06.034Z</time></trkpt><trkpt lat="45.2239131" lon="9.0416482"><ele>63.85714285714286</ele><time>2026-04-12T08:57:09.035Z</time></trkpt><trkpt lat="45.2239039" lon="9.0415545"><ele>63.57142857142857</ele><time>2026-04-12T08:57:12.035Z</time></trkpt><trkpt lat="45.2238622" lon="9.0414434"><ele>63.285714285714285</ele><time>2026-04-12T08:57:15.031Z</time></trkpt><trkpt lat="45.2238394" lon="9.0413518"><ele>63.0</ele><time>2026-04-12T08:57:17.029Z</time></trkpt><trkpt lat="45.2238166" lon="9.0412628"><ele>63.0</ele><time>2026-04-12T08:57:19.027Z</time></trkpt><trkpt lat="45.2238395" lon="9.0411666"><ele>63.0</ele><time>2026-04-12T08:57:22.036Z</time></trkpt><trkpt lat="45.2238665" lon="9.0410757"><ele>63.0</ele><time>2026-04-12T08:57:25.042Z</time></trkpt><trkpt lat="45.2239086" lon="9.0410011"><ele>63.0</ele><time>2026-04-12T08:57:28.036Z</time></trkpt><trkpt lat="45.2239424" lon="9.04092"><ele>63.0</ele><time>2026-04-12T08:57:31.036Z</time></trkpt><trkpt lat="45.2239609" lon="9.0408297"><ele>63.0</ele><time>2026-04-12T08:57:35.033Z</time></trkpt><trkpt lat="45.2240152" lon="9.0407369"><ele>63.0</ele><time>2026-04-12T08:57:39.024Z</time></trkpt><trkpt lat="45.2240619" lon="9.0406631"><ele>63.42857142857143</ele><time>2026-04-12T08:57:42.032Z</time></trkpt><trkpt lat="45.2241273" lon="9.0406206"><ele>63.85714285714286</ele><time>2026-04-12T08:57:46.032Z</time></trkpt><trkpt lat="45.2241858" lon="9.040579"><ele>64.28571428571428</ele><time>2026-04-12T08:57:49.042Z</time></trkpt><trkpt lat="45.2242304" lon="9.0404978"><ele>64.71428571428572</ele><time>2026-04-12T08:57:52.038Z</time></trkpt><trkpt lat="45.2242694" lon="9.0404253"><ele>65.14285714285714</ele><time>2026-04-12T08:57:55.033Z</time></trkpt><trkpt lat="45.2243055" lon="9.0403498"><ele>65.57142857142857</ele><time>2026-04-12T08:57:58.038Z</time></trkpt><trkpt lat="45.2243462" lon="9.0402773"><ele>66.0</ele><time>2026-04-12T08:58:01.037Z</time></trkpt><trkpt lat="45.2243809" lon="9.0401967"><ele>66.0</ele><time>2026-04-12T08:58:04.03Z</time></trkpt><trkpt lat="45.2244277" lon="9.0401274"><ele>66.0</ele><time>2026-04-12T08:58:07.035Z</time></trkpt><trkpt lat="45.2244755" lon="9.0400562"><ele>66.0</ele><time>2026-04-12T08:58:10.041Z</time></trkpt><trkpt lat="45.2245406" lon="9.0400123"><ele>66.0</ele><time>2026-04-12T08:58:13.032Z</time></trkpt><trkpt lat="45.2245838" lon="9.0399246"><ele>66.0</ele><time>2026-04-12T08:58:16.031Z</time></trkpt><trkpt lat="45.2246195" lon="9.0398273"><ele>66.0</ele><time>2026-04-12T08:58:19.033Z</time></trkpt><trkpt lat="45.2246581" lon="9.039732"><ele>66.0</ele><time>2026-04-12T08:58:23.043Z</time></trkpt><trkpt lat="45.2246986" lon="9.0396526"><ele>66.0</ele><time>2026-04-12T08:58:26.04Z</time></trkpt><trkpt lat="45.2247371" lon="9.0395711"><ele>66.0</ele><time>2026-04-12T08:58:29.035Z</time></trkpt><trkpt lat="45.2247681" lon="9.0394807"><ele>66.0</ele><time>2026-04-12T08:58:32.036Z</time></trkpt><trkpt lat="45.2247987" lon="9.0393936"><ele>66.0</ele><time>2026-04-12T08:58:35.038Z</time></trkpt><trkpt lat="45.224863" lon="9.0393295"><ele>66.0</ele><time>2026-04-12T08:58:39.03Z</time></trkpt><trkpt lat="45.2249231" lon="9.0392801"><ele>66.0</ele><time>2026-04-12T08:58:42.04Z</time></trkpt><trkpt lat="45.22499" lon="9.0392285"><ele>66.0</ele><time>2026-04-12T08:58:45.037Z</time></trkpt><trkpt lat="45.2250395" lon="9.0391445"><ele>65.83333333333333</ele><time>2026-04-12T08:58:48.034Z</time></trkpt><trkpt lat="45.2250557" lon="9.0390428"><ele>65.66666666666667</ele><time>2026-04-12T08:58:51.041Z</time></trkpt><trkpt lat="45.2250878" lon="9.0389306"><ele>65.5</ele><time>2026-04-12T08:58:54.097Z</time></trkpt><trkpt lat="45.2251466" lon="9.038834"><ele>65.33333333333334</ele><time>2026-04-12T08:58:57.04Z</time></trkpt><trkpt lat="45.2251996" lon="9.0387353"><ele>65.16666666666667</ele><time>2026-04-12T08:59:00.03Z</time></trkpt><trkpt lat="45.2252437" lon="9.0386163"><ele>65.0</ele><time>2026-04-12T08:59:03.029Z</time></trkpt><trkpt lat="45.2252839" lon="9.0385393"><ele>65.00000000000001</ele><time>2026-04-12T08:59:05.033Z</time></trkpt><trkpt lat="45.2253358" lon="9.0384602"><ele>65.0</ele><time>2026-04-12T08:59:07.108Z</time></trkpt><trkpt lat="45.2253893" lon="9.0383753"><ele>65.0</ele><time>2026-04-12T08:59:09.033Z</time></trkpt><trkpt lat="45.2254363" lon="9.0382983"><ele>65.0</ele><time>2026-04-12T08:59:11.03Z</time></trkpt><trkpt lat="45.2254802" lon="9.038222"><ele>65.0</ele><time>2026-04-12T08:59:13.035Z</time></trkpt><trkpt lat="45.2255214" lon="9.0381427"><ele>65.00000000000001</ele><time>2026-04-12T08:59:15.025Z</time></trkpt><trkpt lat="45.2255667" lon="9.0380711"><ele>65.0</ele><time>2026-04-12T08:59:17.031Z</time></trkpt><trkpt lat="45.2256073" lon="9.0380013"><ele>64.85714285714286</ele><time>2026-04-12T08:59:19.041Z</time></trkpt><trkpt lat="45.2256513" lon="9.0379324"><ele>64.71428571428572</ele><time>2026-04-12T08:59:21.027Z</time></trkpt><trkpt lat="45.2257021" lon="9.0378319"><ele>64.57142857142857</ele><time>2026-04-12T08:59:24.035Z</time></trkpt><trkpt lat="45.2257418" lon="9.0377487"><ele>64.42857142857143</ele><time>2026-04-12T08:59:26.035Z</time></trkpt><trkpt lat="45.2257772" lon="9.0376747"><ele>64.28571428571428</ele><time>2026-04-12T08:59:28.039Z</time></trkpt><trkpt lat="45.2258228" lon="9.037564"><ele>64.14285714285714</ele><time>2026-04-12T08:59:31.032Z</time></trkpt><trkpt lat="45.2258551" lon="9.0374778"><ele>64.0</ele><time>2026-04-12T08:59:33.108Z</time></trkpt><trkpt lat="45.2259046" lon="9.0374001"><ele>63.99999999999999</ele><time>2026-04-12T08:59:35.042Z</time></trkpt><trkpt lat="45.2259588" lon="9.0373171"><ele>64.0</ele><time>2026-04-12T08:59:37.051Z</time></trkpt><trkpt lat="45.2260102" lon="9.037238"><ele>64.0</ele><time>2026-04-12T08:59:39.029Z</time></trkpt><trkpt lat="45.2260579" lon="9.0371767"><ele>64.0</ele><time>2026-04-12T08:59:41.033Z</time></trkpt><trkpt lat="45.2261462" lon="9.0371507"><ele>63.99999999999999</ele><time>2026-04-12T08:59:44.034Z</time></trkpt><trkpt lat="45.2262343" lon="9.0371586"><ele>64.0</ele><time>2026-04-12T08:59:47.036Z</time></trkpt><trkpt lat="45.2263113" lon="9.0371582"><ele>63.99999999999999</ele><time>2026-04-12T08:59:52.036Z</time></trkpt><trkpt lat="45.2263585" lon="9.0370772"><ele>64.0</ele><time>2026-04-12T08:59:55.037Z</time></trkpt><trkpt lat="45.2264108" lon="9.0370005"><ele>64.0</ele><time>2026-04-12T08:59:58.037Z</time></trkpt><trkpt lat="45.2264731" lon="9.0369052"><ele>64.0</ele><time>2026-04-12T09:00:01.037Z</time></trkpt><trkpt lat="45.2265297" lon="9.0368181"><ele>63.99999999999999</ele><time>2026-04-12T09:00:04.039Z</time></trkpt><trkpt lat="45.2265991" lon="9.0368171"><ele>64.0</ele><time>2026-04-12T09:00:07.042Z</time></trkpt><trkpt lat="45.2266687" lon="9.0369056"><ele>63.83333333333333</ele><time>2026-04-12T09:00:10.033Z</time></trkpt><trkpt lat="45.2267142" lon="9.0370012"><ele>63.666666666666664</ele><time>2026-04-12T09:00:12.031Z</time></trkpt><trkpt lat="45.2267693" lon="9.0370937"><ele>63.5</ele><time>2026-04-12T09:00:14.032Z</time></trkpt><trkpt lat="45.2268066" lon="9.0371687"><ele>63.33333333333333</ele><time>2026-04-12T09:00:16.04Z</time></trkpt><trkpt lat="45.2268498" lon="9.0372473"><ele>63.166666666666664</ele><time>2026-04-12T09:00:18.048Z</time></trkpt><trkpt lat="45.2268964" lon="9.0373441"><ele>63.0</ele><time>2026-04-12T09:00:21.033Z</time></trkpt><trkpt lat="45.2269323" lon="9.0374285"><ele>63.5</ele><time>2026-04-12T09:00:23.034Z</time></trkpt><trkpt lat="45.226967" lon="9.037519"><ele>64.0</ele><time>2026-04-12T09:00:25.034Z</time></trkpt><trkpt lat="45.2270141" lon="9.037595"><ele>64.5</ele><time>2026-04-12T09:00:27.057Z</time></trkpt><trkpt lat="45.2270601" lon="9.03768"><ele>65.0</ele><time>2026-04-12T09:00:29.034Z</time></trkpt><trkpt lat="45.2270916" lon="9.0377729"><ele>65.5</ele><time>2026-04-12T09:00:31.028Z</time></trkpt><trkpt lat="45.2271231" lon="9.0378787"><ele>66.0</ele><time>2026-04-12T09:00:33.033Z</time></trkpt><trkpt lat="45.2271637" lon="9.0379751"><ele>66.0</ele><time>2026-04-12T09:00:35.039Z</time></trkpt><trkpt lat="45.2272072" lon="9.0380711"><ele>66.0</ele><time>2026-04-12T09:00:37.041Z</time></trkpt><trkpt lat="45.2272713" lon="9.0381461"><ele>66.0</ele><time>2026-04-12T09:00:39.114Z</time></trkpt><trkpt lat="45.2273301" lon="9.038209"><ele>66.0</ele><time>2026-04-12T09:00:41.034Z</time></trkpt><trkpt lat="45.2273635" lon="9.0382954"><ele>66.0</ele><time>2026-04-12T09:00:44.037Z</time></trkpt><trkpt lat="45.2273399" lon="9.0384026"><ele>66.0</ele><time>2026-04-12T09:00:47.031Z</time></trkpt><trkpt lat="45.2273225" lon="9.0385224"><ele>66.16666666666667</ele><time>2026-04-12T09:00:50.032Z</time></trkpt><trkpt lat="45.2273031" lon="9.0386415"><ele>66.33333333333333</ele><time>2026-04-12T09:00:53.038Z</time></trkpt><trkpt lat="45.2273361" lon="9.0387361"><ele>66.5</ele><time>2026-04-12T09:00:55.034Z</time></trkpt><trkpt lat="45.2274154" lon="9.0387973"><ele>66.66666666666666</ele><time>2026-04-12T09:00:58.038Z</time></trkpt><trkpt lat="45.2274914" lon="9.0388293"><ele>66.83333333333333</ele><time>2026-04-12T09:01:00.043Z</time></trkpt><trkpt lat="45.2275626" lon="9.0388672"><ele>67.0</ele><time>2026-04-12T09:01:02.036Z</time></trkpt><trkpt lat="45.2276293" lon="9.0389034"><ele>67.33333333333333</ele><time>2026-04-12T09:01:04.032Z</time></trkpt><trkpt lat="45.2277114" lon="9.0389409"><ele>67.66666666666666</ele><time>2026-04-12T09:01:06.038Z</time></trkpt><trkpt lat="45.2277842" lon="9.0389884"><ele>68.0</ele><time>2026-04-12T09:01:08.04Z</time></trkpt><trkpt lat="45.2278555" lon="9.039028"><ele>68.33333333333333</ele><time>2026-04-12T09:01:10.035Z</time></trkpt><trkpt lat="45.22793" lon="9.0390447"><ele>68.66666666666667</ele><time>2026-04-12T09:01:12.029Z</time></trkpt><trkpt lat="45.2280015" lon="9.0390552"><ele>69.0</ele><time>2026-04-12T09:01:14.032Z</time></trkpt><trkpt lat="45.2280716" lon="9.0390744"><ele>69.16666666666667</ele><time>2026-04-12T09:01:16.038Z</time></trkpt><trkpt lat="45.2281531" lon="9.0391036"><ele>69.33333333333333</ele><time>2026-04-12T09:01:18.033Z</time></trkpt><trkpt lat="45.2282225" lon="9.0391253"><ele>69.5</ele><time>2026-04-12T09:01:20.037Z</time></trkpt><trkpt lat="45.228295" lon="9.0391402"><ele>69.66666666666666</ele><time>2026-04-12T09:01:22.032Z</time></trkpt><trkpt lat="45.2283667" lon="9.0391664"><ele>69.83333333333333</ele><time>2026-04-12T09:01:24.037Z</time></trkpt><trkpt lat="45.2284361" lon="9.0391998"><ele>70.0</ele><time>2026-04-12T09:01:26.046Z</time></trkpt><trkpt lat="45.2285123" lon="9.0392269"><ele>69.66666666666666</ele><time>2026-04-12T09:01:28.039Z</time></trkpt><trkpt lat="45.228598" lon="9.0392587"><ele>69.33333333333333</ele><time>2026-04-12T09:01:30.031Z</time></trkpt><trkpt lat="45.2286679" lon="9.0392846"><ele>69.0</ele><time>2026-04-12T09:01:32.045Z</time></trkpt><trkpt lat="45.2287444" lon="9.039315"><ele>68.66666666666667</ele><time>2026-04-12T09:01:34.034Z</time></trkpt><trkpt lat="45.2288201" lon="9.0393231"><ele>68.33333333333334</ele><time>2026-04-12T09:01:36.036Z</time></trkpt><trkpt lat="45.2288994" lon="9.0393403"><ele>68.0</ele><time>2026-04-12T09:01:38.041Z</time></trkpt><trkpt lat="45.2289741" lon="9.0393619"><ele>68.16666666666667</ele><time>2026-04-12T09:01:40.112Z</time></trkpt><trkpt lat="45.2290484" lon="9.0393768"><ele>68.33333333333334</ele><time>2026-04-12T09:01:42.04Z</time></trkpt><trkpt lat="45.2291156" lon="9.0394095"><ele>68.5</ele><time>2026-04-12T09:01:44.032Z</time></trkpt><trkpt lat="45.2291566" lon="9.0394828"><ele>68.66666666666667</ele><time>2026-04-12T09:01:46.033Z</time></trkpt><trkpt lat="45.229186" lon="9.0395886"><ele>68.83333333333333</ele><time>2026-04-12T09:01:48.04Z</time></trkpt><trkpt lat="45.2292207" lon="9.0396706"><ele>69.0</ele><time>2026-04-12T09:01:50.033Z</time></trkpt><trkpt lat="45.2293114" lon="9.0397088"><ele>69.0</ele><time>2026-04-12T09:01:53.034Z</time></trkpt><trkpt lat="45.2293959" lon="9.0397057"><ele>69.0</ele><time>2026-04-12T09:01:55.035Z</time></trkpt><trkpt lat="45.2294605" lon="9.0396657"><ele>69.0</ele><time>2026-04-12T09:01:57.034Z</time></trkpt><trkpt lat="45.2295535" lon="9.0396112"><ele>69.0</ele><time>2026-04-12T09:02:00.04Z</time></trkpt><trkpt lat="45.2296137" lon="9.039566"><ele>69.0</ele><time>2026-04-12T09:02:02.043Z</time></trkpt><trkpt lat="45.2296753" lon="9.0395051"><ele>69.0</ele><time>2026-04-12T09:02:04.029Z</time></trkpt><trkpt lat="45.2297588" lon="9.0394501"><ele>68.85714285714286</ele><time>2026-04-12T09:02:06.04Z</time></trkpt><trkpt lat="45.2298232" lon="9.0393844"><ele>68.71428571428572</ele><time>2026-04-12T09:02:08.038Z</time></trkpt><trkpt lat="45.2298743" lon="9.0393233"><ele>68.57142857142857</ele><time>2026-04-12T09:02:10.032Z</time></trkpt><trkpt lat="45.2299346" lon="9.0392533"><ele>68.42857142857143</ele><time>2026-04-12T09:02:12.035Z</time></trkpt><trkpt lat="45.2299914" lon="9.0391834"><ele>68.28571428571428</ele><time>2026-04-12T09:02:14.043Z</time></trkpt><trkpt lat="45.2300495" lon="9.0391378"><ele>68.14285714285714</ele><time>2026-04-12T09:02:16.025Z</time></trkpt><trkpt lat="45.2301165" lon="9.0391502"><ele>68.0</ele><time>2026-04-12T09:02:18.027Z</time></trkpt><trkpt lat="45.2301783" lon="9.0391845"><ele>67.99999999999999</ele><time>2026-04-12T09:02:20.033Z</time></trkpt><trkpt lat="45.2302489" lon="9.0392233"><ele>68.0</ele><time>2026-04-12T09:02:22.034Z</time></trkpt><trkpt lat="45.2303124" lon="9.0392489"><ele>68.0</ele><time>2026-04-12T09:02:24.035Z</time></trkpt><trkpt lat="45.2303768" lon="9.0392742"><ele>68.0</ele><time>2026-04-12T09:02:26.029Z</time></trkpt><trkpt lat="45.2304425" lon="9.0393033"><ele>68.0</ele><time>2026-04-12T09:02:28.031Z</time></trkpt><trkpt lat="45.2305187" lon="9.0393293"><ele>67.99999999999999</ele><time>2026-04-12T09:02:30.031Z</time></trkpt><trkpt lat="45.2305898" lon="9.0393477"><ele>68.0</ele><time>2026-04-12T09:02:32.028Z</time></trkpt><trkpt lat="45.2306595" lon="9.0393683"><ele>67.28571428571428</ele><time>2026-04-12T09:02:34.03Z</time></trkpt><trkpt lat="45.2307357" lon="9.0393916"><ele>66.57142857142857</ele><time>2026-04-12T09:02:36.048Z</time></trkpt><trkpt lat="45.2307965" lon="9.0394229"><ele>65.85714285714286</ele><time>2026-04-12T09:02:38.035Z</time></trkpt><trkpt lat="45.2308672" lon="9.0394455"><ele>65.14285714285714</ele><time>2026-04-12T09:02:40.033Z</time></trkpt><trkpt lat="45.2309313" lon="9.0394592"><ele>64.42857142857143</ele><time>2026-04-12T09:02:42.035Z</time></trkpt><trkpt lat="45.2310039" lon="9.0394929"><ele>63.714285714285715</ele><time>2026-04-12T09:02:44.025Z</time></trkpt><trkpt lat="45.2310791" lon="9.0395249"><ele>63.0</ele><time>2026-04-12T09:02:46.03Z</time></trkpt><trkpt lat="45.2311529" lon="9.0395528"><ele>63.0</ele><time>2026-04-12T09:02:48.038Z</time></trkpt><trkpt lat="45.2312206" lon="9.0395562"><ele>63.0</ele><time>2026-04-12T09:02:50.027Z</time></trkpt><trkpt lat="45.2312847" lon="9.0395416"><ele>63.0</ele><time>2026-04-12T09:02:52.032Z</time></trkpt><trkpt lat="45.2313731" lon="9.0395372"><ele>63.0</ele><time>2026-04-12T09:02:55.026Z</time></trkpt><trkpt lat="45.231445" lon="9.0395712"><ele>63.0</ele><time>2026-04-12T09:02:57.032Z</time></trkpt><trkpt lat="45.2315227" lon="9.0396046"><ele>63.0</ele><time>2026-04-12T09:02:59.031Z</time></trkpt><trkpt lat="45.2316005" lon="9.0396389"><ele>62.85714285714286</ele><time>2026-04-12T09:03:01.039Z</time></trkpt><trkpt lat="45.2316826" lon="9.0396633"><ele>62.714285714285715</ele><time>2026-04-12T09:03:03.042Z</time></trkpt><trkpt lat="45.2317559" lon="9.0396814"><ele>62.57142857142857</ele><time>2026-04-12T09:03:05.035Z</time></trkpt><trkpt lat="45.2318348" lon="9.0396801"><ele>62.42857142857143</ele><time>2026-04-12T09:03:07.041Z</time></trkpt><trkpt lat="45.2319028" lon="9.0396803"><ele>62.28571428571429</ele><time>2026-04-12T09:03:09.039Z</time></trkpt><trkpt lat="45.231974" lon="9.0396588"><ele>62.142857142857146</ele><time>2026-04-12T09:03:11.035Z</time></trkpt><trkpt lat="45.2320335" lon="9.0396171"><ele>62.0</ele><time>2026-04-12T09:03:13.039Z</time></trkpt><trkpt lat="45.2321103" lon="9.0395427"><ele>62.00000000000001</ele><time>2026-04-12T09:03:16.037Z</time></trkpt><trkpt lat="45.232157" lon="9.0394229"><ele>62.0</ele><time>2026-04-12T09:03:19.031Z</time></trkpt><trkpt lat="45.2321931" lon="9.039332"><ele>62.0</ele><time>2026-04-12T09:03:21.026Z</time></trkpt><trkpt lat="45.232214" lon="9.0392364"><ele>62.0</ele><time>2026-04-12T09:03:23.034Z</time></trkpt><trkpt lat="45.2322261" lon="9.0391382"><ele>62.00000000000001</ele><time>2026-04-12T09:03:25.037Z</time></trkpt><trkpt lat="45.232238" lon="9.0390264"><ele>62.0</ele><time>2026-04-12T09:03:27.038Z</time></trkpt><trkpt lat="45.2322437" lon="9.0388941"><ele>61.833333333333336</ele><time>2026-04-12T09:03:29.032Z</time></trkpt><trkpt lat="45.2322649" lon="9.038791"><ele>61.66666666666667</ele><time>2026-04-12T09:03:31.033Z</time></trkpt><trkpt lat="45.2322976" lon="9.0386932"><ele>61.5</ele><time>2026-04-12T09:03:33.034Z</time></trkpt><trkpt lat="45.2323177" lon="9.038588"><ele>61.33333333333333</ele><time>2026-04-12T09:03:35.037Z</time></trkpt><trkpt lat="45.232342" lon="9.0384727"><ele>61.166666666666664</ele><time>2026-04-12T09:03:37.04Z</time></trkpt><trkpt lat="45.2323622" lon="9.0383675"><ele>61.0</ele><time>2026-04-12T09:03:39.042Z</time></trkpt><trkpt lat="45.2323647" lon="9.0382701"><ele>61.166666666666664</ele><time>2026-04-12T09:03:41.032Z</time></trkpt><trkpt lat="45.2323467" lon="9.038156"><ele>61.33333333333333</ele><time>2026-04-12T09:03:43.031Z</time></trkpt><trkpt lat="45.2323102" lon="9.0380552"><ele>61.5</ele><time>2026-04-12T09:03:45.029Z</time></trkpt><trkpt lat="45.2322662" lon="9.0379582"><ele>61.66666666666667</ele><time>2026-04-12T09:03:47.043Z</time></trkpt><trkpt lat="45.2322125" lon="9.0378719"><ele>61.833333333333336</ele><time>2026-04-12T09:03:49.035Z</time></trkpt><trkpt lat="45.2321626" lon="9.0377843"><ele>62.0</ele><time>2026-04-12T09:03:51.035Z</time></trkpt><trkpt lat="45.2321324" lon="9.0376853"><ele>62.00000000000001</ele><time>2026-04-12T09:03:53.104Z</time></trkpt><trkpt lat="45.2321198" lon="9.0375887"><ele>62.0</ele><time>2026-04-12T09:03:55.037Z</time></trkpt><trkpt lat="45.2321112" lon="9.0374865"><ele>62.0</ele><time>2026-04-12T09:03:57.037Z</time></trkpt><trkpt lat="45.2321122" lon="9.0373732"><ele>62.0</ele><time>2026-04-12T09:03:59.033Z</time></trkpt><trkpt lat="45.2321103" lon="9.0372612"><ele>62.00000000000001</ele><time>2026-04-12T09:04:01.044Z</time></trkpt><trkpt lat="45.2321192" lon="9.0371512"><ele>62.0</ele><time>2026-04-12T09:04:03.039Z</time></trkpt><trkpt lat="45.2321331" lon="9.0370428"><ele>62.28571428571429</ele><time>2026-04-12T09:04:05.033Z</time></trkpt><trkpt lat="45.2321669" lon="9.0369441"><ele>62.57142857142858</ele><time>2026-04-12T09:04:07.043Z</time></trkpt><trkpt lat="45.2322139" lon="9.0368494"><ele>62.85714285714286</ele><time>2026-04-12T09:04:09.035Z</time></trkpt><trkpt lat="45.2322454" lon="9.036757"><ele>63.14285714285714</ele><time>2026-04-12T09:04:11.038Z</time></trkpt><trkpt lat="45.2322856" lon="9.0366688"><ele>63.42857142857142</ele><time>2026-04-12T09:04:13.045Z</time></trkpt><trkpt lat="45.2323263" lon="9.0365747"><ele>63.71428571428571</ele><time>2026-04-12T09:04:15.034Z</time></trkpt><trkpt lat="45.2323539" lon="9.036494"><ele>64.0</ele><time>2026-04-12T09:04:17.048Z</time></trkpt><trkpt lat="45.2324006" lon="9.0363937"><ele>64.0</ele><time>2026-04-12T09:04:20.034Z</time></trkpt><trkpt lat="45.2324482" lon="9.036326"><ele>63.99999999999999</ele><time>2026-04-12T09:04:22.042Z</time></trkpt><trkpt lat="45.2324929" lon="9.0362416"><ele>64.0</ele><time>2026-04-12T09:04:24.038Z</time></trkpt><trkpt lat="45.2325419" lon="9.0361516"><ele>64.0</ele><time>2026-04-12T09:04:26.035Z</time></trkpt><trkpt lat="45.2325895" lon="9.0360691"><ele>63.99999999999999</ele><time>2026-04-12T09:04:28.026Z</time></trkpt><trkpt lat="45.2326321" lon="9.0359838"><ele>64.0</ele><time>2026-04-12T09:04:30.031Z</time></trkpt><trkpt lat="45.2326698" lon="9.0359121"><ele>64.0</ele><time>2026-04-12T09:04:32.105Z</time></trkpt><trkpt lat="45.2327057" lon="9.0358374"><ele>64.16666666666666</ele><time>2026-04-12T09:04:34.044Z</time></trkpt><trkpt lat="45.2327386" lon="9.0357554"><ele>64.33333333333333</ele><time>2026-04-12T09:04:36.031Z</time></trkpt><trkpt lat="45.2327779" lon="9.0356604"><ele>64.5</ele><time>2026-04-12T09:04:38.036Z</time></trkpt><trkpt lat="45.2328015" lon="9.0355631"><ele>64.66666666666667</ele><time>2026-04-12T09:04:40.034Z</time></trkpt><trkpt lat="45.2328252" lon="9.0354563"><ele>64.83333333333334</ele><time>2026-04-12T09:04:42.037Z</time></trkpt><trkpt lat="45.2328491" lon="9.0353586"><ele>65.0</ele><time>2026-04-12T09:04:44.027Z</time></trkpt><trkpt lat="45.2328902" lon="9.0352441"><ele>65.00000000000001</ele><time>2026-04-12T09:04:47.033Z</time></trkpt><trkpt lat="45.2329203" lon="9.0351536"><ele>65.0</ele><time>2026-04-12T09:04:49.038Z</time></trkpt><trkpt lat="45.2329439" lon="9.0350584"><ele>65.0</ele><time>2026-04-12T09:04:51.033Z</time></trkpt><trkpt lat="45.2329657" lon="9.0349736"><ele>65.0</ele><time>2026-04-12T09:04:53.036Z</time></trkpt><trkpt lat="45.2330022" lon="9.0348702"><ele>65.0</ele><time>2026-04-12T09:04:55.037Z</time></trkpt><trkpt lat="45.2330426" lon="9.0347718"><ele>65.00000000000001</ele><time>2026-04-12T09:04:57.041Z</time></trkpt><trkpt lat="45.2330911" lon="9.0346876"><ele>65.0</ele><time>2026-04-12T09:04:59.027Z</time></trkpt><trkpt lat="45.233143" lon="9.034592"><ele>65.0</ele><time>2026-04-12T09:05:01.038Z</time></trkpt><trkpt lat="45.2331879" lon="9.0345057"><ele>65.0</ele><time>2026-04-12T09:05:03.036Z</time></trkpt><trkpt lat="45.2332337" lon="9.0343887"><ele>65.0</ele><time>2026-04-12T09:05:05.038Z</time></trkpt><trkpt lat="45.2332909" lon="9.0342758"><ele>65.0</ele><time>2026-04-12T09:05:07.037Z</time></trkpt><trkpt lat="45.2333573" lon="9.0341816"><ele>65.0</ele><time>2026-04-12T09:05:09.028Z</time></trkpt><trkpt lat="45.2334048" lon="9.0341099"><ele>65.0</ele><time>2026-04-12T09:05:11.1Z</time></trkpt><trkpt lat="45.2334751" lon="9.0340493"><ele>64.66666666666667</ele><time>2026-04-12T09:05:13.048Z</time></trkpt><trkpt lat="45.2335351" lon="9.0339836"><ele>64.33333333333334</ele><time>2026-04-12T09:05:15.032Z</time></trkpt><trkpt lat="45.2335903" lon="9.0339193"><ele>64.0</ele><time>2026-04-12T09:05:17.033Z</time></trkpt><trkpt lat="45.23365" lon="9.0338613"><ele>63.66666666666667</ele><time>2026-04-12T09:05:19.029Z</time></trkpt><trkpt lat="45.2337164" lon="9.0338036"><ele>63.333333333333336</ele><time>2026-04-12T09:05:21.051Z</time></trkpt><trkpt lat="45.2337845" lon="9.033737"><ele>63.0</ele><time>2026-04-12T09:05:23.029Z</time></trkpt><trkpt lat="45.2338429" lon="9.0336656"><ele>63.0</ele><time>2026-04-12T09:05:25.062Z</time></trkpt><trkpt lat="45.2339033" lon="9.0336097"><ele>63.0</ele><time>2026-04-12T09:05:27.047Z</time></trkpt><trkpt lat="45.2339522" lon="9.0335413"><ele>63.0</ele><time>2026-04-12T09:05:29.045Z</time></trkpt><trkpt lat="45.2340012" lon="9.0334687"><ele>63.0</ele><time>2026-04-12T09:05:31.057Z</time></trkpt><trkpt lat="45.2340493" lon="9.033387"><ele>63.0</ele><time>2026-04-12T09:05:33.052Z</time></trkpt><trkpt lat="45.2340991" lon="9.0333209"><ele>63.0</ele><time>2026-04-12T09:05:35.117Z</time></trkpt><trkpt lat="45.234157" lon="9.0332521"><ele>63.0</ele><time>2026-04-12T09:05:37.12Z</time></trkpt><trkpt lat="45.2342288" lon="9.0332122"><ele>63.0</ele><time>2026-04-12T09:05:39.04Z</time></trkpt><trkpt lat="45.234301" lon="9.0332003"><ele>63.0</ele><time>2026-04-12T09:05:41.043Z</time></trkpt><trkpt lat="45.2343747" lon="9.0331889"><ele>63.0</ele><time>2026-04-12T09:05:43.05Z</time></trkpt><trkpt lat="45.2344527" lon="9.033193"><ele>63.0</ele><time>2026-04-12T09:05:45.053Z</time></trkpt><trkpt lat="45.2345262" lon="9.0332269"><ele>63.0</ele><time>2026-04-12T09:05:47.048Z</time></trkpt><trkpt lat="45.2345866" lon="9.0332744"><ele>63.0</ele><time>2026-04-12T09:05:49.032Z</time></trkpt><trkpt lat="45.2346528" lon="9.0333263"><ele>63.0</ele><time>2026-04-12T09:05:51.051Z</time></trkpt><trkpt lat="45.2347139" lon="9.0333804"><ele>63.0</ele><time>2026-04-12T09:05:53.047Z</time></trkpt><trkpt lat="45.2347685" lon="9.0334343"><ele>63.0</ele><time>2026-04-12T09:05:55.05Z</time></trkpt><trkpt lat="45.234846" lon="9.0335114"><ele>63.0</ele><time>2026-04-12T09:05:58.047Z</time></trkpt><trkpt lat="45.2349034" lon="9.0335673"><ele>63.0</ele><time>2026-04-12T09:06:00.048Z</time></trkpt><trkpt lat="45.2349644" lon="9.0336145"><ele>63.0</ele><time>2026-04-12T09:06:02.048Z</time></trkpt><trkpt lat="45.2350251" lon="9.0336633"><ele>63.0</ele><time>2026-04-12T09:06:04.046Z</time></trkpt><trkpt lat="45.2350865" lon="9.0337109"><ele>63.0</ele><time>2026-04-12T09:06:06.047Z</time></trkpt><trkpt lat="45.2351453" lon="9.033747"><ele>63.42857142857143</ele><time>2026-04-12T09:06:08.059Z</time></trkpt><trkpt lat="45.2352052" lon="9.033781"><ele>63.85714285714286</ele><time>2026-04-12T09:06:10.069Z</time></trkpt><trkpt lat="45.235263" lon="9.033821"><ele>64.28571428571428</ele><time>2026-04-12T09:06:12.033Z</time></trkpt><trkpt lat="45.2353346" lon="9.0339"><ele>64.71428571428572</ele><time>2026-04-12T09:06:15.063Z</time></trkpt><trkpt lat="45.2353905" lon="9.0339573"><ele>65.14285714285714</ele><time>2026-04-12T09:06:17.06Z</time></trkpt><trkpt lat="45.2354499" lon="9.0340177"><ele>65.57142857142857</ele><time>2026-04-12T09:06:19.054Z</time></trkpt><trkpt lat="45.2355089" lon="9.034064"><ele>66.0</ele><time>2026-04-12T09:06:21.067Z</time></trkpt><trkpt lat="45.2355692" lon="9.0341106"><ele>66.14285714285714</ele><time>2026-04-12T09:06:23.049Z</time></trkpt><trkpt lat="45.2356324" lon="9.0341558"><ele>66.28571428571429</ele><time>2026-04-12T09:06:25.058Z</time></trkpt><trkpt lat="45.2357022" lon="9.0342175"><ele>66.42857142857143</ele><time>2026-04-12T09:06:27.056Z</time></trkpt><trkpt lat="45.235768" lon="9.0342669"><ele>66.57142857142857</ele><time>2026-04-12T09:06:29.058Z</time></trkpt><trkpt lat="45.2358336" lon="9.0343111"><ele>66.71428571428571</ele><time>2026-04-12T09:06:31.054Z</time></trkpt><trkpt lat="45.2358928" lon="9.0343672"><ele>66.85714285714286</ele><time>2026-04-12T09:06:33.059Z</time></trkpt><trkpt lat="45.2359489" lon="9.034426"><ele>67.0</ele><time>2026-04-12T09:06:35.067Z</time></trkpt><trkpt lat="45.2360059" lon="9.034478"><ele>67.0</ele><time>2026-04-12T09:06:37.05Z</time></trkpt><trkpt lat="45.2360603" lon="9.0345353"><ele>67.0</ele><time>2026-04-12T09:06:39.059Z</time></trkpt><trkpt lat="45.2361236" lon="9.0345594"><ele>67.0</ele><time>2026-04-12T09:06:41.046Z</time></trkpt><trkpt lat="45.2361824" lon="9.0345933"><ele>67.0</ele><time>2026-04-12T09:06:43.055Z</time></trkpt><trkpt lat="45.2362467" lon="9.0346424"><ele>67.0</ele><time>2026-04-12T09:06:45.043Z</time></trkpt><trkpt lat="45.2363126" lon="9.0346957"><ele>67.0</ele><time>2026-04-12T09:06:47.028Z</time></trkpt><trkpt lat="45.2363779" lon="9.0347487"><ele>67.0</ele><time>2026-04-12T09:06:49.037Z</time></trkpt><trkpt lat="45.2363965" lon="9.034839"><ele>67.0</ele><time>2026-04-12T09:06:54.043Z</time></trkpt><trkpt lat="45.2364256" lon="9.0349282"><ele>67.0</ele><time>2026-04-12T09:06:57.036Z</time></trkpt><trkpt lat="45.2364969" lon="9.035001"><ele>67.0</ele><time>2026-04-12T09:07:00.041Z</time></trkpt><trkpt lat="45.2365303" lon="9.0350937"><ele>67.0</ele><time>2026-04-12T09:07:03.108Z</time></trkpt><trkpt lat="45.2365899" lon="9.0351844"><ele>67.0</ele><time>2026-04-12T09:07:05.093Z</time></trkpt><trkpt lat="45.2366673" lon="9.0352304"><ele>67.0</ele><time>2026-04-12T09:07:07.031Z</time></trkpt><trkpt lat="45.2367275" lon="9.0352651"><ele>67.33333333333333</ele><time>2026-04-12T09:07:09.027Z</time></trkpt><trkpt lat="45.2367832" lon="9.0353149"><ele>67.66666666666666</ele><time>2026-04-12T09:07:11.038Z</time></trkpt><trkpt lat="45.2368444" lon="9.0353537"><ele>68.0</ele><time>2026-04-12T09:07:13.027Z</time></trkpt><trkpt lat="45.2369285" lon="9.0354096"><ele>68.33333333333333</ele><time>2026-04-12T09:07:16.036Z</time></trkpt><trkpt lat="45.2369914" lon="9.0354573"><ele>68.66666666666667</ele><time>2026-04-12T09:07:18.032Z</time></trkpt><trkpt lat="45.2370602" lon="9.0355055"><ele>69.0</ele><time>2026-04-12T09:07:20.05Z</time></trkpt><trkpt lat="45.2371298" lon="9.0355542"><ele>69.0</ele><time>2026-04-12T09:07:22.058Z</time></trkpt><trkpt lat="45.2371999" lon="9.0356086"><ele>69.0</ele><time>2026-04-12T09:07:24.042Z</time></trkpt><trkpt lat="45.2372646" lon="9.0356596"><ele>69.0</ele><time>2026-04-12T09:07:26.042Z</time></trkpt><trkpt lat="45.2373225" lon="9.0357179"><ele>69.0</ele><time>2026-04-12T09:07:28.057Z</time></trkpt><trkpt lat="45.2373818" lon="9.035809"><ele>69.0</ele><time>2026-04-12T09:07:30.05Z</time></trkpt><trkpt lat="45.237498" lon="9.0359009"><ele>69.0</ele><time>2026-04-12T09:07:32.056Z</time></trkpt><trkpt lat="45.2375526" lon="9.0359676"><ele>68.8</ele><time>2026-04-12T09:07:33.054Z</time></trkpt><trkpt lat="45.2376463" lon="9.0360694"><ele>68.60000000000001</ele><time>2026-04-12T09:07:35.056Z</time></trkpt><trkpt lat="45.2377249" lon="9.0361418"><ele>68.4</ele><time>2026-04-12T09:07:37.051Z</time></trkpt><trkpt lat="45.2378001" lon="9.0362171"><ele>68.2</ele><time>2026-04-12T09:07:39.057Z</time></trkpt><trkpt lat="45.2378696" lon="9.0362869"><ele>68.0</ele><time>2026-04-12T09:07:41.034Z</time></trkpt><trkpt lat="45.2379444" lon="9.0363434"><ele>68.0</ele><time>2026-04-12T09:07:43.042Z</time></trkpt><trkpt lat="45.2380197" lon="9.0364034"><ele>68.0</ele><time>2026-04-12T09:07:45.044Z</time></trkpt><trkpt lat="45.2380945" lon="9.0364619"><ele>68.0</ele><time>2026-04-12T09:07:47.04Z</time></trkpt><trkpt lat="45.2381679" lon="9.036506"><ele>68.0</ele><time>2026-04-12T09:07:49.051Z</time></trkpt><trkpt lat="45.2382577" lon="9.0365083"><ele>68.0</ele><time>2026-04-12T09:07:52.051Z</time></trkpt><trkpt lat="45.2383253" lon="9.0365157"><ele>68.0</ele><time>2026-04-12T09:07:54.11Z</time></trkpt><trkpt lat="45.2384011" lon="9.0365457"><ele>68.66666666666667</ele><time>2026-04-12T09:07:56.033Z</time></trkpt><trkpt lat="45.2384785" lon="9.0365878"><ele>69.33333333333334</ele><time>2026-04-12T09:07:58.045Z</time></trkpt><trkpt lat="45.2385575" lon="9.036643"><ele>70.0</ele><time>2026-04-12T09:08:00.044Z</time></trkpt><trkpt lat="45.2386278" lon="9.0366934"><ele>70.66666666666667</ele><time>2026-04-12T09:08:02.064Z</time></trkpt><trkpt lat="45.2386976" lon="9.0367629"><ele>71.33333333333333</ele><time>2026-04-12T09:08:04.057Z</time></trkpt><trkpt lat="45.2387797" lon="9.0368393"><ele>72.0</ele><time>2026-04-12T09:08:06.057Z</time></trkpt><trkpt lat="45.23885" lon="9.0369071"><ele>72.0</ele><time>2026-04-12T09:08:08.06Z</time></trkpt><trkpt lat="45.2389221" lon="9.0369744"><ele>72.0</ele><time>2026-04-12T09:08:10.048Z</time></trkpt><trkpt lat="45.2390262" lon="9.0370747"><ele>72.0</ele><time>2026-04-12T09:08:12.041Z</time></trkpt><trkpt lat="45.2391012" lon="9.0371434"><ele>72.0</ele><time>2026-04-12T09:08:14.025Z</time></trkpt><trkpt lat="45.2391601" lon="9.0371948"><ele>72.0</ele><time>2026-04-12T09:08:16.056Z</time></trkpt><trkpt lat="45.2392192" lon="9.037243"><ele>72.0</ele><time>2026-04-12T09:08:18.118Z</time></trkpt><trkpt lat="45.2392777" lon="9.0372929"><ele>73.4</ele><time>2026-04-12T09:08:20.041Z</time></trkpt><trkpt lat="45.2393411" lon="9.0373423"><ele>74.80000000000001</ele><time>2026-04-12T09:08:22.051Z</time></trkpt><trkpt lat="45.2394183" lon="9.0374118"><ele>76.2</ele><time>2026-04-12T09:08:24.034Z</time></trkpt><trkpt lat="45.239504" lon="9.0374936"><ele>77.60000000000001</ele><time>2026-04-12T09:08:26.03Z</time></trkpt><trkpt lat="45.2395842" lon="9.0375757"><ele>79.0</ele><time>2026-04-12T09:08:28.032Z</time></trkpt><trkpt lat="45.2396801" lon="9.037665"><ele>79.33333333333333</ele><time>2026-04-12T09:08:30.047Z</time></trkpt><trkpt lat="45.2397449" lon="9.0377262"><ele>79.66666666666666</ele><time>2026-04-12T09:08:31.036Z</time></trkpt><trkpt lat="45.2398006" lon="9.0377795"><ele>80.0</ele><time>2026-04-12T09:08:32.033Z</time></trkpt><trkpt lat="45.2398942" lon="9.0378666"><ele>80.33333333333333</ele><time>2026-04-12T09:08:34.031Z</time></trkpt><trkpt lat="45.2399803" lon="9.0379455"><ele>80.66666666666667</ele><time>2026-04-12T09:08:36.033Z</time></trkpt><trkpt lat="45.2400498" lon="9.0380039"><ele>81.0</ele><time>2026-04-12T09:08:38.033Z</time></trkpt><trkpt lat="45.2401243" lon="9.038075"><ele>81.0</ele><time>2026-04-12T09:08:40.036Z</time></trkpt><trkpt lat="45.2401959" lon="9.038157"><ele>81.0</ele><time>2026-04-12T09:08:42.03Z</time></trkpt><trkpt lat="45.2402429" lon="9.0382274"><ele>81.0</ele><time>2026-04-12T09:08:44.1Z</time></trkpt><trkpt lat="45.2402907" lon="9.0383123"><ele>81.0</ele><time>2026-04-12T09:08:47.04Z</time></trkpt><trkpt lat="45.2403635" lon="9.0383685"><ele>81.0</ele><time>2026-04-12T09:08:50.031Z</time></trkpt><trkpt lat="45.2404447" lon="9.0384509"><ele>81.0</ele><time>2026-04-12T09:08:53.045Z</time></trkpt><trkpt lat="45.2405139" lon="9.0385241"><ele>81.5</ele><time>2026-04-12T09:08:55.062Z</time></trkpt><trkpt lat="45.2405776" lon="9.0385949"><ele>82.0</ele><time>2026-04-12T09:08:57.042Z</time></trkpt><trkpt lat="45.2406312" lon="9.0386433"><ele>82.5</ele><time>2026-04-12T09:08:59.036Z</time></trkpt><trkpt lat="45.2406911" lon="9.0387021"><ele>83.0</ele><time>2026-04-12T09:09:01.034Z</time></trkpt><trkpt lat="45.2407585" lon="9.0387627"><ele>83.5</ele><time>2026-04-12T09:09:03.034Z</time></trkpt><trkpt lat="45.2407738" lon="9.038869"><ele>84.0</ele><time>2026-04-12T09:09:06.028Z</time></trkpt><trkpt lat="45.2407885" lon="9.0389809"><ele>84.0</ele><time>2026-04-12T09:09:10.048Z</time></trkpt><trkpt lat="45.240799" lon="9.0390951"><ele>84.0</ele><time>2026-04-12T09:09:14.061Z</time></trkpt><trkpt lat="45.2407857" lon="9.0392094"><ele>84.0</ele><time>2026-04-12T09:09:17.063Z</time></trkpt><trkpt lat="45.2407805" lon="9.039309"><ele>84.0</ele><time>2026-04-12T09:09:20.048Z</time></trkpt><trkpt lat="45.2407379" lon="9.0394324"><ele>84.0</ele><time>2026-04-12T09:09:23.054Z</time></trkpt><trkpt lat="45.2406659" lon="9.0395031"><ele>84.0</ele><time>2026-04-12T09:09:26.049Z</time></trkpt><trkpt lat="45.2405861" lon="9.0395201"><ele>84.71428571428571</ele><time>2026-04-12T09:09:28.05Z</time></trkpt><trkpt lat="45.2405122" lon="9.0395219"><ele>85.42857142857143</ele><time>2026-04-12T09:09:30.049Z</time></trkpt><trkpt lat="45.2404359" lon="9.039515"><ele>86.14285714285714</ele><time>2026-04-12T09:09:32.041Z</time></trkpt><trkpt lat="45.2403648" lon="9.0395165"><ele>86.85714285714286</ele><time>2026-04-12T09:09:34.126Z</time></trkpt><trkpt lat="45.2402947" lon="9.0395129"><ele>87.57142857142857</ele><time>2026-04-12T09:09:36.114Z</time></trkpt><trkpt lat="45.2402202" lon="9.0395102"><ele>88.28571428571428</ele><time>2026-04-12T09:09:38.043Z</time></trkpt><trkpt lat="45.2401465" lon="9.0395097"><ele>89.0</ele><time>2026-04-12T09:09:40.056Z</time></trkpt><trkpt lat="45.2400799" lon="9.0395065"><ele>88.99999999999999</ele><time>2026-04-12T09:09:42.054Z</time></trkpt><trkpt lat="45.2400121" lon="9.0394914"><ele>89.0</ele><time>2026-04-12T09:09:44.059Z</time></trkpt><trkpt lat="45.2399718" lon="9.0393876"><ele>89.0</ele><time>2026-04-12T09:09:47.046Z</time></trkpt><trkpt lat="45.2399517" lon="9.0392673"><ele>89.0</ele><time>2026-04-12T09:09:50.046Z</time></trkpt><trkpt lat="45.2399049" lon="9.0391861"><ele>89.0</ele><time>2026-04-12T09:09:53.045Z</time></trkpt><trkpt lat="45.2398625" lon="9.0391195"><ele>88.99999999999999</ele><time>2026-04-12T09:09:55.055Z</time></trkpt><trkpt lat="45.2398319" lon="9.0390308"><ele>89.0</ele><time>2026-04-12T09:09:57.049Z</time></trkpt><trkpt lat="45.2397946" lon="9.0389412"><ele>88.66666666666667</ele><time>2026-04-12T09:09:59.043Z</time></trkpt><trkpt lat="45.2397534" lon="9.0388315"><ele>88.33333333333334</ele><time>2026-04-12T09:10:01.057Z</time></trkpt><trkpt lat="45.2397223" lon="9.0387537"><ele>88.0</ele><time>2026-04-12T09:10:03.05Z</time></trkpt><trkpt lat="45.2396819" lon="9.038645"><ele>87.66666666666667</ele><time>2026-04-12T09:10:06.036Z</time></trkpt><trkpt lat="45.2396352" lon="9.0385385"><ele>87.33333333333333</ele><time>2026-04-12T09:10:09.041Z</time></trkpt><trkpt lat="45.239598" lon="9.0384478"><ele>87.0</ele><time>2026-04-12T09:10:11.048Z</time></trkpt><trkpt lat="45.2395524" lon="9.0383493"><ele>86.0</ele><time>2026-04-12T09:10:13.033Z</time></trkpt><trkpt lat="45.239522" lon="9.0382597"><ele>85.0</ele><time>2026-04-12T09:10:15.08Z</time></trkpt><trkpt lat="45.2395074" lon="9.0381426"><ele>84.0</ele><time>2026-04-12T09:10:17.054Z</time></trkpt><trkpt lat="45.2395329" lon="9.0379922"><ele>83.0</ele><time>2026-04-12T09:10:19.041Z</time></trkpt><trkpt lat="45.2395727" lon="9.0379051"><ele>82.0</ele><time>2026-04-12T09:10:20.041Z</time></trkpt><trkpt lat="45.2396132" lon="9.0378128"><ele>81.0</ele><time>2026-04-12T09:10:21.06Z</time></trkpt><trkpt lat="45.2396467" lon="9.0377139"><ele>81.0</ele><time>2026-04-12T09:10:22.056Z</time></trkpt><trkpt lat="45.2396319" lon="9.0375878"><ele>81.0</ele><time>2026-04-12T09:10:24.039Z</time></trkpt><trkpt lat="45.2395594" lon="9.0375081"><ele>81.0</ele><time>2026-04-12T09:10:26.046Z</time></trkpt><trkpt lat="45.2394633" lon="9.037447"><ele>81.0</ele><time>2026-04-12T09:10:28.103Z</time></trkpt><trkpt lat="45.2393816" lon="9.0373644"><ele>81.0</ele><time>2026-04-12T09:10:30.048Z</time></trkpt><trkpt lat="45.2393046" lon="9.0372742"><ele>80.6</ele><time>2026-04-12T09:10:32.033Z</time></trkpt><trkpt lat="45.2392115" lon="9.0371916"><ele>80.19999999999999</ele><time>2026-04-12T09:10:34.042Z</time></trkpt><trkpt lat="45.2391194" lon="9.0371232"><ele>79.80000000000001</ele><time>2026-04-12T09:10:36.034Z</time></trkpt><trkpt lat="45.2390188" lon="9.0370502"><ele>79.4</ele><time>2026-04-12T09:10:38.108Z</time></trkpt><trkpt lat="45.2389609" lon="9.0370136"><ele>79.0</ele><time>2026-04-12T09:10:39.028Z</time></trkpt><trkpt lat="45.2388978" lon="9.0369643"><ele>77.83333333333333</ele><time>2026-04-12T09:10:40.035Z</time></trkpt><trkpt lat="45.2388315" lon="9.0369043"><ele>76.66666666666666</ele><time>2026-04-12T09:10:41.03Z</time></trkpt><trkpt lat="45.2387661" lon="9.0368418"><ele>75.5</ele><time>2026-04-12T09:10:42.029Z</time></trkpt><trkpt lat="45.2386899" lon="9.0367828"><ele>74.33333333333333</ele><time>2026-04-12T09:10:43.036Z</time></trkpt><trkpt lat="45.2386318" lon="9.036729"><ele>73.16666666666667</ele><time>2026-04-12T09:10:44.034Z</time></trkpt><trkpt lat="45.2385686" lon="9.0366798"><ele>72.0</ele><time>2026-04-12T09:10:45.038Z</time></trkpt><trkpt lat="45.2385037" lon="9.036641"><ele>72.0</ele><time>2026-04-12T09:10:46.049Z</time></trkpt><trkpt lat="45.2384414" lon="9.036622"><ele>72.0</ele><time>2026-04-12T09:10:47.025Z</time></trkpt><trkpt lat="45.2383715" lon="9.0366003"><ele>72.0</ele><time>2026-04-12T09:10:48.034Z</time></trkpt><trkpt lat="45.2382537" lon="9.0365398"><ele>72.0</ele><time>2026-04-12T09:10:50.026Z</time></trkpt><trkpt lat="45.2381823" lon="9.0364939"><ele>72.0</ele><time>2026-04-12T09:10:51.033Z</time></trkpt><trkpt lat="45.2381111" lon="9.0364488"><ele>72.0</ele><time>2026-04-12T09:10:52.037Z</time></trkpt><trkpt lat="45.2380455" lon="9.0364002"><ele>71.33333333333333</ele><time>2026-04-12T09:10:53.031Z</time></trkpt><trkpt lat="45.2379743" lon="9.0363384"><ele>70.66666666666667</ele><time>2026-04-12T09:10:54.047Z</time></trkpt><trkpt lat="45.2378992" lon="9.0362833"><ele>70.0</ele><time>2026-04-12T09:10:55.039Z</time></trkpt><trkpt lat="45.2378295" lon="9.0362314"><ele>69.33333333333334</ele><time>2026-04-12T09:10:56.034Z</time></trkpt><trkpt lat="45.237748" lon="9.0361805"><ele>68.66666666666667</ele><time>2026-04-12T09:10:57.039Z</time></trkpt><trkpt lat="45.2376772" lon="9.0361226"><ele>68.0</ele><time>2026-04-12T09:10:58.032Z</time></trkpt><trkpt lat="45.237608" lon="9.036062"><ele>67.99999999999999</ele><time>2026-04-12T09:10:59.041Z</time></trkpt><trkpt lat="45.2375407" lon="9.0360043"><ele>68.0</ele><time>2026-04-12T09:11:00.025Z</time></trkpt><trkpt lat="45.2374747" lon="9.0359437"><ele>68.0</ele><time>2026-04-12T09:11:01.036Z</time></trkpt><trkpt lat="45.2374142" lon="9.0358873"><ele>68.0</ele><time>2026-04-12T09:11:02.041Z</time></trkpt><trkpt lat="45.2373484" lon="9.0358282"><ele>68.0</ele><time>2026-04-12T09:11:03.094Z</time></trkpt><trkpt lat="45.2372833" lon="9.035784"><ele>67.99999999999999</ele><time>2026-04-12T09:11:04.035Z</time></trkpt><trkpt lat="45.2372225" lon="9.035744"><ele>68.0</ele><time>2026-04-12T09:11:05.1Z</time></trkpt><trkpt lat="45.237166" lon="9.0356945"><ele>68.2</ele><time>2026-04-12T09:11:06.031Z</time></trkpt><trkpt lat="45.2370704" lon="9.0356142"><ele>68.4</ele><time>2026-04-12T09:11:08.024Z</time></trkpt><trkpt lat="45.2369808" lon="9.0355438"><ele>68.60000000000001</ele><time>2026-04-12T09:11:10.034Z</time></trkpt><trkpt lat="45.2369065" lon="9.0354669"><ele>68.8</ele><time>2026-04-12T09:11:12.038Z</time></trkpt><trkpt lat="45.2368316" lon="9.0353838"><ele>69.0</ele><time>2026-04-12T09:11:14.027Z</time></trkpt><trkpt lat="45.236758" lon="9.0353416"><ele>69.0</ele><time>2026-04-12T09:11:16.1Z</time></trkpt><trkpt lat="45.2366973" lon="9.0353137"><ele>69.0</ele><time>2026-04-12T09:11:18.091Z</time></trkpt><trkpt lat="45.2366214" lon="9.0353391"><ele>69.0</ele><time>2026-04-12T09:11:21.03Z</time></trkpt><trkpt lat="45.2365645" lon="9.0354262"><ele>69.0</ele><time>2026-04-12T09:11:24.036Z</time></trkpt><trkpt lat="45.2365471" lon="9.0355333"><ele>69.0</ele><time>2026-04-12T09:11:26.031Z</time></trkpt><trkpt lat="45.2365249" lon="9.0356422"><ele>69.0</ele><time>2026-04-12T09:11:28.034Z</time></trkpt><trkpt lat="45.2364881" lon="9.0357499"><ele>68.66666666666667</ele><time>2026-04-12T09:11:30.095Z</time></trkpt><trkpt lat="45.236434" lon="9.0358634"><ele>68.33333333333333</ele><time>2026-04-12T09:11:33.033Z</time></trkpt><trkpt lat="45.2363835" lon="9.0359361"><ele>68.0</ele><time>2026-04-12T09:11:35.028Z</time></trkpt><trkpt lat="45.2363086" lon="9.0360421"><ele>67.66666666666666</ele><time>2026-04-12T09:11:37.047Z</time></trkpt><trkpt lat="45.2362405" lon="9.0361234"><ele>67.33333333333333</ele><time>2026-04-12T09:11:39.041Z</time></trkpt><trkpt lat="45.2361976" lon="9.0361922"><ele>67.0</ele><time>2026-04-12T09:11:41.048Z</time></trkpt><trkpt lat="45.2361282" lon="9.0362794"><ele>67.0</ele><time>2026-04-12T09:11:44.048Z</time></trkpt><trkpt lat="45.2360882" lon="9.036353"><ele>67.0</ele><time>2026-04-12T09:11:46.029Z</time></trkpt><trkpt lat="45.2360367" lon="9.0364181"><ele>67.0</ele><time>2026-04-12T09:11:48.031Z</time></trkpt><trkpt lat="45.2359877" lon="9.0364955"><ele>67.0</ele><time>2026-04-12T09:11:50.03Z</time></trkpt><trkpt lat="45.2359503" lon="9.0366027"><ele>67.0</ele><time>2026-04-12T09:11:52.036Z</time></trkpt><trkpt lat="45.2359121" lon="9.0366856"><ele>67.0</ele><time>2026-04-12T09:11:54.037Z</time></trkpt><trkpt lat="45.235865" lon="9.0367873"><ele>67.0</ele><time>2026-04-12T09:11:57.035Z</time></trkpt><trkpt lat="45.2358047" lon="9.0368855"><ele>66.0</ele><time>2026-04-12T09:12:00.048Z</time></trkpt><trkpt lat="45.2357414" lon="9.0369917"><ele>66.0</ele><time>2026-04-12T09:12:03.048Z</time></trkpt><trkpt lat="45.2356942" lon="9.0370528"><ele>66.0</ele><time>2026-04-12T09:12:05.043Z</time></trkpt><trkpt lat="45.2356349" lon="9.0371522"><ele>67.0</ele><time>2026-04-12T09:12:08.116Z</time></trkpt><trkpt lat="45.2355718" lon="9.0371978"><ele>67.0</ele><time>2026-04-12T09:12:11.057Z</time></trkpt></trkseg></trk></gpx>